<?xml version="1.0" encoding="UTF-8" standalone="no" ?>
<gpx xmlns="http://www.topografix.com/GPX/1/1" xmlns:xsi="http://www.w3.org/2001/XMLSchema-instance" xsi:schemaLocation="http://www.topografix.com/GPX/1/1 http://www.topografix.com/GPX/1/1/gpx.xsd" version="1.1" creator="VisuGPX - https://www.visugpx.com">
  <metadata>
    <name>Tour du Grand Veymont</name>
    <desc><![CDATA[Montée au Gd Veymont par le pas de la Ville, descente face ouest, remontée au pas de la Ville et en bonus montée au sommet coté 2083 avant une redescente d\'abord face W puis bascule face E jusqu\'au départ.]]></desc>
  </metadata>
  <trk>
    <name><![CDATA[Trk032]]></name>
    <trkseg>
      <trkpt lat="44.89219" lon="5.54764">
        <ele>1253</ele>
        <time>2014-02-23T07:13:07Z</time>
      </trkpt>
      <trkpt lat="44.89219" lon="5.5476">
        <ele>1253</ele>
        <time>2014-02-23T07:13:12Z</time>
      </trkpt>
      <trkpt lat="44.89216" lon="5.54753">
        <ele>1254</ele>
        <time>2014-02-23T07:13:17Z</time>
      </trkpt>
      <trkpt lat="44.8921" lon="5.54746">
        <ele>1254</ele>
        <time>2014-02-23T07:13:22Z</time>
      </trkpt>
      <trkpt lat="44.89205" lon="5.54739">
        <ele>1254</ele>
        <time>2014-02-23T07:13:27Z</time>
      </trkpt>
      <trkpt lat="44.89203" lon="5.54735">
        <ele>1255</ele>
        <time>2014-02-23T07:13:32Z</time>
      </trkpt>
      <trkpt lat="44.89203" lon="5.54735">
        <ele>1254</ele>
        <time>2014-02-23T07:13:37Z</time>
      </trkpt>
      <trkpt lat="44.89203" lon="5.54735">
        <ele>1253</ele>
        <time>2014-02-23T07:13:42Z</time>
      </trkpt>
      <trkpt lat="44.89202" lon="5.54736">
        <ele>1253</ele>
        <time>2014-02-23T07:13:47Z</time>
      </trkpt>
      <trkpt lat="44.89202" lon="5.54737">
        <ele>1252</ele>
        <time>2014-02-23T07:13:52Z</time>
      </trkpt>
      <trkpt lat="44.89203" lon="5.54737">
        <ele>1252</ele>
        <time>2014-02-23T07:13:57Z</time>
      </trkpt>
      <trkpt lat="44.89201" lon="5.54736">
        <ele>1252</ele>
        <time>2014-02-23T07:14:02Z</time>
      </trkpt>
      <trkpt lat="44.89196" lon="5.54733">
        <ele>1252</ele>
        <time>2014-02-23T07:14:07Z</time>
      </trkpt>
      <trkpt lat="44.89192" lon="5.5473">
        <ele>1252</ele>
        <time>2014-02-23T07:14:12Z</time>
      </trkpt>
      <trkpt lat="44.89188" lon="5.54727">
        <ele>1253</ele>
        <time>2014-02-23T07:14:17Z</time>
      </trkpt>
      <trkpt lat="44.89186" lon="5.54725">
        <ele>1253</ele>
        <time>2014-02-23T07:14:22Z</time>
      </trkpt>
      <trkpt lat="44.8918" lon="5.54719">
        <ele>1253</ele>
        <time>2014-02-23T07:14:27Z</time>
      </trkpt>
      <trkpt lat="44.89177" lon="5.54712">
        <ele>1254</ele>
        <time>2014-02-23T07:14:32Z</time>
      </trkpt>
      <trkpt lat="44.89174" lon="5.54704">
        <ele>1254</ele>
        <time>2014-02-23T07:14:37Z</time>
      </trkpt>
      <trkpt lat="44.89171" lon="5.54697">
        <ele>1253</ele>
        <time>2014-02-23T07:14:42Z</time>
      </trkpt>
      <trkpt lat="44.89169" lon="5.54689">
        <ele>1254</ele>
        <time>2014-02-23T07:14:47Z</time>
      </trkpt>
      <trkpt lat="44.89167" lon="5.5468">
        <ele>1254</ele>
        <time>2014-02-23T07:14:52Z</time>
      </trkpt>
      <trkpt lat="44.89167" lon="5.54672">
        <ele>1255</ele>
        <time>2014-02-23T07:14:57Z</time>
      </trkpt>
      <trkpt lat="44.89165" lon="5.54665">
        <ele>1255</ele>
        <time>2014-02-23T07:15:02Z</time>
      </trkpt>
      <trkpt lat="44.89164" lon="5.54658">
        <ele>1255</ele>
        <time>2014-02-23T07:15:07Z</time>
      </trkpt>
      <trkpt lat="44.89164" lon="5.54649">
        <ele>1255</ele>
        <time>2014-02-23T07:15:12Z</time>
      </trkpt>
      <trkpt lat="44.89163" lon="5.54641">
        <ele>1255</ele>
        <time>2014-02-23T07:15:17Z</time>
      </trkpt>
      <trkpt lat="44.89163" lon="5.54633">
        <ele>1255</ele>
        <time>2014-02-23T07:15:22Z</time>
      </trkpt>
      <trkpt lat="44.89161" lon="5.54626">
        <ele>1255</ele>
        <time>2014-02-23T07:15:27Z</time>
      </trkpt>
      <trkpt lat="44.8916" lon="5.54619">
        <ele>1255</ele>
        <time>2014-02-23T07:15:32Z</time>
      </trkpt>
      <trkpt lat="44.89158" lon="5.54611">
        <ele>1256</ele>
        <time>2014-02-23T07:15:37Z</time>
      </trkpt>
      <trkpt lat="44.89157" lon="5.54604">
        <ele>1256</ele>
        <time>2014-02-23T07:15:42Z</time>
      </trkpt>
      <trkpt lat="44.89154" lon="5.54597">
        <ele>1256</ele>
        <time>2014-02-23T07:15:47Z</time>
      </trkpt>
      <trkpt lat="44.89151" lon="5.54591">
        <ele>1257</ele>
        <time>2014-02-23T07:15:52Z</time>
      </trkpt>
      <trkpt lat="44.89149" lon="5.54585">
        <ele>1257</ele>
        <time>2014-02-23T07:15:57Z</time>
      </trkpt>
      <trkpt lat="44.89147" lon="5.54578">
        <ele>1257</ele>
        <time>2014-02-23T07:16:02Z</time>
      </trkpt>
      <trkpt lat="44.89145" lon="5.54572">
        <ele>1257</ele>
        <time>2014-02-23T07:16:07Z</time>
      </trkpt>
      <trkpt lat="44.89142" lon="5.54566">
        <ele>1257</ele>
        <time>2014-02-23T07:16:12Z</time>
      </trkpt>
      <trkpt lat="44.89138" lon="5.5456">
        <ele>1257</ele>
        <time>2014-02-23T07:16:17Z</time>
      </trkpt>
      <trkpt lat="44.89135" lon="5.54555">
        <ele>1258</ele>
        <time>2014-02-23T07:16:22Z</time>
      </trkpt>
      <trkpt lat="44.89131" lon="5.5455">
        <ele>1258</ele>
        <time>2014-02-23T07:16:27Z</time>
      </trkpt>
      <trkpt lat="44.89128" lon="5.54545">
        <ele>1259</ele>
        <time>2014-02-23T07:16:32Z</time>
      </trkpt>
      <trkpt lat="44.89123" lon="5.54541">
        <ele>1259</ele>
        <time>2014-02-23T07:16:37Z</time>
      </trkpt>
      <trkpt lat="44.89119" lon="5.54536">
        <ele>1259</ele>
        <time>2014-02-23T07:16:42Z</time>
      </trkpt>
      <trkpt lat="44.89116" lon="5.54532">
        <ele>1260</ele>
        <time>2014-02-23T07:16:47Z</time>
      </trkpt>
      <trkpt lat="44.89113" lon="5.54527">
        <ele>1260</ele>
        <time>2014-02-23T07:16:52Z</time>
      </trkpt>
      <trkpt lat="44.89109" lon="5.54522">
        <ele>1261</ele>
        <time>2014-02-23T07:16:57Z</time>
      </trkpt>
      <trkpt lat="44.89106" lon="5.54517">
        <ele>1261</ele>
        <time>2014-02-23T07:17:02Z</time>
      </trkpt>
      <trkpt lat="44.89103" lon="5.54512">
        <ele>1261</ele>
        <time>2014-02-23T07:17:07Z</time>
      </trkpt>
      <trkpt lat="44.89099" lon="5.54507">
        <ele>1262</ele>
        <time>2014-02-23T07:17:12Z</time>
      </trkpt>
      <trkpt lat="44.89095" lon="5.54502">
        <ele>1262</ele>
        <time>2014-02-23T07:17:17Z</time>
      </trkpt>
      <trkpt lat="44.89092" lon="5.54498">
        <ele>1262</ele>
        <time>2014-02-23T07:17:22Z</time>
      </trkpt>
      <trkpt lat="44.89089" lon="5.54493">
        <ele>1263</ele>
        <time>2014-02-23T07:17:27Z</time>
      </trkpt>
      <trkpt lat="44.89085" lon="5.54488">
        <ele>1264</ele>
        <time>2014-02-23T07:17:32Z</time>
      </trkpt>
      <trkpt lat="44.89082" lon="5.54484">
        <ele>1264</ele>
        <time>2014-02-23T07:17:37Z</time>
      </trkpt>
      <trkpt lat="44.89078" lon="5.54479">
        <ele>1265</ele>
        <time>2014-02-23T07:17:42Z</time>
      </trkpt>
      <trkpt lat="44.89074" lon="5.54475">
        <ele>1265</ele>
        <time>2014-02-23T07:17:47Z</time>
      </trkpt>
      <trkpt lat="44.8907" lon="5.5447">
        <ele>1265</ele>
        <time>2014-02-23T07:17:52Z</time>
      </trkpt>
      <trkpt lat="44.89066" lon="5.54465">
        <ele>1265</ele>
        <time>2014-02-23T07:17:57Z</time>
      </trkpt>
      <trkpt lat="44.89062" lon="5.5446">
        <ele>1265</ele>
        <time>2014-02-23T07:18:02Z</time>
      </trkpt>
      <trkpt lat="44.89058" lon="5.54455">
        <ele>1266</ele>
        <time>2014-02-23T07:18:07Z</time>
      </trkpt>
      <trkpt lat="44.89055" lon="5.54451">
        <ele>1266</ele>
        <time>2014-02-23T07:18:12Z</time>
      </trkpt>
      <trkpt lat="44.89052" lon="5.54446">
        <ele>1266</ele>
        <time>2014-02-23T07:18:17Z</time>
      </trkpt>
      <trkpt lat="44.8905" lon="5.54443">
        <ele>1267</ele>
        <time>2014-02-23T07:18:22Z</time>
      </trkpt>
      <trkpt lat="44.89051" lon="5.54443">
        <ele>1267</ele>
        <time>2014-02-23T07:18:27Z</time>
      </trkpt>
      <trkpt lat="44.89048" lon="5.5444">
        <ele>1267</ele>
        <time>2014-02-23T07:18:32Z</time>
      </trkpt>
      <trkpt lat="44.89046" lon="5.54434">
        <ele>1267</ele>
        <time>2014-02-23T07:18:37Z</time>
      </trkpt>
      <trkpt lat="44.89043" lon="5.54429">
        <ele>1268</ele>
        <time>2014-02-23T07:18:42Z</time>
      </trkpt>
      <trkpt lat="44.8904" lon="5.54423">
        <ele>1268</ele>
        <time>2014-02-23T07:18:47Z</time>
      </trkpt>
      <trkpt lat="44.89037" lon="5.54419">
        <ele>1269</ele>
        <time>2014-02-23T07:18:52Z</time>
      </trkpt>
      <trkpt lat="44.89034" lon="5.54414">
        <ele>1269</ele>
        <time>2014-02-23T07:18:57Z</time>
      </trkpt>
      <trkpt lat="44.89032" lon="5.54409">
        <ele>1270</ele>
        <time>2014-02-23T07:19:02Z</time>
      </trkpt>
      <trkpt lat="44.8903" lon="5.54404">
        <ele>1271</ele>
        <time>2014-02-23T07:19:07Z</time>
      </trkpt>
      <trkpt lat="44.89027" lon="5.54399">
        <ele>1272</ele>
        <time>2014-02-23T07:19:12Z</time>
      </trkpt>
      <trkpt lat="44.89023" lon="5.54395">
        <ele>1272</ele>
        <time>2014-02-23T07:19:17Z</time>
      </trkpt>
      <trkpt lat="44.8902" lon="5.5439">
        <ele>1272</ele>
        <time>2014-02-23T07:19:22Z</time>
      </trkpt>
      <trkpt lat="44.89018" lon="5.54385">
        <ele>1272</ele>
        <time>2014-02-23T07:19:27Z</time>
      </trkpt>
      <trkpt lat="44.89015" lon="5.5438">
        <ele>1273</ele>
        <time>2014-02-23T07:19:32Z</time>
      </trkpt>
      <trkpt lat="44.89011" lon="5.54375">
        <ele>1273</ele>
        <time>2014-02-23T07:19:37Z</time>
      </trkpt>
      <trkpt lat="44.89008" lon="5.5437">
        <ele>1273</ele>
        <time>2014-02-23T07:19:42Z</time>
      </trkpt>
      <trkpt lat="44.89005" lon="5.54365">
        <ele>1274</ele>
        <time>2014-02-23T07:19:47Z</time>
      </trkpt>
      <trkpt lat="44.89002" lon="5.54361">
        <ele>1275</ele>
        <time>2014-02-23T07:19:52Z</time>
      </trkpt>
      <trkpt lat="44.88998" lon="5.54356">
        <ele>1275</ele>
        <time>2014-02-23T07:19:57Z</time>
      </trkpt>
      <trkpt lat="44.88995" lon="5.54351">
        <ele>1275</ele>
        <time>2014-02-23T07:20:02Z</time>
      </trkpt>
      <trkpt lat="44.88992" lon="5.54346">
        <ele>1276</ele>
        <time>2014-02-23T07:20:07Z</time>
      </trkpt>
      <trkpt lat="44.88989" lon="5.54341">
        <ele>1276</ele>
        <time>2014-02-23T07:20:12Z</time>
      </trkpt>
      <trkpt lat="44.88987" lon="5.54337">
        <ele>1277</ele>
        <time>2014-02-23T07:20:17Z</time>
      </trkpt>
      <trkpt lat="44.88984" lon="5.54332">
        <ele>1278</ele>
        <time>2014-02-23T07:20:22Z</time>
      </trkpt>
      <trkpt lat="44.88981" lon="5.54328">
        <ele>1278</ele>
        <time>2014-02-23T07:20:27Z</time>
      </trkpt>
      <trkpt lat="44.88979" lon="5.54323">
        <ele>1279</ele>
        <time>2014-02-23T07:20:32Z</time>
      </trkpt>
      <trkpt lat="44.88977" lon="5.54319">
        <ele>1280</ele>
        <time>2014-02-23T07:20:37Z</time>
      </trkpt>
      <trkpt lat="44.88974" lon="5.54315">
        <ele>1280</ele>
        <time>2014-02-23T07:20:42Z</time>
      </trkpt>
      <trkpt lat="44.88973" lon="5.5431">
        <ele>1281</ele>
        <time>2014-02-23T07:20:47Z</time>
      </trkpt>
      <trkpt lat="44.88971" lon="5.54306">
        <ele>1282</ele>
        <time>2014-02-23T07:20:52Z</time>
      </trkpt>
      <trkpt lat="44.88968" lon="5.54301">
        <ele>1283</ele>
        <time>2014-02-23T07:20:57Z</time>
      </trkpt>
      <trkpt lat="44.88967" lon="5.54297">
        <ele>1283</ele>
        <time>2014-02-23T07:21:02Z</time>
      </trkpt>
      <trkpt lat="44.88965" lon="5.54292">
        <ele>1285</ele>
        <time>2014-02-23T07:21:07Z</time>
      </trkpt>
      <trkpt lat="44.88963" lon="5.54287">
        <ele>1285</ele>
        <time>2014-02-23T07:21:12Z</time>
      </trkpt>
      <trkpt lat="44.88961" lon="5.54282">
        <ele>1287</ele>
        <time>2014-02-23T07:21:17Z</time>
      </trkpt>
      <trkpt lat="44.88958" lon="5.54277">
        <ele>1288</ele>
        <time>2014-02-23T07:21:22Z</time>
      </trkpt>
      <trkpt lat="44.88957" lon="5.54273">
        <ele>1289</ele>
        <time>2014-02-23T07:21:27Z</time>
      </trkpt>
      <trkpt lat="44.88955" lon="5.54268">
        <ele>1290</ele>
        <time>2014-02-23T07:21:32Z</time>
      </trkpt>
      <trkpt lat="44.88952" lon="5.54263">
        <ele>1291</ele>
        <time>2014-02-23T07:21:37Z</time>
      </trkpt>
      <trkpt lat="44.88949" lon="5.54258">
        <ele>1290</ele>
        <time>2014-02-23T07:21:42Z</time>
      </trkpt>
      <trkpt lat="44.88947" lon="5.54254">
        <ele>1291</ele>
        <time>2014-02-23T07:21:47Z</time>
      </trkpt>
      <trkpt lat="44.88945" lon="5.54253">
        <ele>1292</ele>
        <time>2014-02-23T07:21:52Z</time>
      </trkpt>
      <trkpt lat="44.88945" lon="5.54253">
        <ele>1292</ele>
        <time>2014-02-23T07:21:57Z</time>
      </trkpt>
      <trkpt lat="44.88945" lon="5.54252">
        <ele>1292</ele>
        <time>2014-02-23T07:22:02Z</time>
      </trkpt>
      <trkpt lat="44.88944" lon="5.54252">
        <ele>1291</ele>
        <time>2014-02-23T07:22:07Z</time>
      </trkpt>
      <trkpt lat="44.88944" lon="5.54251">
        <ele>1291</ele>
        <time>2014-02-23T07:22:12Z</time>
      </trkpt>
      <trkpt lat="44.88944" lon="5.54251">
        <ele>1290</ele>
        <time>2014-02-23T07:22:17Z</time>
      </trkpt>
      <trkpt lat="44.88944" lon="5.5425">
        <ele>1290</ele>
        <time>2014-02-23T07:22:22Z</time>
      </trkpt>
      <trkpt lat="44.88943" lon="5.54248">
        <ele>1289</ele>
        <time>2014-02-23T07:22:27Z</time>
      </trkpt>
      <trkpt lat="44.88942" lon="5.54247">
        <ele>1289</ele>
        <time>2014-02-23T07:22:32Z</time>
      </trkpt>
      <trkpt lat="44.88941" lon="5.54243">
        <ele>1289</ele>
        <time>2014-02-23T07:22:37Z</time>
      </trkpt>
      <trkpt lat="44.88938" lon="5.54238">
        <ele>1290</ele>
        <time>2014-02-23T07:22:42Z</time>
      </trkpt>
      <trkpt lat="44.88936" lon="5.54233">
        <ele>1291</ele>
        <time>2014-02-23T07:22:47Z</time>
      </trkpt>
      <trkpt lat="44.88934" lon="5.54227">
        <ele>1292</ele>
        <time>2014-02-23T07:22:52Z</time>
      </trkpt>
      <trkpt lat="44.88932" lon="5.54222">
        <ele>1293</ele>
        <time>2014-02-23T07:22:57Z</time>
      </trkpt>
      <trkpt lat="44.88931" lon="5.54219">
        <ele>1294</ele>
        <time>2014-02-23T07:23:02Z</time>
      </trkpt>
      <trkpt lat="44.88929" lon="5.54215">
        <ele>1295</ele>
        <time>2014-02-23T07:23:07Z</time>
      </trkpt>
      <trkpt lat="44.88927" lon="5.5421">
        <ele>1296</ele>
        <time>2014-02-23T07:23:12Z</time>
      </trkpt>
      <trkpt lat="44.88924" lon="5.54205">
        <ele>1298</ele>
        <time>2014-02-23T07:23:17Z</time>
      </trkpt>
      <trkpt lat="44.88923" lon="5.54201">
        <ele>1299</ele>
        <time>2014-02-23T07:23:22Z</time>
      </trkpt>
      <trkpt lat="44.8892" lon="5.54196">
        <ele>1300</ele>
        <time>2014-02-23T07:23:27Z</time>
      </trkpt>
      <trkpt lat="44.88918" lon="5.54192">
        <ele>1302</ele>
        <time>2014-02-23T07:23:32Z</time>
      </trkpt>
      <trkpt lat="44.88916" lon="5.54188">
        <ele>1303</ele>
        <time>2014-02-23T07:23:37Z</time>
      </trkpt>
      <trkpt lat="44.88914" lon="5.54185">
        <ele>1304</ele>
        <time>2014-02-23T07:23:42Z</time>
      </trkpt>
      <trkpt lat="44.88913" lon="5.54185">
        <ele>1304</ele>
        <time>2014-02-23T07:23:47Z</time>
      </trkpt>
      <trkpt lat="44.88912" lon="5.54182">
        <ele>1307</ele>
        <time>2014-02-23T07:23:52Z</time>
      </trkpt>
      <trkpt lat="44.88908" lon="5.54178">
        <ele>1307</ele>
        <time>2014-02-23T07:23:57Z</time>
      </trkpt>
      <trkpt lat="44.88905" lon="5.54174">
        <ele>1308</ele>
        <time>2014-02-23T07:24:02Z</time>
      </trkpt>
      <trkpt lat="44.88902" lon="5.54171">
        <ele>1308</ele>
        <time>2014-02-23T07:24:07Z</time>
      </trkpt>
      <trkpt lat="44.88899" lon="5.54167">
        <ele>1308</ele>
        <time>2014-02-23T07:24:12Z</time>
      </trkpt>
      <trkpt lat="44.88895" lon="5.54163">
        <ele>1308</ele>
        <time>2014-02-23T07:24:17Z</time>
      </trkpt>
      <trkpt lat="44.88893" lon="5.54159">
        <ele>1309</ele>
        <time>2014-02-23T07:24:22Z</time>
      </trkpt>
      <trkpt lat="44.88892" lon="5.54155">
        <ele>1311</ele>
        <time>2014-02-23T07:24:27Z</time>
      </trkpt>
      <trkpt lat="44.88891" lon="5.54151">
        <ele>1312</ele>
        <time>2014-02-23T07:24:32Z</time>
      </trkpt>
      <trkpt lat="44.88888" lon="5.54147">
        <ele>1312</ele>
        <time>2014-02-23T07:24:37Z</time>
      </trkpt>
      <trkpt lat="44.88886" lon="5.54143">
        <ele>1313</ele>
        <time>2014-02-23T07:24:42Z</time>
      </trkpt>
      <trkpt lat="44.88884" lon="5.54138">
        <ele>1314</ele>
        <time>2014-02-23T07:24:47Z</time>
      </trkpt>
      <trkpt lat="44.88882" lon="5.54133">
        <ele>1314</ele>
        <time>2014-02-23T07:24:52Z</time>
      </trkpt>
      <trkpt lat="44.88879" lon="5.54128">
        <ele>1314</ele>
        <time>2014-02-23T07:24:57Z</time>
      </trkpt>
      <trkpt lat="44.88876" lon="5.54123">
        <ele>1314</ele>
        <time>2014-02-23T07:25:02Z</time>
      </trkpt>
      <trkpt lat="44.88875" lon="5.54118">
        <ele>1314</ele>
        <time>2014-02-23T07:25:07Z</time>
      </trkpt>
      <trkpt lat="44.88873" lon="5.54113">
        <ele>1315</ele>
        <time>2014-02-23T07:25:12Z</time>
      </trkpt>
      <trkpt lat="44.88871" lon="5.54107">
        <ele>1315</ele>
        <time>2014-02-23T07:25:17Z</time>
      </trkpt>
      <trkpt lat="44.8887" lon="5.54103">
        <ele>1316</ele>
        <time>2014-02-23T07:25:22Z</time>
      </trkpt>
      <trkpt lat="44.88867" lon="5.54099">
        <ele>1317</ele>
        <time>2014-02-23T07:25:27Z</time>
      </trkpt>
      <trkpt lat="44.88865" lon="5.54095">
        <ele>1318</ele>
        <time>2014-02-23T07:25:32Z</time>
      </trkpt>
      <trkpt lat="44.88862" lon="5.54092">
        <ele>1319</ele>
        <time>2014-02-23T07:25:37Z</time>
      </trkpt>
      <trkpt lat="44.8886" lon="5.54089">
        <ele>1319</ele>
        <time>2014-02-23T07:25:42Z</time>
      </trkpt>
      <trkpt lat="44.88857" lon="5.54085">
        <ele>1321</ele>
        <time>2014-02-23T07:25:47Z</time>
      </trkpt>
      <trkpt lat="44.88855" lon="5.5408">
        <ele>1321</ele>
        <time>2014-02-23T07:25:52Z</time>
      </trkpt>
      <trkpt lat="44.88851" lon="5.54077">
        <ele>1322</ele>
        <time>2014-02-23T07:25:57Z</time>
      </trkpt>
      <trkpt lat="44.88848" lon="5.54074">
        <ele>1323</ele>
        <time>2014-02-23T07:26:02Z</time>
      </trkpt>
      <trkpt lat="44.88846" lon="5.54071">
        <ele>1325</ele>
        <time>2014-02-23T07:26:07Z</time>
      </trkpt>
      <trkpt lat="44.88843" lon="5.54068">
        <ele>1326</ele>
        <time>2014-02-23T07:26:12Z</time>
      </trkpt>
      <trkpt lat="44.88841" lon="5.54064">
        <ele>1327</ele>
        <time>2014-02-23T07:26:17Z</time>
      </trkpt>
      <trkpt lat="44.88838" lon="5.5406">
        <ele>1327</ele>
        <time>2014-02-23T07:26:22Z</time>
      </trkpt>
      <trkpt lat="44.88836" lon="5.54056">
        <ele>1328</ele>
        <time>2014-02-23T07:26:27Z</time>
      </trkpt>
      <trkpt lat="44.88834" lon="5.54054">
        <ele>1328</ele>
        <time>2014-02-23T07:26:32Z</time>
      </trkpt>
      <trkpt lat="44.88832" lon="5.54051">
        <ele>1329</ele>
        <time>2014-02-23T07:26:37Z</time>
      </trkpt>
      <trkpt lat="44.88829" lon="5.54049">
        <ele>1330</ele>
        <time>2014-02-23T07:26:42Z</time>
      </trkpt>
      <trkpt lat="44.88827" lon="5.54045">
        <ele>1331</ele>
        <time>2014-02-23T07:26:47Z</time>
      </trkpt>
      <trkpt lat="44.88825" lon="5.54042">
        <ele>1332</ele>
        <time>2014-02-23T07:26:52Z</time>
      </trkpt>
      <trkpt lat="44.88823" lon="5.54038">
        <ele>1333</ele>
        <time>2014-02-23T07:26:57Z</time>
      </trkpt>
      <trkpt lat="44.88821" lon="5.54036">
        <ele>1334</ele>
        <time>2014-02-23T07:27:02Z</time>
      </trkpt>
      <trkpt lat="44.88818" lon="5.54032">
        <ele>1335</ele>
        <time>2014-02-23T07:27:07Z</time>
      </trkpt>
      <trkpt lat="44.88815" lon="5.54029">
        <ele>1336</ele>
        <time>2014-02-23T07:27:12Z</time>
      </trkpt>
      <trkpt lat="44.88812" lon="5.54027">
        <ele>1336</ele>
        <time>2014-02-23T07:27:17Z</time>
      </trkpt>
      <trkpt lat="44.88809" lon="5.54025">
        <ele>1338</ele>
        <time>2014-02-23T07:27:22Z</time>
      </trkpt>
      <trkpt lat="44.88806" lon="5.54022">
        <ele>1339</ele>
        <time>2014-02-23T07:27:27Z</time>
      </trkpt>
      <trkpt lat="44.88803" lon="5.5402">
        <ele>1339</ele>
        <time>2014-02-23T07:27:32Z</time>
      </trkpt>
      <trkpt lat="44.888" lon="5.54016">
        <ele>1337</ele>
        <time>2014-02-23T07:27:37Z</time>
      </trkpt>
      <trkpt lat="44.88798" lon="5.54014">
        <ele>1338</ele>
        <time>2014-02-23T07:27:42Z</time>
      </trkpt>
      <trkpt lat="44.88795" lon="5.54012">
        <ele>1339</ele>
        <time>2014-02-23T07:27:47Z</time>
      </trkpt>
      <trkpt lat="44.88792" lon="5.54009">
        <ele>1340</ele>
        <time>2014-02-23T07:27:52Z</time>
      </trkpt>
      <trkpt lat="44.88789" lon="5.54007">
        <ele>1341</ele>
        <time>2014-02-23T07:27:57Z</time>
      </trkpt>
      <trkpt lat="44.88785" lon="5.54005">
        <ele>1342</ele>
        <time>2014-02-23T07:28:02Z</time>
      </trkpt>
      <trkpt lat="44.88783" lon="5.54005">
        <ele>1343</ele>
        <time>2014-02-23T07:28:07Z</time>
      </trkpt>
      <trkpt lat="44.88782" lon="5.54006">
        <ele>1344</ele>
        <time>2014-02-23T07:28:12Z</time>
      </trkpt>
      <trkpt lat="44.88781" lon="5.54006">
        <ele>1344</ele>
        <time>2014-02-23T07:28:17Z</time>
      </trkpt>
      <trkpt lat="44.8878" lon="5.54003">
        <ele>1343</ele>
        <time>2014-02-23T07:28:22Z</time>
      </trkpt>
      <trkpt lat="44.88778" lon="5.54001">
        <ele>1344</ele>
        <time>2014-02-23T07:28:27Z</time>
      </trkpt>
      <trkpt lat="44.88776" lon="5.53998">
        <ele>1345</ele>
        <time>2014-02-23T07:28:32Z</time>
      </trkpt>
      <trkpt lat="44.88773" lon="5.53995">
        <ele>1346</ele>
        <time>2014-02-23T07:28:37Z</time>
      </trkpt>
      <trkpt lat="44.88771" lon="5.53992">
        <ele>1347</ele>
        <time>2014-02-23T07:28:42Z</time>
      </trkpt>
      <trkpt lat="44.88769" lon="5.5399">
        <ele>1348</ele>
        <time>2014-02-23T07:28:47Z</time>
      </trkpt>
      <trkpt lat="44.88767" lon="5.53987">
        <ele>1349</ele>
        <time>2014-02-23T07:28:52Z</time>
      </trkpt>
      <trkpt lat="44.88765" lon="5.53985">
        <ele>1350</ele>
        <time>2014-02-23T07:28:57Z</time>
      </trkpt>
      <trkpt lat="44.88761" lon="5.53985">
        <ele>1351</ele>
        <time>2014-02-23T07:29:02Z</time>
      </trkpt>
      <trkpt lat="44.88757" lon="5.53985">
        <ele>1352</ele>
        <time>2014-02-23T07:29:07Z</time>
      </trkpt>
      <trkpt lat="44.88755" lon="5.53984">
        <ele>1353</ele>
        <time>2014-02-23T07:29:12Z</time>
      </trkpt>
      <trkpt lat="44.88755" lon="5.53983">
        <ele>1355</ele>
        <time>2014-02-23T07:29:17Z</time>
      </trkpt>
      <trkpt lat="44.88752" lon="5.53983">
        <ele>1355</ele>
        <time>2014-02-23T07:29:22Z</time>
      </trkpt>
      <trkpt lat="44.88749" lon="5.53983">
        <ele>1356</ele>
        <time>2014-02-23T07:29:27Z</time>
      </trkpt>
      <trkpt lat="44.88745" lon="5.53984">
        <ele>1357</ele>
        <time>2014-02-23T07:29:32Z</time>
      </trkpt>
      <trkpt lat="44.88743" lon="5.53985">
        <ele>1359</ele>
        <time>2014-02-23T07:29:37Z</time>
      </trkpt>
      <trkpt lat="44.8874" lon="5.53985">
        <ele>1360</ele>
        <time>2014-02-23T07:29:42Z</time>
      </trkpt>
      <trkpt lat="44.88737" lon="5.53984">
        <ele>1361</ele>
        <time>2014-02-23T07:29:47Z</time>
      </trkpt>
      <trkpt lat="44.88736" lon="5.53981">
        <ele>1362</ele>
        <time>2014-02-23T07:29:52Z</time>
      </trkpt>
      <trkpt lat="44.88733" lon="5.53978">
        <ele>1361</ele>
        <time>2014-02-23T07:29:57Z</time>
      </trkpt>
      <trkpt lat="44.88732" lon="5.53975">
        <ele>1362</ele>
        <time>2014-02-23T07:30:02Z</time>
      </trkpt>
      <trkpt lat="44.8873" lon="5.53972">
        <ele>1362</ele>
        <time>2014-02-23T07:30:07Z</time>
      </trkpt>
      <trkpt lat="44.88727" lon="5.53968">
        <ele>1361</ele>
        <time>2014-02-23T07:30:12Z</time>
      </trkpt>
      <trkpt lat="44.88727" lon="5.53965">
        <ele>1362</ele>
        <time>2014-02-23T07:30:17Z</time>
      </trkpt>
      <trkpt lat="44.88726" lon="5.53962">
        <ele>1364</ele>
        <time>2014-02-23T07:30:22Z</time>
      </trkpt>
      <trkpt lat="44.88724" lon="5.53959">
        <ele>1365</ele>
        <time>2014-02-23T07:30:27Z</time>
      </trkpt>
      <trkpt lat="44.88722" lon="5.53956">
        <ele>1365</ele>
        <time>2014-02-23T07:30:32Z</time>
      </trkpt>
      <trkpt lat="44.8872" lon="5.53952">
        <ele>1364</ele>
        <time>2014-02-23T07:30:37Z</time>
      </trkpt>
      <trkpt lat="44.88718" lon="5.53948">
        <ele>1365</ele>
        <time>2014-02-23T07:30:42Z</time>
      </trkpt>
      <trkpt lat="44.88717" lon="5.53944">
        <ele>1365</ele>
        <time>2014-02-23T07:30:47Z</time>
      </trkpt>
      <trkpt lat="44.88715" lon="5.53941">
        <ele>1366</ele>
        <time>2014-02-23T07:30:52Z</time>
      </trkpt>
      <trkpt lat="44.88714" lon="5.53938">
        <ele>1367</ele>
        <time>2014-02-23T07:30:57Z</time>
      </trkpt>
      <trkpt lat="44.88712" lon="5.53934">
        <ele>1368</ele>
        <time>2014-02-23T07:31:02Z</time>
      </trkpt>
      <trkpt lat="44.88711" lon="5.53932">
        <ele>1370</ele>
        <time>2014-02-23T07:31:07Z</time>
      </trkpt>
      <trkpt lat="44.88709" lon="5.5393">
        <ele>1371</ele>
        <time>2014-02-23T07:31:12Z</time>
      </trkpt>
      <trkpt lat="44.88707" lon="5.53928">
        <ele>1372</ele>
        <time>2014-02-23T07:31:17Z</time>
      </trkpt>
      <trkpt lat="44.88706" lon="5.53926">
        <ele>1373</ele>
        <time>2014-02-23T07:31:22Z</time>
      </trkpt>
      <trkpt lat="44.88705" lon="5.53922">
        <ele>1374</ele>
        <time>2014-02-23T07:31:27Z</time>
      </trkpt>
      <trkpt lat="44.88703" lon="5.53919">
        <ele>1374</ele>
        <time>2014-02-23T07:31:32Z</time>
      </trkpt>
      <trkpt lat="44.88701" lon="5.53916">
        <ele>1375</ele>
        <time>2014-02-23T07:31:37Z</time>
      </trkpt>
      <trkpt lat="44.88697" lon="5.53913">
        <ele>1377</ele>
        <time>2014-02-23T07:31:42Z</time>
      </trkpt>
      <trkpt lat="44.88695" lon="5.53912">
        <ele>1379</ele>
        <time>2014-02-23T07:31:47Z</time>
      </trkpt>
      <trkpt lat="44.88691" lon="5.53909">
        <ele>1379</ele>
        <time>2014-02-23T07:31:52Z</time>
      </trkpt>
      <trkpt lat="44.88688" lon="5.53907">
        <ele>1380</ele>
        <time>2014-02-23T07:31:57Z</time>
      </trkpt>
      <trkpt lat="44.88685" lon="5.53905">
        <ele>1379</ele>
        <time>2014-02-23T07:32:02Z</time>
      </trkpt>
      <trkpt lat="44.88681" lon="5.53901">
        <ele>1378</ele>
        <time>2014-02-23T07:32:07Z</time>
      </trkpt>
      <trkpt lat="44.8868" lon="5.53898">
        <ele>1378</ele>
        <time>2014-02-23T07:32:12Z</time>
      </trkpt>
      <trkpt lat="44.88678" lon="5.53896">
        <ele>1379</ele>
        <time>2014-02-23T07:32:17Z</time>
      </trkpt>
      <trkpt lat="44.88675" lon="5.53892">
        <ele>1379</ele>
        <time>2014-02-23T07:32:22Z</time>
      </trkpt>
      <trkpt lat="44.88673" lon="5.53888">
        <ele>1378</ele>
        <time>2014-02-23T07:32:27Z</time>
      </trkpt>
      <trkpt lat="44.88671" lon="5.53883">
        <ele>1378</ele>
        <time>2014-02-23T07:32:32Z</time>
      </trkpt>
      <trkpt lat="44.88671" lon="5.53882">
        <ele>1378</ele>
        <time>2014-02-23T07:32:37Z</time>
      </trkpt>
      <trkpt lat="44.8867" lon="5.53881">
        <ele>1378</ele>
        <time>2014-02-23T07:32:42Z</time>
      </trkpt>
      <trkpt lat="44.88671" lon="5.53882">
        <ele>1378</ele>
        <time>2014-02-23T07:32:47Z</time>
      </trkpt>
      <trkpt lat="44.8867" lon="5.53879">
        <ele>1377</ele>
        <time>2014-02-23T07:32:52Z</time>
      </trkpt>
      <trkpt lat="44.88668" lon="5.53875">
        <ele>1377</ele>
        <time>2014-02-23T07:32:57Z</time>
      </trkpt>
      <trkpt lat="44.88667" lon="5.53872">
        <ele>1377</ele>
        <time>2014-02-23T07:33:02Z</time>
      </trkpt>
      <trkpt lat="44.88667" lon="5.53868">
        <ele>1376</ele>
        <time>2014-02-23T07:33:07Z</time>
      </trkpt>
      <trkpt lat="44.88663" lon="5.53865">
        <ele>1383</ele>
        <time>2014-02-23T07:34:57Z</time>
      </trkpt>
      <trkpt lat="44.88661" lon="5.53862">
        <ele>1383</ele>
        <time>2014-02-23T07:35:02Z</time>
      </trkpt>
      <trkpt lat="44.88659" lon="5.53859">
        <ele>1383</ele>
        <time>2014-02-23T07:35:07Z</time>
      </trkpt>
      <trkpt lat="44.88656" lon="5.53856">
        <ele>1384</ele>
        <time>2014-02-23T07:35:12Z</time>
      </trkpt>
      <trkpt lat="44.88654" lon="5.53853">
        <ele>1384</ele>
        <time>2014-02-23T07:35:17Z</time>
      </trkpt>
      <trkpt lat="44.88653" lon="5.5385">
        <ele>1383</ele>
        <time>2014-02-23T07:35:22Z</time>
      </trkpt>
      <trkpt lat="44.8865" lon="5.53847">
        <ele>1383</ele>
        <time>2014-02-23T07:35:27Z</time>
      </trkpt>
      <trkpt lat="44.88648" lon="5.53844">
        <ele>1384</ele>
        <time>2014-02-23T07:35:32Z</time>
      </trkpt>
      <trkpt lat="44.88646" lon="5.53841">
        <ele>1385</ele>
        <time>2014-02-23T07:35:37Z</time>
      </trkpt>
      <trkpt lat="44.88643" lon="5.53838">
        <ele>1384</ele>
        <time>2014-02-23T07:35:42Z</time>
      </trkpt>
      <trkpt lat="44.88641" lon="5.53835">
        <ele>1385</ele>
        <time>2014-02-23T07:35:47Z</time>
      </trkpt>
      <trkpt lat="44.88638" lon="5.53832">
        <ele>1385</ele>
        <time>2014-02-23T07:35:52Z</time>
      </trkpt>
      <trkpt lat="44.88635" lon="5.53828">
        <ele>1386</ele>
        <time>2014-02-23T07:35:57Z</time>
      </trkpt>
      <trkpt lat="44.88633" lon="5.53825">
        <ele>1387</ele>
        <time>2014-02-23T07:36:02Z</time>
      </trkpt>
      <trkpt lat="44.88631" lon="5.53822">
        <ele>1388</ele>
        <time>2014-02-23T07:36:07Z</time>
      </trkpt>
      <trkpt lat="44.88629" lon="5.53819">
        <ele>1389</ele>
        <time>2014-02-23T07:36:12Z</time>
      </trkpt>
      <trkpt lat="44.88627" lon="5.53816">
        <ele>1391</ele>
        <time>2014-02-23T07:36:17Z</time>
      </trkpt>
      <trkpt lat="44.88624" lon="5.53813">
        <ele>1391</ele>
        <time>2014-02-23T07:36:22Z</time>
      </trkpt>
      <trkpt lat="44.88621" lon="5.5381">
        <ele>1392</ele>
        <time>2014-02-23T07:36:27Z</time>
      </trkpt>
      <trkpt lat="44.88619" lon="5.53808">
        <ele>1393</ele>
        <time>2014-02-23T07:36:32Z</time>
      </trkpt>
      <trkpt lat="44.88616" lon="5.53805">
        <ele>1393</ele>
        <time>2014-02-23T07:36:37Z</time>
      </trkpt>
      <trkpt lat="44.88613" lon="5.53802">
        <ele>1393</ele>
        <time>2014-02-23T07:36:42Z</time>
      </trkpt>
      <trkpt lat="44.8861" lon="5.538">
        <ele>1394</ele>
        <time>2014-02-23T07:36:47Z</time>
      </trkpt>
      <trkpt lat="44.88608" lon="5.53797">
        <ele>1395</ele>
        <time>2014-02-23T07:36:52Z</time>
      </trkpt>
      <trkpt lat="44.88605" lon="5.53795">
        <ele>1396</ele>
        <time>2014-02-23T07:36:57Z</time>
      </trkpt>
      <trkpt lat="44.88603" lon="5.53792">
        <ele>1396</ele>
        <time>2014-02-23T07:37:02Z</time>
      </trkpt>
      <trkpt lat="44.886" lon="5.5379">
        <ele>1397</ele>
        <time>2014-02-23T07:37:07Z</time>
      </trkpt>
      <trkpt lat="44.88597" lon="5.53788">
        <ele>1398</ele>
        <time>2014-02-23T07:37:12Z</time>
      </trkpt>
      <trkpt lat="44.88594" lon="5.53786">
        <ele>1399</ele>
        <time>2014-02-23T07:37:17Z</time>
      </trkpt>
      <trkpt lat="44.88591" lon="5.53784">
        <ele>1400</ele>
        <time>2014-02-23T07:37:22Z</time>
      </trkpt>
      <trkpt lat="44.88588" lon="5.53782">
        <ele>1401</ele>
        <time>2014-02-23T07:37:27Z</time>
      </trkpt>
      <trkpt lat="44.88587" lon="5.5378">
        <ele>1402</ele>
        <time>2014-02-23T07:37:32Z</time>
      </trkpt>
      <trkpt lat="44.88584" lon="5.53779">
        <ele>1403</ele>
        <time>2014-02-23T07:37:37Z</time>
      </trkpt>
      <trkpt lat="44.88582" lon="5.53777">
        <ele>1404</ele>
        <time>2014-02-23T07:37:42Z</time>
      </trkpt>
      <trkpt lat="44.88579" lon="5.53776">
        <ele>1406</ele>
        <time>2014-02-23T07:37:47Z</time>
      </trkpt>
      <trkpt lat="44.88577" lon="5.53774">
        <ele>1406</ele>
        <time>2014-02-23T07:37:52Z</time>
      </trkpt>
      <trkpt lat="44.88574" lon="5.53772">
        <ele>1407</ele>
        <time>2014-02-23T07:37:57Z</time>
      </trkpt>
      <trkpt lat="44.88572" lon="5.53769">
        <ele>1407</ele>
        <time>2014-02-23T07:38:02Z</time>
      </trkpt>
      <trkpt lat="44.8857" lon="5.53769">
        <ele>1407</ele>
        <time>2014-02-23T07:38:07Z</time>
      </trkpt>
      <trkpt lat="44.88568" lon="5.53767">
        <ele>1409</ele>
        <time>2014-02-23T07:38:12Z</time>
      </trkpt>
      <trkpt lat="44.88566" lon="5.53766">
        <ele>1411</ele>
        <time>2014-02-23T07:38:17Z</time>
      </trkpt>
      <trkpt lat="44.88564" lon="5.53763">
        <ele>1412</ele>
        <time>2014-02-23T07:38:22Z</time>
      </trkpt>
      <trkpt lat="44.88561" lon="5.53761">
        <ele>1413</ele>
        <time>2014-02-23T07:38:27Z</time>
      </trkpt>
      <trkpt lat="44.88558" lon="5.53759">
        <ele>1413</ele>
        <time>2014-02-23T07:38:32Z</time>
      </trkpt>
      <trkpt lat="44.88556" lon="5.53757">
        <ele>1414</ele>
        <time>2014-02-23T07:38:37Z</time>
      </trkpt>
      <trkpt lat="44.88553" lon="5.53755">
        <ele>1415</ele>
        <time>2014-02-23T07:38:42Z</time>
      </trkpt>
      <trkpt lat="44.88551" lon="5.53753">
        <ele>1416</ele>
        <time>2014-02-23T07:38:47Z</time>
      </trkpt>
      <trkpt lat="44.88548" lon="5.53751">
        <ele>1416</ele>
        <time>2014-02-23T07:38:52Z</time>
      </trkpt>
      <trkpt lat="44.88546" lon="5.53749">
        <ele>1417</ele>
        <time>2014-02-23T07:38:57Z</time>
      </trkpt>
      <trkpt lat="44.88544" lon="5.53746">
        <ele>1418</ele>
        <time>2014-02-23T07:39:02Z</time>
      </trkpt>
      <trkpt lat="44.88542" lon="5.53744">
        <ele>1418</ele>
        <time>2014-02-23T07:39:07Z</time>
      </trkpt>
      <trkpt lat="44.8854" lon="5.53741">
        <ele>1419</ele>
        <time>2014-02-23T07:39:12Z</time>
      </trkpt>
      <trkpt lat="44.88538" lon="5.53739">
        <ele>1419</ele>
        <time>2014-02-23T07:39:17Z</time>
      </trkpt>
      <trkpt lat="44.88535" lon="5.53738">
        <ele>1420</ele>
        <time>2014-02-23T07:39:22Z</time>
      </trkpt>
      <trkpt lat="44.88534" lon="5.53736">
        <ele>1421</ele>
        <time>2014-02-23T07:39:27Z</time>
      </trkpt>
      <trkpt lat="44.88532" lon="5.53734">
        <ele>1422</ele>
        <time>2014-02-23T07:39:32Z</time>
      </trkpt>
      <trkpt lat="44.8853" lon="5.53732">
        <ele>1423</ele>
        <time>2014-02-23T07:39:37Z</time>
      </trkpt>
      <trkpt lat="44.88528" lon="5.53729">
        <ele>1423</ele>
        <time>2014-02-23T07:39:42Z</time>
      </trkpt>
      <trkpt lat="44.88525" lon="5.53727">
        <ele>1423</ele>
        <time>2014-02-23T07:39:47Z</time>
      </trkpt>
      <trkpt lat="44.88524" lon="5.53724">
        <ele>1423</ele>
        <time>2014-02-23T07:39:52Z</time>
      </trkpt>
      <trkpt lat="44.88524" lon="5.5372">
        <ele>1423</ele>
        <time>2014-02-23T07:39:57Z</time>
      </trkpt>
      <trkpt lat="44.88522" lon="5.53717">
        <ele>1423</ele>
        <time>2014-02-23T07:40:02Z</time>
      </trkpt>
      <trkpt lat="44.8852" lon="5.53716">
        <ele>1424</ele>
        <time>2014-02-23T07:40:07Z</time>
      </trkpt>
      <trkpt lat="44.88518" lon="5.53712">
        <ele>1425</ele>
        <time>2014-02-23T07:40:12Z</time>
      </trkpt>
      <trkpt lat="44.88517" lon="5.53709">
        <ele>1426</ele>
        <time>2014-02-23T07:40:17Z</time>
      </trkpt>
      <trkpt lat="44.88515" lon="5.53707">
        <ele>1428</ele>
        <time>2014-02-23T07:40:22Z</time>
      </trkpt>
      <trkpt lat="44.88513" lon="5.53706">
        <ele>1429</ele>
        <time>2014-02-23T07:40:27Z</time>
      </trkpt>
      <trkpt lat="44.88511" lon="5.53705">
        <ele>1430</ele>
        <time>2014-02-23T07:40:32Z</time>
      </trkpt>
      <trkpt lat="44.88509" lon="5.53704">
        <ele>1431</ele>
        <time>2014-02-23T07:40:37Z</time>
      </trkpt>
      <trkpt lat="44.88506" lon="5.53702">
        <ele>1431</ele>
        <time>2014-02-23T07:40:42Z</time>
      </trkpt>
      <trkpt lat="44.88503" lon="5.53701">
        <ele>1431</ele>
        <time>2014-02-23T07:40:47Z</time>
      </trkpt>
      <trkpt lat="44.88502" lon="5.53698">
        <ele>1433</ele>
        <time>2014-02-23T07:40:52Z</time>
      </trkpt>
      <trkpt lat="44.88501" lon="5.53696">
        <ele>1434</ele>
        <time>2014-02-23T07:40:57Z</time>
      </trkpt>
      <trkpt lat="44.88499" lon="5.53694">
        <ele>1435</ele>
        <time>2014-02-23T07:41:02Z</time>
      </trkpt>
      <trkpt lat="44.88498" lon="5.53692">
        <ele>1437</ele>
        <time>2014-02-23T07:41:07Z</time>
      </trkpt>
      <trkpt lat="44.88497" lon="5.53689">
        <ele>1438</ele>
        <time>2014-02-23T07:41:12Z</time>
      </trkpt>
      <trkpt lat="44.88496" lon="5.53687">
        <ele>1439</ele>
        <time>2014-02-23T07:41:17Z</time>
      </trkpt>
      <trkpt lat="44.88496" lon="5.53684">
        <ele>1440</ele>
        <time>2014-02-23T07:41:22Z</time>
      </trkpt>
      <trkpt lat="44.88495" lon="5.53681">
        <ele>1440</ele>
        <time>2014-02-23T07:41:27Z</time>
      </trkpt>
      <trkpt lat="44.88494" lon="5.5368">
        <ele>1443</ele>
        <time>2014-02-23T07:41:32Z</time>
      </trkpt>
      <trkpt lat="44.88492" lon="5.53677">
        <ele>1443</ele>
        <time>2014-02-23T07:41:37Z</time>
      </trkpt>
      <trkpt lat="44.88489" lon="5.53675">
        <ele>1443</ele>
        <time>2014-02-23T07:41:42Z</time>
      </trkpt>
      <trkpt lat="44.88487" lon="5.53673">
        <ele>1445</ele>
        <time>2014-02-23T07:41:47Z</time>
      </trkpt>
      <trkpt lat="44.88485" lon="5.53671">
        <ele>1445</ele>
        <time>2014-02-23T07:41:52Z</time>
      </trkpt>
      <trkpt lat="44.88482" lon="5.53671">
        <ele>1446</ele>
        <time>2014-02-23T07:41:57Z</time>
      </trkpt>
      <trkpt lat="44.88479" lon="5.53671">
        <ele>1446</ele>
        <time>2014-02-23T07:42:02Z</time>
      </trkpt>
      <trkpt lat="44.88478" lon="5.53668">
        <ele>1447</ele>
        <time>2014-02-23T07:42:07Z</time>
      </trkpt>
      <trkpt lat="44.88476" lon="5.53668">
        <ele>1448</ele>
        <time>2014-02-23T07:42:12Z</time>
      </trkpt>
      <trkpt lat="44.88472" lon="5.53669">
        <ele>1449</ele>
        <time>2014-02-23T07:42:17Z</time>
      </trkpt>
      <trkpt lat="44.8847" lon="5.53668">
        <ele>1450</ele>
        <time>2014-02-23T07:42:22Z</time>
      </trkpt>
      <trkpt lat="44.88469" lon="5.53665">
        <ele>1452</ele>
        <time>2014-02-23T07:42:27Z</time>
      </trkpt>
      <trkpt lat="44.88466" lon="5.53664">
        <ele>1453</ele>
        <time>2014-02-23T07:42:32Z</time>
      </trkpt>
      <trkpt lat="44.88464" lon="5.53664">
        <ele>1454</ele>
        <time>2014-02-23T07:42:37Z</time>
      </trkpt>
      <trkpt lat="44.88463" lon="5.53664">
        <ele>1455</ele>
        <time>2014-02-23T07:42:42Z</time>
      </trkpt>
      <trkpt lat="44.88461" lon="5.53662">
        <ele>1456</ele>
        <time>2014-02-23T07:42:47Z</time>
      </trkpt>
      <trkpt lat="44.88459" lon="5.5366">
        <ele>1458</ele>
        <time>2014-02-23T07:42:52Z</time>
      </trkpt>
      <trkpt lat="44.88457" lon="5.5366">
        <ele>1459</ele>
        <time>2014-02-23T07:42:57Z</time>
      </trkpt>
      <trkpt lat="44.88455" lon="5.53657">
        <ele>1460</ele>
        <time>2014-02-23T07:43:02Z</time>
      </trkpt>
      <trkpt lat="44.88453" lon="5.53655">
        <ele>1461</ele>
        <time>2014-02-23T07:43:07Z</time>
      </trkpt>
      <trkpt lat="44.88451" lon="5.53655">
        <ele>1462</ele>
        <time>2014-02-23T07:43:12Z</time>
      </trkpt>
      <trkpt lat="44.88449" lon="5.53654">
        <ele>1463</ele>
        <time>2014-02-23T07:43:17Z</time>
      </trkpt>
      <trkpt lat="44.88447" lon="5.53651">
        <ele>1463</ele>
        <time>2014-02-23T07:43:22Z</time>
      </trkpt>
      <trkpt lat="44.88444" lon="5.53651">
        <ele>1464</ele>
        <time>2014-02-23T07:43:27Z</time>
      </trkpt>
      <trkpt lat="44.88442" lon="5.53649">
        <ele>1465</ele>
        <time>2014-02-23T07:43:32Z</time>
      </trkpt>
      <trkpt lat="44.8844" lon="5.53648">
        <ele>1465</ele>
        <time>2014-02-23T07:43:37Z</time>
      </trkpt>
      <trkpt lat="44.88437" lon="5.53647">
        <ele>1466</ele>
        <time>2014-02-23T07:43:42Z</time>
      </trkpt>
      <trkpt lat="44.88435" lon="5.53645">
        <ele>1466</ele>
        <time>2014-02-23T07:43:47Z</time>
      </trkpt>
      <trkpt lat="44.88432" lon="5.53643">
        <ele>1466</ele>
        <time>2014-02-23T07:43:52Z</time>
      </trkpt>
      <trkpt lat="44.8843" lon="5.5364">
        <ele>1467</ele>
        <time>2014-02-23T07:43:57Z</time>
      </trkpt>
      <trkpt lat="44.88427" lon="5.53639">
        <ele>1467</ele>
        <time>2014-02-23T07:44:02Z</time>
      </trkpt>
      <trkpt lat="44.88425" lon="5.53637">
        <ele>1468</ele>
        <time>2014-02-23T07:44:07Z</time>
      </trkpt>
      <trkpt lat="44.88423" lon="5.53635">
        <ele>1469</ele>
        <time>2014-02-23T07:44:12Z</time>
      </trkpt>
      <trkpt lat="44.8842" lon="5.53633">
        <ele>1469</ele>
        <time>2014-02-23T07:44:17Z</time>
      </trkpt>
      <trkpt lat="44.88418" lon="5.5363">
        <ele>1469</ele>
        <time>2014-02-23T07:44:22Z</time>
      </trkpt>
      <trkpt lat="44.88416" lon="5.53628">
        <ele>1470</ele>
        <time>2014-02-23T07:44:27Z</time>
      </trkpt>
      <trkpt lat="44.88414" lon="5.53625">
        <ele>1471</ele>
        <time>2014-02-23T07:44:32Z</time>
      </trkpt>
      <trkpt lat="44.88413" lon="5.53622">
        <ele>1471</ele>
        <time>2014-02-23T07:44:37Z</time>
      </trkpt>
      <trkpt lat="44.88411" lon="5.53619">
        <ele>1471</ele>
        <time>2014-02-23T07:44:42Z</time>
      </trkpt>
      <trkpt lat="44.8841" lon="5.53615">
        <ele>1472</ele>
        <time>2014-02-23T07:44:47Z</time>
      </trkpt>
      <trkpt lat="44.88409" lon="5.53612">
        <ele>1473</ele>
        <time>2014-02-23T07:44:52Z</time>
      </trkpt>
      <trkpt lat="44.88408" lon="5.53608">
        <ele>1473</ele>
        <time>2014-02-23T07:44:57Z</time>
      </trkpt>
      <trkpt lat="44.88407" lon="5.53604">
        <ele>1474</ele>
        <time>2014-02-23T07:45:02Z</time>
      </trkpt>
      <trkpt lat="44.88406" lon="5.536">
        <ele>1474</ele>
        <time>2014-02-23T07:45:07Z</time>
      </trkpt>
      <trkpt lat="44.88406" lon="5.53597">
        <ele>1475</ele>
        <time>2014-02-23T07:45:12Z</time>
      </trkpt>
      <trkpt lat="44.88405" lon="5.53593">
        <ele>1476</ele>
        <time>2014-02-23T07:45:17Z</time>
      </trkpt>
      <trkpt lat="44.88405" lon="5.53589">
        <ele>1477</ele>
        <time>2014-02-23T07:45:22Z</time>
      </trkpt>
      <trkpt lat="44.88405" lon="5.53586">
        <ele>1478</ele>
        <time>2014-02-23T07:45:27Z</time>
      </trkpt>
      <trkpt lat="44.88405" lon="5.53582">
        <ele>1479</ele>
        <time>2014-02-23T07:45:32Z</time>
      </trkpt>
      <trkpt lat="44.88405" lon="5.53579">
        <ele>1480</ele>
        <time>2014-02-23T07:45:37Z</time>
      </trkpt>
      <trkpt lat="44.88406" lon="5.53576">
        <ele>1480</ele>
        <time>2014-02-23T07:45:42Z</time>
      </trkpt>
      <trkpt lat="44.88407" lon="5.53574">
        <ele>1482</ele>
        <time>2014-02-23T07:45:47Z</time>
      </trkpt>
      <trkpt lat="44.8841" lon="5.53575">
        <ele>1483</ele>
        <time>2014-02-23T07:45:52Z</time>
      </trkpt>
      <trkpt lat="44.88411" lon="5.53577">
        <ele>1484</ele>
        <time>2014-02-23T07:45:57Z</time>
      </trkpt>
      <trkpt lat="44.88413" lon="5.53575">
        <ele>1480</ele>
        <time>2014-02-23T07:48:22Z</time>
      </trkpt>
      <trkpt lat="44.88412" lon="5.53575">
        <ele>1481</ele>
        <time>2014-02-23T07:48:27Z</time>
      </trkpt>
      <trkpt lat="44.88414" lon="5.53578">
        <ele>1483</ele>
        <time>2014-02-23T07:48:32Z</time>
      </trkpt>
      <trkpt lat="44.88418" lon="5.5358">
        <ele>1484</ele>
        <time>2014-02-23T07:48:37Z</time>
      </trkpt>
      <trkpt lat="44.88421" lon="5.53581">
        <ele>1485</ele>
        <time>2014-02-23T07:48:42Z</time>
      </trkpt>
      <trkpt lat="44.88424" lon="5.53584">
        <ele>1487</ele>
        <time>2014-02-23T07:48:47Z</time>
      </trkpt>
      <trkpt lat="44.88427" lon="5.53586">
        <ele>1489</ele>
        <time>2014-02-23T07:48:52Z</time>
      </trkpt>
      <trkpt lat="44.8843" lon="5.53588">
        <ele>1490</ele>
        <time>2014-02-23T07:48:57Z</time>
      </trkpt>
      <trkpt lat="44.88433" lon="5.53588">
        <ele>1492</ele>
        <time>2014-02-23T07:49:02Z</time>
      </trkpt>
      <trkpt lat="44.88436" lon="5.53585">
        <ele>1494</ele>
        <time>2014-02-23T07:49:07Z</time>
      </trkpt>
      <trkpt lat="44.88437" lon="5.53581">
        <ele>1495</ele>
        <time>2014-02-23T07:49:12Z</time>
      </trkpt>
      <trkpt lat="44.88436" lon="5.53577">
        <ele>1496</ele>
        <time>2014-02-23T07:49:17Z</time>
      </trkpt>
      <trkpt lat="44.88436" lon="5.53574">
        <ele>1497</ele>
        <time>2014-02-23T07:49:22Z</time>
      </trkpt>
      <trkpt lat="44.88436" lon="5.5357">
        <ele>1498</ele>
        <time>2014-02-23T07:49:27Z</time>
      </trkpt>
      <trkpt lat="44.88435" lon="5.53567">
        <ele>1499</ele>
        <time>2014-02-23T07:49:32Z</time>
      </trkpt>
      <trkpt lat="44.88433" lon="5.53564">
        <ele>1500</ele>
        <time>2014-02-23T07:49:37Z</time>
      </trkpt>
      <trkpt lat="44.88432" lon="5.5356">
        <ele>1501</ele>
        <time>2014-02-23T07:49:42Z</time>
      </trkpt>
      <trkpt lat="44.88431" lon="5.53556">
        <ele>1502</ele>
        <time>2014-02-23T07:49:47Z</time>
      </trkpt>
      <trkpt lat="44.8843" lon="5.53552">
        <ele>1502</ele>
        <time>2014-02-23T07:49:52Z</time>
      </trkpt>
      <trkpt lat="44.8843" lon="5.53547">
        <ele>1503</ele>
        <time>2014-02-23T07:49:57Z</time>
      </trkpt>
      <trkpt lat="44.8843" lon="5.53543">
        <ele>1504</ele>
        <time>2014-02-23T07:50:02Z</time>
      </trkpt>
      <trkpt lat="44.8843" lon="5.53539">
        <ele>1504</ele>
        <time>2014-02-23T07:50:07Z</time>
      </trkpt>
      <trkpt lat="44.8843" lon="5.53535">
        <ele>1505</ele>
        <time>2014-02-23T07:50:12Z</time>
      </trkpt>
      <trkpt lat="44.8843" lon="5.53532">
        <ele>1506</ele>
        <time>2014-02-23T07:50:17Z</time>
      </trkpt>
      <trkpt lat="44.8843" lon="5.53529">
        <ele>1507</ele>
        <time>2014-02-23T07:50:22Z</time>
      </trkpt>
      <trkpt lat="44.8843" lon="5.53525">
        <ele>1507</ele>
        <time>2014-02-23T07:50:27Z</time>
      </trkpt>
      <trkpt lat="44.8843" lon="5.53522">
        <ele>1509</ele>
        <time>2014-02-23T07:50:32Z</time>
      </trkpt>
      <trkpt lat="44.8843" lon="5.53518">
        <ele>1509</ele>
        <time>2014-02-23T07:50:37Z</time>
      </trkpt>
      <trkpt lat="44.88429" lon="5.53515">
        <ele>1511</ele>
        <time>2014-02-23T07:50:42Z</time>
      </trkpt>
      <trkpt lat="44.88429" lon="5.53512">
        <ele>1512</ele>
        <time>2014-02-23T07:50:47Z</time>
      </trkpt>
      <trkpt lat="44.88429" lon="5.53508">
        <ele>1513</ele>
        <time>2014-02-23T07:50:52Z</time>
      </trkpt>
      <trkpt lat="44.88429" lon="5.53506">
        <ele>1515</ele>
        <time>2014-02-23T07:50:57Z</time>
      </trkpt>
      <trkpt lat="44.88428" lon="5.53503">
        <ele>1516</ele>
        <time>2014-02-23T07:51:02Z</time>
      </trkpt>
      <trkpt lat="44.88427" lon="5.53499">
        <ele>1516</ele>
        <time>2014-02-23T07:51:07Z</time>
      </trkpt>
      <trkpt lat="44.88427" lon="5.53495">
        <ele>1517</ele>
        <time>2014-02-23T07:51:12Z</time>
      </trkpt>
      <trkpt lat="44.88427" lon="5.53491">
        <ele>1517</ele>
        <time>2014-02-23T07:51:17Z</time>
      </trkpt>
      <trkpt lat="44.88427" lon="5.53488">
        <ele>1518</ele>
        <time>2014-02-23T07:51:22Z</time>
      </trkpt>
      <trkpt lat="44.88426" lon="5.53484">
        <ele>1519</ele>
        <time>2014-02-23T07:51:27Z</time>
      </trkpt>
      <trkpt lat="44.88426" lon="5.53481">
        <ele>1520</ele>
        <time>2014-02-23T07:51:32Z</time>
      </trkpt>
      <trkpt lat="44.88427" lon="5.53479">
        <ele>1522</ele>
        <time>2014-02-23T07:51:37Z</time>
      </trkpt>
      <trkpt lat="44.88428" lon="5.53479">
        <ele>1522</ele>
        <time>2014-02-23T07:51:42Z</time>
      </trkpt>
      <trkpt lat="44.8843" lon="5.53479">
        <ele>1523</ele>
        <time>2014-02-23T07:51:47Z</time>
      </trkpt>
      <trkpt lat="44.88432" lon="5.53479">
        <ele>1523</ele>
        <time>2014-02-23T07:51:52Z</time>
      </trkpt>
      <trkpt lat="44.88435" lon="5.53479">
        <ele>1524</ele>
        <time>2014-02-23T07:51:57Z</time>
      </trkpt>
      <trkpt lat="44.88436" lon="5.53476">
        <ele>1524</ele>
        <time>2014-02-23T07:52:02Z</time>
      </trkpt>
      <trkpt lat="44.88436" lon="5.53472">
        <ele>1525</ele>
        <time>2014-02-23T07:52:07Z</time>
      </trkpt>
      <trkpt lat="44.88437" lon="5.53468">
        <ele>1526</ele>
        <time>2014-02-23T07:52:12Z</time>
      </trkpt>
      <trkpt lat="44.88437" lon="5.53465">
        <ele>1526</ele>
        <time>2014-02-23T07:52:17Z</time>
      </trkpt>
      <trkpt lat="44.88437" lon="5.53461">
        <ele>1527</ele>
        <time>2014-02-23T07:52:22Z</time>
      </trkpt>
      <trkpt lat="44.88436" lon="5.53458">
        <ele>1528</ele>
        <time>2014-02-23T07:52:27Z</time>
      </trkpt>
      <trkpt lat="44.88435" lon="5.53456">
        <ele>1529</ele>
        <time>2014-02-23T07:52:32Z</time>
      </trkpt>
      <trkpt lat="44.88434" lon="5.53455">
        <ele>1532</ele>
        <time>2014-02-23T07:52:37Z</time>
      </trkpt>
      <trkpt lat="44.88433" lon="5.53453">
        <ele>1534</ele>
        <time>2014-02-23T07:52:42Z</time>
      </trkpt>
      <trkpt lat="44.88432" lon="5.5345">
        <ele>1535</ele>
        <time>2014-02-23T07:52:47Z</time>
      </trkpt>
      <trkpt lat="44.88432" lon="5.53446">
        <ele>1535</ele>
        <time>2014-02-23T07:52:52Z</time>
      </trkpt>
      <trkpt lat="44.8843" lon="5.53442">
        <ele>1535</ele>
        <time>2014-02-23T07:52:57Z</time>
      </trkpt>
      <trkpt lat="44.88429" lon="5.53438">
        <ele>1535</ele>
        <time>2014-02-23T07:53:02Z</time>
      </trkpt>
      <trkpt lat="44.88429" lon="5.53433">
        <ele>1533</ele>
        <time>2014-02-23T07:53:07Z</time>
      </trkpt>
      <trkpt lat="44.88429" lon="5.5343">
        <ele>1534</ele>
        <time>2014-02-23T07:53:12Z</time>
      </trkpt>
      <trkpt lat="44.88427" lon="5.53427">
        <ele>1536</ele>
        <time>2014-02-23T07:53:17Z</time>
      </trkpt>
      <trkpt lat="44.88426" lon="5.53425">
        <ele>1537</ele>
        <time>2014-02-23T07:53:22Z</time>
      </trkpt>
      <trkpt lat="44.88425" lon="5.53422">
        <ele>1538</ele>
        <time>2014-02-23T07:53:27Z</time>
      </trkpt>
      <trkpt lat="44.88424" lon="5.53419">
        <ele>1539</ele>
        <time>2014-02-23T07:53:32Z</time>
      </trkpt>
      <trkpt lat="44.88423" lon="5.53416">
        <ele>1540</ele>
        <time>2014-02-23T07:53:37Z</time>
      </trkpt>
      <trkpt lat="44.88421" lon="5.53413">
        <ele>1540</ele>
        <time>2014-02-23T07:53:42Z</time>
      </trkpt>
      <trkpt lat="44.8842" lon="5.5341">
        <ele>1542</ele>
        <time>2014-02-23T07:53:47Z</time>
      </trkpt>
      <trkpt lat="44.8842" lon="5.53406">
        <ele>1542</ele>
        <time>2014-02-23T07:53:52Z</time>
      </trkpt>
      <trkpt lat="44.88419" lon="5.53402">
        <ele>1542</ele>
        <time>2014-02-23T07:53:57Z</time>
      </trkpt>
      <trkpt lat="44.88417" lon="5.53399">
        <ele>1542</ele>
        <time>2014-02-23T07:54:02Z</time>
      </trkpt>
      <trkpt lat="44.88415" lon="5.53396">
        <ele>1543</ele>
        <time>2014-02-23T07:54:07Z</time>
      </trkpt>
      <trkpt lat="44.88414" lon="5.53393">
        <ele>1543</ele>
        <time>2014-02-23T07:54:12Z</time>
      </trkpt>
      <trkpt lat="44.88412" lon="5.5339">
        <ele>1544</ele>
        <time>2014-02-23T07:54:17Z</time>
      </trkpt>
      <trkpt lat="44.8841" lon="5.53387">
        <ele>1545</ele>
        <time>2014-02-23T07:54:22Z</time>
      </trkpt>
      <trkpt lat="44.88409" lon="5.53385">
        <ele>1546</ele>
        <time>2014-02-23T07:54:27Z</time>
      </trkpt>
      <trkpt lat="44.88407" lon="5.53382">
        <ele>1547</ele>
        <time>2014-02-23T07:54:32Z</time>
      </trkpt>
      <trkpt lat="44.88406" lon="5.53379">
        <ele>1548</ele>
        <time>2014-02-23T07:54:37Z</time>
      </trkpt>
      <trkpt lat="44.88404" lon="5.53376">
        <ele>1550</ele>
        <time>2014-02-23T07:54:42Z</time>
      </trkpt>
      <trkpt lat="44.88404" lon="5.53373">
        <ele>1550</ele>
        <time>2014-02-23T07:54:47Z</time>
      </trkpt>
      <trkpt lat="44.88404" lon="5.53372">
        <ele>1550</ele>
        <time>2014-02-23T07:54:52Z</time>
      </trkpt>
      <trkpt lat="44.88403" lon="5.5337">
        <ele>1549</ele>
        <time>2014-02-23T07:54:57Z</time>
      </trkpt>
      <trkpt lat="44.88401" lon="5.53366">
        <ele>1550</ele>
        <time>2014-02-23T07:55:02Z</time>
      </trkpt>
      <trkpt lat="44.884" lon="5.53362">
        <ele>1550</ele>
        <time>2014-02-23T07:55:07Z</time>
      </trkpt>
      <trkpt lat="44.88399" lon="5.53358">
        <ele>1551</ele>
        <time>2014-02-23T07:55:12Z</time>
      </trkpt>
      <trkpt lat="44.88398" lon="5.53355">
        <ele>1551</ele>
        <time>2014-02-23T07:55:17Z</time>
      </trkpt>
      <trkpt lat="44.88397" lon="5.53351">
        <ele>1552</ele>
        <time>2014-02-23T07:55:22Z</time>
      </trkpt>
      <trkpt lat="44.88397" lon="5.5335">
        <ele>1552</ele>
        <time>2014-02-23T07:55:27Z</time>
      </trkpt>
      <trkpt lat="44.88397" lon="5.5335">
        <ele>1551</ele>
        <time>2014-02-23T07:55:32Z</time>
      </trkpt>
      <trkpt lat="44.88396" lon="5.53348">
        <ele>1552</ele>
        <time>2014-02-23T07:55:37Z</time>
      </trkpt>
      <trkpt lat="44.88395" lon="5.53344">
        <ele>1553</ele>
        <time>2014-02-23T07:55:42Z</time>
      </trkpt>
      <trkpt lat="44.88394" lon="5.53341">
        <ele>1555</ele>
        <time>2014-02-23T07:55:47Z</time>
      </trkpt>
      <trkpt lat="44.88394" lon="5.53337">
        <ele>1557</ele>
        <time>2014-02-23T07:55:52Z</time>
      </trkpt>
      <trkpt lat="44.88393" lon="5.53334">
        <ele>1558</ele>
        <time>2014-02-23T07:55:57Z</time>
      </trkpt>
      <trkpt lat="44.88393" lon="5.53331">
        <ele>1559</ele>
        <time>2014-02-23T07:56:02Z</time>
      </trkpt>
      <trkpt lat="44.88392" lon="5.53327">
        <ele>1561</ele>
        <time>2014-02-23T07:56:07Z</time>
      </trkpt>
      <trkpt lat="44.88392" lon="5.53324">
        <ele>1562</ele>
        <time>2014-02-23T07:56:12Z</time>
      </trkpt>
      <trkpt lat="44.88392" lon="5.53319">
        <ele>1562</ele>
        <time>2014-02-23T07:56:17Z</time>
      </trkpt>
      <trkpt lat="44.88393" lon="5.53315">
        <ele>1561</ele>
        <time>2014-02-23T07:56:22Z</time>
      </trkpt>
      <trkpt lat="44.88396" lon="5.53316">
        <ele>1562</ele>
        <time>2014-02-23T07:56:27Z</time>
      </trkpt>
      <trkpt lat="44.88398" lon="5.53317">
        <ele>1564</ele>
        <time>2014-02-23T07:56:32Z</time>
      </trkpt>
      <trkpt lat="44.884" lon="5.53319">
        <ele>1567</ele>
        <time>2014-02-23T07:56:37Z</time>
      </trkpt>
      <trkpt lat="44.88403" lon="5.5332">
        <ele>1568</ele>
        <time>2014-02-23T07:56:42Z</time>
      </trkpt>
      <trkpt lat="44.88403" lon="5.53318">
        <ele>1569</ele>
        <time>2014-02-23T07:56:47Z</time>
      </trkpt>
      <trkpt lat="44.88402" lon="5.53314">
        <ele>1570</ele>
        <time>2014-02-23T07:56:52Z</time>
      </trkpt>
      <trkpt lat="44.88402" lon="5.53312">
        <ele>1571</ele>
        <time>2014-02-23T07:56:57Z</time>
      </trkpt>
      <trkpt lat="44.88402" lon="5.53312">
        <ele>1570</ele>
        <time>2014-02-23T07:57:02Z</time>
      </trkpt>
      <trkpt lat="44.88402" lon="5.53312">
        <ele>1570</ele>
        <time>2014-02-23T07:57:07Z</time>
      </trkpt>
      <trkpt lat="44.88403" lon="5.53313">
        <ele>1572</ele>
        <time>2014-02-23T07:57:12Z</time>
      </trkpt>
      <trkpt lat="44.88403" lon="5.53314">
        <ele>1572</ele>
        <time>2014-02-23T07:57:17Z</time>
      </trkpt>
      <trkpt lat="44.88403" lon="5.53314">
        <ele>1572</ele>
        <time>2014-02-23T07:57:22Z</time>
      </trkpt>
      <trkpt lat="44.88403" lon="5.53314">
        <ele>1572</ele>
        <time>2014-02-23T07:57:27Z</time>
      </trkpt>
      <trkpt lat="44.88403" lon="5.53314">
        <ele>1573</ele>
        <time>2014-02-23T07:57:32Z</time>
      </trkpt>
      <trkpt lat="44.88403" lon="5.53315">
        <ele>1573</ele>
        <time>2014-02-23T07:57:37Z</time>
      </trkpt>
      <trkpt lat="44.88403" lon="5.53312">
        <ele>1574</ele>
        <time>2014-02-23T07:57:42Z</time>
      </trkpt>
      <trkpt lat="44.88403" lon="5.53309">
        <ele>1572</ele>
        <time>2014-02-23T07:57:47Z</time>
      </trkpt>
      <trkpt lat="44.88403" lon="5.53306">
        <ele>1573</ele>
        <time>2014-02-23T07:57:52Z</time>
      </trkpt>
      <trkpt lat="44.88403" lon="5.53301">
        <ele>1574</ele>
        <time>2014-02-23T07:57:57Z</time>
      </trkpt>
      <trkpt lat="44.88403" lon="5.53296">
        <ele>1573</ele>
        <time>2014-02-23T07:58:02Z</time>
      </trkpt>
      <trkpt lat="44.88402" lon="5.53291">
        <ele>1574</ele>
        <time>2014-02-23T07:58:07Z</time>
      </trkpt>
      <trkpt lat="44.88401" lon="5.53287">
        <ele>1575</ele>
        <time>2014-02-23T07:58:12Z</time>
      </trkpt>
      <trkpt lat="44.88401" lon="5.53281">
        <ele>1573</ele>
        <time>2014-02-23T07:58:17Z</time>
      </trkpt>
      <trkpt lat="44.88402" lon="5.53276">
        <ele>1573</ele>
        <time>2014-02-23T07:58:22Z</time>
      </trkpt>
      <trkpt lat="44.88403" lon="5.53273">
        <ele>1573</ele>
        <time>2014-02-23T07:58:27Z</time>
      </trkpt>
      <trkpt lat="44.88404" lon="5.53269">
        <ele>1574</ele>
        <time>2014-02-23T07:58:32Z</time>
      </trkpt>
      <trkpt lat="44.88404" lon="5.53266">
        <ele>1575</ele>
        <time>2014-02-23T07:58:37Z</time>
      </trkpt>
      <trkpt lat="44.88406" lon="5.53263">
        <ele>1576</ele>
        <time>2014-02-23T07:58:42Z</time>
      </trkpt>
      <trkpt lat="44.88407" lon="5.53261">
        <ele>1577</ele>
        <time>2014-02-23T07:58:47Z</time>
      </trkpt>
      <trkpt lat="44.88409" lon="5.5326">
        <ele>1578</ele>
        <time>2014-02-23T07:58:52Z</time>
      </trkpt>
      <trkpt lat="44.8841" lon="5.53258">
        <ele>1580</ele>
        <time>2014-02-23T07:58:57Z</time>
      </trkpt>
      <trkpt lat="44.8841" lon="5.53255">
        <ele>1581</ele>
        <time>2014-02-23T07:59:02Z</time>
      </trkpt>
      <trkpt lat="44.8841" lon="5.53252">
        <ele>1582</ele>
        <time>2014-02-23T07:59:07Z</time>
      </trkpt>
      <trkpt lat="44.88407" lon="5.5325">
        <ele>1584</ele>
        <time>2014-02-23T07:59:12Z</time>
      </trkpt>
      <trkpt lat="44.88406" lon="5.53248">
        <ele>1583</ele>
        <time>2014-02-23T07:59:17Z</time>
      </trkpt>
      <trkpt lat="44.88403" lon="5.53247">
        <ele>1583</ele>
        <time>2014-02-23T07:59:22Z</time>
      </trkpt>
      <trkpt lat="44.88401" lon="5.53246">
        <ele>1583</ele>
        <time>2014-02-23T07:59:27Z</time>
      </trkpt>
      <trkpt lat="44.88398" lon="5.53246">
        <ele>1583</ele>
        <time>2014-02-23T07:59:32Z</time>
      </trkpt>
      <trkpt lat="44.88396" lon="5.53245">
        <ele>1584</ele>
        <time>2014-02-23T07:59:37Z</time>
      </trkpt>
      <trkpt lat="44.88394" lon="5.53244">
        <ele>1585</ele>
        <time>2014-02-23T07:59:42Z</time>
      </trkpt>
      <trkpt lat="44.88394" lon="5.53243">
        <ele>1584</ele>
        <time>2014-02-23T07:59:47Z</time>
      </trkpt>
      <trkpt lat="44.88394" lon="5.53243">
        <ele>1584</ele>
        <time>2014-02-23T07:59:52Z</time>
      </trkpt>
      <trkpt lat="44.88394" lon="5.53243">
        <ele>1584</ele>
        <time>2014-02-23T07:59:57Z</time>
      </trkpt>
      <trkpt lat="44.88394" lon="5.53243">
        <ele>1584</ele>
        <time>2014-02-23T08:00:02Z</time>
      </trkpt>
      <trkpt lat="44.88394" lon="5.53243">
        <ele>1583</ele>
        <time>2014-02-23T08:00:07Z</time>
      </trkpt>
      <trkpt lat="44.88394" lon="5.53243">
        <ele>1583</ele>
        <time>2014-02-23T08:00:12Z</time>
      </trkpt>
      <trkpt lat="44.88394" lon="5.53243">
        <ele>1583</ele>
        <time>2014-02-23T08:00:17Z</time>
      </trkpt>
      <trkpt lat="44.88394" lon="5.53243">
        <ele>1583</ele>
        <time>2014-02-23T08:00:22Z</time>
      </trkpt>
      <trkpt lat="44.88392" lon="5.53242">
        <ele>1583</ele>
        <time>2014-02-23T08:00:27Z</time>
      </trkpt>
      <trkpt lat="44.88389" lon="5.53241">
        <ele>1584</ele>
        <time>2014-02-23T08:00:32Z</time>
      </trkpt>
      <trkpt lat="44.88387" lon="5.53239">
        <ele>1585</ele>
        <time>2014-02-23T08:00:37Z</time>
      </trkpt>
      <trkpt lat="44.88385" lon="5.53238">
        <ele>1586</ele>
        <time>2014-02-23T08:00:42Z</time>
      </trkpt>
      <trkpt lat="44.88382" lon="5.53236">
        <ele>1587</ele>
        <time>2014-02-23T08:00:47Z</time>
      </trkpt>
      <trkpt lat="44.8838" lon="5.53234">
        <ele>1587</ele>
        <time>2014-02-23T08:00:52Z</time>
      </trkpt>
      <trkpt lat="44.88378" lon="5.53233">
        <ele>1588</ele>
        <time>2014-02-23T08:00:57Z</time>
      </trkpt>
      <trkpt lat="44.88374" lon="5.53232">
        <ele>1589</ele>
        <time>2014-02-23T08:01:02Z</time>
      </trkpt>
      <trkpt lat="44.88371" lon="5.5323">
        <ele>1590</ele>
        <time>2014-02-23T08:01:07Z</time>
      </trkpt>
      <trkpt lat="44.88368" lon="5.53229">
        <ele>1591</ele>
        <time>2014-02-23T08:01:12Z</time>
      </trkpt>
      <trkpt lat="44.88365" lon="5.53228">
        <ele>1591</ele>
        <time>2014-02-23T08:01:17Z</time>
      </trkpt>
      <trkpt lat="44.88362" lon="5.53226">
        <ele>1592</ele>
        <time>2014-02-23T08:01:22Z</time>
      </trkpt>
      <trkpt lat="44.8836" lon="5.53224">
        <ele>1593</ele>
        <time>2014-02-23T08:01:27Z</time>
      </trkpt>
      <trkpt lat="44.88358" lon="5.53223">
        <ele>1593</ele>
        <time>2014-02-23T08:01:32Z</time>
      </trkpt>
      <trkpt lat="44.88355" lon="5.53221">
        <ele>1594</ele>
        <time>2014-02-23T08:01:37Z</time>
      </trkpt>
      <trkpt lat="44.88352" lon="5.5322">
        <ele>1595</ele>
        <time>2014-02-23T08:01:42Z</time>
      </trkpt>
      <trkpt lat="44.8835" lon="5.53218">
        <ele>1596</ele>
        <time>2014-02-23T08:01:47Z</time>
      </trkpt>
      <trkpt lat="44.88347" lon="5.53216">
        <ele>1597</ele>
        <time>2014-02-23T08:01:52Z</time>
      </trkpt>
      <trkpt lat="44.88344" lon="5.53214">
        <ele>1597</ele>
        <time>2014-02-23T08:01:57Z</time>
      </trkpt>
      <trkpt lat="44.88342" lon="5.53212">
        <ele>1598</ele>
        <time>2014-02-23T08:02:02Z</time>
      </trkpt>
      <trkpt lat="44.88339" lon="5.5321">
        <ele>1598</ele>
        <time>2014-02-23T08:02:07Z</time>
      </trkpt>
      <trkpt lat="44.88337" lon="5.53208">
        <ele>1599</ele>
        <time>2014-02-23T08:02:12Z</time>
      </trkpt>
      <trkpt lat="44.88335" lon="5.53206">
        <ele>1600</ele>
        <time>2014-02-23T08:02:17Z</time>
      </trkpt>
      <trkpt lat="44.88333" lon="5.53204">
        <ele>1601</ele>
        <time>2014-02-23T08:02:22Z</time>
      </trkpt>
      <trkpt lat="44.88331" lon="5.53202">
        <ele>1601</ele>
        <time>2014-02-23T08:02:27Z</time>
      </trkpt>
      <trkpt lat="44.88329" lon="5.53201">
        <ele>1602</ele>
        <time>2014-02-23T08:02:32Z</time>
      </trkpt>
      <trkpt lat="44.88326" lon="5.532">
        <ele>1603</ele>
        <time>2014-02-23T08:02:37Z</time>
      </trkpt>
      <trkpt lat="44.88324" lon="5.53197">
        <ele>1604</ele>
        <time>2014-02-23T08:02:42Z</time>
      </trkpt>
      <trkpt lat="44.88323" lon="5.53195">
        <ele>1604</ele>
        <time>2014-02-23T08:02:47Z</time>
      </trkpt>
      <trkpt lat="44.8832" lon="5.53193">
        <ele>1605</ele>
        <time>2014-02-23T08:02:52Z</time>
      </trkpt>
      <trkpt lat="44.88318" lon="5.53191">
        <ele>1605</ele>
        <time>2014-02-23T08:02:57Z</time>
      </trkpt>
      <trkpt lat="44.88316" lon="5.53188">
        <ele>1606</ele>
        <time>2014-02-23T08:03:02Z</time>
      </trkpt>
      <trkpt lat="44.88314" lon="5.53186">
        <ele>1606</ele>
        <time>2014-02-23T08:03:07Z</time>
      </trkpt>
      <trkpt lat="44.88312" lon="5.53185">
        <ele>1607</ele>
        <time>2014-02-23T08:03:12Z</time>
      </trkpt>
      <trkpt lat="44.8831" lon="5.53184">
        <ele>1608</ele>
        <time>2014-02-23T08:03:17Z</time>
      </trkpt>
      <trkpt lat="44.88308" lon="5.53182">
        <ele>1609</ele>
        <time>2014-02-23T08:03:22Z</time>
      </trkpt>
      <trkpt lat="44.88306" lon="5.53181">
        <ele>1610</ele>
        <time>2014-02-23T08:03:27Z</time>
      </trkpt>
      <trkpt lat="44.88303" lon="5.53179">
        <ele>1610</ele>
        <time>2014-02-23T08:03:32Z</time>
      </trkpt>
      <trkpt lat="44.88302" lon="5.53177">
        <ele>1611</ele>
        <time>2014-02-23T08:03:37Z</time>
      </trkpt>
      <trkpt lat="44.883" lon="5.53175">
        <ele>1612</ele>
        <time>2014-02-23T08:03:42Z</time>
      </trkpt>
      <trkpt lat="44.88299" lon="5.53172">
        <ele>1613</ele>
        <time>2014-02-23T08:03:47Z</time>
      </trkpt>
      <trkpt lat="44.88297" lon="5.5317">
        <ele>1614</ele>
        <time>2014-02-23T08:03:52Z</time>
      </trkpt>
      <trkpt lat="44.88296" lon="5.53167">
        <ele>1615</ele>
        <time>2014-02-23T08:03:57Z</time>
      </trkpt>
      <trkpt lat="44.88295" lon="5.53164">
        <ele>1616</ele>
        <time>2014-02-23T08:04:02Z</time>
      </trkpt>
      <trkpt lat="44.88294" lon="5.53161">
        <ele>1617</ele>
        <time>2014-02-23T08:04:07Z</time>
      </trkpt>
      <trkpt lat="44.88293" lon="5.53158">
        <ele>1618</ele>
        <time>2014-02-23T08:04:12Z</time>
      </trkpt>
      <trkpt lat="44.88293" lon="5.53156">
        <ele>1619</ele>
        <time>2014-02-23T08:04:17Z</time>
      </trkpt>
      <trkpt lat="44.88293" lon="5.53152">
        <ele>1620</ele>
        <time>2014-02-23T08:04:22Z</time>
      </trkpt>
      <trkpt lat="44.88292" lon="5.53149">
        <ele>1621</ele>
        <time>2014-02-23T08:04:27Z</time>
      </trkpt>
      <trkpt lat="44.88292" lon="5.53146">
        <ele>1622</ele>
        <time>2014-02-23T08:04:32Z</time>
      </trkpt>
      <trkpt lat="44.88292" lon="5.53143">
        <ele>1623</ele>
        <time>2014-02-23T08:04:37Z</time>
      </trkpt>
      <trkpt lat="44.88291" lon="5.5314">
        <ele>1624</ele>
        <time>2014-02-23T08:04:42Z</time>
      </trkpt>
      <trkpt lat="44.88291" lon="5.53137">
        <ele>1625</ele>
        <time>2014-02-23T08:04:47Z</time>
      </trkpt>
      <trkpt lat="44.88292" lon="5.53133">
        <ele>1626</ele>
        <time>2014-02-23T08:04:52Z</time>
      </trkpt>
      <trkpt lat="44.88292" lon="5.5313">
        <ele>1627</ele>
        <time>2014-02-23T08:04:57Z</time>
      </trkpt>
      <trkpt lat="44.88292" lon="5.53127">
        <ele>1627</ele>
        <time>2014-02-23T08:05:02Z</time>
      </trkpt>
      <trkpt lat="44.88292" lon="5.53124">
        <ele>1628</ele>
        <time>2014-02-23T08:05:07Z</time>
      </trkpt>
      <trkpt lat="44.88292" lon="5.53121">
        <ele>1629</ele>
        <time>2014-02-23T08:05:12Z</time>
      </trkpt>
      <trkpt lat="44.88292" lon="5.53118">
        <ele>1630</ele>
        <time>2014-02-23T08:05:17Z</time>
      </trkpt>
      <trkpt lat="44.88291" lon="5.53114">
        <ele>1631</ele>
        <time>2014-02-23T08:05:22Z</time>
      </trkpt>
      <trkpt lat="44.88291" lon="5.53111">
        <ele>1631</ele>
        <time>2014-02-23T08:05:27Z</time>
      </trkpt>
      <trkpt lat="44.88291" lon="5.53108">
        <ele>1632</ele>
        <time>2014-02-23T08:05:32Z</time>
      </trkpt>
      <trkpt lat="44.88291" lon="5.53105">
        <ele>1633</ele>
        <time>2014-02-23T08:05:37Z</time>
      </trkpt>
      <trkpt lat="44.8829" lon="5.53102">
        <ele>1633</ele>
        <time>2014-02-23T08:05:42Z</time>
      </trkpt>
      <trkpt lat="44.8829" lon="5.53099">
        <ele>1634</ele>
        <time>2014-02-23T08:05:47Z</time>
      </trkpt>
      <trkpt lat="44.8829" lon="5.53096">
        <ele>1635</ele>
        <time>2014-02-23T08:05:52Z</time>
      </trkpt>
      <trkpt lat="44.88289" lon="5.53093">
        <ele>1635</ele>
        <time>2014-02-23T08:05:57Z</time>
      </trkpt>
      <trkpt lat="44.88289" lon="5.5309">
        <ele>1636</ele>
        <time>2014-02-23T08:06:02Z</time>
      </trkpt>
      <trkpt lat="44.88288" lon="5.53087">
        <ele>1637</ele>
        <time>2014-02-23T08:06:07Z</time>
      </trkpt>
      <trkpt lat="44.88287" lon="5.53084">
        <ele>1637</ele>
        <time>2014-02-23T08:06:12Z</time>
      </trkpt>
      <trkpt lat="44.88287" lon="5.53082">
        <ele>1638</ele>
        <time>2014-02-23T08:06:17Z</time>
      </trkpt>
      <trkpt lat="44.88285" lon="5.5308">
        <ele>1639</ele>
        <time>2014-02-23T08:06:22Z</time>
      </trkpt>
      <trkpt lat="44.88283" lon="5.5308">
        <ele>1639</ele>
        <time>2014-02-23T08:06:27Z</time>
      </trkpt>
      <trkpt lat="44.8828" lon="5.5308">
        <ele>1640</ele>
        <time>2014-02-23T08:06:32Z</time>
      </trkpt>
      <trkpt lat="44.88278" lon="5.53079">
        <ele>1641</ele>
        <time>2014-02-23T08:06:37Z</time>
      </trkpt>
      <trkpt lat="44.88276" lon="5.53079">
        <ele>1641</ele>
        <time>2014-02-23T08:06:42Z</time>
      </trkpt>
      <trkpt lat="44.88273" lon="5.53079">
        <ele>1642</ele>
        <time>2014-02-23T08:06:47Z</time>
      </trkpt>
      <trkpt lat="44.88271" lon="5.53079">
        <ele>1643</ele>
        <time>2014-02-23T08:06:52Z</time>
      </trkpt>
      <trkpt lat="44.88269" lon="5.53078">
        <ele>1643</ele>
        <time>2014-02-23T08:06:57Z</time>
      </trkpt>
      <trkpt lat="44.88266" lon="5.53077">
        <ele>1644</ele>
        <time>2014-02-23T08:07:02Z</time>
      </trkpt>
      <trkpt lat="44.88264" lon="5.53076">
        <ele>1645</ele>
        <time>2014-02-23T08:07:07Z</time>
      </trkpt>
      <trkpt lat="44.88262" lon="5.53075">
        <ele>1646</ele>
        <time>2014-02-23T08:07:12Z</time>
      </trkpt>
      <trkpt lat="44.8826" lon="5.53074">
        <ele>1647</ele>
        <time>2014-02-23T08:07:17Z</time>
      </trkpt>
      <trkpt lat="44.88258" lon="5.53073">
        <ele>1647</ele>
        <time>2014-02-23T08:07:22Z</time>
      </trkpt>
      <trkpt lat="44.88255" lon="5.53072">
        <ele>1648</ele>
        <time>2014-02-23T08:07:27Z</time>
      </trkpt>
      <trkpt lat="44.88253" lon="5.53071">
        <ele>1649</ele>
        <time>2014-02-23T08:07:32Z</time>
      </trkpt>
      <trkpt lat="44.88251" lon="5.5307">
        <ele>1649</ele>
        <time>2014-02-23T08:07:37Z</time>
      </trkpt>
      <trkpt lat="44.88249" lon="5.5307">
        <ele>1650</ele>
        <time>2014-02-23T08:07:42Z</time>
      </trkpt>
      <trkpt lat="44.88247" lon="5.53069">
        <ele>1651</ele>
        <time>2014-02-23T08:07:47Z</time>
      </trkpt>
      <trkpt lat="44.88247" lon="5.53066">
        <ele>1652</ele>
        <time>2014-02-23T08:07:52Z</time>
      </trkpt>
      <trkpt lat="44.88248" lon="5.53063">
        <ele>1652</ele>
        <time>2014-02-23T08:07:57Z</time>
      </trkpt>
      <trkpt lat="44.88249" lon="5.53061">
        <ele>1653</ele>
        <time>2014-02-23T08:08:02Z</time>
      </trkpt>
      <trkpt lat="44.8825" lon="5.53058">
        <ele>1654</ele>
        <time>2014-02-23T08:08:07Z</time>
      </trkpt>
      <trkpt lat="44.88252" lon="5.53056">
        <ele>1654</ele>
        <time>2014-02-23T08:08:12Z</time>
      </trkpt>
      <trkpt lat="44.88253" lon="5.53054">
        <ele>1655</ele>
        <time>2014-02-23T08:08:17Z</time>
      </trkpt>
      <trkpt lat="44.88254" lon="5.53051">
        <ele>1656</ele>
        <time>2014-02-23T08:08:22Z</time>
      </trkpt>
      <trkpt lat="44.88255" lon="5.53049">
        <ele>1657</ele>
        <time>2014-02-23T08:08:27Z</time>
      </trkpt>
      <trkpt lat="44.88257" lon="5.53046">
        <ele>1658</ele>
        <time>2014-02-23T08:08:32Z</time>
      </trkpt>
      <trkpt lat="44.88257" lon="5.53043">
        <ele>1659</ele>
        <time>2014-02-23T08:08:37Z</time>
      </trkpt>
      <trkpt lat="44.88258" lon="5.53041">
        <ele>1659</ele>
        <time>2014-02-23T08:08:42Z</time>
      </trkpt>
      <trkpt lat="44.88259" lon="5.53038">
        <ele>1660</ele>
        <time>2014-02-23T08:08:47Z</time>
      </trkpt>
      <trkpt lat="44.8826" lon="5.53036">
        <ele>1661</ele>
        <time>2014-02-23T08:08:52Z</time>
      </trkpt>
      <trkpt lat="44.88262" lon="5.53033">
        <ele>1662</ele>
        <time>2014-02-23T08:08:57Z</time>
      </trkpt>
      <trkpt lat="44.88263" lon="5.53031">
        <ele>1663</ele>
        <time>2014-02-23T08:09:02Z</time>
      </trkpt>
      <trkpt lat="44.88264" lon="5.53028">
        <ele>1663</ele>
        <time>2014-02-23T08:09:07Z</time>
      </trkpt>
      <trkpt lat="44.88261" lon="5.53027">
        <ele>1664</ele>
        <time>2014-02-23T08:09:12Z</time>
      </trkpt>
      <trkpt lat="44.8826" lon="5.53025">
        <ele>1664</ele>
        <time>2014-02-23T08:09:17Z</time>
      </trkpt>
      <trkpt lat="44.88257" lon="5.53023">
        <ele>1665</ele>
        <time>2014-02-23T08:09:22Z</time>
      </trkpt>
      <trkpt lat="44.88255" lon="5.53021">
        <ele>1666</ele>
        <time>2014-02-23T08:09:27Z</time>
      </trkpt>
      <trkpt lat="44.88253" lon="5.53018">
        <ele>1666</ele>
        <time>2014-02-23T08:09:32Z</time>
      </trkpt>
      <trkpt lat="44.88252" lon="5.53015">
        <ele>1667</ele>
        <time>2014-02-23T08:09:37Z</time>
      </trkpt>
      <trkpt lat="44.88251" lon="5.53012">
        <ele>1668</ele>
        <time>2014-02-23T08:09:42Z</time>
      </trkpt>
      <trkpt lat="44.8825" lon="5.53009">
        <ele>1669</ele>
        <time>2014-02-23T08:09:47Z</time>
      </trkpt>
      <trkpt lat="44.8825" lon="5.53006">
        <ele>1669</ele>
        <time>2014-02-23T08:09:52Z</time>
      </trkpt>
      <trkpt lat="44.88249" lon="5.53003">
        <ele>1670</ele>
        <time>2014-02-23T08:09:57Z</time>
      </trkpt>
      <trkpt lat="44.88248" lon="5.53">
        <ele>1671</ele>
        <time>2014-02-23T08:10:02Z</time>
      </trkpt>
      <trkpt lat="44.88248" lon="5.52997">
        <ele>1671</ele>
        <time>2014-02-23T08:10:07Z</time>
      </trkpt>
      <trkpt lat="44.88247" lon="5.52994">
        <ele>1672</ele>
        <time>2014-02-23T08:10:12Z</time>
      </trkpt>
      <trkpt lat="44.88247" lon="5.52994">
        <ele>1672</ele>
        <time>2014-02-23T08:10:17Z</time>
      </trkpt>
      <trkpt lat="44.88247" lon="5.52993">
        <ele>1672</ele>
        <time>2014-02-23T08:10:22Z</time>
      </trkpt>
      <trkpt lat="44.88247" lon="5.52994">
        <ele>1672</ele>
        <time>2014-02-23T08:10:27Z</time>
      </trkpt>
      <trkpt lat="44.88247" lon="5.52991">
        <ele>1673</ele>
        <time>2014-02-23T08:10:32Z</time>
      </trkpt>
      <trkpt lat="44.88248" lon="5.52988">
        <ele>1674</ele>
        <time>2014-02-23T08:10:37Z</time>
      </trkpt>
      <trkpt lat="44.88248" lon="5.52985">
        <ele>1674</ele>
        <time>2014-02-23T08:10:42Z</time>
      </trkpt>
      <trkpt lat="44.88249" lon="5.52982">
        <ele>1675</ele>
        <time>2014-02-23T08:10:47Z</time>
      </trkpt>
      <trkpt lat="44.88249" lon="5.52978">
        <ele>1675</ele>
        <time>2014-02-23T08:10:52Z</time>
      </trkpt>
      <trkpt lat="44.8825" lon="5.52975">
        <ele>1676</ele>
        <time>2014-02-23T08:10:57Z</time>
      </trkpt>
      <trkpt lat="44.88251" lon="5.52971">
        <ele>1677</ele>
        <time>2014-02-23T08:11:02Z</time>
      </trkpt>
      <trkpt lat="44.88251" lon="5.52968">
        <ele>1677</ele>
        <time>2014-02-23T08:11:07Z</time>
      </trkpt>
      <trkpt lat="44.88252" lon="5.52965">
        <ele>1678</ele>
        <time>2014-02-23T08:11:12Z</time>
      </trkpt>
      <trkpt lat="44.88253" lon="5.52961">
        <ele>1679</ele>
        <time>2014-02-23T08:11:17Z</time>
      </trkpt>
      <trkpt lat="44.88254" lon="5.52958">
        <ele>1679</ele>
        <time>2014-02-23T08:11:22Z</time>
      </trkpt>
      <trkpt lat="44.88254" lon="5.52955">
        <ele>1680</ele>
        <time>2014-02-23T08:11:27Z</time>
      </trkpt>
      <trkpt lat="44.88255" lon="5.52952">
        <ele>1681</ele>
        <time>2014-02-23T08:11:32Z</time>
      </trkpt>
      <trkpt lat="44.88257" lon="5.52949">
        <ele>1682</ele>
        <time>2014-02-23T08:11:37Z</time>
      </trkpt>
      <trkpt lat="44.88257" lon="5.52946">
        <ele>1682</ele>
        <time>2014-02-23T08:11:42Z</time>
      </trkpt>
      <trkpt lat="44.88259" lon="5.52943">
        <ele>1683</ele>
        <time>2014-02-23T08:11:47Z</time>
      </trkpt>
      <trkpt lat="44.88261" lon="5.52941">
        <ele>1684</ele>
        <time>2014-02-23T08:11:52Z</time>
      </trkpt>
      <trkpt lat="44.88263" lon="5.52939">
        <ele>1685</ele>
        <time>2014-02-23T08:11:57Z</time>
      </trkpt>
      <trkpt lat="44.88265" lon="5.52938">
        <ele>1686</ele>
        <time>2014-02-23T08:12:02Z</time>
      </trkpt>
      <trkpt lat="44.88267" lon="5.52936">
        <ele>1686</ele>
        <time>2014-02-23T08:12:07Z</time>
      </trkpt>
      <trkpt lat="44.8827" lon="5.52935">
        <ele>1687</ele>
        <time>2014-02-23T08:12:12Z</time>
      </trkpt>
      <trkpt lat="44.88272" lon="5.52933">
        <ele>1688</ele>
        <time>2014-02-23T08:12:17Z</time>
      </trkpt>
      <trkpt lat="44.88274" lon="5.52932">
        <ele>1689</ele>
        <time>2014-02-23T08:12:22Z</time>
      </trkpt>
      <trkpt lat="44.88277" lon="5.5293">
        <ele>1690</ele>
        <time>2014-02-23T08:12:27Z</time>
      </trkpt>
      <trkpt lat="44.88279" lon="5.52929">
        <ele>1691</ele>
        <time>2014-02-23T08:12:32Z</time>
      </trkpt>
      <trkpt lat="44.88281" lon="5.52928">
        <ele>1691</ele>
        <time>2014-02-23T08:12:37Z</time>
      </trkpt>
      <trkpt lat="44.88283" lon="5.52926">
        <ele>1692</ele>
        <time>2014-02-23T08:12:42Z</time>
      </trkpt>
      <trkpt lat="44.88285" lon="5.52925">
        <ele>1692</ele>
        <time>2014-02-23T08:12:47Z</time>
      </trkpt>
      <trkpt lat="44.88287" lon="5.52923">
        <ele>1693</ele>
        <time>2014-02-23T08:12:52Z</time>
      </trkpt>
      <trkpt lat="44.88289" lon="5.52922">
        <ele>1694</ele>
        <time>2014-02-23T08:12:57Z</time>
      </trkpt>
      <trkpt lat="44.8829" lon="5.5292">
        <ele>1695</ele>
        <time>2014-02-23T08:13:02Z</time>
      </trkpt>
      <trkpt lat="44.8829" lon="5.52918">
        <ele>1695</ele>
        <time>2014-02-23T08:13:07Z</time>
      </trkpt>
      <trkpt lat="44.88289" lon="5.52917">
        <ele>1696</ele>
        <time>2014-02-23T08:13:12Z</time>
      </trkpt>
      <trkpt lat="44.88289" lon="5.52916">
        <ele>1696</ele>
        <time>2014-02-23T08:13:17Z</time>
      </trkpt>
      <trkpt lat="44.88289" lon="5.52916">
        <ele>1696</ele>
        <time>2014-02-23T08:13:22Z</time>
      </trkpt>
      <trkpt lat="44.88289" lon="5.52916">
        <ele>1695</ele>
        <time>2014-02-23T08:13:27Z</time>
      </trkpt>
      <trkpt lat="44.88288" lon="5.52915">
        <ele>1696</ele>
        <time>2014-02-23T08:13:32Z</time>
      </trkpt>
      <trkpt lat="44.88286" lon="5.52913">
        <ele>1697</ele>
        <time>2014-02-23T08:13:37Z</time>
      </trkpt>
      <trkpt lat="44.88284" lon="5.52911">
        <ele>1697</ele>
        <time>2014-02-23T08:13:42Z</time>
      </trkpt>
      <trkpt lat="44.88282" lon="5.5291">
        <ele>1698</ele>
        <time>2014-02-23T08:13:47Z</time>
      </trkpt>
      <trkpt lat="44.8828" lon="5.52908">
        <ele>1699</ele>
        <time>2014-02-23T08:13:52Z</time>
      </trkpt>
      <trkpt lat="44.88278" lon="5.52906">
        <ele>1699</ele>
        <time>2014-02-23T08:13:57Z</time>
      </trkpt>
      <trkpt lat="44.88275" lon="5.52904">
        <ele>1700</ele>
        <time>2014-02-23T08:14:02Z</time>
      </trkpt>
      <trkpt lat="44.88273" lon="5.52902">
        <ele>1701</ele>
        <time>2014-02-23T08:14:07Z</time>
      </trkpt>
      <trkpt lat="44.88272" lon="5.52899">
        <ele>1702</ele>
        <time>2014-02-23T08:14:12Z</time>
      </trkpt>
      <trkpt lat="44.8827" lon="5.52896">
        <ele>1703</ele>
        <time>2014-02-23T08:14:17Z</time>
      </trkpt>
      <trkpt lat="44.88269" lon="5.52893">
        <ele>1704</ele>
        <time>2014-02-23T08:14:22Z</time>
      </trkpt>
      <trkpt lat="44.88268" lon="5.52891">
        <ele>1704</ele>
        <time>2014-02-23T08:14:27Z</time>
      </trkpt>
      <trkpt lat="44.88266" lon="5.52888">
        <ele>1705</ele>
        <time>2014-02-23T08:14:32Z</time>
      </trkpt>
      <trkpt lat="44.88265" lon="5.52885">
        <ele>1706</ele>
        <time>2014-02-23T08:14:37Z</time>
      </trkpt>
      <trkpt lat="44.88264" lon="5.52882">
        <ele>1706</ele>
        <time>2014-02-23T08:14:42Z</time>
      </trkpt>
      <trkpt lat="44.88263" lon="5.52879">
        <ele>1707</ele>
        <time>2014-02-23T08:14:47Z</time>
      </trkpt>
      <trkpt lat="44.88262" lon="5.52876">
        <ele>1708</ele>
        <time>2014-02-23T08:14:52Z</time>
      </trkpt>
      <trkpt lat="44.88262" lon="5.52873">
        <ele>1709</ele>
        <time>2014-02-23T08:14:57Z</time>
      </trkpt>
      <trkpt lat="44.88261" lon="5.52869">
        <ele>1709</ele>
        <time>2014-02-23T08:15:02Z</time>
      </trkpt>
      <trkpt lat="44.88261" lon="5.52866">
        <ele>1710</ele>
        <time>2014-02-23T08:15:07Z</time>
      </trkpt>
      <trkpt lat="44.88261" lon="5.52862">
        <ele>1711</ele>
        <time>2014-02-23T08:15:12Z</time>
      </trkpt>
      <trkpt lat="44.88261" lon="5.52859">
        <ele>1712</ele>
        <time>2014-02-23T08:15:17Z</time>
      </trkpt>
      <trkpt lat="44.88261" lon="5.52856">
        <ele>1712</ele>
        <time>2014-02-23T08:15:22Z</time>
      </trkpt>
      <trkpt lat="44.88261" lon="5.52853">
        <ele>1713</ele>
        <time>2014-02-23T08:15:27Z</time>
      </trkpt>
      <trkpt lat="44.88262" lon="5.5285">
        <ele>1714</ele>
        <time>2014-02-23T08:15:32Z</time>
      </trkpt>
      <trkpt lat="44.88263" lon="5.52846">
        <ele>1714</ele>
        <time>2014-02-23T08:15:37Z</time>
      </trkpt>
      <trkpt lat="44.88264" lon="5.52842">
        <ele>1715</ele>
        <time>2014-02-23T08:15:42Z</time>
      </trkpt>
      <trkpt lat="44.88265" lon="5.52839">
        <ele>1715</ele>
        <time>2014-02-23T08:15:47Z</time>
      </trkpt>
      <trkpt lat="44.88266" lon="5.52835">
        <ele>1716</ele>
        <time>2014-02-23T08:15:52Z</time>
      </trkpt>
      <trkpt lat="44.88267" lon="5.52832">
        <ele>1717</ele>
        <time>2014-02-23T08:15:57Z</time>
      </trkpt>
      <trkpt lat="44.88267" lon="5.52829">
        <ele>1718</ele>
        <time>2014-02-23T08:16:02Z</time>
      </trkpt>
      <trkpt lat="44.88268" lon="5.52825">
        <ele>1719</ele>
        <time>2014-02-23T08:16:07Z</time>
      </trkpt>
      <trkpt lat="44.88268" lon="5.52821">
        <ele>1719</ele>
        <time>2014-02-23T08:16:12Z</time>
      </trkpt>
      <trkpt lat="44.88269" lon="5.52817">
        <ele>1720</ele>
        <time>2014-02-23T08:16:17Z</time>
      </trkpt>
      <trkpt lat="44.88269" lon="5.52813">
        <ele>1721</ele>
        <time>2014-02-23T08:16:22Z</time>
      </trkpt>
      <trkpt lat="44.88269" lon="5.5281">
        <ele>1721</ele>
        <time>2014-02-23T08:16:27Z</time>
      </trkpt>
      <trkpt lat="44.88269" lon="5.52805">
        <ele>1722</ele>
        <time>2014-02-23T08:16:32Z</time>
      </trkpt>
      <trkpt lat="44.88269" lon="5.52802">
        <ele>1723</ele>
        <time>2014-02-23T08:16:37Z</time>
      </trkpt>
      <trkpt lat="44.88269" lon="5.52798">
        <ele>1723</ele>
        <time>2014-02-23T08:16:42Z</time>
      </trkpt>
      <trkpt lat="44.88269" lon="5.52795">
        <ele>1724</ele>
        <time>2014-02-23T08:16:47Z</time>
      </trkpt>
      <trkpt lat="44.88269" lon="5.52791">
        <ele>1725</ele>
        <time>2014-02-23T08:16:52Z</time>
      </trkpt>
      <trkpt lat="44.88268" lon="5.52788">
        <ele>1726</ele>
        <time>2014-02-23T08:16:57Z</time>
      </trkpt>
      <trkpt lat="44.88268" lon="5.52785">
        <ele>1726</ele>
        <time>2014-02-23T08:17:02Z</time>
      </trkpt>
      <trkpt lat="44.88268" lon="5.52783">
        <ele>1727</ele>
        <time>2014-02-23T08:17:07Z</time>
      </trkpt>
      <trkpt lat="44.88269" lon="5.5278">
        <ele>1727</ele>
        <time>2014-02-23T08:17:12Z</time>
      </trkpt>
      <trkpt lat="44.88269" lon="5.52776">
        <ele>1728</ele>
        <time>2014-02-23T08:17:17Z</time>
      </trkpt>
      <trkpt lat="44.88268" lon="5.52773">
        <ele>1728</ele>
        <time>2014-02-23T08:17:22Z</time>
      </trkpt>
      <trkpt lat="44.88268" lon="5.5277">
        <ele>1729</ele>
        <time>2014-02-23T08:17:27Z</time>
      </trkpt>
      <trkpt lat="44.88268" lon="5.52767">
        <ele>1730</ele>
        <time>2014-02-23T08:17:32Z</time>
      </trkpt>
      <trkpt lat="44.88268" lon="5.52763">
        <ele>1731</ele>
        <time>2014-02-23T08:17:37Z</time>
      </trkpt>
      <trkpt lat="44.88268" lon="5.5276">
        <ele>1732</ele>
        <time>2014-02-23T08:17:42Z</time>
      </trkpt>
      <trkpt lat="44.88268" lon="5.52756">
        <ele>1732</ele>
        <time>2014-02-23T08:17:47Z</time>
      </trkpt>
      <trkpt lat="44.88268" lon="5.52752">
        <ele>1733</ele>
        <time>2014-02-23T08:17:52Z</time>
      </trkpt>
      <trkpt lat="44.88267" lon="5.52749">
        <ele>1734</ele>
        <time>2014-02-23T08:17:57Z</time>
      </trkpt>
      <trkpt lat="44.88267" lon="5.52745">
        <ele>1735</ele>
        <time>2014-02-23T08:18:02Z</time>
      </trkpt>
      <trkpt lat="44.88267" lon="5.52742">
        <ele>1735</ele>
        <time>2014-02-23T08:18:07Z</time>
      </trkpt>
      <trkpt lat="44.88266" lon="5.52739">
        <ele>1736</ele>
        <time>2014-02-23T08:18:12Z</time>
      </trkpt>
      <trkpt lat="44.88266" lon="5.52736">
        <ele>1737</ele>
        <time>2014-02-23T08:18:17Z</time>
      </trkpt>
      <trkpt lat="44.88265" lon="5.52733">
        <ele>1737</ele>
        <time>2014-02-23T08:18:22Z</time>
      </trkpt>
      <trkpt lat="44.88265" lon="5.5273">
        <ele>1738</ele>
        <time>2014-02-23T08:18:27Z</time>
      </trkpt>
      <trkpt lat="44.88264" lon="5.52726">
        <ele>1739</ele>
        <time>2014-02-23T08:18:32Z</time>
      </trkpt>
      <trkpt lat="44.88264" lon="5.52723">
        <ele>1740</ele>
        <time>2014-02-23T08:18:37Z</time>
      </trkpt>
      <trkpt lat="44.88263" lon="5.52719">
        <ele>1740</ele>
        <time>2014-02-23T08:18:42Z</time>
      </trkpt>
      <trkpt lat="44.88263" lon="5.52716">
        <ele>1741</ele>
        <time>2014-02-23T08:18:47Z</time>
      </trkpt>
      <trkpt lat="44.88262" lon="5.52712">
        <ele>1742</ele>
        <time>2014-02-23T08:18:52Z</time>
      </trkpt>
      <trkpt lat="44.88262" lon="5.52709">
        <ele>1742</ele>
        <time>2014-02-23T08:18:57Z</time>
      </trkpt>
      <trkpt lat="44.88261" lon="5.52706">
        <ele>1743</ele>
        <time>2014-02-23T08:19:02Z</time>
      </trkpt>
      <trkpt lat="44.8826" lon="5.52703">
        <ele>1744</ele>
        <time>2014-02-23T08:19:07Z</time>
      </trkpt>
      <trkpt lat="44.88259" lon="5.52701">
        <ele>1744</ele>
        <time>2014-02-23T08:19:12Z</time>
      </trkpt>
      <trkpt lat="44.88258" lon="5.52698">
        <ele>1745</ele>
        <time>2014-02-23T08:19:17Z</time>
      </trkpt>
      <trkpt lat="44.88257" lon="5.52696">
        <ele>1746</ele>
        <time>2014-02-23T08:19:22Z</time>
      </trkpt>
      <trkpt lat="44.88256" lon="5.52694">
        <ele>1746</ele>
        <time>2014-02-23T08:19:27Z</time>
      </trkpt>
      <trkpt lat="44.88255" lon="5.52692">
        <ele>1747</ele>
        <time>2014-02-23T08:19:32Z</time>
      </trkpt>
      <trkpt lat="44.88253" lon="5.5269">
        <ele>1748</ele>
        <time>2014-02-23T08:19:37Z</time>
      </trkpt>
      <trkpt lat="44.88253" lon="5.52688">
        <ele>1748</ele>
        <time>2014-02-23T08:19:42Z</time>
      </trkpt>
      <trkpt lat="44.88252" lon="5.52685">
        <ele>1749</ele>
        <time>2014-02-23T08:19:47Z</time>
      </trkpt>
      <trkpt lat="44.88252" lon="5.52683">
        <ele>1750</ele>
        <time>2014-02-23T08:19:52Z</time>
      </trkpt>
      <trkpt lat="44.88252" lon="5.52681">
        <ele>1751</ele>
        <time>2014-02-23T08:19:57Z</time>
      </trkpt>
      <trkpt lat="44.88251" lon="5.52678">
        <ele>1751</ele>
        <time>2014-02-23T08:20:02Z</time>
      </trkpt>
      <trkpt lat="44.88251" lon="5.52676">
        <ele>1752</ele>
        <time>2014-02-23T08:20:07Z</time>
      </trkpt>
      <trkpt lat="44.8825" lon="5.52673">
        <ele>1753</ele>
        <time>2014-02-23T08:20:12Z</time>
      </trkpt>
      <trkpt lat="44.88249" lon="5.52671">
        <ele>1754</ele>
        <time>2014-02-23T08:20:17Z</time>
      </trkpt>
      <trkpt lat="44.88247" lon="5.52669">
        <ele>1755</ele>
        <time>2014-02-23T08:20:22Z</time>
      </trkpt>
      <trkpt lat="44.88246" lon="5.52668">
        <ele>1755</ele>
        <time>2014-02-23T08:20:27Z</time>
      </trkpt>
      <trkpt lat="44.88245" lon="5.52665">
        <ele>1756</ele>
        <time>2014-02-23T08:20:32Z</time>
      </trkpt>
      <trkpt lat="44.88245" lon="5.52662">
        <ele>1757</ele>
        <time>2014-02-23T08:20:37Z</time>
      </trkpt>
      <trkpt lat="44.88245" lon="5.52659">
        <ele>1758</ele>
        <time>2014-02-23T08:20:42Z</time>
      </trkpt>
      <trkpt lat="44.88245" lon="5.52657">
        <ele>1758</ele>
        <time>2014-02-23T08:20:47Z</time>
      </trkpt>
      <trkpt lat="44.88245" lon="5.52654">
        <ele>1759</ele>
        <time>2014-02-23T08:20:52Z</time>
      </trkpt>
      <trkpt lat="44.88244" lon="5.52651">
        <ele>1760</ele>
        <time>2014-02-23T08:20:57Z</time>
      </trkpt>
      <trkpt lat="44.88243" lon="5.5265">
        <ele>1761</ele>
        <time>2014-02-23T08:21:02Z</time>
      </trkpt>
      <trkpt lat="44.88241" lon="5.52648">
        <ele>1761</ele>
        <time>2014-02-23T08:21:07Z</time>
      </trkpt>
      <trkpt lat="44.88239" lon="5.52647">
        <ele>1762</ele>
        <time>2014-02-23T08:21:12Z</time>
      </trkpt>
      <trkpt lat="44.88238" lon="5.52645">
        <ele>1762</ele>
        <time>2014-02-23T08:21:17Z</time>
      </trkpt>
      <trkpt lat="44.88237" lon="5.52643">
        <ele>1763</ele>
        <time>2014-02-23T08:21:22Z</time>
      </trkpt>
      <trkpt lat="44.88236" lon="5.5264">
        <ele>1763</ele>
        <time>2014-02-23T08:21:27Z</time>
      </trkpt>
      <trkpt lat="44.88236" lon="5.52637">
        <ele>1764</ele>
        <time>2014-02-23T08:21:32Z</time>
      </trkpt>
      <trkpt lat="44.88236" lon="5.52634">
        <ele>1765</ele>
        <time>2014-02-23T08:21:37Z</time>
      </trkpt>
      <trkpt lat="44.88236" lon="5.52631">
        <ele>1765</ele>
        <time>2014-02-23T08:21:42Z</time>
      </trkpt>
      <trkpt lat="44.88236" lon="5.52629">
        <ele>1766</ele>
        <time>2014-02-23T08:21:47Z</time>
      </trkpt>
      <trkpt lat="44.88234" lon="5.52627">
        <ele>1767</ele>
        <time>2014-02-23T08:21:52Z</time>
      </trkpt>
      <trkpt lat="44.88233" lon="5.52625">
        <ele>1768</ele>
        <time>2014-02-23T08:21:57Z</time>
      </trkpt>
      <trkpt lat="44.88231" lon="5.52624">
        <ele>1769</ele>
        <time>2014-02-23T08:22:02Z</time>
      </trkpt>
      <trkpt lat="44.88229" lon="5.52623">
        <ele>1769</ele>
        <time>2014-02-23T08:22:07Z</time>
      </trkpt>
      <trkpt lat="44.88228" lon="5.52622">
        <ele>1770</ele>
        <time>2014-02-23T08:22:12Z</time>
      </trkpt>
      <trkpt lat="44.88226" lon="5.5262">
        <ele>1771</ele>
        <time>2014-02-23T08:22:17Z</time>
      </trkpt>
      <trkpt lat="44.88224" lon="5.5262">
        <ele>1771</ele>
        <time>2014-02-23T08:22:22Z</time>
      </trkpt>
      <trkpt lat="44.88222" lon="5.52619">
        <ele>1772</ele>
        <time>2014-02-23T08:22:27Z</time>
      </trkpt>
      <trkpt lat="44.88221" lon="5.52618">
        <ele>1773</ele>
        <time>2014-02-23T08:22:32Z</time>
      </trkpt>
      <trkpt lat="44.88221" lon="5.52615">
        <ele>1774</ele>
        <time>2014-02-23T08:22:37Z</time>
      </trkpt>
      <trkpt lat="44.8822" lon="5.52612">
        <ele>1774</ele>
        <time>2014-02-23T08:22:42Z</time>
      </trkpt>
      <trkpt lat="44.8822" lon="5.52609">
        <ele>1775</ele>
        <time>2014-02-23T08:22:47Z</time>
      </trkpt>
      <trkpt lat="44.8822" lon="5.52606">
        <ele>1776</ele>
        <time>2014-02-23T08:22:52Z</time>
      </trkpt>
      <trkpt lat="44.8822" lon="5.52604">
        <ele>1776</ele>
        <time>2014-02-23T08:22:57Z</time>
      </trkpt>
      <trkpt lat="44.8822" lon="5.52601">
        <ele>1777</ele>
        <time>2014-02-23T08:23:02Z</time>
      </trkpt>
      <trkpt lat="44.8822" lon="5.52598">
        <ele>1778</ele>
        <time>2014-02-23T08:23:07Z</time>
      </trkpt>
      <trkpt lat="44.8822" lon="5.52596">
        <ele>1778</ele>
        <time>2014-02-23T08:23:12Z</time>
      </trkpt>
      <trkpt lat="44.88219" lon="5.52593">
        <ele>1779</ele>
        <time>2014-02-23T08:23:17Z</time>
      </trkpt>
      <trkpt lat="44.88219" lon="5.52591">
        <ele>1780</ele>
        <time>2014-02-23T08:23:22Z</time>
      </trkpt>
      <trkpt lat="44.88219" lon="5.52588">
        <ele>1781</ele>
        <time>2014-02-23T08:23:27Z</time>
      </trkpt>
      <trkpt lat="44.88218" lon="5.52586">
        <ele>1781</ele>
        <time>2014-02-23T08:23:32Z</time>
      </trkpt>
      <trkpt lat="44.88216" lon="5.52584">
        <ele>1782</ele>
        <time>2014-02-23T08:23:37Z</time>
      </trkpt>
      <trkpt lat="44.88215" lon="5.52582">
        <ele>1783</ele>
        <time>2014-02-23T08:23:42Z</time>
      </trkpt>
      <trkpt lat="44.88213" lon="5.5258">
        <ele>1783</ele>
        <time>2014-02-23T08:23:47Z</time>
      </trkpt>
      <trkpt lat="44.88212" lon="5.52579">
        <ele>1784</ele>
        <time>2014-02-23T08:23:52Z</time>
      </trkpt>
      <trkpt lat="44.8821" lon="5.52577">
        <ele>1785</ele>
        <time>2014-02-23T08:23:57Z</time>
      </trkpt>
      <trkpt lat="44.8821" lon="5.52575">
        <ele>1786</ele>
        <time>2014-02-23T08:24:02Z</time>
      </trkpt>
      <trkpt lat="44.88209" lon="5.52572">
        <ele>1786</ele>
        <time>2014-02-23T08:24:07Z</time>
      </trkpt>
      <trkpt lat="44.88209" lon="5.5257">
        <ele>1787</ele>
        <time>2014-02-23T08:24:12Z</time>
      </trkpt>
      <trkpt lat="44.88208" lon="5.52567">
        <ele>1788</ele>
        <time>2014-02-23T08:24:17Z</time>
      </trkpt>
      <trkpt lat="44.88208" lon="5.52565">
        <ele>1789</ele>
        <time>2014-02-23T08:24:22Z</time>
      </trkpt>
      <trkpt lat="44.88208" lon="5.52563">
        <ele>1790</ele>
        <time>2014-02-23T08:24:27Z</time>
      </trkpt>
      <trkpt lat="44.88207" lon="5.5256">
        <ele>1790</ele>
        <time>2014-02-23T08:24:32Z</time>
      </trkpt>
      <trkpt lat="44.88206" lon="5.52558">
        <ele>1791</ele>
        <time>2014-02-23T08:24:37Z</time>
      </trkpt>
      <trkpt lat="44.88205" lon="5.52556">
        <ele>1792</ele>
        <time>2014-02-23T08:24:42Z</time>
      </trkpt>
      <trkpt lat="44.88204" lon="5.52554">
        <ele>1793</ele>
        <time>2014-02-23T08:24:47Z</time>
      </trkpt>
      <trkpt lat="44.88202" lon="5.52552">
        <ele>1793</ele>
        <time>2014-02-23T08:24:52Z</time>
      </trkpt>
      <trkpt lat="44.88201" lon="5.5255">
        <ele>1794</ele>
        <time>2014-02-23T08:24:57Z</time>
      </trkpt>
      <trkpt lat="44.88199" lon="5.52549">
        <ele>1795</ele>
        <time>2014-02-23T08:25:02Z</time>
      </trkpt>
      <trkpt lat="44.88198" lon="5.52547">
        <ele>1795</ele>
        <time>2014-02-23T08:25:07Z</time>
      </trkpt>
      <trkpt lat="44.88197" lon="5.52546">
        <ele>1796</ele>
        <time>2014-02-23T08:25:12Z</time>
      </trkpt>
      <trkpt lat="44.88195" lon="5.52546">
        <ele>1796</ele>
        <time>2014-02-23T08:25:17Z</time>
      </trkpt>
      <trkpt lat="44.88193" lon="5.52545">
        <ele>1797</ele>
        <time>2014-02-23T08:25:22Z</time>
      </trkpt>
      <trkpt lat="44.88192" lon="5.52545">
        <ele>1798</ele>
        <time>2014-02-23T08:25:27Z</time>
      </trkpt>
      <trkpt lat="44.8819" lon="5.52546">
        <ele>1799</ele>
        <time>2014-02-23T08:25:32Z</time>
      </trkpt>
      <trkpt lat="44.88188" lon="5.52546">
        <ele>1799</ele>
        <time>2014-02-23T08:25:37Z</time>
      </trkpt>
      <trkpt lat="44.88186" lon="5.52547">
        <ele>1800</ele>
        <time>2014-02-23T08:25:42Z</time>
      </trkpt>
      <trkpt lat="44.88185" lon="5.52548">
        <ele>1801</ele>
        <time>2014-02-23T08:25:47Z</time>
      </trkpt>
      <trkpt lat="44.88183" lon="5.52548">
        <ele>1802</ele>
        <time>2014-02-23T08:25:52Z</time>
      </trkpt>
      <trkpt lat="44.88182" lon="5.52549">
        <ele>1803</ele>
        <time>2014-02-23T08:25:57Z</time>
      </trkpt>
      <trkpt lat="44.8818" lon="5.52549">
        <ele>1804</ele>
        <time>2014-02-23T08:26:02Z</time>
      </trkpt>
      <trkpt lat="44.88178" lon="5.52549">
        <ele>1804</ele>
        <time>2014-02-23T08:26:07Z</time>
      </trkpt>
      <trkpt lat="44.88177" lon="5.5255">
        <ele>1805</ele>
        <time>2014-02-23T08:26:12Z</time>
      </trkpt>
      <trkpt lat="44.88175" lon="5.5255">
        <ele>1806</ele>
        <time>2014-02-23T08:26:17Z</time>
      </trkpt>
      <trkpt lat="44.88173" lon="5.52551">
        <ele>1807</ele>
        <time>2014-02-23T08:26:22Z</time>
      </trkpt>
      <trkpt lat="44.88172" lon="5.52551">
        <ele>1808</ele>
        <time>2014-02-23T08:26:27Z</time>
      </trkpt>
      <trkpt lat="44.8817" lon="5.52551">
        <ele>1809</ele>
        <time>2014-02-23T08:26:32Z</time>
      </trkpt>
      <trkpt lat="44.88169" lon="5.52549">
        <ele>1809</ele>
        <time>2014-02-23T08:26:37Z</time>
      </trkpt>
      <trkpt lat="44.88168" lon="5.52547">
        <ele>1809</ele>
        <time>2014-02-23T08:26:42Z</time>
      </trkpt>
      <trkpt lat="44.88167" lon="5.52543">
        <ele>1810</ele>
        <time>2014-02-23T08:26:47Z</time>
      </trkpt>
      <trkpt lat="44.88167" lon="5.5254">
        <ele>1810</ele>
        <time>2014-02-23T08:26:52Z</time>
      </trkpt>
      <trkpt lat="44.88167" lon="5.52538">
        <ele>1811</ele>
        <time>2014-02-23T08:26:57Z</time>
      </trkpt>
      <trkpt lat="44.88166" lon="5.52535">
        <ele>1811</ele>
        <time>2014-02-23T08:27:02Z</time>
      </trkpt>
      <trkpt lat="44.88166" lon="5.52532">
        <ele>1812</ele>
        <time>2014-02-23T08:27:07Z</time>
      </trkpt>
      <trkpt lat="44.88166" lon="5.52529">
        <ele>1813</ele>
        <time>2014-02-23T08:27:12Z</time>
      </trkpt>
      <trkpt lat="44.88166" lon="5.52527">
        <ele>1813</ele>
        <time>2014-02-23T08:27:17Z</time>
      </trkpt>
      <trkpt lat="44.88167" lon="5.52524">
        <ele>1814</ele>
        <time>2014-02-23T08:27:22Z</time>
      </trkpt>
      <trkpt lat="44.88167" lon="5.52522">
        <ele>1815</ele>
        <time>2014-02-23T08:27:27Z</time>
      </trkpt>
      <trkpt lat="44.88167" lon="5.52519">
        <ele>1815</ele>
        <time>2014-02-23T08:27:32Z</time>
      </trkpt>
      <trkpt lat="44.88168" lon="5.52517">
        <ele>1816</ele>
        <time>2014-02-23T08:27:37Z</time>
      </trkpt>
      <trkpt lat="44.88168" lon="5.52515">
        <ele>1817</ele>
        <time>2014-02-23T08:27:42Z</time>
      </trkpt>
      <trkpt lat="44.88169" lon="5.52512">
        <ele>1817</ele>
        <time>2014-02-23T08:27:47Z</time>
      </trkpt>
      <trkpt lat="44.88169" lon="5.5251">
        <ele>1818</ele>
        <time>2014-02-23T08:27:52Z</time>
      </trkpt>
      <trkpt lat="44.8817" lon="5.52508">
        <ele>1819</ele>
        <time>2014-02-23T08:27:57Z</time>
      </trkpt>
      <trkpt lat="44.8817" lon="5.52506">
        <ele>1819</ele>
        <time>2014-02-23T08:28:02Z</time>
      </trkpt>
      <trkpt lat="44.88171" lon="5.52504">
        <ele>1820</ele>
        <time>2014-02-23T08:28:07Z</time>
      </trkpt>
      <trkpt lat="44.88172" lon="5.52501">
        <ele>1820</ele>
        <time>2014-02-23T08:28:12Z</time>
      </trkpt>
      <trkpt lat="44.88172" lon="5.52498">
        <ele>1821</ele>
        <time>2014-02-23T08:28:17Z</time>
      </trkpt>
      <trkpt lat="44.88173" lon="5.52496">
        <ele>1822</ele>
        <time>2014-02-23T08:28:22Z</time>
      </trkpt>
      <trkpt lat="44.88174" lon="5.52494">
        <ele>1822</ele>
        <time>2014-02-23T08:28:27Z</time>
      </trkpt>
      <trkpt lat="44.88174" lon="5.52491">
        <ele>1823</ele>
        <time>2014-02-23T08:28:32Z</time>
      </trkpt>
      <trkpt lat="44.88175" lon="5.52489">
        <ele>1824</ele>
        <time>2014-02-23T08:28:37Z</time>
      </trkpt>
      <trkpt lat="44.88176" lon="5.52487">
        <ele>1824</ele>
        <time>2014-02-23T08:28:42Z</time>
      </trkpt>
      <trkpt lat="44.88176" lon="5.52485">
        <ele>1825</ele>
        <time>2014-02-23T08:28:47Z</time>
      </trkpt>
      <trkpt lat="44.88177" lon="5.52482">
        <ele>1826</ele>
        <time>2014-02-23T08:28:52Z</time>
      </trkpt>
      <trkpt lat="44.88178" lon="5.5248">
        <ele>1826</ele>
        <time>2014-02-23T08:28:57Z</time>
      </trkpt>
      <trkpt lat="44.88179" lon="5.52478">
        <ele>1827</ele>
        <time>2014-02-23T08:29:02Z</time>
      </trkpt>
      <trkpt lat="44.88179" lon="5.52475">
        <ele>1828</ele>
        <time>2014-02-23T08:29:07Z</time>
      </trkpt>
      <trkpt lat="44.88181" lon="5.52473">
        <ele>1828</ele>
        <time>2014-02-23T08:29:12Z</time>
      </trkpt>
      <trkpt lat="44.88181" lon="5.52471">
        <ele>1829</ele>
        <time>2014-02-23T08:29:17Z</time>
      </trkpt>
      <trkpt lat="44.88182" lon="5.52468">
        <ele>1830</ele>
        <time>2014-02-23T08:29:22Z</time>
      </trkpt>
      <trkpt lat="44.88183" lon="5.52466">
        <ele>1830</ele>
        <time>2014-02-23T08:29:27Z</time>
      </trkpt>
      <trkpt lat="44.88184" lon="5.52463">
        <ele>1831</ele>
        <time>2014-02-23T08:29:32Z</time>
      </trkpt>
      <trkpt lat="44.88185" lon="5.52461">
        <ele>1832</ele>
        <time>2014-02-23T08:29:37Z</time>
      </trkpt>
      <trkpt lat="44.88186" lon="5.52459">
        <ele>1832</ele>
        <time>2014-02-23T08:29:42Z</time>
      </trkpt>
      <trkpt lat="44.88186" lon="5.52456">
        <ele>1833</ele>
        <time>2014-02-23T08:29:47Z</time>
      </trkpt>
      <trkpt lat="44.88187" lon="5.52454">
        <ele>1833</ele>
        <time>2014-02-23T08:29:52Z</time>
      </trkpt>
      <trkpt lat="44.88188" lon="5.52451">
        <ele>1834</ele>
        <time>2014-02-23T08:29:57Z</time>
      </trkpt>
      <trkpt lat="44.88189" lon="5.52449">
        <ele>1835</ele>
        <time>2014-02-23T08:30:02Z</time>
      </trkpt>
      <trkpt lat="44.8819" lon="5.52447">
        <ele>1835</ele>
        <time>2014-02-23T08:30:07Z</time>
      </trkpt>
      <trkpt lat="44.88191" lon="5.52445">
        <ele>1836</ele>
        <time>2014-02-23T08:30:12Z</time>
      </trkpt>
      <trkpt lat="44.88192" lon="5.52443">
        <ele>1836</ele>
        <time>2014-02-23T08:30:17Z</time>
      </trkpt>
      <trkpt lat="44.88193" lon="5.52441">
        <ele>1837</ele>
        <time>2014-02-23T08:30:22Z</time>
      </trkpt>
      <trkpt lat="44.88194" lon="5.52438">
        <ele>1838</ele>
        <time>2014-02-23T08:30:27Z</time>
      </trkpt>
      <trkpt lat="44.88195" lon="5.52436">
        <ele>1839</ele>
        <time>2014-02-23T08:30:32Z</time>
      </trkpt>
      <trkpt lat="44.88196" lon="5.52434">
        <ele>1839</ele>
        <time>2014-02-23T08:30:37Z</time>
      </trkpt>
      <trkpt lat="44.88197" lon="5.52432">
        <ele>1840</ele>
        <time>2014-02-23T08:30:42Z</time>
      </trkpt>
      <trkpt lat="44.88199" lon="5.52431">
        <ele>1841</ele>
        <time>2014-02-23T08:30:47Z</time>
      </trkpt>
      <trkpt lat="44.882" lon="5.52428">
        <ele>1841</ele>
        <time>2014-02-23T08:30:52Z</time>
      </trkpt>
      <trkpt lat="44.88201" lon="5.52427">
        <ele>1842</ele>
        <time>2014-02-23T08:30:57Z</time>
      </trkpt>
      <trkpt lat="44.88202" lon="5.52425">
        <ele>1843</ele>
        <time>2014-02-23T08:31:02Z</time>
      </trkpt>
      <trkpt lat="44.88203" lon="5.52424">
        <ele>1843</ele>
        <time>2014-02-23T08:31:07Z</time>
      </trkpt>
      <trkpt lat="44.88205" lon="5.52423">
        <ele>1843</ele>
        <time>2014-02-23T08:31:12Z</time>
      </trkpt>
      <trkpt lat="44.88205" lon="5.52422">
        <ele>1844</ele>
        <time>2014-02-23T08:31:17Z</time>
      </trkpt>
      <trkpt lat="44.88204" lon="5.5242">
        <ele>1844</ele>
        <time>2014-02-23T08:31:22Z</time>
      </trkpt>
      <trkpt lat="44.88202" lon="5.52419">
        <ele>1845</ele>
        <time>2014-02-23T08:31:27Z</time>
      </trkpt>
      <trkpt lat="44.88199" lon="5.52418">
        <ele>1846</ele>
        <time>2014-02-23T08:31:32Z</time>
      </trkpt>
      <trkpt lat="44.88197" lon="5.52417">
        <ele>1846</ele>
        <time>2014-02-23T08:31:37Z</time>
      </trkpt>
      <trkpt lat="44.88196" lon="5.52416">
        <ele>1847</ele>
        <time>2014-02-23T08:31:42Z</time>
      </trkpt>
      <trkpt lat="44.88194" lon="5.52415">
        <ele>1847</ele>
        <time>2014-02-23T08:31:47Z</time>
      </trkpt>
      <trkpt lat="44.88192" lon="5.52415">
        <ele>1848</ele>
        <time>2014-02-23T08:31:52Z</time>
      </trkpt>
      <trkpt lat="44.8819" lon="5.52414">
        <ele>1848</ele>
        <time>2014-02-23T08:31:57Z</time>
      </trkpt>
      <trkpt lat="44.88188" lon="5.52414">
        <ele>1849</ele>
        <time>2014-02-23T08:32:02Z</time>
      </trkpt>
      <trkpt lat="44.88186" lon="5.52414">
        <ele>1849</ele>
        <time>2014-02-23T08:32:07Z</time>
      </trkpt>
      <trkpt lat="44.88184" lon="5.52413">
        <ele>1850</ele>
        <time>2014-02-23T08:32:12Z</time>
      </trkpt>
      <trkpt lat="44.88182" lon="5.52413">
        <ele>1850</ele>
        <time>2014-02-23T08:32:17Z</time>
      </trkpt>
      <trkpt lat="44.88179" lon="5.52413">
        <ele>1851</ele>
        <time>2014-02-23T08:32:22Z</time>
      </trkpt>
      <trkpt lat="44.88178" lon="5.52413">
        <ele>1852</ele>
        <time>2014-02-23T08:32:27Z</time>
      </trkpt>
      <trkpt lat="44.88175" lon="5.52414">
        <ele>1852</ele>
        <time>2014-02-23T08:32:32Z</time>
      </trkpt>
      <trkpt lat="44.88173" lon="5.52414">
        <ele>1853</ele>
        <time>2014-02-23T08:32:37Z</time>
      </trkpt>
      <trkpt lat="44.88171" lon="5.52415">
        <ele>1854</ele>
        <time>2014-02-23T08:32:42Z</time>
      </trkpt>
      <trkpt lat="44.88169" lon="5.52416">
        <ele>1854</ele>
        <time>2014-02-23T08:32:47Z</time>
      </trkpt>
      <trkpt lat="44.88167" lon="5.52416">
        <ele>1855</ele>
        <time>2014-02-23T08:32:52Z</time>
      </trkpt>
      <trkpt lat="44.88166" lon="5.52416">
        <ele>1855</ele>
        <time>2014-02-23T08:32:57Z</time>
      </trkpt>
      <trkpt lat="44.88166" lon="5.52416">
        <ele>1855</ele>
        <time>2014-02-23T08:33:02Z</time>
      </trkpt>
      <trkpt lat="44.88167" lon="5.52413">
        <ele>1856</ele>
        <time>2014-02-23T08:33:07Z</time>
      </trkpt>
      <trkpt lat="44.88168" lon="5.5241">
        <ele>1857</ele>
        <time>2014-02-23T08:33:12Z</time>
      </trkpt>
      <trkpt lat="44.88169" lon="5.52408">
        <ele>1858</ele>
        <time>2014-02-23T08:33:17Z</time>
      </trkpt>
      <trkpt lat="44.8817" lon="5.52405">
        <ele>1858</ele>
        <time>2014-02-23T08:33:22Z</time>
      </trkpt>
      <trkpt lat="44.88171" lon="5.52402">
        <ele>1859</ele>
        <time>2014-02-23T08:33:27Z</time>
      </trkpt>
      <trkpt lat="44.88172" lon="5.52399">
        <ele>1860</ele>
        <time>2014-02-23T08:33:32Z</time>
      </trkpt>
      <trkpt lat="44.88173" lon="5.52397">
        <ele>1860</ele>
        <time>2014-02-23T08:33:37Z</time>
      </trkpt>
      <trkpt lat="44.88173" lon="5.52395">
        <ele>1861</ele>
        <time>2014-02-23T08:33:42Z</time>
      </trkpt>
      <trkpt lat="44.88175" lon="5.52392">
        <ele>1862</ele>
        <time>2014-02-23T08:33:47Z</time>
      </trkpt>
      <trkpt lat="44.88175" lon="5.5239">
        <ele>1862</ele>
        <time>2014-02-23T08:33:52Z</time>
      </trkpt>
      <trkpt lat="44.88176" lon="5.52388">
        <ele>1863</ele>
        <time>2014-02-23T08:33:57Z</time>
      </trkpt>
      <trkpt lat="44.88176" lon="5.52386">
        <ele>1864</ele>
        <time>2014-02-23T08:34:02Z</time>
      </trkpt>
      <trkpt lat="44.88178" lon="5.52384">
        <ele>1864</ele>
        <time>2014-02-23T08:34:07Z</time>
      </trkpt>
      <trkpt lat="44.88179" lon="5.52382">
        <ele>1865</ele>
        <time>2014-02-23T08:34:12Z</time>
      </trkpt>
      <trkpt lat="44.88179" lon="5.5238">
        <ele>1866</ele>
        <time>2014-02-23T08:34:17Z</time>
      </trkpt>
      <trkpt lat="44.8818" lon="5.52378">
        <ele>1867</ele>
        <time>2014-02-23T08:34:22Z</time>
      </trkpt>
      <trkpt lat="44.88181" lon="5.52376">
        <ele>1867</ele>
        <time>2014-02-23T08:34:27Z</time>
      </trkpt>
      <trkpt lat="44.88182" lon="5.52374">
        <ele>1868</ele>
        <time>2014-02-23T08:34:32Z</time>
      </trkpt>
      <trkpt lat="44.88183" lon="5.52372">
        <ele>1869</ele>
        <time>2014-02-23T08:34:37Z</time>
      </trkpt>
      <trkpt lat="44.88184" lon="5.52371">
        <ele>1870</ele>
        <time>2014-02-23T08:34:42Z</time>
      </trkpt>
      <trkpt lat="44.88185" lon="5.52369">
        <ele>1870</ele>
        <time>2014-02-23T08:34:47Z</time>
      </trkpt>
      <trkpt lat="44.88186" lon="5.52368">
        <ele>1871</ele>
        <time>2014-02-23T08:34:52Z</time>
      </trkpt>
      <trkpt lat="44.88187" lon="5.52365">
        <ele>1872</ele>
        <time>2014-02-23T08:34:57Z</time>
      </trkpt>
      <trkpt lat="44.88188" lon="5.52364">
        <ele>1873</ele>
        <time>2014-02-23T08:35:02Z</time>
      </trkpt>
      <trkpt lat="44.88189" lon="5.52364">
        <ele>1874</ele>
        <time>2014-02-23T08:35:07Z</time>
      </trkpt>
      <trkpt lat="44.88189" lon="5.52363">
        <ele>1874</ele>
        <time>2014-02-23T08:35:12Z</time>
      </trkpt>
      <trkpt lat="44.88187" lon="5.52363">
        <ele>1875</ele>
        <time>2014-02-23T08:35:17Z</time>
      </trkpt>
      <trkpt lat="44.88184" lon="5.52363">
        <ele>1876</ele>
        <time>2014-02-23T08:35:22Z</time>
      </trkpt>
      <trkpt lat="44.88181" lon="5.52363">
        <ele>1877</ele>
        <time>2014-02-23T08:35:27Z</time>
      </trkpt>
      <trkpt lat="44.88178" lon="5.52363">
        <ele>1877</ele>
        <time>2014-02-23T08:35:32Z</time>
      </trkpt>
      <trkpt lat="44.88176" lon="5.52363">
        <ele>1878</ele>
        <time>2014-02-23T08:35:37Z</time>
      </trkpt>
      <trkpt lat="44.88175" lon="5.52361">
        <ele>1877</ele>
        <time>2014-02-23T08:35:42Z</time>
      </trkpt>
      <trkpt lat="44.88172" lon="5.52361">
        <ele>1876</ele>
        <time>2014-02-23T08:35:47Z</time>
      </trkpt>
      <trkpt lat="44.8817" lon="5.52361">
        <ele>1877</ele>
        <time>2014-02-23T08:35:52Z</time>
      </trkpt>
      <trkpt lat="44.88168" lon="5.52361">
        <ele>1877</ele>
        <time>2014-02-23T08:35:57Z</time>
      </trkpt>
      <trkpt lat="44.88166" lon="5.52361">
        <ele>1878</ele>
        <time>2014-02-23T08:36:02Z</time>
      </trkpt>
      <trkpt lat="44.88164" lon="5.52362">
        <ele>1878</ele>
        <time>2014-02-23T08:36:07Z</time>
      </trkpt>
      <trkpt lat="44.88163" lon="5.52362">
        <ele>1879</ele>
        <time>2014-02-23T08:36:12Z</time>
      </trkpt>
      <trkpt lat="44.88161" lon="5.52363">
        <ele>1879</ele>
        <time>2014-02-23T08:36:17Z</time>
      </trkpt>
      <trkpt lat="44.88159" lon="5.52364">
        <ele>1880</ele>
        <time>2014-02-23T08:36:22Z</time>
      </trkpt>
      <trkpt lat="44.88157" lon="5.52364">
        <ele>1881</ele>
        <time>2014-02-23T08:36:27Z</time>
      </trkpt>
      <trkpt lat="44.88156" lon="5.52364">
        <ele>1881</ele>
        <time>2014-02-23T08:36:32Z</time>
      </trkpt>
      <trkpt lat="44.88156" lon="5.52364">
        <ele>1881</ele>
        <time>2014-02-23T08:36:37Z</time>
      </trkpt>
      <trkpt lat="44.88155" lon="5.52364">
        <ele>1882</ele>
        <time>2014-02-23T08:36:42Z</time>
      </trkpt>
      <trkpt lat="44.88155" lon="5.52365">
        <ele>1882</ele>
        <time>2014-02-23T08:36:47Z</time>
      </trkpt>
      <trkpt lat="44.88155" lon="5.52364">
        <ele>1882</ele>
        <time>2014-02-23T08:36:52Z</time>
      </trkpt>
      <trkpt lat="44.88155" lon="5.52364">
        <ele>1882</ele>
        <time>2014-02-23T08:36:57Z</time>
      </trkpt>
      <trkpt lat="44.88155" lon="5.52364">
        <ele>1882</ele>
        <time>2014-02-23T08:37:02Z</time>
      </trkpt>
      <trkpt lat="44.88156" lon="5.52362">
        <ele>1882</ele>
        <time>2014-02-23T08:37:07Z</time>
      </trkpt>
      <trkpt lat="44.88157" lon="5.52359">
        <ele>1883</ele>
        <time>2014-02-23T08:37:12Z</time>
      </trkpt>
      <trkpt lat="44.88157" lon="5.52356">
        <ele>1883</ele>
        <time>2014-02-23T08:37:17Z</time>
      </trkpt>
      <trkpt lat="44.88158" lon="5.52354">
        <ele>1884</ele>
        <time>2014-02-23T08:37:22Z</time>
      </trkpt>
      <trkpt lat="44.88159" lon="5.52351">
        <ele>1885</ele>
        <time>2014-02-23T08:37:27Z</time>
      </trkpt>
      <trkpt lat="44.88159" lon="5.52348">
        <ele>1886</ele>
        <time>2014-02-23T08:37:32Z</time>
      </trkpt>
      <trkpt lat="44.8816" lon="5.52346">
        <ele>1887</ele>
        <time>2014-02-23T08:37:37Z</time>
      </trkpt>
      <trkpt lat="44.88161" lon="5.52344">
        <ele>1888</ele>
        <time>2014-02-23T08:37:42Z</time>
      </trkpt>
      <trkpt lat="44.88162" lon="5.52342">
        <ele>1889</ele>
        <time>2014-02-23T08:37:47Z</time>
      </trkpt>
      <trkpt lat="44.88163" lon="5.5234">
        <ele>1890</ele>
        <time>2014-02-23T08:37:52Z</time>
      </trkpt>
      <trkpt lat="44.88164" lon="5.52339">
        <ele>1891</ele>
        <time>2014-02-23T08:37:57Z</time>
      </trkpt>
      <trkpt lat="44.88165" lon="5.52337">
        <ele>1892</ele>
        <time>2014-02-23T08:38:02Z</time>
      </trkpt>
      <trkpt lat="44.88166" lon="5.52336">
        <ele>1893</ele>
        <time>2014-02-23T08:38:07Z</time>
      </trkpt>
      <trkpt lat="44.88166" lon="5.52337">
        <ele>1893</ele>
        <time>2014-02-23T08:38:12Z</time>
      </trkpt>
      <trkpt lat="44.88166" lon="5.52336">
        <ele>1894</ele>
        <time>2014-02-23T08:38:17Z</time>
      </trkpt>
      <trkpt lat="44.88167" lon="5.52336">
        <ele>1895</ele>
        <time>2014-02-23T08:38:22Z</time>
      </trkpt>
      <trkpt lat="44.88166" lon="5.52335">
        <ele>1895</ele>
        <time>2014-02-23T08:38:27Z</time>
      </trkpt>
      <trkpt lat="44.88166" lon="5.52336">
        <ele>1895</ele>
        <time>2014-02-23T08:38:32Z</time>
      </trkpt>
      <trkpt lat="44.88163" lon="5.52335">
        <ele>1896</ele>
        <time>2014-02-23T08:38:37Z</time>
      </trkpt>
      <trkpt lat="44.88162" lon="5.52334">
        <ele>1896</ele>
        <time>2014-02-23T08:38:42Z</time>
      </trkpt>
      <trkpt lat="44.88159" lon="5.52333">
        <ele>1897</ele>
        <time>2014-02-23T08:38:47Z</time>
      </trkpt>
      <trkpt lat="44.88157" lon="5.52332">
        <ele>1898</ele>
        <time>2014-02-23T08:38:52Z</time>
      </trkpt>
      <trkpt lat="44.88155" lon="5.52332">
        <ele>1899</ele>
        <time>2014-02-23T08:38:57Z</time>
      </trkpt>
      <trkpt lat="44.88153" lon="5.52332">
        <ele>1899</ele>
        <time>2014-02-23T08:39:02Z</time>
      </trkpt>
      <trkpt lat="44.88151" lon="5.52332">
        <ele>1900</ele>
        <time>2014-02-23T08:39:07Z</time>
      </trkpt>
      <trkpt lat="44.88149" lon="5.52332">
        <ele>1901</ele>
        <time>2014-02-23T08:39:12Z</time>
      </trkpt>
      <trkpt lat="44.88148" lon="5.52333">
        <ele>1902</ele>
        <time>2014-02-23T08:39:17Z</time>
      </trkpt>
      <trkpt lat="44.88146" lon="5.52332">
        <ele>1902</ele>
        <time>2014-02-23T08:39:22Z</time>
      </trkpt>
      <trkpt lat="44.88144" lon="5.52332">
        <ele>1901</ele>
        <time>2014-02-23T08:39:27Z</time>
      </trkpt>
      <trkpt lat="44.88144" lon="5.52332">
        <ele>1901</ele>
        <time>2014-02-23T08:39:32Z</time>
      </trkpt>
      <trkpt lat="44.88142" lon="5.52333">
        <ele>1901</ele>
        <time>2014-02-23T08:39:37Z</time>
      </trkpt>
      <trkpt lat="44.88141" lon="5.52334">
        <ele>1902</ele>
        <time>2014-02-23T08:39:42Z</time>
      </trkpt>
      <trkpt lat="44.8814" lon="5.52336">
        <ele>1902</ele>
        <time>2014-02-23T08:39:47Z</time>
      </trkpt>
      <trkpt lat="44.88139" lon="5.52336">
        <ele>1902</ele>
        <time>2014-02-23T08:39:52Z</time>
      </trkpt>
      <trkpt lat="44.88139" lon="5.52337">
        <ele>1903</ele>
        <time>2014-02-23T08:39:57Z</time>
      </trkpt>
      <trkpt lat="44.8814" lon="5.52336">
        <ele>1901</ele>
        <time>2014-02-23T08:50:47Z</time>
      </trkpt>
      <trkpt lat="44.8814" lon="5.52336">
        <ele>1902</ele>
        <time>2014-02-23T08:50:52Z</time>
      </trkpt>
      <trkpt lat="44.88139" lon="5.52336">
        <ele>1900</ele>
        <time>2014-02-23T08:50:57Z</time>
      </trkpt>
      <trkpt lat="44.88138" lon="5.52336">
        <ele>1904</ele>
        <time>2014-02-23T08:51:02Z</time>
      </trkpt>
      <trkpt lat="44.88136" lon="5.52336">
        <ele>1905</ele>
        <time>2014-02-23T08:51:07Z</time>
      </trkpt>
      <trkpt lat="44.88136" lon="5.52335">
        <ele>1906</ele>
        <time>2014-02-23T08:51:12Z</time>
      </trkpt>
      <trkpt lat="44.88137" lon="5.52332">
        <ele>1907</ele>
        <time>2014-02-23T08:51:17Z</time>
      </trkpt>
      <trkpt lat="44.88138" lon="5.52328">
        <ele>1906</ele>
        <time>2014-02-23T08:51:22Z</time>
      </trkpt>
      <trkpt lat="44.88137" lon="5.52324">
        <ele>1904</ele>
        <time>2014-02-23T08:51:27Z</time>
      </trkpt>
      <trkpt lat="44.88136" lon="5.52322">
        <ele>1904</ele>
        <time>2014-02-23T08:51:32Z</time>
      </trkpt>
      <trkpt lat="44.88137" lon="5.52319">
        <ele>1905</ele>
        <time>2014-02-23T08:51:37Z</time>
      </trkpt>
      <trkpt lat="44.8814" lon="5.52316">
        <ele>1907</ele>
        <time>2014-02-23T08:51:42Z</time>
      </trkpt>
      <trkpt lat="44.8814" lon="5.52313">
        <ele>1908</ele>
        <time>2014-02-23T08:51:47Z</time>
      </trkpt>
      <trkpt lat="44.88141" lon="5.5231">
        <ele>1908</ele>
        <time>2014-02-23T08:51:52Z</time>
      </trkpt>
      <trkpt lat="44.88143" lon="5.52306">
        <ele>1909</ele>
        <time>2014-02-23T08:51:57Z</time>
      </trkpt>
      <trkpt lat="44.88145" lon="5.52303">
        <ele>1910</ele>
        <time>2014-02-23T08:52:02Z</time>
      </trkpt>
      <trkpt lat="44.88142" lon="5.52304">
        <ele>1908</ele>
        <time>2014-02-23T08:52:07Z</time>
      </trkpt>
      <trkpt lat="44.88141" lon="5.52302">
        <ele>1907</ele>
        <time>2014-02-23T08:52:12Z</time>
      </trkpt>
      <trkpt lat="44.88142" lon="5.52299">
        <ele>1907</ele>
        <time>2014-02-23T08:52:17Z</time>
      </trkpt>
      <trkpt lat="44.88145" lon="5.52297">
        <ele>1909</ele>
        <time>2014-02-23T08:52:22Z</time>
      </trkpt>
      <trkpt lat="44.88144" lon="5.52295">
        <ele>1912</ele>
        <time>2014-02-23T08:52:42Z</time>
      </trkpt>
      <trkpt lat="44.88143" lon="5.52294">
        <ele>1914</ele>
        <time>2014-02-23T08:52:47Z</time>
      </trkpt>
      <trkpt lat="44.88142" lon="5.52292">
        <ele>1914</ele>
        <time>2014-02-23T08:52:52Z</time>
      </trkpt>
      <trkpt lat="44.88142" lon="5.52291">
        <ele>1915</ele>
        <time>2014-02-23T08:52:57Z</time>
      </trkpt>
      <trkpt lat="44.88141" lon="5.52291">
        <ele>1915</ele>
        <time>2014-02-23T08:53:02Z</time>
      </trkpt>
      <trkpt lat="44.88141" lon="5.52291">
        <ele>1915</ele>
        <time>2014-02-23T08:53:07Z</time>
      </trkpt>
      <trkpt lat="44.88141" lon="5.52289">
        <ele>1913</ele>
        <time>2014-02-23T08:53:12Z</time>
      </trkpt>
      <trkpt lat="44.88141" lon="5.52289">
        <ele>1913</ele>
        <time>2014-02-23T08:53:17Z</time>
      </trkpt>
      <trkpt lat="44.88141" lon="5.52288">
        <ele>1912</ele>
        <time>2014-02-23T08:53:22Z</time>
      </trkpt>
      <trkpt lat="44.8814" lon="5.52288">
        <ele>1912</ele>
        <time>2014-02-23T08:53:27Z</time>
      </trkpt>
      <trkpt lat="44.8814" lon="5.52289">
        <ele>1911</ele>
        <time>2014-02-23T08:53:32Z</time>
      </trkpt>
      <trkpt lat="44.88139" lon="5.52289">
        <ele>1912</ele>
        <time>2014-02-23T08:53:37Z</time>
      </trkpt>
      <trkpt lat="44.88138" lon="5.52291">
        <ele>1912</ele>
        <time>2014-02-23T08:53:42Z</time>
      </trkpt>
      <trkpt lat="44.88137" lon="5.52292">
        <ele>1913</ele>
        <time>2014-02-23T08:53:47Z</time>
      </trkpt>
      <trkpt lat="44.88137" lon="5.52293">
        <ele>1914</ele>
        <time>2014-02-23T08:53:52Z</time>
      </trkpt>
      <trkpt lat="44.88136" lon="5.52293">
        <ele>1914</ele>
        <time>2014-02-23T08:53:57Z</time>
      </trkpt>
      <trkpt lat="44.88135" lon="5.52292">
        <ele>1912</ele>
        <time>2014-02-23T08:54:02Z</time>
      </trkpt>
      <trkpt lat="44.88134" lon="5.5229">
        <ele>1912</ele>
        <time>2014-02-23T08:54:07Z</time>
      </trkpt>
      <trkpt lat="44.88134" lon="5.52286">
        <ele>1913</ele>
        <time>2014-02-23T08:54:12Z</time>
      </trkpt>
      <trkpt lat="44.88133" lon="5.52284">
        <ele>1913</ele>
        <time>2014-02-23T08:54:17Z</time>
      </trkpt>
      <trkpt lat="44.88132" lon="5.52281">
        <ele>1913</ele>
        <time>2014-02-23T08:54:22Z</time>
      </trkpt>
      <trkpt lat="44.88135" lon="5.52278">
        <ele>1917</ele>
        <time>2014-02-23T08:54:27Z</time>
      </trkpt>
      <trkpt lat="44.88136" lon="5.52276">
        <ele>1918</ele>
        <time>2014-02-23T08:54:32Z</time>
      </trkpt>
      <trkpt lat="44.88135" lon="5.52273">
        <ele>1918</ele>
        <time>2014-02-23T08:54:37Z</time>
      </trkpt>
      <trkpt lat="44.88134" lon="5.52272">
        <ele>1917</ele>
        <time>2014-02-23T08:54:42Z</time>
      </trkpt>
      <trkpt lat="44.88134" lon="5.52271">
        <ele>1917</ele>
        <time>2014-02-23T08:54:47Z</time>
      </trkpt>
      <trkpt lat="44.88133" lon="5.52269">
        <ele>1917</ele>
        <time>2014-02-23T08:54:52Z</time>
      </trkpt>
      <trkpt lat="44.88133" lon="5.52267">
        <ele>1918</ele>
        <time>2014-02-23T08:54:57Z</time>
      </trkpt>
      <trkpt lat="44.88132" lon="5.52266">
        <ele>1919</ele>
        <time>2014-02-23T08:55:02Z</time>
      </trkpt>
      <trkpt lat="44.8813" lon="5.52265">
        <ele>1921</ele>
        <time>2014-02-23T08:55:07Z</time>
      </trkpt>
      <trkpt lat="44.88129" lon="5.52264">
        <ele>1924</ele>
        <time>2014-02-23T08:55:12Z</time>
      </trkpt>
      <trkpt lat="44.88128" lon="5.52264">
        <ele>1926</ele>
        <time>2014-02-23T08:55:17Z</time>
      </trkpt>
      <trkpt lat="44.88126" lon="5.52261">
        <ele>1924</ele>
        <time>2014-02-23T08:55:22Z</time>
      </trkpt>
      <trkpt lat="44.88123" lon="5.52257">
        <ele>1922</ele>
        <time>2014-02-23T08:55:27Z</time>
      </trkpt>
      <trkpt lat="44.88124" lon="5.52255">
        <ele>1927</ele>
        <time>2014-02-23T08:55:32Z</time>
      </trkpt>
      <trkpt lat="44.88123" lon="5.52252">
        <ele>1927</ele>
        <time>2014-02-23T08:55:37Z</time>
      </trkpt>
      <trkpt lat="44.88121" lon="5.5225">
        <ele>1929</ele>
        <time>2014-02-23T08:55:42Z</time>
      </trkpt>
      <trkpt lat="44.88121" lon="5.52249">
        <ele>1932</ele>
        <time>2014-02-23T08:55:47Z</time>
      </trkpt>
      <trkpt lat="44.8812" lon="5.52247">
        <ele>1933</ele>
        <time>2014-02-23T08:55:52Z</time>
      </trkpt>
      <trkpt lat="44.8812" lon="5.52247">
        <ele>1933</ele>
        <time>2014-02-23T08:55:57Z</time>
      </trkpt>
      <trkpt lat="44.8812" lon="5.52247">
        <ele>1931</ele>
        <time>2014-02-23T08:56:02Z</time>
      </trkpt>
      <trkpt lat="44.8812" lon="5.52247">
        <ele>1930</ele>
        <time>2014-02-23T08:56:07Z</time>
      </trkpt>
      <trkpt lat="44.8812" lon="5.52248">
        <ele>1929</ele>
        <time>2014-02-23T08:56:12Z</time>
      </trkpt>
      <trkpt lat="44.88119" lon="5.52247">
        <ele>1930</ele>
        <time>2014-02-23T08:56:17Z</time>
      </trkpt>
      <trkpt lat="44.88117" lon="5.52245">
        <ele>1930</ele>
        <time>2014-02-23T08:56:22Z</time>
      </trkpt>
      <trkpt lat="44.88114" lon="5.52243">
        <ele>1931</ele>
        <time>2014-02-23T08:56:27Z</time>
      </trkpt>
      <trkpt lat="44.8811" lon="5.5224">
        <ele>1932</ele>
        <time>2014-02-23T08:56:32Z</time>
      </trkpt>
      <trkpt lat="44.88107" lon="5.52236">
        <ele>1933</ele>
        <time>2014-02-23T08:56:37Z</time>
      </trkpt>
      <trkpt lat="44.88104" lon="5.52233">
        <ele>1934</ele>
        <time>2014-02-23T08:56:42Z</time>
      </trkpt>
      <trkpt lat="44.88101" lon="5.52229">
        <ele>1934</ele>
        <time>2014-02-23T08:56:47Z</time>
      </trkpt>
      <trkpt lat="44.88099" lon="5.52228">
        <ele>1934</ele>
        <time>2014-02-23T08:56:52Z</time>
      </trkpt>
      <trkpt lat="44.88098" lon="5.52226">
        <ele>1934</ele>
        <time>2014-02-23T08:56:57Z</time>
      </trkpt>
      <trkpt lat="44.88097" lon="5.52224">
        <ele>1935</ele>
        <time>2014-02-23T08:57:02Z</time>
      </trkpt>
      <trkpt lat="44.88096" lon="5.52223">
        <ele>1935</ele>
        <time>2014-02-23T08:57:07Z</time>
      </trkpt>
      <trkpt lat="44.88096" lon="5.52222">
        <ele>1935</ele>
        <time>2014-02-23T08:57:12Z</time>
      </trkpt>
      <trkpt lat="44.88096" lon="5.52222">
        <ele>1937</ele>
        <time>2014-02-23T08:57:17Z</time>
      </trkpt>
      <trkpt lat="44.88096" lon="5.52222">
        <ele>1937</ele>
        <time>2014-02-23T08:57:22Z</time>
      </trkpt>
      <trkpt lat="44.88097" lon="5.52221">
        <ele>1937</ele>
        <time>2014-02-23T08:57:27Z</time>
      </trkpt>
      <trkpt lat="44.88097" lon="5.52221">
        <ele>1939</ele>
        <time>2014-02-23T08:57:32Z</time>
      </trkpt>
      <trkpt lat="44.88096" lon="5.52221">
        <ele>1939</ele>
        <time>2014-02-23T08:57:37Z</time>
      </trkpt>
      <trkpt lat="44.88096" lon="5.52221">
        <ele>1941</ele>
        <time>2014-02-23T08:57:42Z</time>
      </trkpt>
      <trkpt lat="44.88096" lon="5.52222">
        <ele>1941</ele>
        <time>2014-02-23T08:57:47Z</time>
      </trkpt>
      <trkpt lat="44.88095" lon="5.52222">
        <ele>1941</ele>
        <time>2014-02-23T08:57:52Z</time>
      </trkpt>
      <trkpt lat="44.88094" lon="5.52221">
        <ele>1940</ele>
        <time>2014-02-23T08:57:57Z</time>
      </trkpt>
      <trkpt lat="44.88095" lon="5.52222">
        <ele>1939</ele>
        <time>2014-02-23T08:58:02Z</time>
      </trkpt>
      <trkpt lat="44.88095" lon="5.52221">
        <ele>1939</ele>
        <time>2014-02-23T08:58:07Z</time>
      </trkpt>
      <trkpt lat="44.88094" lon="5.52221">
        <ele>1939</ele>
        <time>2014-02-23T08:58:12Z</time>
      </trkpt>
      <trkpt lat="44.88094" lon="5.5222">
        <ele>1939</ele>
        <time>2014-02-23T08:58:17Z</time>
      </trkpt>
      <trkpt lat="44.88093" lon="5.5222">
        <ele>1940</ele>
        <time>2014-02-23T08:58:22Z</time>
      </trkpt>
      <trkpt lat="44.88094" lon="5.52222">
        <ele>1941</ele>
        <time>2014-02-23T08:58:27Z</time>
      </trkpt>
      <trkpt lat="44.88094" lon="5.52221">
        <ele>1941</ele>
        <time>2014-02-23T08:58:32Z</time>
      </trkpt>
      <trkpt lat="44.88093" lon="5.52222">
        <ele>1941</ele>
        <time>2014-02-23T08:58:37Z</time>
      </trkpt>
      <trkpt lat="44.88092" lon="5.52225">
        <ele>1941</ele>
        <time>2014-02-23T08:58:42Z</time>
      </trkpt>
      <trkpt lat="44.88092" lon="5.52226">
        <ele>1942</ele>
        <time>2014-02-23T08:58:47Z</time>
      </trkpt>
      <trkpt lat="44.88092" lon="5.52227">
        <ele>1942</ele>
        <time>2014-02-23T08:58:52Z</time>
      </trkpt>
      <trkpt lat="44.88092" lon="5.52228">
        <ele>1943</ele>
        <time>2014-02-23T08:58:57Z</time>
      </trkpt>
      <trkpt lat="44.88093" lon="5.52227">
        <ele>1944</ele>
        <time>2014-02-23T08:59:02Z</time>
      </trkpt>
      <trkpt lat="44.88091" lon="5.52224">
        <ele>1944</ele>
        <time>2014-02-23T08:59:07Z</time>
      </trkpt>
      <trkpt lat="44.88089" lon="5.52223">
        <ele>1945</ele>
        <time>2014-02-23T08:59:12Z</time>
      </trkpt>
      <trkpt lat="44.88087" lon="5.52222">
        <ele>1947</ele>
        <time>2014-02-23T08:59:17Z</time>
      </trkpt>
      <trkpt lat="44.88086" lon="5.52221">
        <ele>1949</ele>
        <time>2014-02-23T08:59:22Z</time>
      </trkpt>
      <trkpt lat="44.88084" lon="5.5222">
        <ele>1951</ele>
        <time>2014-02-23T08:59:27Z</time>
      </trkpt>
      <trkpt lat="44.88084" lon="5.5222">
        <ele>1953</ele>
        <time>2014-02-23T08:59:32Z</time>
      </trkpt>
      <trkpt lat="44.88081" lon="5.52219">
        <ele>1954</ele>
        <time>2014-02-23T08:59:37Z</time>
      </trkpt>
      <trkpt lat="44.8808" lon="5.52218">
        <ele>1955</ele>
        <time>2014-02-23T08:59:42Z</time>
      </trkpt>
      <trkpt lat="44.88078" lon="5.52218">
        <ele>1956</ele>
        <time>2014-02-23T08:59:47Z</time>
      </trkpt>
      <trkpt lat="44.88076" lon="5.52218">
        <ele>1956</ele>
        <time>2014-02-23T08:59:52Z</time>
      </trkpt>
      <trkpt lat="44.88075" lon="5.52217">
        <ele>1956</ele>
        <time>2014-02-23T08:59:57Z</time>
      </trkpt>
      <trkpt lat="44.88073" lon="5.52217">
        <ele>1958</ele>
        <time>2014-02-23T09:00:02Z</time>
      </trkpt>
      <trkpt lat="44.88071" lon="5.52216">
        <ele>1959</ele>
        <time>2014-02-23T09:00:07Z</time>
      </trkpt>
      <trkpt lat="44.88069" lon="5.52216">
        <ele>1959</ele>
        <time>2014-02-23T09:00:12Z</time>
      </trkpt>
      <trkpt lat="44.88068" lon="5.52215">
        <ele>1959</ele>
        <time>2014-02-23T09:00:17Z</time>
      </trkpt>
      <trkpt lat="44.88067" lon="5.52215">
        <ele>1958</ele>
        <time>2014-02-23T09:00:22Z</time>
      </trkpt>
      <trkpt lat="44.88067" lon="5.52214">
        <ele>1958</ele>
        <time>2014-02-23T09:00:27Z</time>
      </trkpt>
      <trkpt lat="44.88065" lon="5.52213">
        <ele>1958</ele>
        <time>2014-02-23T09:00:32Z</time>
      </trkpt>
      <trkpt lat="44.88062" lon="5.52211">
        <ele>1959</ele>
        <time>2014-02-23T09:00:37Z</time>
      </trkpt>
      <trkpt lat="44.8806" lon="5.5221">
        <ele>1960</ele>
        <time>2014-02-23T09:00:42Z</time>
      </trkpt>
      <trkpt lat="44.88059" lon="5.5221">
        <ele>1959</ele>
        <time>2014-02-23T09:00:47Z</time>
      </trkpt>
      <trkpt lat="44.88059" lon="5.52213">
        <ele>1959</ele>
        <time>2014-02-23T09:00:52Z</time>
      </trkpt>
      <trkpt lat="44.8806" lon="5.52216">
        <ele>1960</ele>
        <time>2014-02-23T09:00:57Z</time>
      </trkpt>
      <trkpt lat="44.8806" lon="5.5222">
        <ele>1961</ele>
        <time>2014-02-23T09:01:02Z</time>
      </trkpt>
      <trkpt lat="44.8806" lon="5.52223">
        <ele>1961</ele>
        <time>2014-02-23T09:01:07Z</time>
      </trkpt>
      <trkpt lat="44.8806" lon="5.52226">
        <ele>1961</ele>
        <time>2014-02-23T09:01:12Z</time>
      </trkpt>
      <trkpt lat="44.88059" lon="5.5223">
        <ele>1960</ele>
        <time>2014-02-23T09:01:17Z</time>
      </trkpt>
      <trkpt lat="44.8806" lon="5.52233">
        <ele>1960</ele>
        <time>2014-02-23T09:01:22Z</time>
      </trkpt>
      <trkpt lat="44.8806" lon="5.52235">
        <ele>1961</ele>
        <time>2014-02-23T09:01:27Z</time>
      </trkpt>
      <trkpt lat="44.8806" lon="5.52239">
        <ele>1961</ele>
        <time>2014-02-23T09:01:32Z</time>
      </trkpt>
      <trkpt lat="44.88061" lon="5.52243">
        <ele>1961</ele>
        <time>2014-02-23T09:01:37Z</time>
      </trkpt>
      <trkpt lat="44.88061" lon="5.52247">
        <ele>1960</ele>
        <time>2014-02-23T09:01:42Z</time>
      </trkpt>
      <trkpt lat="44.88061" lon="5.52249">
        <ele>1961</ele>
        <time>2014-02-23T09:01:47Z</time>
      </trkpt>
      <trkpt lat="44.88062" lon="5.52252">
        <ele>1961</ele>
        <time>2014-02-23T09:01:52Z</time>
      </trkpt>
      <trkpt lat="44.88062" lon="5.52255">
        <ele>1962</ele>
        <time>2014-02-23T09:01:57Z</time>
      </trkpt>
      <trkpt lat="44.88064" lon="5.52258">
        <ele>1963</ele>
        <time>2014-02-23T09:02:02Z</time>
      </trkpt>
      <trkpt lat="44.88065" lon="5.52262">
        <ele>1964</ele>
        <time>2014-02-23T09:02:07Z</time>
      </trkpt>
      <trkpt lat="44.88066" lon="5.52265">
        <ele>1965</ele>
        <time>2014-02-23T09:02:12Z</time>
      </trkpt>
      <trkpt lat="44.88067" lon="5.52268">
        <ele>1965</ele>
        <time>2014-02-23T09:02:17Z</time>
      </trkpt>
      <trkpt lat="44.88068" lon="5.52271">
        <ele>1966</ele>
        <time>2014-02-23T09:02:22Z</time>
      </trkpt>
      <trkpt lat="44.88069" lon="5.52274">
        <ele>1966</ele>
        <time>2014-02-23T09:02:27Z</time>
      </trkpt>
      <trkpt lat="44.8807" lon="5.52278">
        <ele>1967</ele>
        <time>2014-02-23T09:02:32Z</time>
      </trkpt>
      <trkpt lat="44.88071" lon="5.52281">
        <ele>1967</ele>
        <time>2014-02-23T09:02:37Z</time>
      </trkpt>
      <trkpt lat="44.88072" lon="5.52284">
        <ele>1968</ele>
        <time>2014-02-23T09:02:42Z</time>
      </trkpt>
      <trkpt lat="44.88072" lon="5.52284">
        <ele>1968</ele>
        <time>2014-02-23T09:02:47Z</time>
      </trkpt>
      <trkpt lat="44.88072" lon="5.52286">
        <ele>1969</ele>
        <time>2014-02-23T09:02:52Z</time>
      </trkpt>
      <trkpt lat="44.88072" lon="5.52287">
        <ele>1969</ele>
        <time>2014-02-23T09:02:57Z</time>
      </trkpt>
      <trkpt lat="44.88073" lon="5.52286">
        <ele>1970</ele>
        <time>2014-02-23T09:03:02Z</time>
      </trkpt>
      <trkpt lat="44.88073" lon="5.52285">
        <ele>1970</ele>
        <time>2014-02-23T09:03:07Z</time>
      </trkpt>
      <trkpt lat="44.88072" lon="5.52284">
        <ele>1970</ele>
        <time>2014-02-23T09:03:12Z</time>
      </trkpt>
      <trkpt lat="44.8807" lon="5.52283">
        <ele>1971</ele>
        <time>2014-02-23T09:03:17Z</time>
      </trkpt>
      <trkpt lat="44.88068" lon="5.52281">
        <ele>1972</ele>
        <time>2014-02-23T09:03:22Z</time>
      </trkpt>
      <trkpt lat="44.88067" lon="5.5228">
        <ele>1973</ele>
        <time>2014-02-23T09:03:27Z</time>
      </trkpt>
      <trkpt lat="44.88068" lon="5.5228">
        <ele>1974</ele>
        <time>2014-02-23T09:03:32Z</time>
      </trkpt>
      <trkpt lat="44.88068" lon="5.5228">
        <ele>1975</ele>
        <time>2014-02-23T09:03:37Z</time>
      </trkpt>
      <trkpt lat="44.88068" lon="5.52279">
        <ele>1976</ele>
        <time>2014-02-23T09:03:42Z</time>
      </trkpt>
      <trkpt lat="44.88068" lon="5.52282">
        <ele>1976</ele>
        <time>2014-02-23T09:03:47Z</time>
      </trkpt>
      <trkpt lat="44.88067" lon="5.52285">
        <ele>1976</ele>
        <time>2014-02-23T09:03:52Z</time>
      </trkpt>
      <trkpt lat="44.88068" lon="5.52289">
        <ele>1977</ele>
        <time>2014-02-23T09:03:57Z</time>
      </trkpt>
      <trkpt lat="44.88067" lon="5.5229">
        <ele>1977</ele>
        <time>2014-02-23T09:04:02Z</time>
      </trkpt>
      <trkpt lat="44.88068" lon="5.52292">
        <ele>1978</ele>
        <time>2014-02-23T09:04:07Z</time>
      </trkpt>
      <trkpt lat="44.88067" lon="5.52293">
        <ele>1977</ele>
        <time>2014-02-23T09:04:12Z</time>
      </trkpt>
      <trkpt lat="44.88065" lon="5.52294">
        <ele>1978</ele>
        <time>2014-02-23T09:04:17Z</time>
      </trkpt>
      <trkpt lat="44.88065" lon="5.52295">
        <ele>1979</ele>
        <time>2014-02-23T09:04:22Z</time>
      </trkpt>
      <trkpt lat="44.88065" lon="5.52298">
        <ele>1978</ele>
        <time>2014-02-23T09:04:27Z</time>
      </trkpt>
      <trkpt lat="44.88066" lon="5.523">
        <ele>1977</ele>
        <time>2014-02-23T09:04:32Z</time>
      </trkpt>
      <trkpt lat="44.88067" lon="5.52303">
        <ele>1977</ele>
        <time>2014-02-23T09:04:37Z</time>
      </trkpt>
      <trkpt lat="44.88067" lon="5.52303">
        <ele>1977</ele>
        <time>2014-02-23T09:04:42Z</time>
      </trkpt>
      <trkpt lat="44.88068" lon="5.52303">
        <ele>1976</ele>
        <time>2014-02-23T09:04:47Z</time>
      </trkpt>
      <trkpt lat="44.88068" lon="5.52303">
        <ele>1976</ele>
        <time>2014-02-23T09:04:52Z</time>
      </trkpt>
      <trkpt lat="44.88068" lon="5.52301">
        <ele>1977</ele>
        <time>2014-02-23T09:04:57Z</time>
      </trkpt>
      <trkpt lat="44.88067" lon="5.52299">
        <ele>1977</ele>
        <time>2014-02-23T09:05:02Z</time>
      </trkpt>
      <trkpt lat="44.88065" lon="5.52298">
        <ele>1979</ele>
        <time>2014-02-23T09:05:07Z</time>
      </trkpt>
      <trkpt lat="44.88064" lon="5.52296">
        <ele>1980</ele>
        <time>2014-02-23T09:05:12Z</time>
      </trkpt>
      <trkpt lat="44.88063" lon="5.52295">
        <ele>1981</ele>
        <time>2014-02-23T09:05:17Z</time>
      </trkpt>
      <trkpt lat="44.88062" lon="5.52293">
        <ele>1982</ele>
        <time>2014-02-23T09:05:22Z</time>
      </trkpt>
      <trkpt lat="44.88059" lon="5.52291">
        <ele>1983</ele>
        <time>2014-02-23T09:05:27Z</time>
      </trkpt>
      <trkpt lat="44.88058" lon="5.5229">
        <ele>1984</ele>
        <time>2014-02-23T09:05:32Z</time>
      </trkpt>
      <trkpt lat="44.88056" lon="5.52289">
        <ele>1984</ele>
        <time>2014-02-23T09:05:37Z</time>
      </trkpt>
      <trkpt lat="44.88055" lon="5.52288">
        <ele>1985</ele>
        <time>2014-02-23T09:05:42Z</time>
      </trkpt>
      <trkpt lat="44.88054" lon="5.52287">
        <ele>1987</ele>
        <time>2014-02-23T09:05:47Z</time>
      </trkpt>
      <trkpt lat="44.88055" lon="5.52287">
        <ele>1987</ele>
        <time>2014-02-23T09:05:52Z</time>
      </trkpt>
      <trkpt lat="44.88055" lon="5.52287">
        <ele>1987</ele>
        <time>2014-02-23T09:05:57Z</time>
      </trkpt>
      <trkpt lat="44.88054" lon="5.52287">
        <ele>1987</ele>
        <time>2014-02-23T09:06:02Z</time>
      </trkpt>
      <trkpt lat="44.88052" lon="5.52285">
        <ele>1989</ele>
        <time>2014-02-23T09:06:07Z</time>
      </trkpt>
      <trkpt lat="44.88051" lon="5.52284">
        <ele>1991</ele>
        <time>2014-02-23T09:06:12Z</time>
      </trkpt>
      <trkpt lat="44.88049" lon="5.52283">
        <ele>1992</ele>
        <time>2014-02-23T09:06:17Z</time>
      </trkpt>
      <trkpt lat="44.8805" lon="5.52283">
        <ele>1994</ele>
        <time>2014-02-23T09:06:22Z</time>
      </trkpt>
      <trkpt lat="44.88049" lon="5.52282">
        <ele>1994</ele>
        <time>2014-02-23T09:06:27Z</time>
      </trkpt>
      <trkpt lat="44.88049" lon="5.52282">
        <ele>1994</ele>
        <time>2014-02-23T09:06:32Z</time>
      </trkpt>
      <trkpt lat="44.88049" lon="5.52283">
        <ele>1993</ele>
        <time>2014-02-23T09:06:37Z</time>
      </trkpt>
      <trkpt lat="44.88049" lon="5.52286">
        <ele>1993</ele>
        <time>2014-02-23T09:06:42Z</time>
      </trkpt>
      <trkpt lat="44.88049" lon="5.5229">
        <ele>1992</ele>
        <time>2014-02-23T09:06:47Z</time>
      </trkpt>
      <trkpt lat="44.88049" lon="5.52292">
        <ele>1992</ele>
        <time>2014-02-23T09:06:52Z</time>
      </trkpt>
      <trkpt lat="44.8805" lon="5.52291">
        <ele>1990</ele>
        <time>2014-02-23T09:06:57Z</time>
      </trkpt>
      <trkpt lat="44.8805" lon="5.5229">
        <ele>1989</ele>
        <time>2014-02-23T09:07:02Z</time>
      </trkpt>
      <trkpt lat="44.8805" lon="5.5229">
        <ele>1988</ele>
        <time>2014-02-23T09:07:07Z</time>
      </trkpt>
      <trkpt lat="44.8805" lon="5.5229">
        <ele>1987</ele>
        <time>2014-02-23T09:07:12Z</time>
      </trkpt>
      <trkpt lat="44.8805" lon="5.5229">
        <ele>1987</ele>
        <time>2014-02-23T09:07:17Z</time>
      </trkpt>
      <trkpt lat="44.8805" lon="5.52289">
        <ele>1987</ele>
        <time>2014-02-23T09:07:22Z</time>
      </trkpt>
      <trkpt lat="44.8805" lon="5.52292">
        <ele>1987</ele>
        <time>2014-02-23T09:07:27Z</time>
      </trkpt>
      <trkpt lat="44.8805" lon="5.52292">
        <ele>1987</ele>
        <time>2014-02-23T09:07:32Z</time>
      </trkpt>
      <trkpt lat="44.88049" lon="5.52295">
        <ele>1987</ele>
        <time>2014-02-23T09:07:37Z</time>
      </trkpt>
      <trkpt lat="44.88049" lon="5.52296">
        <ele>1987</ele>
        <time>2014-02-23T09:07:42Z</time>
      </trkpt>
      <trkpt lat="44.88049" lon="5.52299">
        <ele>1987</ele>
        <time>2014-02-23T09:07:47Z</time>
      </trkpt>
      <trkpt lat="44.88048" lon="5.523">
        <ele>1988</ele>
        <time>2014-02-23T09:07:52Z</time>
      </trkpt>
      <trkpt lat="44.88047" lon="5.52299">
        <ele>1989</ele>
        <time>2014-02-23T09:07:57Z</time>
      </trkpt>
      <trkpt lat="44.88046" lon="5.52297">
        <ele>1990</ele>
        <time>2014-02-23T09:08:02Z</time>
      </trkpt>
      <trkpt lat="44.88044" lon="5.52296">
        <ele>1992</ele>
        <time>2014-02-23T09:08:07Z</time>
      </trkpt>
      <trkpt lat="44.88042" lon="5.52295">
        <ele>1993</ele>
        <time>2014-02-23T09:08:12Z</time>
      </trkpt>
      <trkpt lat="44.8804" lon="5.52293">
        <ele>1995</ele>
        <time>2014-02-23T09:08:17Z</time>
      </trkpt>
      <trkpt lat="44.88039" lon="5.52291">
        <ele>1997</ele>
        <time>2014-02-23T09:08:22Z</time>
      </trkpt>
      <trkpt lat="44.88038" lon="5.5229">
        <ele>1997</ele>
        <time>2014-02-23T09:08:27Z</time>
      </trkpt>
      <trkpt lat="44.88036" lon="5.52288">
        <ele>1999</ele>
        <time>2014-02-23T09:08:32Z</time>
      </trkpt>
      <trkpt lat="44.88035" lon="5.52287">
        <ele>2000</ele>
        <time>2014-02-23T09:08:37Z</time>
      </trkpt>
      <trkpt lat="44.88033" lon="5.52285">
        <ele>2000</ele>
        <time>2014-02-23T09:08:42Z</time>
      </trkpt>
      <trkpt lat="44.88033" lon="5.52284">
        <ele>2001</ele>
        <time>2014-02-23T09:08:47Z</time>
      </trkpt>
      <trkpt lat="44.88033" lon="5.52283">
        <ele>2002</ele>
        <time>2014-02-23T09:08:52Z</time>
      </trkpt>
      <trkpt lat="44.88032" lon="5.52282">
        <ele>2003</ele>
        <time>2014-02-23T09:08:57Z</time>
      </trkpt>
      <trkpt lat="44.88031" lon="5.52281">
        <ele>2003</ele>
        <time>2014-02-23T09:09:02Z</time>
      </trkpt>
      <trkpt lat="44.8803" lon="5.5228">
        <ele>2004</ele>
        <time>2014-02-23T09:09:07Z</time>
      </trkpt>
      <trkpt lat="44.88029" lon="5.52279">
        <ele>2004</ele>
        <time>2014-02-23T09:09:12Z</time>
      </trkpt>
      <trkpt lat="44.8803" lon="5.52283">
        <ele>2002</ele>
        <time>2014-02-23T09:09:17Z</time>
      </trkpt>
      <trkpt lat="44.88029" lon="5.52285">
        <ele>2003</ele>
        <time>2014-02-23T09:09:22Z</time>
      </trkpt>
      <trkpt lat="44.88028" lon="5.52289">
        <ele>2003</ele>
        <time>2014-02-23T09:09:27Z</time>
      </trkpt>
      <trkpt lat="44.88028" lon="5.52292">
        <ele>2004</ele>
        <time>2014-02-23T09:09:32Z</time>
      </trkpt>
      <trkpt lat="44.88029" lon="5.52294">
        <ele>2005</ele>
        <time>2014-02-23T09:09:37Z</time>
      </trkpt>
      <trkpt lat="44.88029" lon="5.52297">
        <ele>2005</ele>
        <time>2014-02-23T09:09:42Z</time>
      </trkpt>
      <trkpt lat="44.88028" lon="5.523">
        <ele>2006</ele>
        <time>2014-02-23T09:09:47Z</time>
      </trkpt>
      <trkpt lat="44.88028" lon="5.52301">
        <ele>2006</ele>
        <time>2014-02-23T09:09:52Z</time>
      </trkpt>
      <trkpt lat="44.88028" lon="5.52301">
        <ele>2006</ele>
        <time>2014-02-23T09:09:57Z</time>
      </trkpt>
      <trkpt lat="44.88028" lon="5.523">
        <ele>2007</ele>
        <time>2014-02-23T09:10:02Z</time>
      </trkpt>
      <trkpt lat="44.88028" lon="5.523">
        <ele>2007</ele>
        <time>2014-02-23T09:10:07Z</time>
      </trkpt>
      <trkpt lat="44.88028" lon="5.523">
        <ele>2007</ele>
        <time>2014-02-23T09:10:12Z</time>
      </trkpt>
      <trkpt lat="44.88028" lon="5.523">
        <ele>2008</ele>
        <time>2014-02-23T09:10:17Z</time>
      </trkpt>
      <trkpt lat="44.88028" lon="5.523">
        <ele>2008</ele>
        <time>2014-02-23T09:10:22Z</time>
      </trkpt>
      <trkpt lat="44.88027" lon="5.523">
        <ele>2007</ele>
        <time>2014-02-23T09:10:27Z</time>
      </trkpt>
      <trkpt lat="44.88027" lon="5.523">
        <ele>2007</ele>
        <time>2014-02-23T09:10:32Z</time>
      </trkpt>
      <trkpt lat="44.88027" lon="5.523">
        <ele>2007</ele>
        <time>2014-02-23T09:10:37Z</time>
      </trkpt>
      <trkpt lat="44.88027" lon="5.52301">
        <ele>2007</ele>
        <time>2014-02-23T09:10:42Z</time>
      </trkpt>
      <trkpt lat="44.88026" lon="5.52303">
        <ele>2007</ele>
        <time>2014-02-23T09:10:47Z</time>
      </trkpt>
      <trkpt lat="44.88025" lon="5.52307">
        <ele>2007</ele>
        <time>2014-02-23T09:10:52Z</time>
      </trkpt>
      <trkpt lat="44.88025" lon="5.52306">
        <ele>2008</ele>
        <time>2014-02-23T09:10:57Z</time>
      </trkpt>
      <trkpt lat="44.88024" lon="5.52304">
        <ele>2008</ele>
        <time>2014-02-23T09:11:02Z</time>
      </trkpt>
      <trkpt lat="44.88023" lon="5.52303">
        <ele>2008</ele>
        <time>2014-02-23T09:11:07Z</time>
      </trkpt>
      <trkpt lat="44.88022" lon="5.523">
        <ele>2009</ele>
        <time>2014-02-23T09:11:12Z</time>
      </trkpt>
      <trkpt lat="44.8802" lon="5.52297">
        <ele>2010</ele>
        <time>2014-02-23T09:11:17Z</time>
      </trkpt>
      <trkpt lat="44.88018" lon="5.52293">
        <ele>2012</ele>
        <time>2014-02-23T09:11:22Z</time>
      </trkpt>
      <trkpt lat="44.88016" lon="5.5229">
        <ele>2013</ele>
        <time>2014-02-23T09:11:27Z</time>
      </trkpt>
      <trkpt lat="44.88014" lon="5.52288">
        <ele>2015</ele>
        <time>2014-02-23T09:11:32Z</time>
      </trkpt>
      <trkpt lat="44.88012" lon="5.52285">
        <ele>2017</ele>
        <time>2014-02-23T09:11:37Z</time>
      </trkpt>
      <trkpt lat="44.8801" lon="5.52283">
        <ele>2018</ele>
        <time>2014-02-23T09:11:42Z</time>
      </trkpt>
      <trkpt lat="44.88008" lon="5.5228">
        <ele>2019</ele>
        <time>2014-02-23T09:11:47Z</time>
      </trkpt>
      <trkpt lat="44.88007" lon="5.52279">
        <ele>2020</ele>
        <time>2014-02-23T09:11:52Z</time>
      </trkpt>
      <trkpt lat="44.88006" lon="5.52278">
        <ele>2021</ele>
        <time>2014-02-23T09:11:57Z</time>
      </trkpt>
      <trkpt lat="44.88004" lon="5.52276">
        <ele>2021</ele>
        <time>2014-02-23T09:12:02Z</time>
      </trkpt>
      <trkpt lat="44.88004" lon="5.52276">
        <ele>2023</ele>
        <time>2014-02-23T09:12:07Z</time>
      </trkpt>
      <trkpt lat="44.88004" lon="5.52276">
        <ele>2022</ele>
        <time>2014-02-23T09:12:12Z</time>
      </trkpt>
      <trkpt lat="44.88004" lon="5.52276">
        <ele>2022</ele>
        <time>2014-02-23T09:12:17Z</time>
      </trkpt>
      <trkpt lat="44.88004" lon="5.52275">
        <ele>2023</ele>
        <time>2014-02-23T09:12:22Z</time>
      </trkpt>
      <trkpt lat="44.88004" lon="5.52275">
        <ele>2023</ele>
        <time>2014-02-23T09:12:27Z</time>
      </trkpt>
      <trkpt lat="44.88002" lon="5.52274">
        <ele>2023</ele>
        <time>2014-02-23T09:12:32Z</time>
      </trkpt>
      <trkpt lat="44.88002" lon="5.52273">
        <ele>2022</ele>
        <time>2014-02-23T09:12:37Z</time>
      </trkpt>
      <trkpt lat="44.88001" lon="5.52273">
        <ele>2022</ele>
        <time>2014-02-23T09:12:42Z</time>
      </trkpt>
      <trkpt lat="44.88" lon="5.52272">
        <ele>2022</ele>
        <time>2014-02-23T09:12:47Z</time>
      </trkpt>
      <trkpt lat="44.88" lon="5.52272">
        <ele>2022</ele>
        <time>2014-02-23T09:12:52Z</time>
      </trkpt>
      <trkpt lat="44.87999" lon="5.52272">
        <ele>2021</ele>
        <time>2014-02-23T09:12:57Z</time>
      </trkpt>
      <trkpt lat="44.87999" lon="5.52272">
        <ele>2022</ele>
        <time>2014-02-23T09:13:02Z</time>
      </trkpt>
      <trkpt lat="44.87998" lon="5.52271">
        <ele>2022</ele>
        <time>2014-02-23T09:13:07Z</time>
      </trkpt>
      <trkpt lat="44.87998" lon="5.52272">
        <ele>2022</ele>
        <time>2014-02-23T09:13:12Z</time>
      </trkpt>
      <trkpt lat="44.87998" lon="5.52276">
        <ele>2022</ele>
        <time>2014-02-23T09:13:17Z</time>
      </trkpt>
      <trkpt lat="44.87999" lon="5.5228">
        <ele>2023</ele>
        <time>2014-02-23T09:13:22Z</time>
      </trkpt>
      <trkpt lat="44.87999" lon="5.52284">
        <ele>2024</ele>
        <time>2014-02-23T09:13:27Z</time>
      </trkpt>
      <trkpt lat="44.87999" lon="5.52287">
        <ele>2025</ele>
        <time>2014-02-23T09:13:32Z</time>
      </trkpt>
      <trkpt lat="44.87998" lon="5.5229">
        <ele>2025</ele>
        <time>2014-02-23T09:13:37Z</time>
      </trkpt>
      <trkpt lat="44.87998" lon="5.52292">
        <ele>2025</ele>
        <time>2014-02-23T09:13:42Z</time>
      </trkpt>
      <trkpt lat="44.87997" lon="5.52295">
        <ele>2026</ele>
        <time>2014-02-23T09:13:47Z</time>
      </trkpt>
      <trkpt lat="44.87996" lon="5.52297">
        <ele>2026</ele>
        <time>2014-02-23T09:13:52Z</time>
      </trkpt>
      <trkpt lat="44.87995" lon="5.523">
        <ele>2027</ele>
        <time>2014-02-23T09:13:57Z</time>
      </trkpt>
      <trkpt lat="44.87994" lon="5.52302">
        <ele>2028</ele>
        <time>2014-02-23T09:14:02Z</time>
      </trkpt>
      <trkpt lat="44.87994" lon="5.52304">
        <ele>2029</ele>
        <time>2014-02-23T09:14:07Z</time>
      </trkpt>
      <trkpt lat="44.87995" lon="5.52304">
        <ele>2030</ele>
        <time>2014-02-23T09:14:12Z</time>
      </trkpt>
      <trkpt lat="44.87995" lon="5.52304">
        <ele>2031</ele>
        <time>2014-02-23T09:14:17Z</time>
      </trkpt>
      <trkpt lat="44.87995" lon="5.52304">
        <ele>2031</ele>
        <time>2014-02-23T09:14:22Z</time>
      </trkpt>
      <trkpt lat="44.87996" lon="5.52304">
        <ele>2031</ele>
        <time>2014-02-23T09:14:27Z</time>
      </trkpt>
      <trkpt lat="44.87996" lon="5.52304">
        <ele>2031</ele>
        <time>2014-02-23T09:14:32Z</time>
      </trkpt>
      <trkpt lat="44.87996" lon="5.52304">
        <ele>2031</ele>
        <time>2014-02-23T09:14:37Z</time>
      </trkpt>
      <trkpt lat="44.87996" lon="5.52304">
        <ele>2031</ele>
        <time>2014-02-23T09:14:42Z</time>
      </trkpt>
      <trkpt lat="44.87996" lon="5.52304">
        <ele>2030</ele>
        <time>2014-02-23T09:14:47Z</time>
      </trkpt>
      <trkpt lat="44.87995" lon="5.52304">
        <ele>2030</ele>
        <time>2014-02-23T09:14:52Z</time>
      </trkpt>
      <trkpt lat="44.87995" lon="5.52304">
        <ele>2030</ele>
        <time>2014-02-23T09:14:57Z</time>
      </trkpt>
      <trkpt lat="44.87995" lon="5.52304">
        <ele>2030</ele>
        <time>2014-02-23T09:15:02Z</time>
      </trkpt>
      <trkpt lat="44.87993" lon="5.52306">
        <ele>2030</ele>
        <time>2014-02-23T09:15:07Z</time>
      </trkpt>
      <trkpt lat="44.87993" lon="5.52307">
        <ele>2030</ele>
        <time>2014-02-23T09:15:12Z</time>
      </trkpt>
      <trkpt lat="44.87993" lon="5.52307">
        <ele>2030</ele>
        <time>2014-02-23T09:15:17Z</time>
      </trkpt>
      <trkpt lat="44.87993" lon="5.52307">
        <ele>2030</ele>
        <time>2014-02-23T09:15:22Z</time>
      </trkpt>
      <trkpt lat="44.87993" lon="5.52307">
        <ele>2030</ele>
        <time>2014-02-23T09:15:27Z</time>
      </trkpt>
      <trkpt lat="44.87993" lon="5.52307">
        <ele>2030</ele>
        <time>2014-02-23T09:15:32Z</time>
      </trkpt>
      <trkpt lat="44.87993" lon="5.52308">
        <ele>2030</ele>
        <time>2014-02-23T09:15:37Z</time>
      </trkpt>
      <trkpt lat="44.87992" lon="5.52309">
        <ele>2031</ele>
        <time>2014-02-23T09:15:42Z</time>
      </trkpt>
      <trkpt lat="44.87991" lon="5.52311">
        <ele>2031</ele>
        <time>2014-02-23T09:15:47Z</time>
      </trkpt>
      <trkpt lat="44.87991" lon="5.5231">
        <ele>2032</ele>
        <time>2014-02-23T09:15:52Z</time>
      </trkpt>
      <trkpt lat="44.8799" lon="5.52307">
        <ele>2032</ele>
        <time>2014-02-23T09:15:57Z</time>
      </trkpt>
      <trkpt lat="44.8799" lon="5.52303">
        <ele>2033</ele>
        <time>2014-02-23T09:16:02Z</time>
      </trkpt>
      <trkpt lat="44.87988" lon="5.523">
        <ele>2034</ele>
        <time>2014-02-23T09:16:07Z</time>
      </trkpt>
      <trkpt lat="44.87987" lon="5.52298">
        <ele>2034</ele>
        <time>2014-02-23T09:16:12Z</time>
      </trkpt>
      <trkpt lat="44.87986" lon="5.52296">
        <ele>2035</ele>
        <time>2014-02-23T09:16:17Z</time>
      </trkpt>
      <trkpt lat="44.87986" lon="5.52295">
        <ele>2035</ele>
        <time>2014-02-23T09:16:22Z</time>
      </trkpt>
      <trkpt lat="44.87986" lon="5.52296">
        <ele>2035</ele>
        <time>2014-02-23T09:16:27Z</time>
      </trkpt>
      <trkpt lat="44.87986" lon="5.52296">
        <ele>2035</ele>
        <time>2014-02-23T09:16:32Z</time>
      </trkpt>
      <trkpt lat="44.87985" lon="5.52294">
        <ele>2036</ele>
        <time>2014-02-23T09:16:37Z</time>
      </trkpt>
      <trkpt lat="44.87983" lon="5.52292">
        <ele>2036</ele>
        <time>2014-02-23T09:16:42Z</time>
      </trkpt>
      <trkpt lat="44.87983" lon="5.52292">
        <ele>2036</ele>
        <time>2014-02-23T09:16:47Z</time>
      </trkpt>
      <trkpt lat="44.87982" lon="5.5229">
        <ele>2036</ele>
        <time>2014-02-23T09:16:52Z</time>
      </trkpt>
      <trkpt lat="44.87981" lon="5.52289">
        <ele>2037</ele>
        <time>2014-02-23T09:16:57Z</time>
      </trkpt>
      <trkpt lat="44.87981" lon="5.52288">
        <ele>2037</ele>
        <time>2014-02-23T09:17:02Z</time>
      </trkpt>
      <trkpt lat="44.8798" lon="5.52287">
        <ele>2037</ele>
        <time>2014-02-23T09:17:07Z</time>
      </trkpt>
      <trkpt lat="44.8798" lon="5.52286">
        <ele>2037</ele>
        <time>2014-02-23T09:17:12Z</time>
      </trkpt>
      <trkpt lat="44.8798" lon="5.52286">
        <ele>2037</ele>
        <time>2014-02-23T09:17:17Z</time>
      </trkpt>
      <trkpt lat="44.87979" lon="5.5229">
        <ele>2038</ele>
        <time>2014-02-23T09:17:22Z</time>
      </trkpt>
      <trkpt lat="44.87978" lon="5.52293">
        <ele>2038</ele>
        <time>2014-02-23T09:17:27Z</time>
      </trkpt>
      <trkpt lat="44.87977" lon="5.52296">
        <ele>2039</ele>
        <time>2014-02-23T09:17:32Z</time>
      </trkpt>
      <trkpt lat="44.87977" lon="5.52299">
        <ele>2040</ele>
        <time>2014-02-23T09:17:37Z</time>
      </trkpt>
      <trkpt lat="44.87977" lon="5.52299">
        <ele>2040</ele>
        <time>2014-02-23T09:17:42Z</time>
      </trkpt>
      <trkpt lat="44.87977" lon="5.52298">
        <ele>2040</ele>
        <time>2014-02-23T09:17:47Z</time>
      </trkpt>
      <trkpt lat="44.87977" lon="5.52298">
        <ele>2039</ele>
        <time>2014-02-23T09:17:52Z</time>
      </trkpt>
      <trkpt lat="44.87977" lon="5.52298">
        <ele>2040</ele>
        <time>2014-02-23T09:17:57Z</time>
      </trkpt>
      <trkpt lat="44.87977" lon="5.52297">
        <ele>2039</ele>
        <time>2014-02-23T09:18:02Z</time>
      </trkpt>
      <trkpt lat="44.87977" lon="5.52297">
        <ele>2039</ele>
        <time>2014-02-23T09:18:07Z</time>
      </trkpt>
      <trkpt lat="44.87977" lon="5.52296">
        <ele>2039</ele>
        <time>2014-02-23T09:18:12Z</time>
      </trkpt>
      <trkpt lat="44.87977" lon="5.52296">
        <ele>2039</ele>
        <time>2014-02-23T09:18:17Z</time>
      </trkpt>
      <trkpt lat="44.87977" lon="5.52297">
        <ele>2039</ele>
        <time>2014-02-23T09:18:22Z</time>
      </trkpt>
      <trkpt lat="44.87977" lon="5.52297">
        <ele>2039</ele>
        <time>2014-02-23T09:18:27Z</time>
      </trkpt>
      <trkpt lat="44.87977" lon="5.52296">
        <ele>2039</ele>
        <time>2014-02-23T09:18:32Z</time>
      </trkpt>
      <trkpt lat="44.87977" lon="5.52296">
        <ele>2039</ele>
        <time>2014-02-23T09:18:37Z</time>
      </trkpt>
      <trkpt lat="44.87977" lon="5.52296">
        <ele>2039</ele>
        <time>2014-02-23T09:18:42Z</time>
      </trkpt>
      <trkpt lat="44.87977" lon="5.52297">
        <ele>2039</ele>
        <time>2014-02-23T09:18:47Z</time>
      </trkpt>
      <trkpt lat="44.87977" lon="5.52297">
        <ele>2039</ele>
        <time>2014-02-23T09:18:52Z</time>
      </trkpt>
      <trkpt lat="44.87977" lon="5.52297">
        <ele>2039</ele>
        <time>2014-02-23T09:18:57Z</time>
      </trkpt>
      <trkpt lat="44.87977" lon="5.52297">
        <ele>2039</ele>
        <time>2014-02-23T09:19:02Z</time>
      </trkpt>
      <trkpt lat="44.87977" lon="5.52298">
        <ele>2039</ele>
        <time>2014-02-23T09:19:07Z</time>
      </trkpt>
      <trkpt lat="44.87976" lon="5.523">
        <ele>2040</ele>
        <time>2014-02-23T09:19:12Z</time>
      </trkpt>
      <trkpt lat="44.87976" lon="5.52299">
        <ele>2041</ele>
        <time>2014-02-23T09:19:17Z</time>
      </trkpt>
      <trkpt lat="44.87974" lon="5.52295">
        <ele>2043</ele>
        <time>2014-02-23T09:19:22Z</time>
      </trkpt>
      <trkpt lat="44.87973" lon="5.52291">
        <ele>2043</ele>
        <time>2014-02-23T09:19:27Z</time>
      </trkpt>
      <trkpt lat="44.87971" lon="5.52287">
        <ele>2044</ele>
        <time>2014-02-23T09:19:32Z</time>
      </trkpt>
      <trkpt lat="44.87969" lon="5.52285">
        <ele>2046</ele>
        <time>2014-02-23T09:19:37Z</time>
      </trkpt>
      <trkpt lat="44.87967" lon="5.52282">
        <ele>2046</ele>
        <time>2014-02-23T09:19:42Z</time>
      </trkpt>
      <trkpt lat="44.87964" lon="5.5228">
        <ele>2047</ele>
        <time>2014-02-23T09:19:47Z</time>
      </trkpt>
      <trkpt lat="44.87961" lon="5.52278">
        <ele>2048</ele>
        <time>2014-02-23T09:19:52Z</time>
      </trkpt>
      <trkpt lat="44.87957" lon="5.52276">
        <ele>2050</ele>
        <time>2014-02-23T09:19:57Z</time>
      </trkpt>
      <trkpt lat="44.87955" lon="5.52274">
        <ele>2051</ele>
        <time>2014-02-23T09:20:02Z</time>
      </trkpt>
      <trkpt lat="44.87956" lon="5.52274">
        <ele>2052</ele>
        <time>2014-02-23T09:20:07Z</time>
      </trkpt>
      <trkpt lat="44.87955" lon="5.52274">
        <ele>2053</ele>
        <time>2014-02-23T09:20:12Z</time>
      </trkpt>
      <trkpt lat="44.87955" lon="5.52274">
        <ele>2054</ele>
        <time>2014-02-23T09:20:17Z</time>
      </trkpt>
      <trkpt lat="44.87956" lon="5.52274">
        <ele>2054</ele>
        <time>2014-02-23T09:20:22Z</time>
      </trkpt>
      <trkpt lat="44.87955" lon="5.52274">
        <ele>2054</ele>
        <time>2014-02-23T09:20:27Z</time>
      </trkpt>
      <trkpt lat="44.87955" lon="5.52274">
        <ele>2054</ele>
        <time>2014-02-23T09:20:32Z</time>
      </trkpt>
      <trkpt lat="44.87955" lon="5.52273">
        <ele>2054</ele>
        <time>2014-02-23T09:20:37Z</time>
      </trkpt>
      <trkpt lat="44.87953" lon="5.5227">
        <ele>2054</ele>
        <time>2014-02-23T09:20:42Z</time>
      </trkpt>
      <trkpt lat="44.87951" lon="5.52266">
        <ele>2055</ele>
        <time>2014-02-23T09:20:47Z</time>
      </trkpt>
      <trkpt lat="44.8795" lon="5.52268">
        <ele>2055</ele>
        <time>2014-02-23T09:20:52Z</time>
      </trkpt>
      <trkpt lat="44.87949" lon="5.52272">
        <ele>2055</ele>
        <time>2014-02-23T09:20:57Z</time>
      </trkpt>
      <trkpt lat="44.87949" lon="5.52277">
        <ele>2056</ele>
        <time>2014-02-23T09:21:02Z</time>
      </trkpt>
      <trkpt lat="44.87949" lon="5.52281">
        <ele>2056</ele>
        <time>2014-02-23T09:21:07Z</time>
      </trkpt>
      <trkpt lat="44.87949" lon="5.52286">
        <ele>2057</ele>
        <time>2014-02-23T09:21:12Z</time>
      </trkpt>
      <trkpt lat="44.87948" lon="5.5229">
        <ele>2057</ele>
        <time>2014-02-23T09:21:17Z</time>
      </trkpt>
      <trkpt lat="44.87948" lon="5.52294">
        <ele>2058</ele>
        <time>2014-02-23T09:21:22Z</time>
      </trkpt>
      <trkpt lat="44.87948" lon="5.52296">
        <ele>2060</ele>
        <time>2014-02-23T09:21:27Z</time>
      </trkpt>
      <trkpt lat="44.87948" lon="5.52295">
        <ele>2060</ele>
        <time>2014-02-23T09:21:32Z</time>
      </trkpt>
      <trkpt lat="44.87949" lon="5.52295">
        <ele>2061</ele>
        <time>2014-02-23T09:21:37Z</time>
      </trkpt>
      <trkpt lat="44.87949" lon="5.52295">
        <ele>2061</ele>
        <time>2014-02-23T09:21:42Z</time>
      </trkpt>
      <trkpt lat="44.8795" lon="5.52295">
        <ele>2061</ele>
        <time>2014-02-23T09:21:47Z</time>
      </trkpt>
      <trkpt lat="44.8795" lon="5.52295">
        <ele>2061</ele>
        <time>2014-02-23T09:21:52Z</time>
      </trkpt>
      <trkpt lat="44.8795" lon="5.52295">
        <ele>2061</ele>
        <time>2014-02-23T09:21:57Z</time>
      </trkpt>
      <trkpt lat="44.87948" lon="5.5229">
        <ele>2061</ele>
        <time>2014-02-23T09:22:02Z</time>
      </trkpt>
      <trkpt lat="44.87946" lon="5.52285">
        <ele>2061</ele>
        <time>2014-02-23T09:22:07Z</time>
      </trkpt>
      <trkpt lat="44.87943" lon="5.52281">
        <ele>2062</ele>
        <time>2014-02-23T09:22:12Z</time>
      </trkpt>
      <trkpt lat="44.87941" lon="5.52277">
        <ele>2062</ele>
        <time>2014-02-23T09:22:17Z</time>
      </trkpt>
      <trkpt lat="44.87939" lon="5.52273">
        <ele>2063</ele>
        <time>2014-02-23T09:22:22Z</time>
      </trkpt>
      <trkpt lat="44.87938" lon="5.52268">
        <ele>2063</ele>
        <time>2014-02-23T09:22:27Z</time>
      </trkpt>
      <trkpt lat="44.87936" lon="5.52262">
        <ele>2064</ele>
        <time>2014-02-23T09:22:32Z</time>
      </trkpt>
      <trkpt lat="44.87934" lon="5.52256">
        <ele>2063</ele>
        <time>2014-02-23T09:22:37Z</time>
      </trkpt>
      <trkpt lat="44.87931" lon="5.52253">
        <ele>2064</ele>
        <time>2014-02-23T09:22:42Z</time>
      </trkpt>
      <trkpt lat="44.87927" lon="5.52251">
        <ele>2065</ele>
        <time>2014-02-23T09:22:47Z</time>
      </trkpt>
      <trkpt lat="44.87925" lon="5.5225">
        <ele>2065</ele>
        <time>2014-02-23T09:22:52Z</time>
      </trkpt>
      <trkpt lat="44.87923" lon="5.52248">
        <ele>2065</ele>
        <time>2014-02-23T09:22:57Z</time>
      </trkpt>
      <trkpt lat="44.87922" lon="5.52245">
        <ele>2068</ele>
        <time>2014-02-23T09:23:02Z</time>
      </trkpt>
      <trkpt lat="44.87921" lon="5.52243">
        <ele>2069</ele>
        <time>2014-02-23T09:23:07Z</time>
      </trkpt>
      <trkpt lat="44.8792" lon="5.52241">
        <ele>2068</ele>
        <time>2014-02-23T09:23:12Z</time>
      </trkpt>
      <trkpt lat="44.87919" lon="5.52239">
        <ele>2069</ele>
        <time>2014-02-23T09:23:17Z</time>
      </trkpt>
      <trkpt lat="44.87918" lon="5.52236">
        <ele>2070</ele>
        <time>2014-02-23T09:23:22Z</time>
      </trkpt>
      <trkpt lat="44.87917" lon="5.52234">
        <ele>2069</ele>
        <time>2014-02-23T09:23:27Z</time>
      </trkpt>
      <trkpt lat="44.87917" lon="5.52234">
        <ele>2069</ele>
        <time>2014-02-23T09:23:32Z</time>
      </trkpt>
      <trkpt lat="44.87916" lon="5.52233">
        <ele>2069</ele>
        <time>2014-02-23T09:23:37Z</time>
      </trkpt>
      <trkpt lat="44.87916" lon="5.52232">
        <ele>2067</ele>
        <time>2014-02-23T09:23:42Z</time>
      </trkpt>
      <trkpt lat="44.87914" lon="5.52232">
        <ele>2067</ele>
        <time>2014-02-23T09:23:47Z</time>
      </trkpt>
      <trkpt lat="44.87913" lon="5.52233">
        <ele>2066</ele>
        <time>2014-02-23T09:23:52Z</time>
      </trkpt>
      <trkpt lat="44.87912" lon="5.52237">
        <ele>2067</ele>
        <time>2014-02-23T09:23:57Z</time>
      </trkpt>
      <trkpt lat="44.87911" lon="5.5224">
        <ele>2068</ele>
        <time>2014-02-23T09:24:02Z</time>
      </trkpt>
      <trkpt lat="44.87911" lon="5.52242">
        <ele>2069</ele>
        <time>2014-02-23T09:24:07Z</time>
      </trkpt>
      <trkpt lat="44.8791" lon="5.52244">
        <ele>2069</ele>
        <time>2014-02-23T09:24:12Z</time>
      </trkpt>
      <trkpt lat="44.87909" lon="5.52246">
        <ele>2070</ele>
        <time>2014-02-23T09:24:17Z</time>
      </trkpt>
      <trkpt lat="44.8791" lon="5.52245">
        <ele>2072</ele>
        <time>2014-02-23T09:24:22Z</time>
      </trkpt>
      <trkpt lat="44.87909" lon="5.52247">
        <ele>2072</ele>
        <time>2014-02-23T09:24:27Z</time>
      </trkpt>
      <trkpt lat="44.87908" lon="5.52245">
        <ele>2073</ele>
        <time>2014-02-23T09:24:32Z</time>
      </trkpt>
      <trkpt lat="44.87906" lon="5.52243">
        <ele>2073</ele>
        <time>2014-02-23T09:24:37Z</time>
      </trkpt>
      <trkpt lat="44.87905" lon="5.52241">
        <ele>2073</ele>
        <time>2014-02-23T09:24:42Z</time>
      </trkpt>
      <trkpt lat="44.87904" lon="5.52239">
        <ele>2073</ele>
        <time>2014-02-23T09:24:47Z</time>
      </trkpt>
      <trkpt lat="44.87903" lon="5.52237">
        <ele>2074</ele>
        <time>2014-02-23T09:24:52Z</time>
      </trkpt>
      <trkpt lat="44.87902" lon="5.52235">
        <ele>2074</ele>
        <time>2014-02-23T09:24:57Z</time>
      </trkpt>
      <trkpt lat="44.879" lon="5.52233">
        <ele>2073</ele>
        <time>2014-02-23T09:25:02Z</time>
      </trkpt>
      <trkpt lat="44.87899" lon="5.52232">
        <ele>2073</ele>
        <time>2014-02-23T09:25:07Z</time>
      </trkpt>
      <trkpt lat="44.87899" lon="5.52232">
        <ele>2073</ele>
        <time>2014-02-23T09:25:12Z</time>
      </trkpt>
      <trkpt lat="44.87899" lon="5.5223">
        <ele>2074</ele>
        <time>2014-02-23T09:25:17Z</time>
      </trkpt>
      <trkpt lat="44.87898" lon="5.5223">
        <ele>2074</ele>
        <time>2014-02-23T09:25:22Z</time>
      </trkpt>
      <trkpt lat="44.87898" lon="5.52229">
        <ele>2074</ele>
        <time>2014-02-23T09:25:27Z</time>
      </trkpt>
      <trkpt lat="44.87898" lon="5.52229">
        <ele>2074</ele>
        <time>2014-02-23T09:25:32Z</time>
      </trkpt>
      <trkpt lat="44.87898" lon="5.52229">
        <ele>2074</ele>
        <time>2014-02-23T09:25:37Z</time>
      </trkpt>
      <trkpt lat="44.87897" lon="5.52228">
        <ele>2075</ele>
        <time>2014-02-23T09:25:42Z</time>
      </trkpt>
      <trkpt lat="44.87897" lon="5.52228">
        <ele>2076</ele>
        <time>2014-02-23T09:25:47Z</time>
      </trkpt>
      <trkpt lat="44.87896" lon="5.52229">
        <ele>2077</ele>
        <time>2014-02-23T09:25:52Z</time>
      </trkpt>
      <trkpt lat="44.87893" lon="5.52237">
        <ele>2080</ele>
        <time>2014-02-23T09:25:57Z</time>
      </trkpt>
      <trkpt lat="44.87891" lon="5.52238">
        <ele>2081</ele>
        <time>2014-02-23T09:26:02Z</time>
      </trkpt>
      <trkpt lat="44.8789" lon="5.52237">
        <ele>2083</ele>
        <time>2014-02-23T09:26:07Z</time>
      </trkpt>
      <trkpt lat="44.87888" lon="5.52235">
        <ele>2084</ele>
        <time>2014-02-23T09:26:12Z</time>
      </trkpt>
      <trkpt lat="44.87885" lon="5.52234">
        <ele>2084</ele>
        <time>2014-02-23T09:26:17Z</time>
      </trkpt>
      <trkpt lat="44.87883" lon="5.52233">
        <ele>2084</ele>
        <time>2014-02-23T09:26:22Z</time>
      </trkpt>
      <trkpt lat="44.87881" lon="5.52233">
        <ele>2085</ele>
        <time>2014-02-23T09:26:27Z</time>
      </trkpt>
      <trkpt lat="44.87879" lon="5.52233">
        <ele>2086</ele>
        <time>2014-02-23T09:26:32Z</time>
      </trkpt>
      <trkpt lat="44.87877" lon="5.52232">
        <ele>2087</ele>
        <time>2014-02-23T09:26:37Z</time>
      </trkpt>
      <trkpt lat="44.87874" lon="5.52232">
        <ele>2089</ele>
        <time>2014-02-23T09:26:42Z</time>
      </trkpt>
      <trkpt lat="44.87871" lon="5.52232">
        <ele>2089</ele>
        <time>2014-02-23T09:26:47Z</time>
      </trkpt>
      <trkpt lat="44.87868" lon="5.52232">
        <ele>2091</ele>
        <time>2014-02-23T09:26:52Z</time>
      </trkpt>
      <trkpt lat="44.87865" lon="5.52232">
        <ele>2092</ele>
        <time>2014-02-23T09:26:57Z</time>
      </trkpt>
      <trkpt lat="44.87864" lon="5.52232">
        <ele>2092</ele>
        <time>2014-02-23T09:27:02Z</time>
      </trkpt>
      <trkpt lat="44.87864" lon="5.52232">
        <ele>2092</ele>
        <time>2014-02-23T09:27:07Z</time>
      </trkpt>
      <trkpt lat="44.87864" lon="5.52231">
        <ele>2092</ele>
        <time>2014-02-23T09:27:12Z</time>
      </trkpt>
      <trkpt lat="44.87864" lon="5.52231">
        <ele>2092</ele>
        <time>2014-02-23T09:27:17Z</time>
      </trkpt>
      <trkpt lat="44.87864" lon="5.5223">
        <ele>2092</ele>
        <time>2014-02-23T09:27:22Z</time>
      </trkpt>
      <trkpt lat="44.87864" lon="5.5223">
        <ele>2092</ele>
        <time>2014-02-23T09:27:27Z</time>
      </trkpt>
      <trkpt lat="44.8786" lon="5.52231">
        <ele>2091</ele>
        <time>2014-02-23T09:27:32Z</time>
      </trkpt>
      <trkpt lat="44.87856" lon="5.52231">
        <ele>2092</ele>
        <time>2014-02-23T09:27:37Z</time>
      </trkpt>
      <trkpt lat="44.87853" lon="5.52231">
        <ele>2092</ele>
        <time>2014-02-23T09:27:42Z</time>
      </trkpt>
      <trkpt lat="44.87849" lon="5.52232">
        <ele>2092</ele>
        <time>2014-02-23T09:27:47Z</time>
      </trkpt>
      <trkpt lat="44.87845" lon="5.52232">
        <ele>2093</ele>
        <time>2014-02-23T09:27:52Z</time>
      </trkpt>
      <trkpt lat="44.87841" lon="5.52232">
        <ele>2093</ele>
        <time>2014-02-23T09:27:57Z</time>
      </trkpt>
      <trkpt lat="44.87838" lon="5.52231">
        <ele>2092</ele>
        <time>2014-02-23T09:28:02Z</time>
      </trkpt>
      <trkpt lat="44.87834" lon="5.52232">
        <ele>2092</ele>
        <time>2014-02-23T09:28:07Z</time>
      </trkpt>
      <trkpt lat="44.8783" lon="5.52232">
        <ele>2092</ele>
        <time>2014-02-23T09:28:12Z</time>
      </trkpt>
      <trkpt lat="44.87825" lon="5.52231">
        <ele>2092</ele>
        <time>2014-02-23T09:28:17Z</time>
      </trkpt>
      <trkpt lat="44.8782" lon="5.52231">
        <ele>2092</ele>
        <time>2014-02-23T09:28:22Z</time>
      </trkpt>
      <trkpt lat="44.87816" lon="5.5223">
        <ele>2092</ele>
        <time>2014-02-23T09:28:27Z</time>
      </trkpt>
      <trkpt lat="44.87811" lon="5.5223">
        <ele>2092</ele>
        <time>2014-02-23T09:28:32Z</time>
      </trkpt>
      <trkpt lat="44.87807" lon="5.52229">
        <ele>2091</ele>
        <time>2014-02-23T09:28:37Z</time>
      </trkpt>
      <trkpt lat="44.87804" lon="5.52228">
        <ele>2092</ele>
        <time>2014-02-23T09:28:42Z</time>
      </trkpt>
      <trkpt lat="44.87804" lon="5.52228">
        <ele>2091</ele>
        <time>2014-02-23T09:28:47Z</time>
      </trkpt>
      <trkpt lat="44.87804" lon="5.52229">
        <ele>2091</ele>
        <time>2014-02-23T09:28:52Z</time>
      </trkpt>
      <trkpt lat="44.87801" lon="5.52228">
        <ele>2097</ele>
        <time>2014-02-23T09:30:42Z</time>
      </trkpt>
      <trkpt lat="44.87801" lon="5.52228">
        <ele>2097</ele>
        <time>2014-02-23T09:30:47Z</time>
      </trkpt>
      <trkpt lat="44.878" lon="5.52228">
        <ele>2096</ele>
        <time>2014-02-23T09:30:52Z</time>
      </trkpt>
      <trkpt lat="44.878" lon="5.52228">
        <ele>2095</ele>
        <time>2014-02-23T09:30:57Z</time>
      </trkpt>
      <trkpt lat="44.87799" lon="5.52228">
        <ele>2095</ele>
        <time>2014-02-23T09:31:02Z</time>
      </trkpt>
      <trkpt lat="44.87799" lon="5.52228">
        <ele>2095</ele>
        <time>2014-02-23T09:31:07Z</time>
      </trkpt>
      <trkpt lat="44.87799" lon="5.52227">
        <ele>2096</ele>
        <time>2014-02-23T09:31:12Z</time>
      </trkpt>
      <trkpt lat="44.87799" lon="5.52227">
        <ele>2096</ele>
        <time>2014-02-23T09:31:17Z</time>
      </trkpt>
      <trkpt lat="44.87798" lon="5.52227">
        <ele>2096</ele>
        <time>2014-02-23T09:31:22Z</time>
      </trkpt>
      <trkpt lat="44.87798" lon="5.52227">
        <ele>2095</ele>
        <time>2014-02-23T09:31:27Z</time>
      </trkpt>
      <trkpt lat="44.87798" lon="5.52227">
        <ele>2095</ele>
        <time>2014-02-23T09:31:32Z</time>
      </trkpt>
      <trkpt lat="44.87798" lon="5.52227">
        <ele>2094</ele>
        <time>2014-02-23T09:31:37Z</time>
      </trkpt>
      <trkpt lat="44.87798" lon="5.52228">
        <ele>2094</ele>
        <time>2014-02-23T09:31:42Z</time>
      </trkpt>
      <trkpt lat="44.87798" lon="5.52228">
        <ele>2094</ele>
        <time>2014-02-23T09:31:47Z</time>
      </trkpt>
      <trkpt lat="44.87797" lon="5.52228">
        <ele>2094</ele>
        <time>2014-02-23T09:31:52Z</time>
      </trkpt>
      <trkpt lat="44.87794" lon="5.52227">
        <ele>2095</ele>
        <time>2014-02-23T09:31:57Z</time>
      </trkpt>
      <trkpt lat="44.87791" lon="5.52225">
        <ele>2096</ele>
        <time>2014-02-23T09:32:02Z</time>
      </trkpt>
      <trkpt lat="44.87787" lon="5.52223">
        <ele>2097</ele>
        <time>2014-02-23T09:32:07Z</time>
      </trkpt>
      <trkpt lat="44.87784" lon="5.52221">
        <ele>2098</ele>
        <time>2014-02-23T09:32:12Z</time>
      </trkpt>
      <trkpt lat="44.87781" lon="5.5222">
        <ele>2100</ele>
        <time>2014-02-23T09:32:17Z</time>
      </trkpt>
      <trkpt lat="44.87778" lon="5.52218">
        <ele>2101</ele>
        <time>2014-02-23T09:32:22Z</time>
      </trkpt>
      <trkpt lat="44.87775" lon="5.52216">
        <ele>2102</ele>
        <time>2014-02-23T09:32:27Z</time>
      </trkpt>
      <trkpt lat="44.87772" lon="5.52214">
        <ele>2102</ele>
        <time>2014-02-23T09:32:32Z</time>
      </trkpt>
      <trkpt lat="44.87769" lon="5.52213">
        <ele>2103</ele>
        <time>2014-02-23T09:32:37Z</time>
      </trkpt>
      <trkpt lat="44.87767" lon="5.52212">
        <ele>2104</ele>
        <time>2014-02-23T09:32:42Z</time>
      </trkpt>
      <trkpt lat="44.87764" lon="5.52211">
        <ele>2105</ele>
        <time>2014-02-23T09:32:47Z</time>
      </trkpt>
      <trkpt lat="44.87761" lon="5.52212">
        <ele>2106</ele>
        <time>2014-02-23T09:32:52Z</time>
      </trkpt>
      <trkpt lat="44.87758" lon="5.52212">
        <ele>2108</ele>
        <time>2014-02-23T09:32:57Z</time>
      </trkpt>
      <trkpt lat="44.87756" lon="5.52213">
        <ele>2110</ele>
        <time>2014-02-23T09:33:02Z</time>
      </trkpt>
      <trkpt lat="44.87753" lon="5.52214">
        <ele>2111</ele>
        <time>2014-02-23T09:33:07Z</time>
      </trkpt>
      <trkpt lat="44.87751" lon="5.52216">
        <ele>2112</ele>
        <time>2014-02-23T09:33:12Z</time>
      </trkpt>
      <trkpt lat="44.87748" lon="5.52218">
        <ele>2114</ele>
        <time>2014-02-23T09:33:17Z</time>
      </trkpt>
      <trkpt lat="44.87748" lon="5.52218">
        <ele>2115</ele>
        <time>2014-02-23T09:33:22Z</time>
      </trkpt>
      <trkpt lat="44.87744" lon="5.52219">
        <ele>2116</ele>
        <time>2014-02-23T09:33:27Z</time>
      </trkpt>
      <trkpt lat="44.87741" lon="5.5222">
        <ele>2117</ele>
        <time>2014-02-23T09:33:32Z</time>
      </trkpt>
      <trkpt lat="44.87738" lon="5.5222">
        <ele>2118</ele>
        <time>2014-02-23T09:33:37Z</time>
      </trkpt>
      <trkpt lat="44.87735" lon="5.5222">
        <ele>2119</ele>
        <time>2014-02-23T09:33:42Z</time>
      </trkpt>
      <trkpt lat="44.87732" lon="5.52221">
        <ele>2120</ele>
        <time>2014-02-23T09:33:47Z</time>
      </trkpt>
      <trkpt lat="44.87729" lon="5.52221">
        <ele>2121</ele>
        <time>2014-02-23T09:33:52Z</time>
      </trkpt>
      <trkpt lat="44.87726" lon="5.52222">
        <ele>2121</ele>
        <time>2014-02-23T09:33:57Z</time>
      </trkpt>
      <trkpt lat="44.87723" lon="5.52223">
        <ele>2122</ele>
        <time>2014-02-23T09:34:02Z</time>
      </trkpt>
      <trkpt lat="44.8772" lon="5.52224">
        <ele>2123</ele>
        <time>2014-02-23T09:34:07Z</time>
      </trkpt>
      <trkpt lat="44.87718" lon="5.52225">
        <ele>2123</ele>
        <time>2014-02-23T09:34:12Z</time>
      </trkpt>
      <trkpt lat="44.87715" lon="5.52226">
        <ele>2124</ele>
        <time>2014-02-23T09:34:17Z</time>
      </trkpt>
      <trkpt lat="44.87712" lon="5.52227">
        <ele>2125</ele>
        <time>2014-02-23T09:34:22Z</time>
      </trkpt>
      <trkpt lat="44.8771" lon="5.52228">
        <ele>2125</ele>
        <time>2014-02-23T09:34:27Z</time>
      </trkpt>
      <trkpt lat="44.87708" lon="5.52229">
        <ele>2126</ele>
        <time>2014-02-23T09:34:32Z</time>
      </trkpt>
      <trkpt lat="44.87705" lon="5.5223">
        <ele>2126</ele>
        <time>2014-02-23T09:34:37Z</time>
      </trkpt>
      <trkpt lat="44.87703" lon="5.5223">
        <ele>2127</ele>
        <time>2014-02-23T09:34:42Z</time>
      </trkpt>
      <trkpt lat="44.877" lon="5.52231">
        <ele>2127</ele>
        <time>2014-02-23T09:34:47Z</time>
      </trkpt>
      <trkpt lat="44.87699" lon="5.52232">
        <ele>2128</ele>
        <time>2014-02-23T09:34:52Z</time>
      </trkpt>
      <trkpt lat="44.87697" lon="5.52233">
        <ele>2129</ele>
        <time>2014-02-23T09:34:57Z</time>
      </trkpt>
      <trkpt lat="44.87694" lon="5.52233">
        <ele>2129</ele>
        <time>2014-02-23T09:35:02Z</time>
      </trkpt>
      <trkpt lat="44.87692" lon="5.52233">
        <ele>2130</ele>
        <time>2014-02-23T09:35:07Z</time>
      </trkpt>
      <trkpt lat="44.87689" lon="5.52234">
        <ele>2131</ele>
        <time>2014-02-23T09:35:12Z</time>
      </trkpt>
      <trkpt lat="44.87687" lon="5.52234">
        <ele>2131</ele>
        <time>2014-02-23T09:35:17Z</time>
      </trkpt>
      <trkpt lat="44.87684" lon="5.52235">
        <ele>2132</ele>
        <time>2014-02-23T09:35:22Z</time>
      </trkpt>
      <trkpt lat="44.87682" lon="5.52235">
        <ele>2133</ele>
        <time>2014-02-23T09:35:27Z</time>
      </trkpt>
      <trkpt lat="44.8768" lon="5.52236">
        <ele>2133</ele>
        <time>2014-02-23T09:35:32Z</time>
      </trkpt>
      <trkpt lat="44.87677" lon="5.52236">
        <ele>2134</ele>
        <time>2014-02-23T09:35:37Z</time>
      </trkpt>
      <trkpt lat="44.87675" lon="5.52236">
        <ele>2134</ele>
        <time>2014-02-23T09:35:42Z</time>
      </trkpt>
      <trkpt lat="44.87673" lon="5.52237">
        <ele>2134</ele>
        <time>2014-02-23T09:35:47Z</time>
      </trkpt>
      <trkpt lat="44.87671" lon="5.52237">
        <ele>2135</ele>
        <time>2014-02-23T09:35:52Z</time>
      </trkpt>
      <trkpt lat="44.87669" lon="5.52238">
        <ele>2135</ele>
        <time>2014-02-23T09:35:57Z</time>
      </trkpt>
      <trkpt lat="44.87666" lon="5.52238">
        <ele>2135</ele>
        <time>2014-02-23T09:36:02Z</time>
      </trkpt>
      <trkpt lat="44.87664" lon="5.52239">
        <ele>2136</ele>
        <time>2014-02-23T09:36:07Z</time>
      </trkpt>
      <trkpt lat="44.87662" lon="5.52239">
        <ele>2136</ele>
        <time>2014-02-23T09:36:12Z</time>
      </trkpt>
      <trkpt lat="44.8766" lon="5.5224">
        <ele>2137</ele>
        <time>2014-02-23T09:36:17Z</time>
      </trkpt>
      <trkpt lat="44.87658" lon="5.52241">
        <ele>2137</ele>
        <time>2014-02-23T09:36:22Z</time>
      </trkpt>
      <trkpt lat="44.87656" lon="5.52241">
        <ele>2138</ele>
        <time>2014-02-23T09:36:27Z</time>
      </trkpt>
      <trkpt lat="44.87653" lon="5.52242">
        <ele>2138</ele>
        <time>2014-02-23T09:36:32Z</time>
      </trkpt>
      <trkpt lat="44.87651" lon="5.52242">
        <ele>2139</ele>
        <time>2014-02-23T09:36:37Z</time>
      </trkpt>
      <trkpt lat="44.87649" lon="5.52243">
        <ele>2139</ele>
        <time>2014-02-23T09:36:42Z</time>
      </trkpt>
      <trkpt lat="44.87647" lon="5.52243">
        <ele>2140</ele>
        <time>2014-02-23T09:36:47Z</time>
      </trkpt>
      <trkpt lat="44.87644" lon="5.52244">
        <ele>2140</ele>
        <time>2014-02-23T09:36:52Z</time>
      </trkpt>
      <trkpt lat="44.87642" lon="5.52244">
        <ele>2141</ele>
        <time>2014-02-23T09:36:57Z</time>
      </trkpt>
      <trkpt lat="44.87639" lon="5.52244">
        <ele>2142</ele>
        <time>2014-02-23T09:37:02Z</time>
      </trkpt>
      <trkpt lat="44.87637" lon="5.52244">
        <ele>2141</ele>
        <time>2014-02-23T09:37:07Z</time>
      </trkpt>
      <trkpt lat="44.87634" lon="5.52244">
        <ele>2142</ele>
        <time>2014-02-23T09:37:12Z</time>
      </trkpt>
      <trkpt lat="44.87631" lon="5.52245">
        <ele>2142</ele>
        <time>2014-02-23T09:37:17Z</time>
      </trkpt>
      <trkpt lat="44.87629" lon="5.52245">
        <ele>2143</ele>
        <time>2014-02-23T09:37:22Z</time>
      </trkpt>
      <trkpt lat="44.87627" lon="5.52245">
        <ele>2144</ele>
        <time>2014-02-23T09:37:27Z</time>
      </trkpt>
      <trkpt lat="44.87625" lon="5.52245">
        <ele>2145</ele>
        <time>2014-02-23T09:37:32Z</time>
      </trkpt>
      <trkpt lat="44.87622" lon="5.52246">
        <ele>2146</ele>
        <time>2014-02-23T09:37:37Z</time>
      </trkpt>
      <trkpt lat="44.8762" lon="5.52246">
        <ele>2147</ele>
        <time>2014-02-23T09:37:42Z</time>
      </trkpt>
      <trkpt lat="44.87618" lon="5.52247">
        <ele>2147</ele>
        <time>2014-02-23T09:37:47Z</time>
      </trkpt>
      <trkpt lat="44.87616" lon="5.52247">
        <ele>2148</ele>
        <time>2014-02-23T09:37:52Z</time>
      </trkpt>
      <trkpt lat="44.87613" lon="5.52248">
        <ele>2148</ele>
        <time>2014-02-23T09:37:57Z</time>
      </trkpt>
      <trkpt lat="44.87611" lon="5.52249">
        <ele>2149</ele>
        <time>2014-02-23T09:38:02Z</time>
      </trkpt>
      <trkpt lat="44.87609" lon="5.5225">
        <ele>2150</ele>
        <time>2014-02-23T09:38:07Z</time>
      </trkpt>
      <trkpt lat="44.87607" lon="5.5225">
        <ele>2150</ele>
        <time>2014-02-23T09:38:12Z</time>
      </trkpt>
      <trkpt lat="44.87605" lon="5.52251">
        <ele>2151</ele>
        <time>2014-02-23T09:38:17Z</time>
      </trkpt>
      <trkpt lat="44.87602" lon="5.52252">
        <ele>2151</ele>
        <time>2014-02-23T09:38:22Z</time>
      </trkpt>
      <trkpt lat="44.876" lon="5.52253">
        <ele>2152</ele>
        <time>2014-02-23T09:38:27Z</time>
      </trkpt>
      <trkpt lat="44.87598" lon="5.52253">
        <ele>2152</ele>
        <time>2014-02-23T09:38:32Z</time>
      </trkpt>
      <trkpt lat="44.87596" lon="5.52254">
        <ele>2153</ele>
        <time>2014-02-23T09:38:37Z</time>
      </trkpt>
      <trkpt lat="44.87594" lon="5.52255">
        <ele>2154</ele>
        <time>2014-02-23T09:38:42Z</time>
      </trkpt>
      <trkpt lat="44.87592" lon="5.52256">
        <ele>2154</ele>
        <time>2014-02-23T09:38:47Z</time>
      </trkpt>
      <trkpt lat="44.87589" lon="5.52257">
        <ele>2155</ele>
        <time>2014-02-23T09:38:52Z</time>
      </trkpt>
      <trkpt lat="44.87587" lon="5.52258">
        <ele>2156</ele>
        <time>2014-02-23T09:38:57Z</time>
      </trkpt>
      <trkpt lat="44.87586" lon="5.52259">
        <ele>2157</ele>
        <time>2014-02-23T09:39:02Z</time>
      </trkpt>
      <trkpt lat="44.87583" lon="5.5226">
        <ele>2157</ele>
        <time>2014-02-23T09:39:07Z</time>
      </trkpt>
      <trkpt lat="44.87581" lon="5.5226">
        <ele>2158</ele>
        <time>2014-02-23T09:39:12Z</time>
      </trkpt>
      <trkpt lat="44.87579" lon="5.52261">
        <ele>2159</ele>
        <time>2014-02-23T09:39:17Z</time>
      </trkpt>
      <trkpt lat="44.87576" lon="5.52262">
        <ele>2160</ele>
        <time>2014-02-23T09:39:22Z</time>
      </trkpt>
      <trkpt lat="44.87574" lon="5.52263">
        <ele>2160</ele>
        <time>2014-02-23T09:39:27Z</time>
      </trkpt>
      <trkpt lat="44.87572" lon="5.52264">
        <ele>2160</ele>
        <time>2014-02-23T09:39:32Z</time>
      </trkpt>
      <trkpt lat="44.87569" lon="5.52265">
        <ele>2160</ele>
        <time>2014-02-23T09:39:37Z</time>
      </trkpt>
      <trkpt lat="44.87567" lon="5.52266">
        <ele>2160</ele>
        <time>2014-02-23T09:39:42Z</time>
      </trkpt>
      <trkpt lat="44.87565" lon="5.52267">
        <ele>2161</ele>
        <time>2014-02-23T09:39:47Z</time>
      </trkpt>
      <trkpt lat="44.87563" lon="5.52267">
        <ele>2161</ele>
        <time>2014-02-23T09:39:52Z</time>
      </trkpt>
      <trkpt lat="44.8756" lon="5.52268">
        <ele>2161</ele>
        <time>2014-02-23T09:39:57Z</time>
      </trkpt>
      <trkpt lat="44.87558" lon="5.52269">
        <ele>2162</ele>
        <time>2014-02-23T09:40:02Z</time>
      </trkpt>
      <trkpt lat="44.87557" lon="5.5227">
        <ele>2162</ele>
        <time>2014-02-23T09:40:07Z</time>
      </trkpt>
      <trkpt lat="44.87555" lon="5.52272">
        <ele>2163</ele>
        <time>2014-02-23T09:40:12Z</time>
      </trkpt>
      <trkpt lat="44.87553" lon="5.52273">
        <ele>2163</ele>
        <time>2014-02-23T09:40:17Z</time>
      </trkpt>
      <trkpt lat="44.8755" lon="5.52273">
        <ele>2164</ele>
        <time>2014-02-23T09:40:22Z</time>
      </trkpt>
      <trkpt lat="44.87547" lon="5.52274">
        <ele>2164</ele>
        <time>2014-02-23T09:40:27Z</time>
      </trkpt>
      <trkpt lat="44.87545" lon="5.52275">
        <ele>2165</ele>
        <time>2014-02-23T09:40:32Z</time>
      </trkpt>
      <trkpt lat="44.87543" lon="5.52275">
        <ele>2166</ele>
        <time>2014-02-23T09:40:37Z</time>
      </trkpt>
      <trkpt lat="44.8754" lon="5.52276">
        <ele>2166</ele>
        <time>2014-02-23T09:40:42Z</time>
      </trkpt>
      <trkpt lat="44.87538" lon="5.52277">
        <ele>2167</ele>
        <time>2014-02-23T09:40:47Z</time>
      </trkpt>
      <trkpt lat="44.87536" lon="5.52277">
        <ele>2167</ele>
        <time>2014-02-23T09:40:52Z</time>
      </trkpt>
      <trkpt lat="44.87533" lon="5.52278">
        <ele>2168</ele>
        <time>2014-02-23T09:40:57Z</time>
      </trkpt>
      <trkpt lat="44.8753" lon="5.52279">
        <ele>2168</ele>
        <time>2014-02-23T09:41:02Z</time>
      </trkpt>
      <trkpt lat="44.87528" lon="5.5228">
        <ele>2168</ele>
        <time>2014-02-23T09:41:07Z</time>
      </trkpt>
      <trkpt lat="44.87526" lon="5.52281">
        <ele>2169</ele>
        <time>2014-02-23T09:41:12Z</time>
      </trkpt>
      <trkpt lat="44.87523" lon="5.52282">
        <ele>2170</ele>
        <time>2014-02-23T09:41:17Z</time>
      </trkpt>
      <trkpt lat="44.8752" lon="5.52283">
        <ele>2171</ele>
        <time>2014-02-23T09:41:22Z</time>
      </trkpt>
      <trkpt lat="44.87518" lon="5.52284">
        <ele>2171</ele>
        <time>2014-02-23T09:41:27Z</time>
      </trkpt>
      <trkpt lat="44.87515" lon="5.52284">
        <ele>2172</ele>
        <time>2014-02-23T09:41:32Z</time>
      </trkpt>
      <trkpt lat="44.87513" lon="5.52286">
        <ele>2172</ele>
        <time>2014-02-23T09:41:37Z</time>
      </trkpt>
      <trkpt lat="44.8751" lon="5.52287">
        <ele>2173</ele>
        <time>2014-02-23T09:41:42Z</time>
      </trkpt>
      <trkpt lat="44.87508" lon="5.52288">
        <ele>2174</ele>
        <time>2014-02-23T09:41:47Z</time>
      </trkpt>
      <trkpt lat="44.87505" lon="5.52289">
        <ele>2175</ele>
        <time>2014-02-23T09:41:52Z</time>
      </trkpt>
      <trkpt lat="44.87504" lon="5.52289">
        <ele>2175</ele>
        <time>2014-02-23T09:41:57Z</time>
      </trkpt>
      <trkpt lat="44.87504" lon="5.52289">
        <ele>2176</ele>
        <time>2014-02-23T09:42:02Z</time>
      </trkpt>
      <trkpt lat="44.87504" lon="5.5229">
        <ele>2176</ele>
        <time>2014-02-23T09:42:07Z</time>
      </trkpt>
      <trkpt lat="44.87503" lon="5.5229">
        <ele>2176</ele>
        <time>2014-02-23T09:42:12Z</time>
      </trkpt>
      <trkpt lat="44.87503" lon="5.52289">
        <ele>2175</ele>
        <time>2014-02-23T09:42:17Z</time>
      </trkpt>
      <trkpt lat="44.87502" lon="5.5229">
        <ele>2175</ele>
        <time>2014-02-23T09:42:22Z</time>
      </trkpt>
      <trkpt lat="44.87499" lon="5.52291">
        <ele>2176</ele>
        <time>2014-02-23T09:42:27Z</time>
      </trkpt>
      <trkpt lat="44.87497" lon="5.52293">
        <ele>2177</ele>
        <time>2014-02-23T09:42:32Z</time>
      </trkpt>
      <trkpt lat="44.87494" lon="5.52294">
        <ele>2178</ele>
        <time>2014-02-23T09:42:37Z</time>
      </trkpt>
      <trkpt lat="44.87492" lon="5.52294">
        <ele>2179</ele>
        <time>2014-02-23T09:42:42Z</time>
      </trkpt>
      <trkpt lat="44.8749" lon="5.52296">
        <ele>2179</ele>
        <time>2014-02-23T09:42:47Z</time>
      </trkpt>
      <trkpt lat="44.87489" lon="5.52297">
        <ele>2180</ele>
        <time>2014-02-23T09:42:52Z</time>
      </trkpt>
      <trkpt lat="44.87487" lon="5.52299">
        <ele>2180</ele>
        <time>2014-02-23T09:42:57Z</time>
      </trkpt>
      <trkpt lat="44.87484" lon="5.52301">
        <ele>2181</ele>
        <time>2014-02-23T09:43:02Z</time>
      </trkpt>
      <trkpt lat="44.87483" lon="5.52302">
        <ele>2182</ele>
        <time>2014-02-23T09:43:07Z</time>
      </trkpt>
      <trkpt lat="44.87481" lon="5.52304">
        <ele>2182</ele>
        <time>2014-02-23T09:43:12Z</time>
      </trkpt>
      <trkpt lat="44.87479" lon="5.52305">
        <ele>2183</ele>
        <time>2014-02-23T09:43:17Z</time>
      </trkpt>
      <trkpt lat="44.87478" lon="5.52306">
        <ele>2183</ele>
        <time>2014-02-23T09:43:22Z</time>
      </trkpt>
      <trkpt lat="44.87476" lon="5.52308">
        <ele>2184</ele>
        <time>2014-02-23T09:43:27Z</time>
      </trkpt>
      <trkpt lat="44.87474" lon="5.5231">
        <ele>2184</ele>
        <time>2014-02-23T09:43:32Z</time>
      </trkpt>
      <trkpt lat="44.87471" lon="5.52311">
        <ele>2185</ele>
        <time>2014-02-23T09:43:37Z</time>
      </trkpt>
      <trkpt lat="44.8747" lon="5.52313">
        <ele>2186</ele>
        <time>2014-02-23T09:43:42Z</time>
      </trkpt>
      <trkpt lat="44.87468" lon="5.52315">
        <ele>2186</ele>
        <time>2014-02-23T09:43:47Z</time>
      </trkpt>
      <trkpt lat="44.87467" lon="5.52317">
        <ele>2187</ele>
        <time>2014-02-23T09:43:52Z</time>
      </trkpt>
      <trkpt lat="44.87465" lon="5.52319">
        <ele>2187</ele>
        <time>2014-02-23T09:43:57Z</time>
      </trkpt>
      <trkpt lat="44.87464" lon="5.52321">
        <ele>2188</ele>
        <time>2014-02-23T09:44:02Z</time>
      </trkpt>
      <trkpt lat="44.87462" lon="5.52323">
        <ele>2188</ele>
        <time>2014-02-23T09:44:07Z</time>
      </trkpt>
      <trkpt lat="44.87459" lon="5.52324">
        <ele>2188</ele>
        <time>2014-02-23T09:44:12Z</time>
      </trkpt>
      <trkpt lat="44.87457" lon="5.52325">
        <ele>2188</ele>
        <time>2014-02-23T09:44:17Z</time>
      </trkpt>
      <trkpt lat="44.87454" lon="5.52326">
        <ele>2189</ele>
        <time>2014-02-23T09:44:22Z</time>
      </trkpt>
      <trkpt lat="44.87452" lon="5.52328">
        <ele>2190</ele>
        <time>2014-02-23T09:44:27Z</time>
      </trkpt>
      <trkpt lat="44.87452" lon="5.52328">
        <ele>2190</ele>
        <time>2014-02-23T09:44:32Z</time>
      </trkpt>
      <trkpt lat="44.87449" lon="5.5233">
        <ele>2191</ele>
        <time>2014-02-23T09:44:37Z</time>
      </trkpt>
      <trkpt lat="44.87449" lon="5.52332">
        <ele>2191</ele>
        <time>2014-02-23T09:44:42Z</time>
      </trkpt>
      <trkpt lat="44.8745" lon="5.52334">
        <ele>2191</ele>
        <time>2014-02-23T09:44:47Z</time>
      </trkpt>
      <trkpt lat="44.87449" lon="5.52336">
        <ele>2191</ele>
        <time>2014-02-23T09:44:52Z</time>
      </trkpt>
      <trkpt lat="44.87447" lon="5.52339">
        <ele>2192</ele>
        <time>2014-02-23T09:44:57Z</time>
      </trkpt>
      <trkpt lat="44.87446" lon="5.52341">
        <ele>2192</ele>
        <time>2014-02-23T09:45:02Z</time>
      </trkpt>
      <trkpt lat="44.87445" lon="5.52344">
        <ele>2192</ele>
        <time>2014-02-23T09:45:07Z</time>
      </trkpt>
      <trkpt lat="44.87444" lon="5.52347">
        <ele>2193</ele>
        <time>2014-02-23T09:45:12Z</time>
      </trkpt>
      <trkpt lat="44.87442" lon="5.52351">
        <ele>2193</ele>
        <time>2014-02-23T09:45:17Z</time>
      </trkpt>
      <trkpt lat="44.87441" lon="5.52355">
        <ele>2193</ele>
        <time>2014-02-23T09:45:22Z</time>
      </trkpt>
      <trkpt lat="44.87439" lon="5.52359">
        <ele>2194</ele>
        <time>2014-02-23T09:45:27Z</time>
      </trkpt>
      <trkpt lat="44.87437" lon="5.52363">
        <ele>2194</ele>
        <time>2014-02-23T09:45:32Z</time>
      </trkpt>
      <trkpt lat="44.87436" lon="5.52367">
        <ele>2194</ele>
        <time>2014-02-23T09:45:37Z</time>
      </trkpt>
      <trkpt lat="44.87433" lon="5.5237">
        <ele>2195</ele>
        <time>2014-02-23T09:45:42Z</time>
      </trkpt>
      <trkpt lat="44.87432" lon="5.52374">
        <ele>2195</ele>
        <time>2014-02-23T09:45:47Z</time>
      </trkpt>
      <trkpt lat="44.8743" lon="5.52377">
        <ele>2196</ele>
        <time>2014-02-23T09:45:52Z</time>
      </trkpt>
      <trkpt lat="44.87428" lon="5.5238">
        <ele>2196</ele>
        <time>2014-02-23T09:45:57Z</time>
      </trkpt>
      <trkpt lat="44.87426" lon="5.52382">
        <ele>2197</ele>
        <time>2014-02-23T09:46:02Z</time>
      </trkpt>
      <trkpt lat="44.87424" lon="5.52385">
        <ele>2198</ele>
        <time>2014-02-23T09:46:07Z</time>
      </trkpt>
      <trkpt lat="44.87422" lon="5.52388">
        <ele>2198</ele>
        <time>2014-02-23T09:46:12Z</time>
      </trkpt>
      <trkpt lat="44.8742" lon="5.52391">
        <ele>2199</ele>
        <time>2014-02-23T09:46:17Z</time>
      </trkpt>
      <trkpt lat="44.87418" lon="5.52393">
        <ele>2200</ele>
        <time>2014-02-23T09:46:22Z</time>
      </trkpt>
      <trkpt lat="44.87416" lon="5.52396">
        <ele>2201</ele>
        <time>2014-02-23T09:46:27Z</time>
      </trkpt>
      <trkpt lat="44.87413" lon="5.52398">
        <ele>2202</ele>
        <time>2014-02-23T09:46:32Z</time>
      </trkpt>
      <trkpt lat="44.87412" lon="5.52401">
        <ele>2202</ele>
        <time>2014-02-23T09:46:37Z</time>
      </trkpt>
      <trkpt lat="44.8741" lon="5.52403">
        <ele>2203</ele>
        <time>2014-02-23T09:46:42Z</time>
      </trkpt>
      <trkpt lat="44.87407" lon="5.52405">
        <ele>2204</ele>
        <time>2014-02-23T09:46:47Z</time>
      </trkpt>
      <trkpt lat="44.87406" lon="5.52407">
        <ele>2205</ele>
        <time>2014-02-23T09:46:52Z</time>
      </trkpt>
      <trkpt lat="44.87404" lon="5.52408">
        <ele>2206</ele>
        <time>2014-02-23T09:46:57Z</time>
      </trkpt>
      <trkpt lat="44.87402" lon="5.5241">
        <ele>2207</ele>
        <time>2014-02-23T09:47:02Z</time>
      </trkpt>
      <trkpt lat="44.874" lon="5.52412">
        <ele>2208</ele>
        <time>2014-02-23T09:47:07Z</time>
      </trkpt>
      <trkpt lat="44.87398" lon="5.52413">
        <ele>2208</ele>
        <time>2014-02-23T09:47:12Z</time>
      </trkpt>
      <trkpt lat="44.87396" lon="5.52415">
        <ele>2210</ele>
        <time>2014-02-23T09:47:17Z</time>
      </trkpt>
      <trkpt lat="44.87394" lon="5.52416">
        <ele>2211</ele>
        <time>2014-02-23T09:47:22Z</time>
      </trkpt>
      <trkpt lat="44.87392" lon="5.52417">
        <ele>2211</ele>
        <time>2014-02-23T09:47:27Z</time>
      </trkpt>
      <trkpt lat="44.8739" lon="5.52418">
        <ele>2212</ele>
        <time>2014-02-23T09:47:32Z</time>
      </trkpt>
      <trkpt lat="44.87388" lon="5.52419">
        <ele>2213</ele>
        <time>2014-02-23T09:47:37Z</time>
      </trkpt>
      <trkpt lat="44.87386" lon="5.5242">
        <ele>2214</ele>
        <time>2014-02-23T09:47:42Z</time>
      </trkpt>
      <trkpt lat="44.87384" lon="5.52421">
        <ele>2215</ele>
        <time>2014-02-23T09:47:47Z</time>
      </trkpt>
      <trkpt lat="44.87383" lon="5.52423">
        <ele>2216</ele>
        <time>2014-02-23T09:47:52Z</time>
      </trkpt>
      <trkpt lat="44.87381" lon="5.52424">
        <ele>2216</ele>
        <time>2014-02-23T09:47:57Z</time>
      </trkpt>
      <trkpt lat="44.87379" lon="5.52426">
        <ele>2217</ele>
        <time>2014-02-23T09:48:02Z</time>
      </trkpt>
      <trkpt lat="44.87377" lon="5.52427">
        <ele>2218</ele>
        <time>2014-02-23T09:48:07Z</time>
      </trkpt>
      <trkpt lat="44.87376" lon="5.52428">
        <ele>2218</ele>
        <time>2014-02-23T09:48:12Z</time>
      </trkpt>
      <trkpt lat="44.87374" lon="5.52429">
        <ele>2219</ele>
        <time>2014-02-23T09:48:17Z</time>
      </trkpt>
      <trkpt lat="44.87372" lon="5.52429">
        <ele>2220</ele>
        <time>2014-02-23T09:48:22Z</time>
      </trkpt>
      <trkpt lat="44.8737" lon="5.52431">
        <ele>2221</ele>
        <time>2014-02-23T09:48:27Z</time>
      </trkpt>
      <trkpt lat="44.87368" lon="5.52432">
        <ele>2222</ele>
        <time>2014-02-23T09:48:32Z</time>
      </trkpt>
      <trkpt lat="44.87366" lon="5.52433">
        <ele>2222</ele>
        <time>2014-02-23T09:48:37Z</time>
      </trkpt>
      <trkpt lat="44.87364" lon="5.52434">
        <ele>2223</ele>
        <time>2014-02-23T09:48:42Z</time>
      </trkpt>
      <trkpt lat="44.87362" lon="5.52436">
        <ele>2223</ele>
        <time>2014-02-23T09:48:47Z</time>
      </trkpt>
      <trkpt lat="44.8736" lon="5.52437">
        <ele>2223</ele>
        <time>2014-02-23T09:48:52Z</time>
      </trkpt>
      <trkpt lat="44.87359" lon="5.52438">
        <ele>2224</ele>
        <time>2014-02-23T09:48:57Z</time>
      </trkpt>
      <trkpt lat="44.87357" lon="5.5244">
        <ele>2224</ele>
        <time>2014-02-23T09:49:02Z</time>
      </trkpt>
      <trkpt lat="44.87354" lon="5.52441">
        <ele>2225</ele>
        <time>2014-02-23T09:49:07Z</time>
      </trkpt>
      <trkpt lat="44.87352" lon="5.52443">
        <ele>2225</ele>
        <time>2014-02-23T09:49:12Z</time>
      </trkpt>
      <trkpt lat="44.87351" lon="5.52444">
        <ele>2226</ele>
        <time>2014-02-23T09:49:17Z</time>
      </trkpt>
      <trkpt lat="44.87348" lon="5.52445">
        <ele>2226</ele>
        <time>2014-02-23T09:49:22Z</time>
      </trkpt>
      <trkpt lat="44.87347" lon="5.52447">
        <ele>2227</ele>
        <time>2014-02-23T09:49:27Z</time>
      </trkpt>
      <trkpt lat="44.87344" lon="5.52448">
        <ele>2227</ele>
        <time>2014-02-23T09:49:32Z</time>
      </trkpt>
      <trkpt lat="44.87343" lon="5.5245">
        <ele>2227</ele>
        <time>2014-02-23T09:49:37Z</time>
      </trkpt>
      <trkpt lat="44.87341" lon="5.52452">
        <ele>2227</ele>
        <time>2014-02-23T09:49:42Z</time>
      </trkpt>
      <trkpt lat="44.87339" lon="5.52454">
        <ele>2228</ele>
        <time>2014-02-23T09:49:47Z</time>
      </trkpt>
      <trkpt lat="44.87337" lon="5.52455">
        <ele>2229</ele>
        <time>2014-02-23T09:49:52Z</time>
      </trkpt>
      <trkpt lat="44.87336" lon="5.52457">
        <ele>2230</ele>
        <time>2014-02-23T09:49:57Z</time>
      </trkpt>
      <trkpt lat="44.87334" lon="5.52459">
        <ele>2231</ele>
        <time>2014-02-23T09:50:02Z</time>
      </trkpt>
      <trkpt lat="44.87332" lon="5.5246">
        <ele>2231</ele>
        <time>2014-02-23T09:50:07Z</time>
      </trkpt>
      <trkpt lat="44.87331" lon="5.52462">
        <ele>2231</ele>
        <time>2014-02-23T09:50:12Z</time>
      </trkpt>
      <trkpt lat="44.8733" lon="5.52464">
        <ele>2232</ele>
        <time>2014-02-23T09:50:17Z</time>
      </trkpt>
      <trkpt lat="44.87328" lon="5.52465">
        <ele>2233</ele>
        <time>2014-02-23T09:50:22Z</time>
      </trkpt>
      <trkpt lat="44.87326" lon="5.52465">
        <ele>2234</ele>
        <time>2014-02-23T09:50:27Z</time>
      </trkpt>
      <trkpt lat="44.87324" lon="5.52467">
        <ele>2235</ele>
        <time>2014-02-23T09:50:32Z</time>
      </trkpt>
      <trkpt lat="44.87323" lon="5.52469">
        <ele>2235</ele>
        <time>2014-02-23T09:50:37Z</time>
      </trkpt>
      <trkpt lat="44.8732" lon="5.5247">
        <ele>2235</ele>
        <time>2014-02-23T09:50:42Z</time>
      </trkpt>
      <trkpt lat="44.87319" lon="5.52471">
        <ele>2237</ele>
        <time>2014-02-23T09:50:47Z</time>
      </trkpt>
      <trkpt lat="44.87317" lon="5.52473">
        <ele>2239</ele>
        <time>2014-02-23T09:50:52Z</time>
      </trkpt>
      <trkpt lat="44.87315" lon="5.52475">
        <ele>2239</ele>
        <time>2014-02-23T09:50:57Z</time>
      </trkpt>
      <trkpt lat="44.87313" lon="5.52476">
        <ele>2239</ele>
        <time>2014-02-23T09:51:02Z</time>
      </trkpt>
      <trkpt lat="44.87311" lon="5.52477">
        <ele>2240</ele>
        <time>2014-02-23T09:51:07Z</time>
      </trkpt>
      <trkpt lat="44.87309" lon="5.52479">
        <ele>2240</ele>
        <time>2014-02-23T09:51:12Z</time>
      </trkpt>
      <trkpt lat="44.87308" lon="5.52481">
        <ele>2241</ele>
        <time>2014-02-23T09:51:17Z</time>
      </trkpt>
      <trkpt lat="44.87306" lon="5.52482">
        <ele>2242</ele>
        <time>2014-02-23T09:51:22Z</time>
      </trkpt>
      <trkpt lat="44.87305" lon="5.52483">
        <ele>2243</ele>
        <time>2014-02-23T09:51:27Z</time>
      </trkpt>
      <trkpt lat="44.87303" lon="5.52485">
        <ele>2243</ele>
        <time>2014-02-23T09:51:32Z</time>
      </trkpt>
      <trkpt lat="44.87301" lon="5.52486">
        <ele>2244</ele>
        <time>2014-02-23T09:51:37Z</time>
      </trkpt>
      <trkpt lat="44.87299" lon="5.52488">
        <ele>2244</ele>
        <time>2014-02-23T09:51:42Z</time>
      </trkpt>
      <trkpt lat="44.87298" lon="5.52489">
        <ele>2244</ele>
        <time>2014-02-23T09:51:47Z</time>
      </trkpt>
      <trkpt lat="44.87296" lon="5.5249">
        <ele>2245</ele>
        <time>2014-02-23T09:51:52Z</time>
      </trkpt>
      <trkpt lat="44.87295" lon="5.52492">
        <ele>2245</ele>
        <time>2014-02-23T09:51:57Z</time>
      </trkpt>
      <trkpt lat="44.87295" lon="5.52494">
        <ele>2244</ele>
        <time>2014-02-23T09:52:02Z</time>
      </trkpt>
      <trkpt lat="44.87294" lon="5.52496">
        <ele>2244</ele>
        <time>2014-02-23T09:52:07Z</time>
      </trkpt>
      <trkpt lat="44.87292" lon="5.52497">
        <ele>2244</ele>
        <time>2014-02-23T09:52:12Z</time>
      </trkpt>
      <trkpt lat="44.87291" lon="5.52498">
        <ele>2244</ele>
        <time>2014-02-23T09:52:17Z</time>
      </trkpt>
      <trkpt lat="44.8729" lon="5.52499">
        <ele>2245</ele>
        <time>2014-02-23T09:52:22Z</time>
      </trkpt>
      <trkpt lat="44.87289" lon="5.525">
        <ele>2245</ele>
        <time>2014-02-23T09:52:27Z</time>
      </trkpt>
      <trkpt lat="44.87287" lon="5.525">
        <ele>2246</ele>
        <time>2014-02-23T09:52:32Z</time>
      </trkpt>
      <trkpt lat="44.87286" lon="5.52501">
        <ele>2246</ele>
        <time>2014-02-23T09:52:37Z</time>
      </trkpt>
      <trkpt lat="44.87284" lon="5.52502">
        <ele>2247</ele>
        <time>2014-02-23T09:52:42Z</time>
      </trkpt>
      <trkpt lat="44.87282" lon="5.52503">
        <ele>2247</ele>
        <time>2014-02-23T09:52:47Z</time>
      </trkpt>
      <trkpt lat="44.8728" lon="5.52504">
        <ele>2248</ele>
        <time>2014-02-23T09:52:52Z</time>
      </trkpt>
      <trkpt lat="44.87278" lon="5.52504">
        <ele>2248</ele>
        <time>2014-02-23T09:52:57Z</time>
      </trkpt>
      <trkpt lat="44.87277" lon="5.52505">
        <ele>2249</ele>
        <time>2014-02-23T09:53:02Z</time>
      </trkpt>
      <trkpt lat="44.87275" lon="5.52505">
        <ele>2249</ele>
        <time>2014-02-23T09:53:07Z</time>
      </trkpt>
      <trkpt lat="44.87273" lon="5.52506">
        <ele>2250</ele>
        <time>2014-02-23T09:53:12Z</time>
      </trkpt>
      <trkpt lat="44.87272" lon="5.52506">
        <ele>2251</ele>
        <time>2014-02-23T09:53:17Z</time>
      </trkpt>
      <trkpt lat="44.87269" lon="5.52507">
        <ele>2251</ele>
        <time>2014-02-23T09:53:22Z</time>
      </trkpt>
      <trkpt lat="44.87268" lon="5.52507">
        <ele>2252</ele>
        <time>2014-02-23T09:53:27Z</time>
      </trkpt>
      <trkpt lat="44.87266" lon="5.52508">
        <ele>2253</ele>
        <time>2014-02-23T09:53:32Z</time>
      </trkpt>
      <trkpt lat="44.87264" lon="5.52508">
        <ele>2253</ele>
        <time>2014-02-23T09:53:37Z</time>
      </trkpt>
      <trkpt lat="44.87262" lon="5.52509">
        <ele>2254</ele>
        <time>2014-02-23T09:53:42Z</time>
      </trkpt>
      <trkpt lat="44.8726" lon="5.52509">
        <ele>2254</ele>
        <time>2014-02-23T09:53:47Z</time>
      </trkpt>
      <trkpt lat="44.87257" lon="5.5251">
        <ele>2255</ele>
        <time>2014-02-23T09:53:52Z</time>
      </trkpt>
      <trkpt lat="44.87256" lon="5.52511">
        <ele>2254</ele>
        <time>2014-02-23T09:53:57Z</time>
      </trkpt>
      <trkpt lat="44.87253" lon="5.52512">
        <ele>2255</ele>
        <time>2014-02-23T09:54:02Z</time>
      </trkpt>
      <trkpt lat="44.87251" lon="5.52512">
        <ele>2256</ele>
        <time>2014-02-23T09:54:07Z</time>
      </trkpt>
      <trkpt lat="44.87251" lon="5.52512">
        <ele>2256</ele>
        <time>2014-02-23T09:54:12Z</time>
      </trkpt>
      <trkpt lat="44.87251" lon="5.52513">
        <ele>2256</ele>
        <time>2014-02-23T09:54:17Z</time>
      </trkpt>
      <trkpt lat="44.87251" lon="5.52513">
        <ele>2255</ele>
        <time>2014-02-23T09:54:22Z</time>
      </trkpt>
      <trkpt lat="44.87251" lon="5.52513">
        <ele>2255</ele>
        <time>2014-02-23T09:54:27Z</time>
      </trkpt>
      <trkpt lat="44.8725" lon="5.52513">
        <ele>2255</ele>
        <time>2014-02-23T09:54:32Z</time>
      </trkpt>
      <trkpt lat="44.87248" lon="5.52513">
        <ele>2255</ele>
        <time>2014-02-23T09:54:37Z</time>
      </trkpt>
      <trkpt lat="44.87246" lon="5.52514">
        <ele>2256</ele>
        <time>2014-02-23T09:54:42Z</time>
      </trkpt>
      <trkpt lat="44.87244" lon="5.52515">
        <ele>2257</ele>
        <time>2014-02-23T09:54:47Z</time>
      </trkpt>
      <trkpt lat="44.87242" lon="5.52515">
        <ele>2258</ele>
        <time>2014-02-23T09:54:52Z</time>
      </trkpt>
      <trkpt lat="44.87239" lon="5.52516">
        <ele>2259</ele>
        <time>2014-02-23T09:54:57Z</time>
      </trkpt>
      <trkpt lat="44.87237" lon="5.52517">
        <ele>2260</ele>
        <time>2014-02-23T09:55:02Z</time>
      </trkpt>
      <trkpt lat="44.87234" lon="5.52518">
        <ele>2261</ele>
        <time>2014-02-23T09:55:07Z</time>
      </trkpt>
      <trkpt lat="44.87232" lon="5.52519">
        <ele>2262</ele>
        <time>2014-02-23T09:55:12Z</time>
      </trkpt>
      <trkpt lat="44.8723" lon="5.5252">
        <ele>2263</ele>
        <time>2014-02-23T09:55:17Z</time>
      </trkpt>
      <trkpt lat="44.87227" lon="5.52521">
        <ele>2264</ele>
        <time>2014-02-23T09:55:22Z</time>
      </trkpt>
      <trkpt lat="44.87225" lon="5.52522">
        <ele>2265</ele>
        <time>2014-02-23T09:55:27Z</time>
      </trkpt>
      <trkpt lat="44.87222" lon="5.52523">
        <ele>2267</ele>
        <time>2014-02-23T09:55:32Z</time>
      </trkpt>
      <trkpt lat="44.8722" lon="5.52524">
        <ele>2268</ele>
        <time>2014-02-23T09:55:37Z</time>
      </trkpt>
      <trkpt lat="44.87218" lon="5.52525">
        <ele>2269</ele>
        <time>2014-02-23T09:55:42Z</time>
      </trkpt>
      <trkpt lat="44.87216" lon="5.52526">
        <ele>2270</ele>
        <time>2014-02-23T09:55:47Z</time>
      </trkpt>
      <trkpt lat="44.87214" lon="5.52527">
        <ele>2271</ele>
        <time>2014-02-23T09:55:52Z</time>
      </trkpt>
      <trkpt lat="44.87211" lon="5.52528">
        <ele>2272</ele>
        <time>2014-02-23T09:55:57Z</time>
      </trkpt>
      <trkpt lat="44.87209" lon="5.52528">
        <ele>2273</ele>
        <time>2014-02-23T09:56:02Z</time>
      </trkpt>
      <trkpt lat="44.87207" lon="5.52529">
        <ele>2274</ele>
        <time>2014-02-23T09:56:07Z</time>
      </trkpt>
      <trkpt lat="44.87206" lon="5.5253">
        <ele>2275</ele>
        <time>2014-02-23T09:56:12Z</time>
      </trkpt>
      <trkpt lat="44.87204" lon="5.52531">
        <ele>2276</ele>
        <time>2014-02-23T09:56:17Z</time>
      </trkpt>
      <trkpt lat="44.87202" lon="5.52532">
        <ele>2276</ele>
        <time>2014-02-23T09:56:22Z</time>
      </trkpt>
      <trkpt lat="44.872" lon="5.52533">
        <ele>2277</ele>
        <time>2014-02-23T09:56:27Z</time>
      </trkpt>
      <trkpt lat="44.87198" lon="5.52534">
        <ele>2278</ele>
        <time>2014-02-23T09:56:32Z</time>
      </trkpt>
      <trkpt lat="44.87196" lon="5.52535">
        <ele>2279</ele>
        <time>2014-02-23T09:56:37Z</time>
      </trkpt>
      <trkpt lat="44.87195" lon="5.52536">
        <ele>2279</ele>
        <time>2014-02-23T09:56:42Z</time>
      </trkpt>
      <trkpt lat="44.87193" lon="5.52537">
        <ele>2278</ele>
        <time>2014-02-23T09:56:47Z</time>
      </trkpt>
      <trkpt lat="44.87191" lon="5.52539">
        <ele>2278</ele>
        <time>2014-02-23T09:56:52Z</time>
      </trkpt>
      <trkpt lat="44.8719" lon="5.5254">
        <ele>2278</ele>
        <time>2014-02-23T09:56:57Z</time>
      </trkpt>
      <trkpt lat="44.87189" lon="5.52542">
        <ele>2278</ele>
        <time>2014-02-23T09:57:02Z</time>
      </trkpt>
      <trkpt lat="44.87187" lon="5.52543">
        <ele>2279</ele>
        <time>2014-02-23T09:57:07Z</time>
      </trkpt>
      <trkpt lat="44.87186" lon="5.52544">
        <ele>2279</ele>
        <time>2014-02-23T09:57:12Z</time>
      </trkpt>
      <trkpt lat="44.87184" lon="5.52546">
        <ele>2280</ele>
        <time>2014-02-23T09:57:17Z</time>
      </trkpt>
      <trkpt lat="44.87182" lon="5.52547">
        <ele>2280</ele>
        <time>2014-02-23T09:57:22Z</time>
      </trkpt>
      <trkpt lat="44.8718" lon="5.52548">
        <ele>2281</ele>
        <time>2014-02-23T09:57:27Z</time>
      </trkpt>
      <trkpt lat="44.87178" lon="5.52549">
        <ele>2281</ele>
        <time>2014-02-23T09:57:32Z</time>
      </trkpt>
      <trkpt lat="44.87176" lon="5.52549">
        <ele>2282</ele>
        <time>2014-02-23T09:57:37Z</time>
      </trkpt>
      <trkpt lat="44.87174" lon="5.5255">
        <ele>2282</ele>
        <time>2014-02-23T09:57:42Z</time>
      </trkpt>
      <trkpt lat="44.87172" lon="5.52551">
        <ele>2283</ele>
        <time>2014-02-23T09:57:47Z</time>
      </trkpt>
      <trkpt lat="44.8717" lon="5.52551">
        <ele>2283</ele>
        <time>2014-02-23T09:57:52Z</time>
      </trkpt>
      <trkpt lat="44.87168" lon="5.52552">
        <ele>2284</ele>
        <time>2014-02-23T09:57:57Z</time>
      </trkpt>
      <trkpt lat="44.87167" lon="5.52553">
        <ele>2284</ele>
        <time>2014-02-23T09:58:02Z</time>
      </trkpt>
      <trkpt lat="44.87165" lon="5.52555">
        <ele>2285</ele>
        <time>2014-02-23T09:58:07Z</time>
      </trkpt>
      <trkpt lat="44.87163" lon="5.52556">
        <ele>2285</ele>
        <time>2014-02-23T09:58:12Z</time>
      </trkpt>
      <trkpt lat="44.87162" lon="5.52557">
        <ele>2286</ele>
        <time>2014-02-23T09:58:17Z</time>
      </trkpt>
      <trkpt lat="44.8716" lon="5.52558">
        <ele>2286</ele>
        <time>2014-02-23T09:58:22Z</time>
      </trkpt>
      <trkpt lat="44.87158" lon="5.5256">
        <ele>2287</ele>
        <time>2014-02-23T09:58:27Z</time>
      </trkpt>
      <trkpt lat="44.87156" lon="5.52561">
        <ele>2287</ele>
        <time>2014-02-23T09:58:32Z</time>
      </trkpt>
      <trkpt lat="44.87154" lon="5.52562">
        <ele>2288</ele>
        <time>2014-02-23T09:58:37Z</time>
      </trkpt>
      <trkpt lat="44.87153" lon="5.52563">
        <ele>2289</ele>
        <time>2014-02-23T09:58:42Z</time>
      </trkpt>
      <trkpt lat="44.87151" lon="5.52564">
        <ele>2289</ele>
        <time>2014-02-23T09:58:47Z</time>
      </trkpt>
      <trkpt lat="44.8715" lon="5.52565">
        <ele>2290</ele>
        <time>2014-02-23T09:58:52Z</time>
      </trkpt>
      <trkpt lat="44.87148" lon="5.52566">
        <ele>2291</ele>
        <time>2014-02-23T09:58:57Z</time>
      </trkpt>
      <trkpt lat="44.87146" lon="5.52567">
        <ele>2292</ele>
        <time>2014-02-23T09:59:02Z</time>
      </trkpt>
      <trkpt lat="44.87145" lon="5.52568">
        <ele>2292</ele>
        <time>2014-02-23T09:59:07Z</time>
      </trkpt>
      <trkpt lat="44.87143" lon="5.52569">
        <ele>2293</ele>
        <time>2014-02-23T09:59:12Z</time>
      </trkpt>
      <trkpt lat="44.87141" lon="5.52571">
        <ele>2293</ele>
        <time>2014-02-23T09:59:17Z</time>
      </trkpt>
      <trkpt lat="44.87141" lon="5.52571">
        <ele>2292</ele>
        <time>2014-02-23T09:59:22Z</time>
      </trkpt>
      <trkpt lat="44.8714" lon="5.52571">
        <ele>2292</ele>
        <time>2014-02-23T09:59:27Z</time>
      </trkpt>
      <trkpt lat="44.87139" lon="5.52571">
        <ele>2292</ele>
        <time>2014-02-23T09:59:32Z</time>
      </trkpt>
      <trkpt lat="44.87136" lon="5.52573">
        <ele>2293</ele>
        <time>2014-02-23T09:59:37Z</time>
      </trkpt>
      <trkpt lat="44.87134" lon="5.52574">
        <ele>2293</ele>
        <time>2014-02-23T09:59:42Z</time>
      </trkpt>
      <trkpt lat="44.87132" lon="5.52575">
        <ele>2294</ele>
        <time>2014-02-23T09:59:47Z</time>
      </trkpt>
      <trkpt lat="44.87129" lon="5.52576">
        <ele>2295</ele>
        <time>2014-02-23T09:59:52Z</time>
      </trkpt>
      <trkpt lat="44.87127" lon="5.52577">
        <ele>2295</ele>
        <time>2014-02-23T09:59:57Z</time>
      </trkpt>
      <trkpt lat="44.87124" lon="5.52578">
        <ele>2296</ele>
        <time>2014-02-23T10:00:02Z</time>
      </trkpt>
      <trkpt lat="44.87122" lon="5.52579">
        <ele>2297</ele>
        <time>2014-02-23T10:00:07Z</time>
      </trkpt>
      <trkpt lat="44.87119" lon="5.52581">
        <ele>2298</ele>
        <time>2014-02-23T10:00:12Z</time>
      </trkpt>
      <trkpt lat="44.87117" lon="5.52582">
        <ele>2299</ele>
        <time>2014-02-23T10:00:17Z</time>
      </trkpt>
      <trkpt lat="44.87115" lon="5.52583">
        <ele>2299</ele>
        <time>2014-02-23T10:00:22Z</time>
      </trkpt>
      <trkpt lat="44.87113" lon="5.52584">
        <ele>2300</ele>
        <time>2014-02-23T10:00:27Z</time>
      </trkpt>
      <trkpt lat="44.87112" lon="5.52584">
        <ele>2301</ele>
        <time>2014-02-23T10:00:32Z</time>
      </trkpt>
      <trkpt lat="44.8711" lon="5.52586">
        <ele>2302</ele>
        <time>2014-02-23T10:00:37Z</time>
      </trkpt>
      <trkpt lat="44.87109" lon="5.52586">
        <ele>2302</ele>
        <time>2014-02-23T10:00:42Z</time>
      </trkpt>
      <trkpt lat="44.87107" lon="5.52587">
        <ele>2303</ele>
        <time>2014-02-23T10:00:47Z</time>
      </trkpt>
      <trkpt lat="44.87105" lon="5.52588">
        <ele>2304</ele>
        <time>2014-02-23T10:00:52Z</time>
      </trkpt>
      <trkpt lat="44.87103" lon="5.52589">
        <ele>2304</ele>
        <time>2014-02-23T10:00:57Z</time>
      </trkpt>
      <trkpt lat="44.87101" lon="5.52589">
        <ele>2305</ele>
        <time>2014-02-23T10:01:02Z</time>
      </trkpt>
      <trkpt lat="44.871" lon="5.5259">
        <ele>2305</ele>
        <time>2014-02-23T10:01:07Z</time>
      </trkpt>
      <trkpt lat="44.87098" lon="5.5259">
        <ele>2306</ele>
        <time>2014-02-23T10:01:12Z</time>
      </trkpt>
      <trkpt lat="44.87096" lon="5.52591">
        <ele>2306</ele>
        <time>2014-02-23T10:01:17Z</time>
      </trkpt>
      <trkpt lat="44.87094" lon="5.52592">
        <ele>2307</ele>
        <time>2014-02-23T10:01:22Z</time>
      </trkpt>
      <trkpt lat="44.87092" lon="5.52592">
        <ele>2307</ele>
        <time>2014-02-23T10:01:27Z</time>
      </trkpt>
      <trkpt lat="44.8709" lon="5.52593">
        <ele>2308</ele>
        <time>2014-02-23T10:01:32Z</time>
      </trkpt>
      <trkpt lat="44.87088" lon="5.52594">
        <ele>2309</ele>
        <time>2014-02-23T10:01:37Z</time>
      </trkpt>
      <trkpt lat="44.87087" lon="5.52595">
        <ele>2309</ele>
        <time>2014-02-23T10:01:42Z</time>
      </trkpt>
      <trkpt lat="44.87084" lon="5.52595">
        <ele>2310</ele>
        <time>2014-02-23T10:01:47Z</time>
      </trkpt>
      <trkpt lat="44.87082" lon="5.52596">
        <ele>2311</ele>
        <time>2014-02-23T10:01:52Z</time>
      </trkpt>
      <trkpt lat="44.87081" lon="5.52598">
        <ele>2311</ele>
        <time>2014-02-23T10:01:57Z</time>
      </trkpt>
      <trkpt lat="44.87082" lon="5.526">
        <ele>2312</ele>
        <time>2014-02-23T10:02:02Z</time>
      </trkpt>
      <trkpt lat="44.87084" lon="5.52603">
        <ele>2312</ele>
        <time>2014-02-23T10:02:07Z</time>
      </trkpt>
      <trkpt lat="44.87085" lon="5.52606">
        <ele>2312</ele>
        <time>2014-02-23T10:02:12Z</time>
      </trkpt>
      <trkpt lat="44.87087" lon="5.52609">
        <ele>2312</ele>
        <time>2014-02-23T10:02:17Z</time>
      </trkpt>
      <trkpt lat="44.87088" lon="5.52613">
        <ele>2312</ele>
        <time>2014-02-23T10:02:22Z</time>
      </trkpt>
      <trkpt lat="44.87088" lon="5.52615">
        <ele>2312</ele>
        <time>2014-02-23T10:02:27Z</time>
      </trkpt>
      <trkpt lat="44.87087" lon="5.52616">
        <ele>2313</ele>
        <time>2014-02-23T10:02:32Z</time>
      </trkpt>
      <trkpt lat="44.87085" lon="5.52617">
        <ele>2314</ele>
        <time>2014-02-23T10:02:37Z</time>
      </trkpt>
      <trkpt lat="44.87083" lon="5.52618">
        <ele>2314</ele>
        <time>2014-02-23T10:02:42Z</time>
      </trkpt>
      <trkpt lat="44.87081" lon="5.52618">
        <ele>2315</ele>
        <time>2014-02-23T10:02:47Z</time>
      </trkpt>
      <trkpt lat="44.87079" lon="5.52619">
        <ele>2316</ele>
        <time>2014-02-23T10:02:52Z</time>
      </trkpt>
      <trkpt lat="44.87076" lon="5.5262">
        <ele>2317</ele>
        <time>2014-02-23T10:02:57Z</time>
      </trkpt>
      <trkpt lat="44.87074" lon="5.52621">
        <ele>2318</ele>
        <time>2014-02-23T10:03:02Z</time>
      </trkpt>
      <trkpt lat="44.87072" lon="5.52622">
        <ele>2319</ele>
        <time>2014-02-23T10:03:07Z</time>
      </trkpt>
      <trkpt lat="44.87071" lon="5.52623">
        <ele>2320</ele>
        <time>2014-02-23T10:03:12Z</time>
      </trkpt>
      <trkpt lat="44.87072" lon="5.52626">
        <ele>2320</ele>
        <time>2014-02-23T10:03:17Z</time>
      </trkpt>
      <trkpt lat="44.87073" lon="5.52629">
        <ele>2320</ele>
        <time>2014-02-23T10:03:22Z</time>
      </trkpt>
      <trkpt lat="44.87074" lon="5.52632">
        <ele>2321</ele>
        <time>2014-02-23T10:03:27Z</time>
      </trkpt>
      <trkpt lat="44.87076" lon="5.52635">
        <ele>2321</ele>
        <time>2014-02-23T10:03:32Z</time>
      </trkpt>
      <trkpt lat="44.87076" lon="5.52637">
        <ele>2322</ele>
        <time>2014-02-23T10:03:37Z</time>
      </trkpt>
      <trkpt lat="44.87074" lon="5.52638">
        <ele>2322</ele>
        <time>2014-02-23T10:03:42Z</time>
      </trkpt>
      <trkpt lat="44.87072" lon="5.52639">
        <ele>2323</ele>
        <time>2014-02-23T10:03:47Z</time>
      </trkpt>
      <trkpt lat="44.87069" lon="5.52639">
        <ele>2324</ele>
        <time>2014-02-23T10:03:52Z</time>
      </trkpt>
      <trkpt lat="44.87067" lon="5.5264">
        <ele>2324</ele>
        <time>2014-02-23T10:03:57Z</time>
      </trkpt>
      <trkpt lat="44.87064" lon="5.5264">
        <ele>2325</ele>
        <time>2014-02-23T10:04:02Z</time>
      </trkpt>
      <trkpt lat="44.87061" lon="5.52641">
        <ele>2326</ele>
        <time>2014-02-23T10:04:07Z</time>
      </trkpt>
      <trkpt lat="44.87059" lon="5.52641">
        <ele>2326</ele>
        <time>2014-02-23T10:04:12Z</time>
      </trkpt>
      <trkpt lat="44.87056" lon="5.52642">
        <ele>2327</ele>
        <time>2014-02-23T10:04:17Z</time>
      </trkpt>
      <trkpt lat="44.87053" lon="5.52643">
        <ele>2328</ele>
        <time>2014-02-23T10:04:22Z</time>
      </trkpt>
      <trkpt lat="44.87051" lon="5.52644">
        <ele>2328</ele>
        <time>2014-02-23T10:04:27Z</time>
      </trkpt>
      <trkpt lat="44.87051" lon="5.52646">
        <ele>2330</ele>
        <time>2014-02-23T10:04:32Z</time>
      </trkpt>
      <trkpt lat="44.87053" lon="5.52648">
        <ele>2331</ele>
        <time>2014-02-23T10:04:37Z</time>
      </trkpt>
      <trkpt lat="44.87054" lon="5.52651">
        <ele>2332</ele>
        <time>2014-02-23T10:04:42Z</time>
      </trkpt>
      <trkpt lat="44.87055" lon="5.52651">
        <ele>2332</ele>
        <time>2014-02-23T10:04:47Z</time>
      </trkpt>
      <trkpt lat="44.87055" lon="5.52651">
        <ele>2332</ele>
        <time>2014-02-23T10:04:52Z</time>
      </trkpt>
      <trkpt lat="44.87055" lon="5.52651">
        <ele>2332</ele>
        <time>2014-02-23T10:04:57Z</time>
      </trkpt>
      <trkpt lat="44.87055" lon="5.52651">
        <ele>2332</ele>
        <time>2014-02-23T10:05:02Z</time>
      </trkpt>
      <trkpt lat="44.87055" lon="5.52652">
        <ele>2333</ele>
        <time>2014-02-23T10:05:07Z</time>
      </trkpt>
      <trkpt lat="44.87055" lon="5.52651">
        <ele>2333</ele>
        <time>2014-02-23T10:05:12Z</time>
      </trkpt>
      <trkpt lat="44.87055" lon="5.52652">
        <ele>2333</ele>
        <time>2014-02-23T10:05:17Z</time>
      </trkpt>
      <trkpt lat="44.87055" lon="5.52651">
        <ele>2333</ele>
        <time>2014-02-23T10:05:22Z</time>
      </trkpt>
      <trkpt lat="44.87055" lon="5.52652">
        <ele>2334</ele>
        <time>2014-02-23T10:05:27Z</time>
      </trkpt>
      <trkpt lat="44.87056" lon="5.52655">
        <ele>2335</ele>
        <time>2014-02-23T10:05:32Z</time>
      </trkpt>
      <trkpt lat="44.87056" lon="5.52656">
        <ele>2335</ele>
        <time>2014-02-23T10:05:37Z</time>
      </trkpt>
      <trkpt lat="44.87054" lon="5.52657">
        <ele>2336</ele>
        <time>2014-02-23T10:05:42Z</time>
      </trkpt>
      <trkpt lat="44.87052" lon="5.52659">
        <ele>2337</ele>
        <time>2014-02-23T10:05:47Z</time>
      </trkpt>
      <trkpt lat="44.8705" lon="5.5266">
        <ele>2338</ele>
        <time>2014-02-23T10:05:52Z</time>
      </trkpt>
      <trkpt lat="44.87048" lon="5.52661">
        <ele>2339</ele>
        <time>2014-02-23T10:05:57Z</time>
      </trkpt>
      <trkpt lat="44.87045" lon="5.52663">
        <ele>2340</ele>
        <time>2014-02-23T10:06:02Z</time>
      </trkpt>
      <trkpt lat="44.87045" lon="5.52666">
        <ele>2341</ele>
        <time>2014-02-23T10:06:07Z</time>
      </trkpt>
      <trkpt lat="44.87046" lon="5.5267">
        <ele>2342</ele>
        <time>2014-02-23T10:06:12Z</time>
      </trkpt>
      <trkpt lat="44.87047" lon="5.52674">
        <ele>2342</ele>
        <time>2014-02-23T10:06:17Z</time>
      </trkpt>
      <trkpt lat="44.87048" lon="5.52677">
        <ele>2343</ele>
        <time>2014-02-23T10:06:22Z</time>
      </trkpt>
      <trkpt lat="44.87048" lon="5.52681">
        <ele>2344</ele>
        <time>2014-02-23T10:06:27Z</time>
      </trkpt>
      <trkpt lat="44.87047" lon="5.52683">
        <ele>2344</ele>
        <time>2014-02-23T10:06:32Z</time>
      </trkpt>
      <trkpt lat="44.87044" lon="5.52683">
        <ele>2345</ele>
        <time>2014-02-23T10:06:37Z</time>
      </trkpt>
      <trkpt lat="44.87041" lon="5.52682">
        <ele>2345</ele>
        <time>2014-02-23T10:06:42Z</time>
      </trkpt>
      <trkpt lat="44.87041" lon="5.52682">
        <ele>2345</ele>
        <time>2014-02-23T10:06:47Z</time>
      </trkpt>
      <trkpt lat="44.8704" lon="5.52681">
        <ele>2345</ele>
        <time>2014-02-23T10:06:52Z</time>
      </trkpt>
      <trkpt lat="44.8704" lon="5.52681">
        <ele>2345</ele>
        <time>2014-02-23T10:06:57Z</time>
      </trkpt>
      <trkpt lat="44.87038" lon="5.52681">
        <ele>2345</ele>
        <time>2014-02-23T10:07:02Z</time>
      </trkpt>
      <trkpt lat="44.87038" lon="5.5268">
        <ele>2345</ele>
        <time>2014-02-23T10:07:07Z</time>
      </trkpt>
      <trkpt lat="44.87036" lon="5.52678">
        <ele>2345</ele>
        <time>2014-02-23T10:07:12Z</time>
      </trkpt>
      <trkpt lat="44.87032" lon="5.52673">
        <ele>2344</ele>
        <time>2014-02-23T10:07:17Z</time>
      </trkpt>
      <trkpt lat="44.87032" lon="5.52672">
        <ele>2344</ele>
        <time>2014-02-23T10:07:22Z</time>
      </trkpt>
      <trkpt lat="44.87032" lon="5.52672">
        <ele>2343</ele>
        <time>2014-02-23T10:07:27Z</time>
      </trkpt>
      <trkpt lat="44.8703" lon="5.5267">
        <ele>2343</ele>
        <time>2014-02-23T10:07:32Z</time>
      </trkpt>
      <trkpt lat="44.87026" lon="5.52665">
        <ele>2343</ele>
        <time>2014-02-23T10:07:37Z</time>
      </trkpt>
      <trkpt lat="44.87021" lon="5.52662">
        <ele>2342</ele>
        <time>2014-02-23T10:07:42Z</time>
      </trkpt>
      <trkpt lat="44.87016" lon="5.5266">
        <ele>2342</ele>
        <time>2014-02-23T10:07:47Z</time>
      </trkpt>
      <trkpt lat="44.87011" lon="5.52659">
        <ele>2342</ele>
        <time>2014-02-23T10:07:52Z</time>
      </trkpt>
      <trkpt lat="44.87005" lon="5.52658">
        <ele>2342</ele>
        <time>2014-02-23T10:07:57Z</time>
      </trkpt>
      <trkpt lat="44.87" lon="5.52656">
        <ele>2343</ele>
        <time>2014-02-23T10:08:02Z</time>
      </trkpt>
      <trkpt lat="44.86997" lon="5.52658">
        <ele>2343</ele>
        <time>2014-02-23T10:08:07Z</time>
      </trkpt>
      <trkpt lat="44.86993" lon="5.52659">
        <ele>2344</ele>
        <time>2014-02-23T10:08:12Z</time>
      </trkpt>
      <trkpt lat="44.8699" lon="5.5266">
        <ele>2345</ele>
        <time>2014-02-23T10:08:17Z</time>
      </trkpt>
      <trkpt lat="44.86986" lon="5.52661">
        <ele>2346</ele>
        <time>2014-02-23T10:08:22Z</time>
      </trkpt>
      <trkpt lat="44.86982" lon="5.52662">
        <ele>2346</ele>
        <time>2014-02-23T10:08:27Z</time>
      </trkpt>
      <trkpt lat="44.86979" lon="5.52662">
        <ele>2347</ele>
        <time>2014-02-23T10:08:32Z</time>
      </trkpt>
      <trkpt lat="44.86974" lon="5.52663">
        <ele>2347</ele>
        <time>2014-02-23T10:08:37Z</time>
      </trkpt>
      <trkpt lat="44.86969" lon="5.52662">
        <ele>2347</ele>
        <time>2014-02-23T10:08:42Z</time>
      </trkpt>
      <trkpt lat="44.86964" lon="5.52662">
        <ele>2346</ele>
        <time>2014-02-23T10:08:47Z</time>
      </trkpt>
      <trkpt lat="44.86964" lon="5.52662">
        <ele>2347</ele>
        <time>2014-02-23T10:08:52Z</time>
      </trkpt>
      <trkpt lat="44.86964" lon="5.52661">
        <ele>2347</ele>
        <time>2014-02-23T10:08:57Z</time>
      </trkpt>
      <trkpt lat="44.86965" lon="5.52661">
        <ele>2347</ele>
        <time>2014-02-23T10:09:02Z</time>
      </trkpt>
      <trkpt lat="44.86964" lon="5.52662">
        <ele>2346</ele>
        <time>2014-02-23T10:09:07Z</time>
      </trkpt>
      <trkpt lat="44.86964" lon="5.52662">
        <ele>2346</ele>
        <time>2014-02-23T10:09:12Z</time>
      </trkpt>
      <trkpt lat="44.86964" lon="5.52661">
        <ele>2345</ele>
        <time>2014-02-23T10:23:17Z</time>
      </trkpt>
      <trkpt lat="44.86964" lon="5.52661">
        <ele>2345</ele>
        <time>2014-02-23T10:23:22Z</time>
      </trkpt>
      <trkpt lat="44.86966" lon="5.5266">
        <ele>2346</ele>
        <time>2014-02-23T10:23:27Z</time>
      </trkpt>
      <trkpt lat="44.86966" lon="5.52661">
        <ele>2345</ele>
        <time>2014-02-23T10:23:32Z</time>
      </trkpt>
      <trkpt lat="44.86966" lon="5.52661">
        <ele>2344</ele>
        <time>2014-02-23T10:23:37Z</time>
      </trkpt>
      <trkpt lat="44.86966" lon="5.52661">
        <ele>2344</ele>
        <time>2014-02-23T10:23:42Z</time>
      </trkpt>
      <trkpt lat="44.86966" lon="5.52661">
        <ele>2343</ele>
        <time>2014-02-23T10:23:47Z</time>
      </trkpt>
      <trkpt lat="44.86966" lon="5.52661">
        <ele>2343</ele>
        <time>2014-02-23T10:23:52Z</time>
      </trkpt>
      <trkpt lat="44.86966" lon="5.52661">
        <ele>2343</ele>
        <time>2014-02-23T10:23:57Z</time>
      </trkpt>
      <trkpt lat="44.86964" lon="5.52661">
        <ele>2342</ele>
        <time>2014-02-23T10:24:02Z</time>
      </trkpt>
      <trkpt lat="44.86963" lon="5.5266">
        <ele>2342</ele>
        <time>2014-02-23T10:24:07Z</time>
      </trkpt>
      <trkpt lat="44.86962" lon="5.52658">
        <ele>2342</ele>
        <time>2014-02-23T10:24:12Z</time>
      </trkpt>
      <trkpt lat="44.86962" lon="5.52658">
        <ele>2342</ele>
        <time>2014-02-23T10:24:17Z</time>
      </trkpt>
      <trkpt lat="44.86962" lon="5.52658">
        <ele>2342</ele>
        <time>2014-02-23T10:24:22Z</time>
      </trkpt>
      <trkpt lat="44.86962" lon="5.52658">
        <ele>2343</ele>
        <time>2014-02-23T10:24:27Z</time>
      </trkpt>
      <trkpt lat="44.86962" lon="5.52658">
        <ele>2343</ele>
        <time>2014-02-23T10:24:32Z</time>
      </trkpt>
      <trkpt lat="44.86962" lon="5.52659">
        <ele>2343</ele>
        <time>2014-02-23T10:24:37Z</time>
      </trkpt>
      <trkpt lat="44.86962" lon="5.52659">
        <ele>2343</ele>
        <time>2014-02-23T10:24:42Z</time>
      </trkpt>
      <trkpt lat="44.86961" lon="5.52658">
        <ele>2343</ele>
        <time>2014-02-23T10:24:47Z</time>
      </trkpt>
      <trkpt lat="44.86961" lon="5.52658">
        <ele>2343</ele>
        <time>2014-02-23T10:24:52Z</time>
      </trkpt>
      <trkpt lat="44.86961" lon="5.52653">
        <ele>2342</ele>
        <time>2014-02-23T10:24:57Z</time>
      </trkpt>
      <trkpt lat="44.86964" lon="5.52652">
        <ele>2342</ele>
        <time>2014-02-23T10:25:02Z</time>
      </trkpt>
      <trkpt lat="44.86965" lon="5.52651">
        <ele>2341</ele>
        <time>2014-02-23T10:25:07Z</time>
      </trkpt>
      <trkpt lat="44.86967" lon="5.52651">
        <ele>2341</ele>
        <time>2014-02-23T10:25:12Z</time>
      </trkpt>
      <trkpt lat="44.86976" lon="5.52639">
        <ele>2339</ele>
        <time>2014-02-23T10:25:17Z</time>
      </trkpt>
      <trkpt lat="44.86979" lon="5.52617">
        <ele>2334</ele>
        <time>2014-02-23T10:25:22Z</time>
      </trkpt>
      <trkpt lat="44.86972" lon="5.52588">
        <ele>2325</ele>
        <time>2014-02-23T10:25:27Z</time>
      </trkpt>
      <trkpt lat="44.86971" lon="5.52554">
        <ele>2316</ele>
        <time>2014-02-23T10:25:32Z</time>
      </trkpt>
      <trkpt lat="44.8696" lon="5.52535">
        <ele>2304</ele>
        <time>2014-02-23T10:25:37Z</time>
      </trkpt>
      <trkpt lat="44.86953" lon="5.52505">
        <ele>2292</ele>
        <time>2014-02-23T10:25:42Z</time>
      </trkpt>
      <trkpt lat="44.8695" lon="5.52479">
        <ele>2279</ele>
        <time>2014-02-23T10:25:47Z</time>
      </trkpt>
      <trkpt lat="44.86943" lon="5.52467">
        <ele>2271</ele>
        <time>2014-02-23T10:25:52Z</time>
      </trkpt>
      <trkpt lat="44.86945" lon="5.5247">
        <ele>2278</ele>
        <time>2014-02-23T10:28:17Z</time>
      </trkpt>
      <trkpt lat="44.86941" lon="5.52463">
        <ele>2276</ele>
        <time>2014-02-23T10:28:22Z</time>
      </trkpt>
      <trkpt lat="44.86932" lon="5.52439">
        <ele>2272</ele>
        <time>2014-02-23T10:28:27Z</time>
      </trkpt>
      <trkpt lat="44.86932" lon="5.52411">
        <ele>2265</ele>
        <time>2014-02-23T10:28:32Z</time>
      </trkpt>
      <trkpt lat="44.86934" lon="5.52388">
        <ele>2254</ele>
        <time>2014-02-23T10:28:37Z</time>
      </trkpt>
      <trkpt lat="44.86941" lon="5.52362">
        <ele>2242</ele>
        <time>2014-02-23T10:28:42Z</time>
      </trkpt>
      <trkpt lat="44.86931" lon="5.52339">
        <ele>2232</ele>
        <time>2014-02-23T10:28:47Z</time>
      </trkpt>
      <trkpt lat="44.86932" lon="5.52313">
        <ele>2220</ele>
        <time>2014-02-23T10:28:52Z</time>
      </trkpt>
      <trkpt lat="44.86925" lon="5.52293">
        <ele>2210</ele>
        <time>2014-02-23T10:28:57Z</time>
      </trkpt>
      <trkpt lat="44.86918" lon="5.52274">
        <ele>2199</ele>
        <time>2014-02-23T10:29:02Z</time>
      </trkpt>
      <trkpt lat="44.86921" lon="5.52271">
        <ele>2199</ele>
        <time>2014-02-23T10:29:07Z</time>
      </trkpt>
      <trkpt lat="44.86923" lon="5.52271">
        <ele>2199</ele>
        <time>2014-02-23T10:29:12Z</time>
      </trkpt>
      <trkpt lat="44.86923" lon="5.52271">
        <ele>2199</ele>
        <time>2014-02-23T10:29:17Z</time>
      </trkpt>
      <trkpt lat="44.86924" lon="5.52271">
        <ele>2199</ele>
        <time>2014-02-23T10:29:22Z</time>
      </trkpt>
      <trkpt lat="44.86924" lon="5.52271">
        <ele>2199</ele>
        <time>2014-02-23T10:29:27Z</time>
      </trkpt>
      <trkpt lat="44.86924" lon="5.52271">
        <ele>2200</ele>
        <time>2014-02-23T10:29:32Z</time>
      </trkpt>
      <trkpt lat="44.86924" lon="5.52271">
        <ele>2200</ele>
        <time>2014-02-23T10:29:37Z</time>
      </trkpt>
      <trkpt lat="44.86924" lon="5.52271">
        <ele>2200</ele>
        <time>2014-02-23T10:29:42Z</time>
      </trkpt>
      <trkpt lat="44.86924" lon="5.52271">
        <ele>2200</ele>
        <time>2014-02-23T10:29:47Z</time>
      </trkpt>
      <trkpt lat="44.86924" lon="5.52271">
        <ele>2200</ele>
        <time>2014-02-23T10:29:52Z</time>
      </trkpt>
      <trkpt lat="44.86924" lon="5.52271">
        <ele>2200</ele>
        <time>2014-02-23T10:29:57Z</time>
      </trkpt>
      <trkpt lat="44.86924" lon="5.52271">
        <ele>2200</ele>
        <time>2014-02-23T10:30:02Z</time>
      </trkpt>
      <trkpt lat="44.86924" lon="5.5227">
        <ele>2200</ele>
        <time>2014-02-23T10:30:07Z</time>
      </trkpt>
      <trkpt lat="44.86924" lon="5.52271">
        <ele>2200</ele>
        <time>2014-02-23T10:30:12Z</time>
      </trkpt>
      <trkpt lat="44.86924" lon="5.5227">
        <ele>2201</ele>
        <time>2014-02-23T10:30:17Z</time>
      </trkpt>
      <trkpt lat="44.86925" lon="5.5227">
        <ele>2201</ele>
        <time>2014-02-23T10:30:22Z</time>
      </trkpt>
      <trkpt lat="44.86926" lon="5.5227">
        <ele>2201</ele>
        <time>2014-02-23T10:30:27Z</time>
      </trkpt>
      <trkpt lat="44.86927" lon="5.5227">
        <ele>2200</ele>
        <time>2014-02-23T10:30:32Z</time>
      </trkpt>
      <trkpt lat="44.86936" lon="5.52268">
        <ele>2199</ele>
        <time>2014-02-23T10:30:37Z</time>
      </trkpt>
      <trkpt lat="44.86951" lon="5.52266">
        <ele>2197</ele>
        <time>2014-02-23T10:30:42Z</time>
      </trkpt>
      <trkpt lat="44.86968" lon="5.52265">
        <ele>2195</ele>
        <time>2014-02-23T10:30:47Z</time>
      </trkpt>
      <trkpt lat="44.86985" lon="5.52266">
        <ele>2194</ele>
        <time>2014-02-23T10:30:52Z</time>
      </trkpt>
      <trkpt lat="44.86998" lon="5.52259">
        <ele>2190</ele>
        <time>2014-02-23T10:30:57Z</time>
      </trkpt>
      <trkpt lat="44.86995" lon="5.52229">
        <ele>2181</ele>
        <time>2014-02-23T10:31:02Z</time>
      </trkpt>
      <trkpt lat="44.87013" lon="5.52215">
        <ele>2172</ele>
        <time>2014-02-23T10:31:07Z</time>
      </trkpt>
      <trkpt lat="44.8703" lon="5.52196">
        <ele>2163</ele>
        <time>2014-02-23T10:31:12Z</time>
      </trkpt>
      <trkpt lat="44.8704" lon="5.52172">
        <ele>2152</ele>
        <time>2014-02-23T10:31:17Z</time>
      </trkpt>
      <trkpt lat="44.87042" lon="5.52151">
        <ele>2141</ele>
        <time>2014-02-23T10:31:22Z</time>
      </trkpt>
      <trkpt lat="44.87043" lon="5.52128">
        <ele>2130</ele>
        <time>2014-02-23T10:31:27Z</time>
      </trkpt>
      <trkpt lat="44.87045" lon="5.5213">
        <ele>2130</ele>
        <time>2014-02-23T10:31:32Z</time>
      </trkpt>
      <trkpt lat="44.87047" lon="5.52131">
        <ele>2130</ele>
        <time>2014-02-23T10:31:37Z</time>
      </trkpt>
      <trkpt lat="44.87047" lon="5.5213">
        <ele>2131</ele>
        <time>2014-02-23T10:31:42Z</time>
      </trkpt>
      <trkpt lat="44.8705" lon="5.52136">
        <ele>2128</ele>
        <time>2014-02-23T10:33:27Z</time>
      </trkpt>
      <trkpt lat="44.8705" lon="5.52136">
        <ele>2128</ele>
        <time>2014-02-23T10:33:32Z</time>
      </trkpt>
      <trkpt lat="44.8705" lon="5.52137">
        <ele>2127</ele>
        <time>2014-02-23T10:33:37Z</time>
      </trkpt>
      <trkpt lat="44.8705" lon="5.52137">
        <ele>2127</ele>
        <time>2014-02-23T10:33:42Z</time>
      </trkpt>
      <trkpt lat="44.8705" lon="5.52137">
        <ele>2127</ele>
        <time>2014-02-23T10:33:47Z</time>
      </trkpt>
      <trkpt lat="44.8705" lon="5.52137">
        <ele>2127</ele>
        <time>2014-02-23T10:33:52Z</time>
      </trkpt>
      <trkpt lat="44.87051" lon="5.52138">
        <ele>2126</ele>
        <time>2014-02-23T10:33:57Z</time>
      </trkpt>
      <trkpt lat="44.87051" lon="5.52137">
        <ele>2126</ele>
        <time>2014-02-23T10:34:02Z</time>
      </trkpt>
      <trkpt lat="44.87057" lon="5.52137">
        <ele>2125</ele>
        <time>2014-02-23T10:34:07Z</time>
      </trkpt>
      <trkpt lat="44.87065" lon="5.52135">
        <ele>2124</ele>
        <time>2014-02-23T10:34:12Z</time>
      </trkpt>
      <trkpt lat="44.8708" lon="5.52124">
        <ele>2122</ele>
        <time>2014-02-23T10:34:17Z</time>
      </trkpt>
      <trkpt lat="44.87082" lon="5.52095">
        <ele>2116</ele>
        <time>2014-02-23T10:34:22Z</time>
      </trkpt>
      <trkpt lat="44.87059" lon="5.52081">
        <ele>2109</ele>
        <time>2014-02-23T10:34:27Z</time>
      </trkpt>
      <trkpt lat="44.8706" lon="5.52056">
        <ele>2099</ele>
        <time>2014-02-23T10:34:32Z</time>
      </trkpt>
      <trkpt lat="44.87053" lon="5.52038">
        <ele>2088</ele>
        <time>2014-02-23T10:34:37Z</time>
      </trkpt>
      <trkpt lat="44.87059" lon="5.5202">
        <ele>2076</ele>
        <time>2014-02-23T10:34:42Z</time>
      </trkpt>
      <trkpt lat="44.87075" lon="5.52009">
        <ele>2066</ele>
        <time>2014-02-23T10:34:47Z</time>
      </trkpt>
      <trkpt lat="44.87073" lon="5.51989">
        <ele>2057</ele>
        <time>2014-02-23T10:34:52Z</time>
      </trkpt>
      <trkpt lat="44.87076" lon="5.51969">
        <ele>2046</ele>
        <time>2014-02-23T10:34:57Z</time>
      </trkpt>
      <trkpt lat="44.87081" lon="5.51953">
        <ele>2038</ele>
        <time>2014-02-23T10:35:02Z</time>
      </trkpt>
      <trkpt lat="44.87095" lon="5.51929">
        <ele>2029</ele>
        <time>2014-02-23T10:35:07Z</time>
      </trkpt>
      <trkpt lat="44.87101" lon="5.51927">
        <ele>2026</ele>
        <time>2014-02-23T10:35:12Z</time>
      </trkpt>
      <trkpt lat="44.87103" lon="5.51928">
        <ele>2027</ele>
        <time>2014-02-23T10:35:17Z</time>
      </trkpt>
      <trkpt lat="44.87103" lon="5.51929">
        <ele>2027</ele>
        <time>2014-02-23T10:35:22Z</time>
      </trkpt>
      <trkpt lat="44.87103" lon="5.51929">
        <ele>2027</ele>
        <time>2014-02-23T10:35:27Z</time>
      </trkpt>
      <trkpt lat="44.87103" lon="5.5193">
        <ele>2028</ele>
        <time>2014-02-23T10:35:32Z</time>
      </trkpt>
      <trkpt lat="44.87103" lon="5.5193">
        <ele>2029</ele>
        <time>2014-02-23T10:35:37Z</time>
      </trkpt>
      <trkpt lat="44.87103" lon="5.5193">
        <ele>2029</ele>
        <time>2014-02-23T10:35:42Z</time>
      </trkpt>
      <trkpt lat="44.87103" lon="5.5193">
        <ele>2029</ele>
        <time>2014-02-23T10:35:47Z</time>
      </trkpt>
      <trkpt lat="44.87103" lon="5.5193">
        <ele>2030</ele>
        <time>2014-02-23T10:35:52Z</time>
      </trkpt>
      <trkpt lat="44.87103" lon="5.5193">
        <ele>2030</ele>
        <time>2014-02-23T10:35:57Z</time>
      </trkpt>
      <trkpt lat="44.87104" lon="5.51928">
        <ele>2029</ele>
        <time>2014-02-23T10:36:02Z</time>
      </trkpt>
      <trkpt lat="44.87107" lon="5.51924">
        <ele>2028</ele>
        <time>2014-02-23T10:36:07Z</time>
      </trkpt>
      <trkpt lat="44.87108" lon="5.51921">
        <ele>2027</ele>
        <time>2014-02-23T10:36:12Z</time>
      </trkpt>
      <trkpt lat="44.8711" lon="5.51915">
        <ele>2024</ele>
        <time>2014-02-23T10:36:17Z</time>
      </trkpt>
      <trkpt lat="44.87126" lon="5.51903">
        <ele>2020</ele>
        <time>2014-02-23T10:36:22Z</time>
      </trkpt>
      <trkpt lat="44.8713" lon="5.51895">
        <ele>2017</ele>
        <time>2014-02-23T10:36:27Z</time>
      </trkpt>
      <trkpt lat="44.87118" lon="5.51887">
        <ele>2014</ele>
        <time>2014-02-23T10:36:32Z</time>
      </trkpt>
      <trkpt lat="44.87109" lon="5.5188">
        <ele>2011</ele>
        <time>2014-02-23T10:36:37Z</time>
      </trkpt>
      <trkpt lat="44.87104" lon="5.51877">
        <ele>2010</ele>
        <time>2014-02-23T10:36:42Z</time>
      </trkpt>
      <trkpt lat="44.87094" lon="5.51874">
        <ele>2008</ele>
        <time>2014-02-23T10:36:47Z</time>
      </trkpt>
      <trkpt lat="44.87103" lon="5.51866">
        <ele>2004</ele>
        <time>2014-02-23T10:36:52Z</time>
      </trkpt>
      <trkpt lat="44.87116" lon="5.5186">
        <ele>2001</ele>
        <time>2014-02-23T10:36:57Z</time>
      </trkpt>
      <trkpt lat="44.87124" lon="5.51856">
        <ele>1998</ele>
        <time>2014-02-23T10:37:02Z</time>
      </trkpt>
      <trkpt lat="44.87122" lon="5.51852">
        <ele>1996</ele>
        <time>2014-02-23T10:37:07Z</time>
      </trkpt>
      <trkpt lat="44.87119" lon="5.5185">
        <ele>1996</ele>
        <time>2014-02-23T10:37:12Z</time>
      </trkpt>
      <trkpt lat="44.87124" lon="5.51838">
        <ele>1992</ele>
        <time>2014-02-23T10:37:17Z</time>
      </trkpt>
      <trkpt lat="44.87115" lon="5.51827">
        <ele>1986</ele>
        <time>2014-02-23T10:37:22Z</time>
      </trkpt>
      <trkpt lat="44.87106" lon="5.51827">
        <ele>1984</ele>
        <time>2014-02-23T10:37:27Z</time>
      </trkpt>
      <trkpt lat="44.87104" lon="5.51826">
        <ele>1983</ele>
        <time>2014-02-23T10:37:32Z</time>
      </trkpt>
      <trkpt lat="44.87104" lon="5.51826">
        <ele>1983</ele>
        <time>2014-02-23T10:37:37Z</time>
      </trkpt>
      <trkpt lat="44.87104" lon="5.51825">
        <ele>1983</ele>
        <time>2014-02-23T10:37:42Z</time>
      </trkpt>
      <trkpt lat="44.87104" lon="5.51824">
        <ele>1983</ele>
        <time>2014-02-23T10:37:47Z</time>
      </trkpt>
      <trkpt lat="44.87104" lon="5.51824">
        <ele>1983</ele>
        <time>2014-02-23T10:37:52Z</time>
      </trkpt>
      <trkpt lat="44.87103" lon="5.51824">
        <ele>1983</ele>
        <time>2014-02-23T10:37:57Z</time>
      </trkpt>
      <trkpt lat="44.87101" lon="5.51823">
        <ele>1982</ele>
        <time>2014-02-23T10:38:02Z</time>
      </trkpt>
      <trkpt lat="44.871" lon="5.51821">
        <ele>1980</ele>
        <time>2014-02-23T10:38:07Z</time>
      </trkpt>
      <trkpt lat="44.871" lon="5.51821">
        <ele>1980</ele>
        <time>2014-02-23T10:38:12Z</time>
      </trkpt>
      <trkpt lat="44.871" lon="5.51821">
        <ele>1981</ele>
        <time>2014-02-23T10:38:17Z</time>
      </trkpt>
      <trkpt lat="44.871" lon="5.51817">
        <ele>1982</ele>
        <time>2014-02-23T10:47:27Z</time>
      </trkpt>
      <trkpt lat="44.871" lon="5.51817">
        <ele>1982</ele>
        <time>2014-02-23T10:47:32Z</time>
      </trkpt>
      <trkpt lat="44.87094" lon="5.51819">
        <ele>1979</ele>
        <time>2014-02-23T10:47:37Z</time>
      </trkpt>
      <trkpt lat="44.87088" lon="5.51819">
        <ele>1976</ele>
        <time>2014-02-23T10:47:42Z</time>
      </trkpt>
      <trkpt lat="44.87082" lon="5.51819">
        <ele>1974</ele>
        <time>2014-02-23T10:47:47Z</time>
      </trkpt>
      <trkpt lat="44.87076" lon="5.51809">
        <ele>1969</ele>
        <time>2014-02-23T10:47:52Z</time>
      </trkpt>
      <trkpt lat="44.87066" lon="5.51807">
        <ele>1967</ele>
        <time>2014-02-23T10:47:57Z</time>
      </trkpt>
      <trkpt lat="44.8706" lon="5.51803">
        <ele>1967</ele>
        <time>2014-02-23T10:48:02Z</time>
      </trkpt>
      <trkpt lat="44.87055" lon="5.51784">
        <ele>1941</ele>
        <time>2014-02-23T10:49:17Z</time>
      </trkpt>
      <trkpt lat="44.87046" lon="5.51774">
        <ele>1939</ele>
        <time>2014-02-23T10:49:22Z</time>
      </trkpt>
      <trkpt lat="44.87028" lon="5.51772">
        <ele>1932</ele>
        <time>2014-02-23T10:49:27Z</time>
      </trkpt>
      <trkpt lat="44.8703" lon="5.51763">
        <ele>1926</ele>
        <time>2014-02-23T10:49:32Z</time>
      </trkpt>
      <trkpt lat="44.87011" lon="5.51764">
        <ele>1921</ele>
        <time>2014-02-23T10:49:37Z</time>
      </trkpt>
      <trkpt lat="44.87002" lon="5.51758">
        <ele>1911</ele>
        <time>2014-02-23T10:49:42Z</time>
      </trkpt>
      <trkpt lat="44.86996" lon="5.51747">
        <ele>1902</ele>
        <time>2014-02-23T10:49:47Z</time>
      </trkpt>
      <trkpt lat="44.86995" lon="5.5174">
        <ele>1899</ele>
        <time>2014-02-23T10:49:52Z</time>
      </trkpt>
      <trkpt lat="44.86991" lon="5.51747">
        <ele>1895</ele>
        <time>2014-02-23T10:49:57Z</time>
      </trkpt>
      <trkpt lat="44.86979" lon="5.51771">
        <ele>1891</ele>
        <time>2014-02-23T10:50:02Z</time>
      </trkpt>
      <trkpt lat="44.86969" lon="5.51786">
        <ele>1888</ele>
        <time>2014-02-23T10:50:07Z</time>
      </trkpt>
      <trkpt lat="44.86969" lon="5.51787">
        <ele>1888</ele>
        <time>2014-02-23T10:50:12Z</time>
      </trkpt>
      <trkpt lat="44.86966" lon="5.51771">
        <ele>1885</ele>
        <time>2014-02-23T10:50:17Z</time>
      </trkpt>
      <trkpt lat="44.86958" lon="5.51762">
        <ele>1879</ele>
        <time>2014-02-23T10:50:22Z</time>
      </trkpt>
      <trkpt lat="44.86956" lon="5.51745">
        <ele>1869</ele>
        <time>2014-02-23T10:50:27Z</time>
      </trkpt>
      <trkpt lat="44.86942" lon="5.51749">
        <ele>1861</ele>
        <time>2014-02-23T10:50:32Z</time>
      </trkpt>
      <trkpt lat="44.86933" lon="5.5177">
        <ele>1854</ele>
        <time>2014-02-23T10:50:37Z</time>
      </trkpt>
      <trkpt lat="44.8693" lon="5.51778">
        <ele>1845</ele>
        <time>2014-02-23T10:50:42Z</time>
      </trkpt>
      <trkpt lat="44.86915" lon="5.51757">
        <ele>1834</ele>
        <time>2014-02-23T10:50:47Z</time>
      </trkpt>
      <trkpt lat="44.86917" lon="5.51741">
        <ele>1829</ele>
        <time>2014-02-23T10:50:52Z</time>
      </trkpt>
      <trkpt lat="44.86915" lon="5.5174">
        <ele>1830</ele>
        <time>2014-02-23T10:50:57Z</time>
      </trkpt>
      <trkpt lat="44.86914" lon="5.51739">
        <ele>1830</ele>
        <time>2014-02-23T10:51:02Z</time>
      </trkpt>
      <trkpt lat="44.86915" lon="5.51738">
        <ele>1830</ele>
        <time>2014-02-23T10:51:07Z</time>
      </trkpt>
      <trkpt lat="44.86914" lon="5.51735">
        <ele>1835</ele>
        <time>2014-02-23T10:52:17Z</time>
      </trkpt>
      <trkpt lat="44.86912" lon="5.51722">
        <ele>1831</ele>
        <time>2014-02-23T10:52:22Z</time>
      </trkpt>
      <trkpt lat="44.86907" lon="5.51731">
        <ele>1829</ele>
        <time>2014-02-23T10:52:27Z</time>
      </trkpt>
      <trkpt lat="44.86891" lon="5.51733">
        <ele>1823</ele>
        <time>2014-02-23T10:52:32Z</time>
      </trkpt>
      <trkpt lat="44.8687" lon="5.5171">
        <ele>1814</ele>
        <time>2014-02-23T10:52:37Z</time>
      </trkpt>
      <trkpt lat="44.86852" lon="5.51685">
        <ele>1804</ele>
        <time>2014-02-23T10:52:42Z</time>
      </trkpt>
      <trkpt lat="44.86851" lon="5.5168">
        <ele>1786</ele>
        <time>2014-02-23T10:54:02Z</time>
      </trkpt>
      <trkpt lat="44.86852" lon="5.5168">
        <ele>1787</ele>
        <time>2014-02-23T10:54:07Z</time>
      </trkpt>
      <trkpt lat="44.86852" lon="5.5168">
        <ele>1787</ele>
        <time>2014-02-23T10:54:12Z</time>
      </trkpt>
      <trkpt lat="44.86852" lon="5.5168">
        <ele>1788</ele>
        <time>2014-02-23T10:54:17Z</time>
      </trkpt>
      <trkpt lat="44.8685" lon="5.51675">
        <ele>1788</ele>
        <time>2014-02-23T10:54:22Z</time>
      </trkpt>
      <trkpt lat="44.86829" lon="5.5166">
        <ele>1786</ele>
        <time>2014-02-23T10:54:27Z</time>
      </trkpt>
      <trkpt lat="44.86821" lon="5.51625">
        <ele>1783</ele>
        <time>2014-02-23T10:54:32Z</time>
      </trkpt>
      <trkpt lat="44.86811" lon="5.51604">
        <ele>1780</ele>
        <time>2014-02-23T10:54:37Z</time>
      </trkpt>
      <trkpt lat="44.86806" lon="5.51585">
        <ele>1776</ele>
        <time>2014-02-23T10:54:42Z</time>
      </trkpt>
      <trkpt lat="44.86801" lon="5.51552">
        <ele>1770</ele>
        <time>2014-02-23T10:54:47Z</time>
      </trkpt>
      <trkpt lat="44.86794" lon="5.51526">
        <ele>1766</ele>
        <time>2014-02-23T10:54:52Z</time>
      </trkpt>
      <trkpt lat="44.86794" lon="5.51488">
        <ele>1759</ele>
        <time>2014-02-23T10:54:57Z</time>
      </trkpt>
      <trkpt lat="44.86797" lon="5.51449">
        <ele>1755</ele>
        <time>2014-02-23T10:55:02Z</time>
      </trkpt>
      <trkpt lat="44.86803" lon="5.51413">
        <ele>1750</ele>
        <time>2014-02-23T10:55:07Z</time>
      </trkpt>
      <trkpt lat="44.86809" lon="5.51378">
        <ele>1747</ele>
        <time>2014-02-23T10:55:12Z</time>
      </trkpt>
      <trkpt lat="44.86829" lon="5.51353">
        <ele>1739</ele>
        <time>2014-02-23T10:55:17Z</time>
      </trkpt>
      <trkpt lat="44.86839" lon="5.51319">
        <ele>1735</ele>
        <time>2014-02-23T10:55:22Z</time>
      </trkpt>
      <trkpt lat="44.86857" lon="5.51287">
        <ele>1729</ele>
        <time>2014-02-23T10:55:27Z</time>
      </trkpt>
      <trkpt lat="44.86865" lon="5.51254">
        <ele>1725</ele>
        <time>2014-02-23T10:55:32Z</time>
      </trkpt>
      <trkpt lat="44.86874" lon="5.51215">
        <ele>1719</ele>
        <time>2014-02-23T10:55:37Z</time>
      </trkpt>
      <trkpt lat="44.86881" lon="5.5118">
        <ele>1712</ele>
        <time>2014-02-23T10:55:42Z</time>
      </trkpt>
      <trkpt lat="44.86899" lon="5.51152">
        <ele>1709</ele>
        <time>2014-02-23T10:55:47Z</time>
      </trkpt>
      <trkpt lat="44.86922" lon="5.5112">
        <ele>1704</ele>
        <time>2014-02-23T10:55:52Z</time>
      </trkpt>
      <trkpt lat="44.86942" lon="5.51091">
        <ele>1700</ele>
        <time>2014-02-23T10:55:57Z</time>
      </trkpt>
      <trkpt lat="44.86959" lon="5.5107">
        <ele>1698</ele>
        <time>2014-02-23T10:56:02Z</time>
      </trkpt>
      <trkpt lat="44.86969" lon="5.51049">
        <ele>1696</ele>
        <time>2014-02-23T10:56:07Z</time>
      </trkpt>
      <trkpt lat="44.86978" lon="5.51045">
        <ele>1696</ele>
        <time>2014-02-23T10:56:12Z</time>
      </trkpt>
      <trkpt lat="44.86978" lon="5.51044">
        <ele>1697</ele>
        <time>2014-02-23T10:56:17Z</time>
      </trkpt>
      <trkpt lat="44.86978" lon="5.51044">
        <ele>1697</ele>
        <time>2014-02-23T10:56:22Z</time>
      </trkpt>
      <trkpt lat="44.8698" lon="5.51046">
        <ele>1697</ele>
        <time>2014-02-23T10:56:27Z</time>
      </trkpt>
      <trkpt lat="44.8698" lon="5.51046">
        <ele>1698</ele>
        <time>2014-02-23T10:56:32Z</time>
      </trkpt>
      <trkpt lat="44.86979" lon="5.51045">
        <ele>1698</ele>
        <time>2014-02-23T10:56:37Z</time>
      </trkpt>
      <trkpt lat="44.86979" lon="5.51046">
        <ele>1698</ele>
        <time>2014-02-23T10:56:42Z</time>
      </trkpt>
      <trkpt lat="44.86979" lon="5.51045">
        <ele>1698</ele>
        <time>2014-02-23T10:56:47Z</time>
      </trkpt>
      <trkpt lat="44.86979" lon="5.51045">
        <ele>1699</ele>
        <time>2014-02-23T10:56:52Z</time>
      </trkpt>
      <trkpt lat="44.86979" lon="5.51045">
        <ele>1699</ele>
        <time>2014-02-23T10:56:57Z</time>
      </trkpt>
      <trkpt lat="44.86979" lon="5.51045">
        <ele>1699</ele>
        <time>2014-02-23T10:57:02Z</time>
      </trkpt>
      <trkpt lat="44.86979" lon="5.51045">
        <ele>1699</ele>
        <time>2014-02-23T10:57:07Z</time>
      </trkpt>
      <trkpt lat="44.86982" lon="5.51047">
        <ele>1700</ele>
        <time>2014-02-23T10:57:12Z</time>
      </trkpt>
      <trkpt lat="44.86985" lon="5.51049">
        <ele>1700</ele>
        <time>2014-02-23T10:57:17Z</time>
      </trkpt>
      <trkpt lat="44.86989" lon="5.51051">
        <ele>1700</ele>
        <time>2014-02-23T10:57:22Z</time>
      </trkpt>
      <trkpt lat="44.86994" lon="5.51052">
        <ele>1700</ele>
        <time>2014-02-23T10:57:27Z</time>
      </trkpt>
      <trkpt lat="44.86999" lon="5.51051">
        <ele>1700</ele>
        <time>2014-02-23T10:57:32Z</time>
      </trkpt>
      <trkpt lat="44.8701" lon="5.51044">
        <ele>1700</ele>
        <time>2014-02-23T10:57:37Z</time>
      </trkpt>
      <trkpt lat="44.87016" lon="5.51042">
        <ele>1699</ele>
        <time>2014-02-23T10:57:42Z</time>
      </trkpt>
      <trkpt lat="44.87019" lon="5.51043">
        <ele>1698</ele>
        <time>2014-02-23T10:57:47Z</time>
      </trkpt>
      <trkpt lat="44.87019" lon="5.51042">
        <ele>1697</ele>
        <time>2014-02-23T10:57:52Z</time>
      </trkpt>
      <trkpt lat="44.87022" lon="5.51046">
        <ele>1699</ele>
        <time>2014-02-23T11:22:42Z</time>
      </trkpt>
      <trkpt lat="44.87022" lon="5.51046">
        <ele>1698</ele>
        <time>2014-02-23T11:22:47Z</time>
      </trkpt>
      <trkpt lat="44.87022" lon="5.51046">
        <ele>1699</ele>
        <time>2014-02-23T11:22:52Z</time>
      </trkpt>
      <trkpt lat="44.87023" lon="5.51046">
        <ele>1699</ele>
        <time>2014-02-23T11:22:57Z</time>
      </trkpt>
      <trkpt lat="44.87023" lon="5.51046">
        <ele>1699</ele>
        <time>2014-02-23T11:23:02Z</time>
      </trkpt>
      <trkpt lat="44.87021" lon="5.51037">
        <ele>1696</ele>
        <time>2014-02-23T11:25:52Z</time>
      </trkpt>
      <trkpt lat="44.87022" lon="5.51034">
        <ele>1697</ele>
        <time>2014-02-23T11:25:57Z</time>
      </trkpt>
      <trkpt lat="44.87022" lon="5.51033">
        <ele>1698</ele>
        <time>2014-02-23T11:26:02Z</time>
      </trkpt>
      <trkpt lat="44.87024" lon="5.51029">
        <ele>1698</ele>
        <time>2014-02-23T11:26:07Z</time>
      </trkpt>
      <trkpt lat="44.87026" lon="5.51028">
        <ele>1698</ele>
        <time>2014-02-23T11:26:12Z</time>
      </trkpt>
      <trkpt lat="44.87028" lon="5.51023">
        <ele>1698</ele>
        <time>2014-02-23T11:26:17Z</time>
      </trkpt>
      <trkpt lat="44.8703" lon="5.51018">
        <ele>1697</ele>
        <time>2014-02-23T11:26:22Z</time>
      </trkpt>
      <trkpt lat="44.87031" lon="5.51015">
        <ele>1697</ele>
        <time>2014-02-23T11:26:27Z</time>
      </trkpt>
      <trkpt lat="44.87033" lon="5.51011">
        <ele>1696</ele>
        <time>2014-02-23T11:26:32Z</time>
      </trkpt>
      <trkpt lat="44.87035" lon="5.51006">
        <ele>1696</ele>
        <time>2014-02-23T11:26:37Z</time>
      </trkpt>
      <trkpt lat="44.87038" lon="5.51">
        <ele>1697</ele>
        <time>2014-02-23T11:26:42Z</time>
      </trkpt>
      <trkpt lat="44.87041" lon="5.50996">
        <ele>1697</ele>
        <time>2014-02-23T11:26:47Z</time>
      </trkpt>
      <trkpt lat="44.87045" lon="5.50992">
        <ele>1697</ele>
        <time>2014-02-23T11:26:52Z</time>
      </trkpt>
      <trkpt lat="44.87048" lon="5.50988">
        <ele>1698</ele>
        <time>2014-02-23T11:26:57Z</time>
      </trkpt>
      <trkpt lat="44.87048" lon="5.50987">
        <ele>1698</ele>
        <time>2014-02-23T11:27:02Z</time>
      </trkpt>
      <trkpt lat="44.87049" lon="5.50987">
        <ele>1697</ele>
        <time>2014-02-23T11:27:07Z</time>
      </trkpt>
      <trkpt lat="44.8705" lon="5.50987">
        <ele>1696</ele>
        <time>2014-02-23T11:27:12Z</time>
      </trkpt>
      <trkpt lat="44.8705" lon="5.50987">
        <ele>1695</ele>
        <time>2014-02-23T11:27:17Z</time>
      </trkpt>
      <trkpt lat="44.87051" lon="5.50987">
        <ele>1695</ele>
        <time>2014-02-23T11:27:22Z</time>
      </trkpt>
      <trkpt lat="44.87051" lon="5.50988">
        <ele>1695</ele>
        <time>2014-02-23T11:27:27Z</time>
      </trkpt>
      <trkpt lat="44.87051" lon="5.50988">
        <ele>1694</ele>
        <time>2014-02-23T11:27:32Z</time>
      </trkpt>
      <trkpt lat="44.87051" lon="5.50988">
        <ele>1694</ele>
        <time>2014-02-23T11:27:37Z</time>
      </trkpt>
      <trkpt lat="44.87051" lon="5.50988">
        <ele>1694</ele>
        <time>2014-02-23T11:27:42Z</time>
      </trkpt>
      <trkpt lat="44.8705" lon="5.50987">
        <ele>1697</ele>
        <time>2014-02-23T11:27:47Z</time>
      </trkpt>
      <trkpt lat="44.87051" lon="5.50984">
        <ele>1699</ele>
        <time>2014-02-23T11:27:52Z</time>
      </trkpt>
      <trkpt lat="44.87054" lon="5.5098">
        <ele>1702</ele>
        <time>2014-02-23T11:27:57Z</time>
      </trkpt>
      <trkpt lat="44.87057" lon="5.50976">
        <ele>1704</ele>
        <time>2014-02-23T11:28:02Z</time>
      </trkpt>
      <trkpt lat="44.87059" lon="5.50973">
        <ele>1705</ele>
        <time>2014-02-23T11:28:07Z</time>
      </trkpt>
      <trkpt lat="44.87063" lon="5.5097">
        <ele>1706</ele>
        <time>2014-02-23T11:28:12Z</time>
      </trkpt>
      <trkpt lat="44.87067" lon="5.50964">
        <ele>1705</ele>
        <time>2014-02-23T11:28:17Z</time>
      </trkpt>
      <trkpt lat="44.87071" lon="5.50953">
        <ele>1704</ele>
        <time>2014-02-23T11:28:22Z</time>
      </trkpt>
      <trkpt lat="44.87079" lon="5.50931">
        <ele>1702</ele>
        <time>2014-02-23T11:28:27Z</time>
      </trkpt>
      <trkpt lat="44.87081" lon="5.50921">
        <ele>1702</ele>
        <time>2014-02-23T11:28:32Z</time>
      </trkpt>
      <trkpt lat="44.87085" lon="5.50913">
        <ele>1702</ele>
        <time>2014-02-23T11:28:37Z</time>
      </trkpt>
      <trkpt lat="44.87088" lon="5.50909">
        <ele>1702</ele>
        <time>2014-02-23T11:28:42Z</time>
      </trkpt>
      <trkpt lat="44.87091" lon="5.50906">
        <ele>1702</ele>
        <time>2014-02-23T11:28:47Z</time>
      </trkpt>
      <trkpt lat="44.87095" lon="5.50902">
        <ele>1702</ele>
        <time>2014-02-23T11:28:52Z</time>
      </trkpt>
      <trkpt lat="44.87098" lon="5.50899">
        <ele>1703</ele>
        <time>2014-02-23T11:28:57Z</time>
      </trkpt>
      <trkpt lat="44.87101" lon="5.50897">
        <ele>1702</ele>
        <time>2014-02-23T11:29:02Z</time>
      </trkpt>
      <trkpt lat="44.87106" lon="5.50894">
        <ele>1703</ele>
        <time>2014-02-23T11:29:07Z</time>
      </trkpt>
      <trkpt lat="44.8711" lon="5.50891">
        <ele>1702</ele>
        <time>2014-02-23T11:29:12Z</time>
      </trkpt>
      <trkpt lat="44.87115" lon="5.50888">
        <ele>1702</ele>
        <time>2014-02-23T11:29:17Z</time>
      </trkpt>
      <trkpt lat="44.8712" lon="5.50884">
        <ele>1702</ele>
        <time>2014-02-23T11:29:22Z</time>
      </trkpt>
      <trkpt lat="44.87125" lon="5.50881">
        <ele>1701</ele>
        <time>2014-02-23T11:29:27Z</time>
      </trkpt>
      <trkpt lat="44.87132" lon="5.50877">
        <ele>1700</ele>
        <time>2014-02-23T11:29:32Z</time>
      </trkpt>
      <trkpt lat="44.87137" lon="5.50872">
        <ele>1700</ele>
        <time>2014-02-23T11:29:37Z</time>
      </trkpt>
      <trkpt lat="44.87142" lon="5.5087">
        <ele>1699</ele>
        <time>2014-02-23T11:29:42Z</time>
      </trkpt>
      <trkpt lat="44.87146" lon="5.50868">
        <ele>1700</ele>
        <time>2014-02-23T11:29:47Z</time>
      </trkpt>
      <trkpt lat="44.87151" lon="5.50864">
        <ele>1699</ele>
        <time>2014-02-23T11:29:52Z</time>
      </trkpt>
      <trkpt lat="44.87157" lon="5.5086">
        <ele>1699</ele>
        <time>2014-02-23T11:29:57Z</time>
      </trkpt>
      <trkpt lat="44.87161" lon="5.50857">
        <ele>1699</ele>
        <time>2014-02-23T11:30:02Z</time>
      </trkpt>
      <trkpt lat="44.87165" lon="5.50854">
        <ele>1700</ele>
        <time>2014-02-23T11:30:07Z</time>
      </trkpt>
      <trkpt lat="44.8717" lon="5.50851">
        <ele>1699</ele>
        <time>2014-02-23T11:30:12Z</time>
      </trkpt>
      <trkpt lat="44.87175" lon="5.50848">
        <ele>1699</ele>
        <time>2014-02-23T11:30:17Z</time>
      </trkpt>
      <trkpt lat="44.8718" lon="5.50844">
        <ele>1699</ele>
        <time>2014-02-23T11:30:22Z</time>
      </trkpt>
      <trkpt lat="44.87185" lon="5.5084">
        <ele>1700</ele>
        <time>2014-02-23T11:30:27Z</time>
      </trkpt>
      <trkpt lat="44.8719" lon="5.50837">
        <ele>1700</ele>
        <time>2014-02-23T11:30:32Z</time>
      </trkpt>
      <trkpt lat="44.87195" lon="5.50834">
        <ele>1700</ele>
        <time>2014-02-23T11:30:37Z</time>
      </trkpt>
      <trkpt lat="44.87201" lon="5.50831">
        <ele>1699</ele>
        <time>2014-02-23T11:30:42Z</time>
      </trkpt>
      <trkpt lat="44.87206" lon="5.50829">
        <ele>1699</ele>
        <time>2014-02-23T11:30:47Z</time>
      </trkpt>
      <trkpt lat="44.87211" lon="5.50828">
        <ele>1700</ele>
        <time>2014-02-23T11:30:52Z</time>
      </trkpt>
      <trkpt lat="44.87215" lon="5.50825">
        <ele>1700</ele>
        <time>2014-02-23T11:30:57Z</time>
      </trkpt>
      <trkpt lat="44.8722" lon="5.50823">
        <ele>1699</ele>
        <time>2014-02-23T11:31:02Z</time>
      </trkpt>
      <trkpt lat="44.87224" lon="5.50821">
        <ele>1699</ele>
        <time>2014-02-23T11:31:07Z</time>
      </trkpt>
      <trkpt lat="44.87229" lon="5.50819">
        <ele>1699</ele>
        <time>2014-02-23T11:31:12Z</time>
      </trkpt>
      <trkpt lat="44.87238" lon="5.50816">
        <ele>1697</ele>
        <time>2014-02-23T11:31:17Z</time>
      </trkpt>
      <trkpt lat="44.87244" lon="5.50814">
        <ele>1698</ele>
        <time>2014-02-23T11:31:22Z</time>
      </trkpt>
      <trkpt lat="44.87249" lon="5.50813">
        <ele>1698</ele>
        <time>2014-02-23T11:31:27Z</time>
      </trkpt>
      <trkpt lat="44.87252" lon="5.50811">
        <ele>1698</ele>
        <time>2014-02-23T11:31:32Z</time>
      </trkpt>
      <trkpt lat="44.87256" lon="5.50809">
        <ele>1699</ele>
        <time>2014-02-23T11:31:37Z</time>
      </trkpt>
      <trkpt lat="44.8726" lon="5.50808">
        <ele>1700</ele>
        <time>2014-02-23T11:31:42Z</time>
      </trkpt>
      <trkpt lat="44.87264" lon="5.5081">
        <ele>1700</ele>
        <time>2014-02-23T11:31:47Z</time>
      </trkpt>
      <trkpt lat="44.87268" lon="5.50812">
        <ele>1700</ele>
        <time>2014-02-23T11:31:52Z</time>
      </trkpt>
      <trkpt lat="44.8727" lon="5.50822">
        <ele>1692</ele>
        <time>2014-02-23T11:37:42Z</time>
      </trkpt>
      <trkpt lat="44.87271" lon="5.50822">
        <ele>1692</ele>
        <time>2014-02-23T11:37:47Z</time>
      </trkpt>
      <trkpt lat="44.87276" lon="5.50821">
        <ele>1692</ele>
        <time>2014-02-23T11:37:52Z</time>
      </trkpt>
      <trkpt lat="44.8728" lon="5.50821">
        <ele>1693</ele>
        <time>2014-02-23T11:37:57Z</time>
      </trkpt>
      <trkpt lat="44.87286" lon="5.50822">
        <ele>1694</ele>
        <time>2014-02-23T11:38:02Z</time>
      </trkpt>
      <trkpt lat="44.87291" lon="5.50823">
        <ele>1694</ele>
        <time>2014-02-23T11:38:07Z</time>
      </trkpt>
      <trkpt lat="44.87296" lon="5.50825">
        <ele>1694</ele>
        <time>2014-02-23T11:38:12Z</time>
      </trkpt>
      <trkpt lat="44.87299" lon="5.5083">
        <ele>1694</ele>
        <time>2014-02-23T11:38:17Z</time>
      </trkpt>
      <trkpt lat="44.87303" lon="5.50834">
        <ele>1694</ele>
        <time>2014-02-23T11:38:22Z</time>
      </trkpt>
      <trkpt lat="44.87306" lon="5.50837">
        <ele>1695</ele>
        <time>2014-02-23T11:38:27Z</time>
      </trkpt>
      <trkpt lat="44.87308" lon="5.50839">
        <ele>1696</ele>
        <time>2014-02-23T11:38:32Z</time>
      </trkpt>
      <trkpt lat="44.87316" lon="5.50842">
        <ele>1694</ele>
        <time>2014-02-23T11:38:37Z</time>
      </trkpt>
      <trkpt lat="44.8732" lon="5.50848">
        <ele>1693</ele>
        <time>2014-02-23T11:38:42Z</time>
      </trkpt>
      <trkpt lat="44.87321" lon="5.50852">
        <ele>1694</ele>
        <time>2014-02-23T11:38:47Z</time>
      </trkpt>
      <trkpt lat="44.87322" lon="5.50856">
        <ele>1694</ele>
        <time>2014-02-23T11:38:52Z</time>
      </trkpt>
      <trkpt lat="44.87323" lon="5.5086">
        <ele>1696</ele>
        <time>2014-02-23T11:38:57Z</time>
      </trkpt>
      <trkpt lat="44.87327" lon="5.50862">
        <ele>1697</ele>
        <time>2014-02-23T11:39:02Z</time>
      </trkpt>
      <trkpt lat="44.87331" lon="5.50862">
        <ele>1697</ele>
        <time>2014-02-23T11:39:07Z</time>
      </trkpt>
      <trkpt lat="44.87338" lon="5.50861">
        <ele>1696</ele>
        <time>2014-02-23T11:39:12Z</time>
      </trkpt>
      <trkpt lat="44.87341" lon="5.50863">
        <ele>1695</ele>
        <time>2014-02-23T11:39:17Z</time>
      </trkpt>
      <trkpt lat="44.87345" lon="5.50861">
        <ele>1696</ele>
        <time>2014-02-23T11:39:22Z</time>
      </trkpt>
      <trkpt lat="44.87348" lon="5.50859">
        <ele>1697</ele>
        <time>2014-02-23T11:39:27Z</time>
      </trkpt>
      <trkpt lat="44.87351" lon="5.50854">
        <ele>1698</ele>
        <time>2014-02-23T11:39:32Z</time>
      </trkpt>
      <trkpt lat="44.87353" lon="5.5085">
        <ele>1699</ele>
        <time>2014-02-23T11:39:37Z</time>
      </trkpt>
      <trkpt lat="44.87356" lon="5.50845">
        <ele>1700</ele>
        <time>2014-02-23T11:39:42Z</time>
      </trkpt>
      <trkpt lat="44.87361" lon="5.50843">
        <ele>1700</ele>
        <time>2014-02-23T11:39:47Z</time>
      </trkpt>
      <trkpt lat="44.87365" lon="5.50842">
        <ele>1701</ele>
        <time>2014-02-23T11:39:52Z</time>
      </trkpt>
      <trkpt lat="44.87369" lon="5.50842">
        <ele>1702</ele>
        <time>2014-02-23T11:39:57Z</time>
      </trkpt>
      <trkpt lat="44.8737" lon="5.50841">
        <ele>1703</ele>
        <time>2014-02-23T11:40:02Z</time>
      </trkpt>
      <trkpt lat="44.8737" lon="5.50842">
        <ele>1703</ele>
        <time>2014-02-23T11:40:07Z</time>
      </trkpt>
      <trkpt lat="44.8737" lon="5.50842">
        <ele>1703</ele>
        <time>2014-02-23T11:40:12Z</time>
      </trkpt>
      <trkpt lat="44.87372" lon="5.50842">
        <ele>1703</ele>
        <time>2014-02-23T11:40:17Z</time>
      </trkpt>
      <trkpt lat="44.87372" lon="5.50841">
        <ele>1704</ele>
        <time>2014-02-23T11:40:22Z</time>
      </trkpt>
      <trkpt lat="44.87371" lon="5.50841">
        <ele>1704</ele>
        <time>2014-02-23T11:40:27Z</time>
      </trkpt>
      <trkpt lat="44.87371" lon="5.50841">
        <ele>1705</ele>
        <time>2014-02-23T11:40:32Z</time>
      </trkpt>
      <trkpt lat="44.87371" lon="5.50841">
        <ele>1705</ele>
        <time>2014-02-23T11:40:37Z</time>
      </trkpt>
      <trkpt lat="44.87373" lon="5.50841">
        <ele>1706</ele>
        <time>2014-02-23T11:40:42Z</time>
      </trkpt>
      <trkpt lat="44.87378" lon="5.50842">
        <ele>1706</ele>
        <time>2014-02-23T11:40:47Z</time>
      </trkpt>
      <trkpt lat="44.87383" lon="5.50846">
        <ele>1704</ele>
        <time>2014-02-23T11:40:52Z</time>
      </trkpt>
      <trkpt lat="44.87387" lon="5.5085">
        <ele>1703</ele>
        <time>2014-02-23T11:40:57Z</time>
      </trkpt>
      <trkpt lat="44.87391" lon="5.50853">
        <ele>1703</ele>
        <time>2014-02-23T11:41:02Z</time>
      </trkpt>
      <trkpt lat="44.87396" lon="5.50856">
        <ele>1703</ele>
        <time>2014-02-23T11:41:07Z</time>
      </trkpt>
      <trkpt lat="44.87398" lon="5.50857">
        <ele>1703</ele>
        <time>2014-02-23T11:41:12Z</time>
      </trkpt>
      <trkpt lat="44.87399" lon="5.50856">
        <ele>1703</ele>
        <time>2014-02-23T11:41:17Z</time>
      </trkpt>
      <trkpt lat="44.87399" lon="5.50856">
        <ele>1703</ele>
        <time>2014-02-23T11:41:22Z</time>
      </trkpt>
      <trkpt lat="44.87402" lon="5.50858">
        <ele>1703</ele>
        <time>2014-02-23T11:41:27Z</time>
      </trkpt>
      <trkpt lat="44.87406" lon="5.50861">
        <ele>1703</ele>
        <time>2014-02-23T11:41:32Z</time>
      </trkpt>
      <trkpt lat="44.8741" lon="5.50865">
        <ele>1703</ele>
        <time>2014-02-23T11:41:37Z</time>
      </trkpt>
      <trkpt lat="44.87413" lon="5.50869">
        <ele>1702</ele>
        <time>2014-02-23T11:41:42Z</time>
      </trkpt>
      <trkpt lat="44.87418" lon="5.50873">
        <ele>1702</ele>
        <time>2014-02-23T11:41:47Z</time>
      </trkpt>
      <trkpt lat="44.87422" lon="5.50877">
        <ele>1703</ele>
        <time>2014-02-23T11:41:52Z</time>
      </trkpt>
      <trkpt lat="44.87426" lon="5.50881">
        <ele>1703</ele>
        <time>2014-02-23T11:41:57Z</time>
      </trkpt>
      <trkpt lat="44.8743" lon="5.50884">
        <ele>1704</ele>
        <time>2014-02-23T11:42:02Z</time>
      </trkpt>
      <trkpt lat="44.87434" lon="5.50887">
        <ele>1704</ele>
        <time>2014-02-23T11:42:07Z</time>
      </trkpt>
      <trkpt lat="44.87439" lon="5.50889">
        <ele>1704</ele>
        <time>2014-02-23T11:42:12Z</time>
      </trkpt>
      <trkpt lat="44.87444" lon="5.50892">
        <ele>1705</ele>
        <time>2014-02-23T11:42:17Z</time>
      </trkpt>
      <trkpt lat="44.87447" lon="5.50895">
        <ele>1706</ele>
        <time>2014-02-23T11:42:22Z</time>
      </trkpt>
      <trkpt lat="44.87453" lon="5.50901">
        <ele>1706</ele>
        <time>2014-02-23T11:42:27Z</time>
      </trkpt>
      <trkpt lat="44.87456" lon="5.50905">
        <ele>1705</ele>
        <time>2014-02-23T11:42:32Z</time>
      </trkpt>
      <trkpt lat="44.8746" lon="5.50912">
        <ele>1705</ele>
        <time>2014-02-23T11:42:37Z</time>
      </trkpt>
      <trkpt lat="44.87463" lon="5.50917">
        <ele>1705</ele>
        <time>2014-02-23T11:42:42Z</time>
      </trkpt>
      <trkpt lat="44.87466" lon="5.50922">
        <ele>1706</ele>
        <time>2014-02-23T11:42:47Z</time>
      </trkpt>
      <trkpt lat="44.8747" lon="5.50927">
        <ele>1706</ele>
        <time>2014-02-23T11:42:52Z</time>
      </trkpt>
      <trkpt lat="44.87475" lon="5.50931">
        <ele>1706</ele>
        <time>2014-02-23T11:42:57Z</time>
      </trkpt>
      <trkpt lat="44.8748" lon="5.50934">
        <ele>1707</ele>
        <time>2014-02-23T11:43:02Z</time>
      </trkpt>
      <trkpt lat="44.87483" lon="5.50936">
        <ele>1708</ele>
        <time>2014-02-23T11:43:07Z</time>
      </trkpt>
      <trkpt lat="44.87486" lon="5.5094">
        <ele>1709</ele>
        <time>2014-02-23T11:43:12Z</time>
      </trkpt>
      <trkpt lat="44.87488" lon="5.50945">
        <ele>1709</ele>
        <time>2014-02-23T11:43:17Z</time>
      </trkpt>
      <trkpt lat="44.87489" lon="5.50947">
        <ele>1709</ele>
        <time>2014-02-23T11:43:22Z</time>
      </trkpt>
      <trkpt lat="44.87492" lon="5.5095">
        <ele>1709</ele>
        <time>2014-02-23T11:43:27Z</time>
      </trkpt>
      <trkpt lat="44.87495" lon="5.50953">
        <ele>1710</ele>
        <time>2014-02-23T11:43:32Z</time>
      </trkpt>
      <trkpt lat="44.87498" lon="5.50958">
        <ele>1710</ele>
        <time>2014-02-23T11:43:37Z</time>
      </trkpt>
      <trkpt lat="44.87502" lon="5.50961">
        <ele>1710</ele>
        <time>2014-02-23T11:43:42Z</time>
      </trkpt>
      <trkpt lat="44.87506" lon="5.50962">
        <ele>1711</ele>
        <time>2014-02-23T11:43:47Z</time>
      </trkpt>
      <trkpt lat="44.87509" lon="5.50964">
        <ele>1711</ele>
        <time>2014-02-23T11:43:52Z</time>
      </trkpt>
      <trkpt lat="44.87512" lon="5.50968">
        <ele>1711</ele>
        <time>2014-02-23T11:43:57Z</time>
      </trkpt>
      <trkpt lat="44.87515" lon="5.50971">
        <ele>1711</ele>
        <time>2014-02-23T11:44:02Z</time>
      </trkpt>
      <trkpt lat="44.87516" lon="5.50976">
        <ele>1712</ele>
        <time>2014-02-23T11:44:07Z</time>
      </trkpt>
      <trkpt lat="44.87517" lon="5.5098">
        <ele>1714</ele>
        <time>2014-02-23T11:44:12Z</time>
      </trkpt>
      <trkpt lat="44.87517" lon="5.50982">
        <ele>1716</ele>
        <time>2014-02-23T11:44:17Z</time>
      </trkpt>
      <trkpt lat="44.87517" lon="5.50983">
        <ele>1718</ele>
        <time>2014-02-23T11:44:22Z</time>
      </trkpt>
      <trkpt lat="44.8752" lon="5.50987">
        <ele>1718</ele>
        <time>2014-02-23T11:44:27Z</time>
      </trkpt>
      <trkpt lat="44.87521" lon="5.50992">
        <ele>1718</ele>
        <time>2014-02-23T11:44:32Z</time>
      </trkpt>
      <trkpt lat="44.87523" lon="5.50995">
        <ele>1719</ele>
        <time>2014-02-23T11:44:37Z</time>
      </trkpt>
      <trkpt lat="44.87526" lon="5.50998">
        <ele>1720</ele>
        <time>2014-02-23T11:44:42Z</time>
      </trkpt>
      <trkpt lat="44.8753" lon="5.51002">
        <ele>1720</ele>
        <time>2014-02-23T11:44:47Z</time>
      </trkpt>
      <trkpt lat="44.87534" lon="5.51006">
        <ele>1719</ele>
        <time>2014-02-23T11:44:52Z</time>
      </trkpt>
      <trkpt lat="44.87536" lon="5.5101">
        <ele>1718</ele>
        <time>2014-02-23T11:44:57Z</time>
      </trkpt>
      <trkpt lat="44.87537" lon="5.51015">
        <ele>1718</ele>
        <time>2014-02-23T11:45:02Z</time>
      </trkpt>
      <trkpt lat="44.87539" lon="5.51021">
        <ele>1718</ele>
        <time>2014-02-23T11:45:07Z</time>
      </trkpt>
      <trkpt lat="44.8754" lon="5.51026">
        <ele>1719</ele>
        <time>2014-02-23T11:45:12Z</time>
      </trkpt>
      <trkpt lat="44.87542" lon="5.51031">
        <ele>1719</ele>
        <time>2014-02-23T11:45:17Z</time>
      </trkpt>
      <trkpt lat="44.87544" lon="5.51035">
        <ele>1719</ele>
        <time>2014-02-23T11:45:22Z</time>
      </trkpt>
      <trkpt lat="44.87545" lon="5.51038">
        <ele>1720</ele>
        <time>2014-02-23T11:45:27Z</time>
      </trkpt>
      <trkpt lat="44.87547" lon="5.51044">
        <ele>1720</ele>
        <time>2014-02-23T11:45:32Z</time>
      </trkpt>
      <trkpt lat="44.87549" lon="5.51049">
        <ele>1718</ele>
        <time>2014-02-23T11:45:37Z</time>
      </trkpt>
      <trkpt lat="44.87552" lon="5.51054">
        <ele>1719</ele>
        <time>2014-02-23T11:45:42Z</time>
      </trkpt>
      <trkpt lat="44.87553" lon="5.5106">
        <ele>1719</ele>
        <time>2014-02-23T11:45:47Z</time>
      </trkpt>
      <trkpt lat="44.87555" lon="5.51065">
        <ele>1720</ele>
        <time>2014-02-23T11:45:52Z</time>
      </trkpt>
      <trkpt lat="44.87556" lon="5.51071">
        <ele>1721</ele>
        <time>2014-02-23T11:45:57Z</time>
      </trkpt>
      <trkpt lat="44.87558" lon="5.51076">
        <ele>1722</ele>
        <time>2014-02-23T11:46:02Z</time>
      </trkpt>
      <trkpt lat="44.8756" lon="5.51081">
        <ele>1724</ele>
        <time>2014-02-23T11:46:07Z</time>
      </trkpt>
      <trkpt lat="44.87561" lon="5.51087">
        <ele>1724</ele>
        <time>2014-02-23T11:46:12Z</time>
      </trkpt>
      <trkpt lat="44.87563" lon="5.51092">
        <ele>1723</ele>
        <time>2014-02-23T11:46:17Z</time>
      </trkpt>
      <trkpt lat="44.87566" lon="5.51097">
        <ele>1723</ele>
        <time>2014-02-23T11:46:22Z</time>
      </trkpt>
      <trkpt lat="44.87568" lon="5.51102">
        <ele>1724</ele>
        <time>2014-02-23T11:46:27Z</time>
      </trkpt>
      <trkpt lat="44.87571" lon="5.51108">
        <ele>1723</ele>
        <time>2014-02-23T11:46:32Z</time>
      </trkpt>
      <trkpt lat="44.87573" lon="5.51113">
        <ele>1723</ele>
        <time>2014-02-23T11:46:37Z</time>
      </trkpt>
      <trkpt lat="44.87576" lon="5.51116">
        <ele>1724</ele>
        <time>2014-02-23T11:46:42Z</time>
      </trkpt>
      <trkpt lat="44.87578" lon="5.51117">
        <ele>1725</ele>
        <time>2014-02-23T11:46:47Z</time>
      </trkpt>
      <trkpt lat="44.87582" lon="5.51118">
        <ele>1726</ele>
        <time>2014-02-23T11:46:52Z</time>
      </trkpt>
      <trkpt lat="44.87586" lon="5.5112">
        <ele>1727</ele>
        <time>2014-02-23T11:46:57Z</time>
      </trkpt>
      <trkpt lat="44.87591" lon="5.51124">
        <ele>1726</ele>
        <time>2014-02-23T11:47:02Z</time>
      </trkpt>
      <trkpt lat="44.87593" lon="5.51131">
        <ele>1725</ele>
        <time>2014-02-23T11:47:07Z</time>
      </trkpt>
      <trkpt lat="44.87595" lon="5.51137">
        <ele>1724</ele>
        <time>2014-02-23T11:47:12Z</time>
      </trkpt>
      <trkpt lat="44.87598" lon="5.51142">
        <ele>1725</ele>
        <time>2014-02-23T11:47:17Z</time>
      </trkpt>
      <trkpt lat="44.87601" lon="5.51148">
        <ele>1725</ele>
        <time>2014-02-23T11:47:22Z</time>
      </trkpt>
      <trkpt lat="44.87603" lon="5.51151">
        <ele>1725</ele>
        <time>2014-02-23T11:47:27Z</time>
      </trkpt>
      <trkpt lat="44.87606" lon="5.51154">
        <ele>1726</ele>
        <time>2014-02-23T11:47:32Z</time>
      </trkpt>
      <trkpt lat="44.87609" lon="5.51155">
        <ele>1728</ele>
        <time>2014-02-23T11:47:37Z</time>
      </trkpt>
      <trkpt lat="44.87613" lon="5.51156">
        <ele>1729</ele>
        <time>2014-02-23T11:47:42Z</time>
      </trkpt>
      <trkpt lat="44.87616" lon="5.51157">
        <ele>1729</ele>
        <time>2014-02-23T11:47:47Z</time>
      </trkpt>
      <trkpt lat="44.87621" lon="5.5116">
        <ele>1728</ele>
        <time>2014-02-23T11:47:52Z</time>
      </trkpt>
      <trkpt lat="44.87624" lon="5.51163">
        <ele>1728</ele>
        <time>2014-02-23T11:47:57Z</time>
      </trkpt>
      <trkpt lat="44.87628" lon="5.51166">
        <ele>1729</ele>
        <time>2014-02-23T11:48:02Z</time>
      </trkpt>
      <trkpt lat="44.87631" lon="5.5117">
        <ele>1729</ele>
        <time>2014-02-23T11:48:07Z</time>
      </trkpt>
      <trkpt lat="44.87633" lon="5.51174">
        <ele>1729</ele>
        <time>2014-02-23T11:48:12Z</time>
      </trkpt>
      <trkpt lat="44.87634" lon="5.51177">
        <ele>1730</ele>
        <time>2014-02-23T11:48:17Z</time>
      </trkpt>
      <trkpt lat="44.87636" lon="5.51181">
        <ele>1730</ele>
        <time>2014-02-23T11:48:22Z</time>
      </trkpt>
      <trkpt lat="44.87637" lon="5.51186">
        <ele>1731</ele>
        <time>2014-02-23T11:48:27Z</time>
      </trkpt>
      <trkpt lat="44.87639" lon="5.5119">
        <ele>1731</ele>
        <time>2014-02-23T11:48:32Z</time>
      </trkpt>
      <trkpt lat="44.87642" lon="5.51193">
        <ele>1730</ele>
        <time>2014-02-23T11:48:37Z</time>
      </trkpt>
      <trkpt lat="44.87646" lon="5.51197">
        <ele>1730</ele>
        <time>2014-02-23T11:48:42Z</time>
      </trkpt>
      <trkpt lat="44.8765" lon="5.51199">
        <ele>1732</ele>
        <time>2014-02-23T11:48:47Z</time>
      </trkpt>
      <trkpt lat="44.87653" lon="5.51199">
        <ele>1733</ele>
        <time>2014-02-23T11:48:52Z</time>
      </trkpt>
      <trkpt lat="44.87656" lon="5.51198">
        <ele>1734</ele>
        <time>2014-02-23T11:48:57Z</time>
      </trkpt>
      <trkpt lat="44.87659" lon="5.51197">
        <ele>1735</ele>
        <time>2014-02-23T11:49:02Z</time>
      </trkpt>
      <trkpt lat="44.87662" lon="5.51197">
        <ele>1736</ele>
        <time>2014-02-23T11:49:07Z</time>
      </trkpt>
      <trkpt lat="44.87666" lon="5.512">
        <ele>1735</ele>
        <time>2014-02-23T11:49:12Z</time>
      </trkpt>
      <trkpt lat="44.87667" lon="5.51203">
        <ele>1735</ele>
        <time>2014-02-23T11:49:17Z</time>
      </trkpt>
      <trkpt lat="44.87666" lon="5.51207">
        <ele>1735</ele>
        <time>2014-02-23T11:49:22Z</time>
      </trkpt>
      <trkpt lat="44.87666" lon="5.5121">
        <ele>1735</ele>
        <time>2014-02-23T11:49:27Z</time>
      </trkpt>
      <trkpt lat="44.87667" lon="5.51212">
        <ele>1736</ele>
        <time>2014-02-23T11:49:32Z</time>
      </trkpt>
      <trkpt lat="44.8767" lon="5.51215">
        <ele>1737</ele>
        <time>2014-02-23T11:49:37Z</time>
      </trkpt>
      <trkpt lat="44.8767" lon="5.51215">
        <ele>1738</ele>
        <time>2014-02-23T11:49:42Z</time>
      </trkpt>
      <trkpt lat="44.8767" lon="5.51215">
        <ele>1739</ele>
        <time>2014-02-23T11:49:47Z</time>
      </trkpt>
      <trkpt lat="44.8767" lon="5.51216">
        <ele>1738</ele>
        <time>2014-02-23T11:49:52Z</time>
      </trkpt>
      <trkpt lat="44.87669" lon="5.51217">
        <ele>1739</ele>
        <time>2014-02-23T11:49:57Z</time>
      </trkpt>
      <trkpt lat="44.87669" lon="5.51217">
        <ele>1740</ele>
        <time>2014-02-23T11:50:02Z</time>
      </trkpt>
      <trkpt lat="44.87669" lon="5.51218">
        <ele>1741</ele>
        <time>2014-02-23T11:50:07Z</time>
      </trkpt>
      <trkpt lat="44.87669" lon="5.51217">
        <ele>1742</ele>
        <time>2014-02-23T11:50:12Z</time>
      </trkpt>
      <trkpt lat="44.87669" lon="5.51218">
        <ele>1743</ele>
        <time>2014-02-23T11:50:17Z</time>
      </trkpt>
      <trkpt lat="44.87668" lon="5.51218">
        <ele>1744</ele>
        <time>2014-02-23T11:50:22Z</time>
      </trkpt>
      <trkpt lat="44.87668" lon="5.51218">
        <ele>1743</ele>
        <time>2014-02-23T11:50:27Z</time>
      </trkpt>
      <trkpt lat="44.87668" lon="5.51219">
        <ele>1744</ele>
        <time>2014-02-23T11:50:32Z</time>
      </trkpt>
      <trkpt lat="44.87669" lon="5.51218">
        <ele>1744</ele>
        <time>2014-02-23T11:50:37Z</time>
      </trkpt>
      <trkpt lat="44.87669" lon="5.51217">
        <ele>1744</ele>
        <time>2014-02-23T11:50:42Z</time>
      </trkpt>
      <trkpt lat="44.87669" lon="5.51216">
        <ele>1743</ele>
        <time>2014-02-23T11:50:47Z</time>
      </trkpt>
      <trkpt lat="44.8767" lon="5.51215">
        <ele>1742</ele>
        <time>2014-02-23T11:50:52Z</time>
      </trkpt>
      <trkpt lat="44.8767" lon="5.51215">
        <ele>1741</ele>
        <time>2014-02-23T11:50:57Z</time>
      </trkpt>
      <trkpt lat="44.8767" lon="5.51214">
        <ele>1740</ele>
        <time>2014-02-23T11:51:02Z</time>
      </trkpt>
      <trkpt lat="44.87671" lon="5.51213">
        <ele>1739</ele>
        <time>2014-02-23T11:51:07Z</time>
      </trkpt>
      <trkpt lat="44.87671" lon="5.51212">
        <ele>1738</ele>
        <time>2014-02-23T11:51:12Z</time>
      </trkpt>
      <trkpt lat="44.87672" lon="5.51212">
        <ele>1738</ele>
        <time>2014-02-23T11:51:17Z</time>
      </trkpt>
      <trkpt lat="44.87672" lon="5.51212">
        <ele>1737</ele>
        <time>2014-02-23T11:51:22Z</time>
      </trkpt>
      <trkpt lat="44.87672" lon="5.51212">
        <ele>1738</ele>
        <time>2014-02-23T11:51:27Z</time>
      </trkpt>
      <trkpt lat="44.87674" lon="5.51214">
        <ele>1737</ele>
        <time>2014-02-23T11:51:32Z</time>
      </trkpt>
      <trkpt lat="44.87678" lon="5.51216">
        <ele>1737</ele>
        <time>2014-02-23T11:51:37Z</time>
      </trkpt>
      <trkpt lat="44.87681" lon="5.51218">
        <ele>1738</ele>
        <time>2014-02-23T11:51:42Z</time>
      </trkpt>
      <trkpt lat="44.87684" lon="5.5122">
        <ele>1738</ele>
        <time>2014-02-23T11:51:47Z</time>
      </trkpt>
      <trkpt lat="44.87688" lon="5.51222">
        <ele>1739</ele>
        <time>2014-02-23T11:51:52Z</time>
      </trkpt>
      <trkpt lat="44.87691" lon="5.51224">
        <ele>1739</ele>
        <time>2014-02-23T11:51:57Z</time>
      </trkpt>
      <trkpt lat="44.87694" lon="5.51225">
        <ele>1740</ele>
        <time>2014-02-23T11:52:02Z</time>
      </trkpt>
      <trkpt lat="44.87697" lon="5.51225">
        <ele>1741</ele>
        <time>2014-02-23T11:52:07Z</time>
      </trkpt>
      <trkpt lat="44.87699" lon="5.51224">
        <ele>1743</ele>
        <time>2014-02-23T11:52:12Z</time>
      </trkpt>
      <trkpt lat="44.87702" lon="5.51225">
        <ele>1745</ele>
        <time>2014-02-23T11:52:17Z</time>
      </trkpt>
      <trkpt lat="44.87705" lon="5.51224">
        <ele>1747</ele>
        <time>2014-02-23T11:52:22Z</time>
      </trkpt>
      <trkpt lat="44.87708" lon="5.51223">
        <ele>1749</ele>
        <time>2014-02-23T11:52:27Z</time>
      </trkpt>
      <trkpt lat="44.87711" lon="5.51224">
        <ele>1750</ele>
        <time>2014-02-23T11:52:32Z</time>
      </trkpt>
      <trkpt lat="44.87713" lon="5.51224">
        <ele>1750</ele>
        <time>2014-02-23T11:52:37Z</time>
      </trkpt>
      <trkpt lat="44.87717" lon="5.51224">
        <ele>1751</ele>
        <time>2014-02-23T11:52:42Z</time>
      </trkpt>
      <trkpt lat="44.87719" lon="5.51224">
        <ele>1752</ele>
        <time>2014-02-23T11:52:47Z</time>
      </trkpt>
      <trkpt lat="44.87722" lon="5.51225">
        <ele>1752</ele>
        <time>2014-02-23T11:52:52Z</time>
      </trkpt>
      <trkpt lat="44.87725" lon="5.51226">
        <ele>1752</ele>
        <time>2014-02-23T11:52:57Z</time>
      </trkpt>
      <trkpt lat="44.87726" lon="5.51226">
        <ele>1752</ele>
        <time>2014-02-23T11:53:02Z</time>
      </trkpt>
      <trkpt lat="44.87726" lon="5.51227">
        <ele>1752</ele>
        <time>2014-02-23T11:53:07Z</time>
      </trkpt>
      <trkpt lat="44.87726" lon="5.51227">
        <ele>1752</ele>
        <time>2014-02-23T11:53:12Z</time>
      </trkpt>
      <trkpt lat="44.87726" lon="5.51228">
        <ele>1752</ele>
        <time>2014-02-23T11:53:17Z</time>
      </trkpt>
      <trkpt lat="44.87727" lon="5.51229">
        <ele>1752</ele>
        <time>2014-02-23T11:53:22Z</time>
      </trkpt>
      <trkpt lat="44.87727" lon="5.51229">
        <ele>1752</ele>
        <time>2014-02-23T11:53:27Z</time>
      </trkpt>
      <trkpt lat="44.87729" lon="5.51229">
        <ele>1752</ele>
        <time>2014-02-23T11:53:32Z</time>
      </trkpt>
      <trkpt lat="44.87733" lon="5.5123">
        <ele>1752</ele>
        <time>2014-02-23T11:53:37Z</time>
      </trkpt>
      <trkpt lat="44.87736" lon="5.5123">
        <ele>1753</ele>
        <time>2014-02-23T11:53:42Z</time>
      </trkpt>
      <trkpt lat="44.87739" lon="5.51229">
        <ele>1753</ele>
        <time>2014-02-23T11:53:47Z</time>
      </trkpt>
      <trkpt lat="44.87742" lon="5.51228">
        <ele>1753</ele>
        <time>2014-02-23T11:53:52Z</time>
      </trkpt>
      <trkpt lat="44.87745" lon="5.51227">
        <ele>1753</ele>
        <time>2014-02-23T11:53:57Z</time>
      </trkpt>
      <trkpt lat="44.87747" lon="5.51225">
        <ele>1754</ele>
        <time>2014-02-23T11:54:02Z</time>
      </trkpt>
      <trkpt lat="44.87748" lon="5.51224">
        <ele>1755</ele>
        <time>2014-02-23T11:54:07Z</time>
      </trkpt>
      <trkpt lat="44.87751" lon="5.51221">
        <ele>1756</ele>
        <time>2014-02-23T11:54:12Z</time>
      </trkpt>
      <trkpt lat="44.87752" lon="5.5122">
        <ele>1758</ele>
        <time>2014-02-23T11:54:17Z</time>
      </trkpt>
      <trkpt lat="44.87755" lon="5.51222">
        <ele>1759</ele>
        <time>2014-02-23T11:54:22Z</time>
      </trkpt>
      <trkpt lat="44.87758" lon="5.51225">
        <ele>1758</ele>
        <time>2014-02-23T11:54:27Z</time>
      </trkpt>
      <trkpt lat="44.87762" lon="5.51228">
        <ele>1757</ele>
        <time>2014-02-23T11:54:32Z</time>
      </trkpt>
      <trkpt lat="44.87765" lon="5.51229">
        <ele>1759</ele>
        <time>2014-02-23T11:54:37Z</time>
      </trkpt>
      <trkpt lat="44.87767" lon="5.51231">
        <ele>1761</ele>
        <time>2014-02-23T11:54:42Z</time>
      </trkpt>
      <trkpt lat="44.87769" lon="5.51233">
        <ele>1763</ele>
        <time>2014-02-23T11:54:47Z</time>
      </trkpt>
      <trkpt lat="44.87772" lon="5.51236">
        <ele>1764</ele>
        <time>2014-02-23T11:54:52Z</time>
      </trkpt>
      <trkpt lat="44.87777" lon="5.51237">
        <ele>1765</ele>
        <time>2014-02-23T11:54:57Z</time>
      </trkpt>
      <trkpt lat="44.8778" lon="5.51238">
        <ele>1765</ele>
        <time>2014-02-23T11:55:02Z</time>
      </trkpt>
      <trkpt lat="44.87784" lon="5.5124">
        <ele>1765</ele>
        <time>2014-02-23T11:55:07Z</time>
      </trkpt>
      <trkpt lat="44.87786" lon="5.51241">
        <ele>1766</ele>
        <time>2014-02-23T11:55:12Z</time>
      </trkpt>
      <trkpt lat="44.87789" lon="5.51244">
        <ele>1766</ele>
        <time>2014-02-23T11:55:17Z</time>
      </trkpt>
      <trkpt lat="44.87793" lon="5.51246">
        <ele>1767</ele>
        <time>2014-02-23T11:55:22Z</time>
      </trkpt>
      <trkpt lat="44.87797" lon="5.51249">
        <ele>1767</ele>
        <time>2014-02-23T11:55:27Z</time>
      </trkpt>
      <trkpt lat="44.87801" lon="5.51253">
        <ele>1767</ele>
        <time>2014-02-23T11:55:32Z</time>
      </trkpt>
      <trkpt lat="44.87805" lon="5.51257">
        <ele>1767</ele>
        <time>2014-02-23T11:55:37Z</time>
      </trkpt>
      <trkpt lat="44.87808" lon="5.51261">
        <ele>1766</ele>
        <time>2014-02-23T11:55:42Z</time>
      </trkpt>
      <trkpt lat="44.87811" lon="5.51265">
        <ele>1766</ele>
        <time>2014-02-23T11:55:47Z</time>
      </trkpt>
      <trkpt lat="44.87814" lon="5.51267">
        <ele>1767</ele>
        <time>2014-02-23T11:55:52Z</time>
      </trkpt>
      <trkpt lat="44.87817" lon="5.5127">
        <ele>1768</ele>
        <time>2014-02-23T11:55:57Z</time>
      </trkpt>
      <trkpt lat="44.8782" lon="5.51271">
        <ele>1769</ele>
        <time>2014-02-23T11:56:02Z</time>
      </trkpt>
      <trkpt lat="44.87822" lon="5.51272">
        <ele>1769</ele>
        <time>2014-02-23T11:56:07Z</time>
      </trkpt>
      <trkpt lat="44.87825" lon="5.51275">
        <ele>1770</ele>
        <time>2014-02-23T11:56:12Z</time>
      </trkpt>
      <trkpt lat="44.87827" lon="5.51279">
        <ele>1770</ele>
        <time>2014-02-23T11:56:17Z</time>
      </trkpt>
      <trkpt lat="44.87831" lon="5.51282">
        <ele>1771</ele>
        <time>2014-02-23T11:56:22Z</time>
      </trkpt>
      <trkpt lat="44.87835" lon="5.51283">
        <ele>1771</ele>
        <time>2014-02-23T11:56:27Z</time>
      </trkpt>
      <trkpt lat="44.87839" lon="5.51288">
        <ele>1772</ele>
        <time>2014-02-23T11:56:32Z</time>
      </trkpt>
      <trkpt lat="44.87842" lon="5.51292">
        <ele>1771</ele>
        <time>2014-02-23T11:56:37Z</time>
      </trkpt>
      <trkpt lat="44.87845" lon="5.51298">
        <ele>1769</ele>
        <time>2014-02-23T11:56:42Z</time>
      </trkpt>
      <trkpt lat="44.87848" lon="5.51302">
        <ele>1771</ele>
        <time>2014-02-23T11:56:47Z</time>
      </trkpt>
      <trkpt lat="44.87851" lon="5.51305">
        <ele>1772</ele>
        <time>2014-02-23T11:56:52Z</time>
      </trkpt>
      <trkpt lat="44.87854" lon="5.51309">
        <ele>1773</ele>
        <time>2014-02-23T11:56:57Z</time>
      </trkpt>
      <trkpt lat="44.87856" lon="5.51314">
        <ele>1773</ele>
        <time>2014-02-23T11:57:02Z</time>
      </trkpt>
      <trkpt lat="44.87858" lon="5.51319">
        <ele>1774</ele>
        <time>2014-02-23T11:57:07Z</time>
      </trkpt>
      <trkpt lat="44.87859" lon="5.51322">
        <ele>1776</ele>
        <time>2014-02-23T11:57:12Z</time>
      </trkpt>
      <trkpt lat="44.87861" lon="5.51326">
        <ele>1777</ele>
        <time>2014-02-23T11:57:17Z</time>
      </trkpt>
      <trkpt lat="44.87863" lon="5.51328">
        <ele>1778</ele>
        <time>2014-02-23T11:57:22Z</time>
      </trkpt>
      <trkpt lat="44.87866" lon="5.51331">
        <ele>1778</ele>
        <time>2014-02-23T11:57:27Z</time>
      </trkpt>
      <trkpt lat="44.87868" lon="5.51335">
        <ele>1778</ele>
        <time>2014-02-23T11:57:32Z</time>
      </trkpt>
      <trkpt lat="44.8787" lon="5.51338">
        <ele>1779</ele>
        <time>2014-02-23T11:57:37Z</time>
      </trkpt>
      <trkpt lat="44.87873" lon="5.51341">
        <ele>1778</ele>
        <time>2014-02-23T11:57:42Z</time>
      </trkpt>
      <trkpt lat="44.87877" lon="5.51345">
        <ele>1776</ele>
        <time>2014-02-23T11:57:47Z</time>
      </trkpt>
      <trkpt lat="44.87879" lon="5.5135">
        <ele>1774</ele>
        <time>2014-02-23T11:57:52Z</time>
      </trkpt>
      <trkpt lat="44.87882" lon="5.51354">
        <ele>1775</ele>
        <time>2014-02-23T11:57:57Z</time>
      </trkpt>
      <trkpt lat="44.87882" lon="5.51355">
        <ele>1776</ele>
        <time>2014-02-23T11:58:02Z</time>
      </trkpt>
      <trkpt lat="44.87883" lon="5.51359">
        <ele>1776</ele>
        <time>2014-02-23T11:58:07Z</time>
      </trkpt>
      <trkpt lat="44.87884" lon="5.51363">
        <ele>1776</ele>
        <time>2014-02-23T11:58:12Z</time>
      </trkpt>
      <trkpt lat="44.87885" lon="5.51368">
        <ele>1777</ele>
        <time>2014-02-23T11:58:17Z</time>
      </trkpt>
      <trkpt lat="44.87887" lon="5.51371">
        <ele>1777</ele>
        <time>2014-02-23T11:58:22Z</time>
      </trkpt>
      <trkpt lat="44.87888" lon="5.51374">
        <ele>1777</ele>
        <time>2014-02-23T11:58:27Z</time>
      </trkpt>
      <trkpt lat="44.87888" lon="5.51375">
        <ele>1777</ele>
        <time>2014-02-23T11:58:32Z</time>
      </trkpt>
      <trkpt lat="44.8789" lon="5.51379">
        <ele>1778</ele>
        <time>2014-02-23T11:58:37Z</time>
      </trkpt>
      <trkpt lat="44.87892" lon="5.51383">
        <ele>1780</ele>
        <time>2014-02-23T11:58:42Z</time>
      </trkpt>
      <trkpt lat="44.87895" lon="5.51386">
        <ele>1781</ele>
        <time>2014-02-23T11:58:47Z</time>
      </trkpt>
      <trkpt lat="44.87898" lon="5.5139">
        <ele>1781</ele>
        <time>2014-02-23T11:58:52Z</time>
      </trkpt>
      <trkpt lat="44.87901" lon="5.51393">
        <ele>1782</ele>
        <time>2014-02-23T11:58:57Z</time>
      </trkpt>
      <trkpt lat="44.87904" lon="5.51398">
        <ele>1783</ele>
        <time>2014-02-23T11:59:02Z</time>
      </trkpt>
      <trkpt lat="44.87907" lon="5.51402">
        <ele>1783</ele>
        <time>2014-02-23T11:59:07Z</time>
      </trkpt>
      <trkpt lat="44.8791" lon="5.51405">
        <ele>1784</ele>
        <time>2014-02-23T11:59:12Z</time>
      </trkpt>
      <trkpt lat="44.87912" lon="5.51408">
        <ele>1786</ele>
        <time>2014-02-23T11:59:17Z</time>
      </trkpt>
      <trkpt lat="44.87915" lon="5.51412">
        <ele>1787</ele>
        <time>2014-02-23T11:59:22Z</time>
      </trkpt>
      <trkpt lat="44.87917" lon="5.51414">
        <ele>1787</ele>
        <time>2014-02-23T11:59:27Z</time>
      </trkpt>
      <trkpt lat="44.87918" lon="5.51417">
        <ele>1788</ele>
        <time>2014-02-23T11:59:32Z</time>
      </trkpt>
      <trkpt lat="44.87921" lon="5.5142">
        <ele>1788</ele>
        <time>2014-02-23T11:59:37Z</time>
      </trkpt>
      <trkpt lat="44.87923" lon="5.51422">
        <ele>1789</ele>
        <time>2014-02-23T11:59:42Z</time>
      </trkpt>
      <trkpt lat="44.87925" lon="5.51426">
        <ele>1790</ele>
        <time>2014-02-23T11:59:47Z</time>
      </trkpt>
      <trkpt lat="44.87928" lon="5.51429">
        <ele>1791</ele>
        <time>2014-02-23T11:59:52Z</time>
      </trkpt>
      <trkpt lat="44.87931" lon="5.51431">
        <ele>1791</ele>
        <time>2014-02-23T11:59:57Z</time>
      </trkpt>
      <trkpt lat="44.87933" lon="5.51435">
        <ele>1790</ele>
        <time>2014-02-23T12:00:02Z</time>
      </trkpt>
      <trkpt lat="44.87936" lon="5.51438">
        <ele>1790</ele>
        <time>2014-02-23T12:00:07Z</time>
      </trkpt>
      <trkpt lat="44.87938" lon="5.51442">
        <ele>1790</ele>
        <time>2014-02-23T12:00:12Z</time>
      </trkpt>
      <trkpt lat="44.8794" lon="5.51445">
        <ele>1791</ele>
        <time>2014-02-23T12:00:17Z</time>
      </trkpt>
      <trkpt lat="44.87942" lon="5.51448">
        <ele>1791</ele>
        <time>2014-02-23T12:00:22Z</time>
      </trkpt>
      <trkpt lat="44.87944" lon="5.51451">
        <ele>1791</ele>
        <time>2014-02-23T12:00:27Z</time>
      </trkpt>
      <trkpt lat="44.87947" lon="5.51454">
        <ele>1792</ele>
        <time>2014-02-23T12:00:32Z</time>
      </trkpt>
      <trkpt lat="44.87949" lon="5.51457">
        <ele>1792</ele>
        <time>2014-02-23T12:00:37Z</time>
      </trkpt>
      <trkpt lat="44.87951" lon="5.51459">
        <ele>1792</ele>
        <time>2014-02-23T12:00:42Z</time>
      </trkpt>
      <trkpt lat="44.87954" lon="5.51462">
        <ele>1792</ele>
        <time>2014-02-23T12:00:47Z</time>
      </trkpt>
      <trkpt lat="44.87958" lon="5.51464">
        <ele>1792</ele>
        <time>2014-02-23T12:00:52Z</time>
      </trkpt>
      <trkpt lat="44.87961" lon="5.51468">
        <ele>1791</ele>
        <time>2014-02-23T12:00:57Z</time>
      </trkpt>
      <trkpt lat="44.87962" lon="5.51472">
        <ele>1792</ele>
        <time>2014-02-23T12:01:02Z</time>
      </trkpt>
      <trkpt lat="44.87964" lon="5.51475">
        <ele>1793</ele>
        <time>2014-02-23T12:01:07Z</time>
      </trkpt>
      <trkpt lat="44.87965" lon="5.51477">
        <ele>1794</ele>
        <time>2014-02-23T12:01:12Z</time>
      </trkpt>
      <trkpt lat="44.87967" lon="5.51481">
        <ele>1794</ele>
        <time>2014-02-23T12:01:17Z</time>
      </trkpt>
      <trkpt lat="44.87967" lon="5.51482">
        <ele>1793</ele>
        <time>2014-02-23T12:01:22Z</time>
      </trkpt>
      <trkpt lat="44.87967" lon="5.51482">
        <ele>1792</ele>
        <time>2014-02-23T12:01:27Z</time>
      </trkpt>
      <trkpt lat="44.87968" lon="5.51482">
        <ele>1791</ele>
        <time>2014-02-23T12:01:32Z</time>
      </trkpt>
      <trkpt lat="44.87968" lon="5.51482">
        <ele>1791</ele>
        <time>2014-02-23T12:01:37Z</time>
      </trkpt>
      <trkpt lat="44.87969" lon="5.51484">
        <ele>1791</ele>
        <time>2014-02-23T12:01:42Z</time>
      </trkpt>
      <trkpt lat="44.8797" lon="5.51487">
        <ele>1792</ele>
        <time>2014-02-23T12:01:47Z</time>
      </trkpt>
      <trkpt lat="44.87972" lon="5.5149">
        <ele>1794</ele>
        <time>2014-02-23T12:01:52Z</time>
      </trkpt>
      <trkpt lat="44.87973" lon="5.51493">
        <ele>1794</ele>
        <time>2014-02-23T12:01:57Z</time>
      </trkpt>
      <trkpt lat="44.87974" lon="5.51496">
        <ele>1795</ele>
        <time>2014-02-23T12:02:02Z</time>
      </trkpt>
      <trkpt lat="44.87975" lon="5.51499">
        <ele>1796</ele>
        <time>2014-02-23T12:02:07Z</time>
      </trkpt>
      <trkpt lat="44.87977" lon="5.51502">
        <ele>1796</ele>
        <time>2014-02-23T12:02:12Z</time>
      </trkpt>
      <trkpt lat="44.87978" lon="5.51505">
        <ele>1798</ele>
        <time>2014-02-23T12:02:17Z</time>
      </trkpt>
      <trkpt lat="44.8798" lon="5.51508">
        <ele>1799</ele>
        <time>2014-02-23T12:02:22Z</time>
      </trkpt>
      <trkpt lat="44.87982" lon="5.51511">
        <ele>1800</ele>
        <time>2014-02-23T12:02:27Z</time>
      </trkpt>
      <trkpt lat="44.87985" lon="5.51514">
        <ele>1801</ele>
        <time>2014-02-23T12:02:32Z</time>
      </trkpt>
      <trkpt lat="44.87987" lon="5.51518">
        <ele>1800</ele>
        <time>2014-02-23T12:02:37Z</time>
      </trkpt>
      <trkpt lat="44.8799" lon="5.51521">
        <ele>1800</ele>
        <time>2014-02-23T12:02:42Z</time>
      </trkpt>
      <trkpt lat="44.87991" lon="5.51525">
        <ele>1799</ele>
        <time>2014-02-23T12:02:47Z</time>
      </trkpt>
      <trkpt lat="44.87993" lon="5.51528">
        <ele>1799</ele>
        <time>2014-02-23T12:02:52Z</time>
      </trkpt>
      <trkpt lat="44.87994" lon="5.51531">
        <ele>1799</ele>
        <time>2014-02-23T12:02:57Z</time>
      </trkpt>
      <trkpt lat="44.87996" lon="5.51535">
        <ele>1800</ele>
        <time>2014-02-23T12:03:02Z</time>
      </trkpt>
      <trkpt lat="44.87998" lon="5.51538">
        <ele>1800</ele>
        <time>2014-02-23T12:03:07Z</time>
      </trkpt>
      <trkpt lat="44.88" lon="5.51541">
        <ele>1800</ele>
        <time>2014-02-23T12:03:12Z</time>
      </trkpt>
      <trkpt lat="44.88001" lon="5.51545">
        <ele>1800</ele>
        <time>2014-02-23T12:03:17Z</time>
      </trkpt>
      <trkpt lat="44.88003" lon="5.51548">
        <ele>1801</ele>
        <time>2014-02-23T12:03:22Z</time>
      </trkpt>
      <trkpt lat="44.88004" lon="5.51549">
        <ele>1801</ele>
        <time>2014-02-23T12:03:27Z</time>
      </trkpt>
      <trkpt lat="44.88004" lon="5.51549">
        <ele>1801</ele>
        <time>2014-02-23T12:03:32Z</time>
      </trkpt>
      <trkpt lat="44.88005" lon="5.5155">
        <ele>1802</ele>
        <time>2014-02-23T12:03:37Z</time>
      </trkpt>
      <trkpt lat="44.88006" lon="5.51554">
        <ele>1802</ele>
        <time>2014-02-23T12:03:42Z</time>
      </trkpt>
      <trkpt lat="44.88007" lon="5.51557">
        <ele>1803</ele>
        <time>2014-02-23T12:03:47Z</time>
      </trkpt>
      <trkpt lat="44.88009" lon="5.5156">
        <ele>1804</ele>
        <time>2014-02-23T12:03:52Z</time>
      </trkpt>
      <trkpt lat="44.8801" lon="5.51563">
        <ele>1804</ele>
        <time>2014-02-23T12:03:57Z</time>
      </trkpt>
      <trkpt lat="44.88012" lon="5.51566">
        <ele>1805</ele>
        <time>2014-02-23T12:04:02Z</time>
      </trkpt>
      <trkpt lat="44.88014" lon="5.51569">
        <ele>1806</ele>
        <time>2014-02-23T12:04:07Z</time>
      </trkpt>
      <trkpt lat="44.88015" lon="5.51574">
        <ele>1806</ele>
        <time>2014-02-23T12:04:12Z</time>
      </trkpt>
      <trkpt lat="44.88019" lon="5.51577">
        <ele>1808</ele>
        <time>2014-02-23T12:04:17Z</time>
      </trkpt>
      <trkpt lat="44.88022" lon="5.51581">
        <ele>1809</ele>
        <time>2014-02-23T12:04:22Z</time>
      </trkpt>
      <trkpt lat="44.88025" lon="5.51583">
        <ele>1809</ele>
        <time>2014-02-23T12:04:27Z</time>
      </trkpt>
      <trkpt lat="44.88029" lon="5.51587">
        <ele>1808</ele>
        <time>2014-02-23T12:04:32Z</time>
      </trkpt>
      <trkpt lat="44.88031" lon="5.51593">
        <ele>1807</ele>
        <time>2014-02-23T12:04:37Z</time>
      </trkpt>
      <trkpt lat="44.88033" lon="5.51598">
        <ele>1807</ele>
        <time>2014-02-23T12:04:42Z</time>
      </trkpt>
      <trkpt lat="44.88034" lon="5.51604">
        <ele>1807</ele>
        <time>2014-02-23T12:04:47Z</time>
      </trkpt>
      <trkpt lat="44.88035" lon="5.51609">
        <ele>1807</ele>
        <time>2014-02-23T12:04:52Z</time>
      </trkpt>
      <trkpt lat="44.88035" lon="5.51614">
        <ele>1807</ele>
        <time>2014-02-23T12:04:57Z</time>
      </trkpt>
      <trkpt lat="44.88036" lon="5.51619">
        <ele>1807</ele>
        <time>2014-02-23T12:05:02Z</time>
      </trkpt>
      <trkpt lat="44.88036" lon="5.51624">
        <ele>1808</ele>
        <time>2014-02-23T12:05:07Z</time>
      </trkpt>
      <trkpt lat="44.88037" lon="5.51629">
        <ele>1809</ele>
        <time>2014-02-23T12:05:12Z</time>
      </trkpt>
      <trkpt lat="44.88038" lon="5.51633">
        <ele>1809</ele>
        <time>2014-02-23T12:05:17Z</time>
      </trkpt>
      <trkpt lat="44.88037" lon="5.51638">
        <ele>1810</ele>
        <time>2014-02-23T12:05:22Z</time>
      </trkpt>
      <trkpt lat="44.88037" lon="5.51642">
        <ele>1810</ele>
        <time>2014-02-23T12:05:27Z</time>
      </trkpt>
      <trkpt lat="44.88038" lon="5.51646">
        <ele>1812</ele>
        <time>2014-02-23T12:05:32Z</time>
      </trkpt>
      <trkpt lat="44.88038" lon="5.5165">
        <ele>1813</ele>
        <time>2014-02-23T12:05:37Z</time>
      </trkpt>
      <trkpt lat="44.88038" lon="5.51655">
        <ele>1813</ele>
        <time>2014-02-23T12:05:42Z</time>
      </trkpt>
      <trkpt lat="44.88038" lon="5.5166">
        <ele>1813</ele>
        <time>2014-02-23T12:05:47Z</time>
      </trkpt>
      <trkpt lat="44.88037" lon="5.51665">
        <ele>1813</ele>
        <time>2014-02-23T12:05:52Z</time>
      </trkpt>
      <trkpt lat="44.88037" lon="5.5167">
        <ele>1814</ele>
        <time>2014-02-23T12:05:57Z</time>
      </trkpt>
      <trkpt lat="44.88038" lon="5.51674">
        <ele>1814</ele>
        <time>2014-02-23T12:06:02Z</time>
      </trkpt>
      <trkpt lat="44.88039" lon="5.51679">
        <ele>1815</ele>
        <time>2014-02-23T12:06:07Z</time>
      </trkpt>
      <trkpt lat="44.88039" lon="5.51683">
        <ele>1815</ele>
        <time>2014-02-23T12:06:12Z</time>
      </trkpt>
      <trkpt lat="44.88039" lon="5.51689">
        <ele>1815</ele>
        <time>2014-02-23T12:06:17Z</time>
      </trkpt>
      <trkpt lat="44.8804" lon="5.51695">
        <ele>1815</ele>
        <time>2014-02-23T12:06:22Z</time>
      </trkpt>
      <trkpt lat="44.88041" lon="5.51701">
        <ele>1814</ele>
        <time>2014-02-23T12:06:27Z</time>
      </trkpt>
      <trkpt lat="44.88043" lon="5.51709">
        <ele>1814</ele>
        <time>2014-02-23T12:06:32Z</time>
      </trkpt>
      <trkpt lat="44.88045" lon="5.51716">
        <ele>1813</ele>
        <time>2014-02-23T12:06:37Z</time>
      </trkpt>
      <trkpt lat="44.88049" lon="5.51724">
        <ele>1811</ele>
        <time>2014-02-23T12:06:42Z</time>
      </trkpt>
      <trkpt lat="44.88053" lon="5.5173">
        <ele>1811</ele>
        <time>2014-02-23T12:06:47Z</time>
      </trkpt>
      <trkpt lat="44.88053" lon="5.51732">
        <ele>1811</ele>
        <time>2014-02-23T12:06:52Z</time>
      </trkpt>
      <trkpt lat="44.88053" lon="5.51732">
        <ele>1812</ele>
        <time>2014-02-23T12:06:57Z</time>
      </trkpt>
      <trkpt lat="44.88053" lon="5.51731">
        <ele>1813</ele>
        <time>2014-02-23T12:07:02Z</time>
      </trkpt>
      <trkpt lat="44.88052" lon="5.51731">
        <ele>1813</ele>
        <time>2014-02-23T12:07:07Z</time>
      </trkpt>
      <trkpt lat="44.88053" lon="5.51731">
        <ele>1814</ele>
        <time>2014-02-23T12:07:12Z</time>
      </trkpt>
      <trkpt lat="44.88055" lon="5.51735">
        <ele>1814</ele>
        <time>2014-02-23T12:07:17Z</time>
      </trkpt>
      <trkpt lat="44.88058" lon="5.5174">
        <ele>1813</ele>
        <time>2014-02-23T12:07:22Z</time>
      </trkpt>
      <trkpt lat="44.88065" lon="5.51747">
        <ele>1811</ele>
        <time>2014-02-23T12:07:27Z</time>
      </trkpt>
      <trkpt lat="44.88068" lon="5.51754">
        <ele>1812</ele>
        <time>2014-02-23T12:07:32Z</time>
      </trkpt>
      <trkpt lat="44.88072" lon="5.51759">
        <ele>1812</ele>
        <time>2014-02-23T12:07:37Z</time>
      </trkpt>
      <trkpt lat="44.88073" lon="5.51763">
        <ele>1812</ele>
        <time>2014-02-23T12:07:42Z</time>
      </trkpt>
      <trkpt lat="44.88075" lon="5.51767">
        <ele>1813</ele>
        <time>2014-02-23T12:07:47Z</time>
      </trkpt>
      <trkpt lat="44.88077" lon="5.51773">
        <ele>1812</ele>
        <time>2014-02-23T12:07:52Z</time>
      </trkpt>
      <trkpt lat="44.8808" lon="5.51783">
        <ele>1811</ele>
        <time>2014-02-23T12:07:57Z</time>
      </trkpt>
      <trkpt lat="44.88084" lon="5.51791">
        <ele>1810</ele>
        <time>2014-02-23T12:08:02Z</time>
      </trkpt>
      <trkpt lat="44.88087" lon="5.51799">
        <ele>1808</ele>
        <time>2014-02-23T12:08:07Z</time>
      </trkpt>
      <trkpt lat="44.88091" lon="5.51807">
        <ele>1807</ele>
        <time>2014-02-23T12:08:12Z</time>
      </trkpt>
      <trkpt lat="44.88094" lon="5.51814">
        <ele>1807</ele>
        <time>2014-02-23T12:08:17Z</time>
      </trkpt>
      <trkpt lat="44.88097" lon="5.51819">
        <ele>1807</ele>
        <time>2014-02-23T12:08:22Z</time>
      </trkpt>
      <trkpt lat="44.881" lon="5.51822">
        <ele>1807</ele>
        <time>2014-02-23T12:08:27Z</time>
      </trkpt>
      <trkpt lat="44.88102" lon="5.51826">
        <ele>1807</ele>
        <time>2014-02-23T12:08:32Z</time>
      </trkpt>
      <trkpt lat="44.88104" lon="5.5183">
        <ele>1808</ele>
        <time>2014-02-23T12:08:37Z</time>
      </trkpt>
      <trkpt lat="44.88107" lon="5.51834">
        <ele>1807</ele>
        <time>2014-02-23T12:08:42Z</time>
      </trkpt>
      <trkpt lat="44.88109" lon="5.51837">
        <ele>1806</ele>
        <time>2014-02-23T12:08:47Z</time>
      </trkpt>
      <trkpt lat="44.88111" lon="5.51841">
        <ele>1806</ele>
        <time>2014-02-23T12:08:52Z</time>
      </trkpt>
      <trkpt lat="44.88114" lon="5.51845">
        <ele>1806</ele>
        <time>2014-02-23T12:08:57Z</time>
      </trkpt>
      <trkpt lat="44.88116" lon="5.51848">
        <ele>1806</ele>
        <time>2014-02-23T12:09:02Z</time>
      </trkpt>
      <trkpt lat="44.88118" lon="5.51852">
        <ele>1806</ele>
        <time>2014-02-23T12:09:07Z</time>
      </trkpt>
      <trkpt lat="44.88121" lon="5.51857">
        <ele>1806</ele>
        <time>2014-02-23T12:09:12Z</time>
      </trkpt>
      <trkpt lat="44.88124" lon="5.5186">
        <ele>1807</ele>
        <time>2014-02-23T12:09:17Z</time>
      </trkpt>
      <trkpt lat="44.88127" lon="5.51862">
        <ele>1807</ele>
        <time>2014-02-23T12:09:22Z</time>
      </trkpt>
      <trkpt lat="44.8813" lon="5.51865">
        <ele>1808</ele>
        <time>2014-02-23T12:09:27Z</time>
      </trkpt>
      <trkpt lat="44.88133" lon="5.51867">
        <ele>1807</ele>
        <time>2014-02-23T12:09:32Z</time>
      </trkpt>
      <trkpt lat="44.88135" lon="5.51869">
        <ele>1807</ele>
        <time>2014-02-23T12:09:37Z</time>
      </trkpt>
      <trkpt lat="44.88136" lon="5.51871">
        <ele>1807</ele>
        <time>2014-02-23T12:09:42Z</time>
      </trkpt>
      <trkpt lat="44.88139" lon="5.51872">
        <ele>1808</ele>
        <time>2014-02-23T12:09:47Z</time>
      </trkpt>
      <trkpt lat="44.88141" lon="5.51874">
        <ele>1809</ele>
        <time>2014-02-23T12:09:52Z</time>
      </trkpt>
      <trkpt lat="44.88144" lon="5.51875">
        <ele>1811</ele>
        <time>2014-02-23T12:09:57Z</time>
      </trkpt>
      <trkpt lat="44.88146" lon="5.51877">
        <ele>1812</ele>
        <time>2014-02-23T12:10:02Z</time>
      </trkpt>
      <trkpt lat="44.88149" lon="5.51879">
        <ele>1813</ele>
        <time>2014-02-23T12:10:07Z</time>
      </trkpt>
      <trkpt lat="44.8815" lon="5.51881">
        <ele>1813</ele>
        <time>2014-02-23T12:10:12Z</time>
      </trkpt>
      <trkpt lat="44.88153" lon="5.51884">
        <ele>1813</ele>
        <time>2014-02-23T12:10:17Z</time>
      </trkpt>
      <trkpt lat="44.88154" lon="5.51885">
        <ele>1814</ele>
        <time>2014-02-23T12:10:22Z</time>
      </trkpt>
      <trkpt lat="44.88154" lon="5.51884">
        <ele>1816</ele>
        <time>2014-02-23T12:10:27Z</time>
      </trkpt>
      <trkpt lat="44.88155" lon="5.51884">
        <ele>1817</ele>
        <time>2014-02-23T12:10:32Z</time>
      </trkpt>
      <trkpt lat="44.88157" lon="5.51887">
        <ele>1819</ele>
        <time>2014-02-23T12:10:37Z</time>
      </trkpt>
      <trkpt lat="44.88159" lon="5.51888">
        <ele>1820</ele>
        <time>2014-02-23T12:10:42Z</time>
      </trkpt>
      <trkpt lat="44.88159" lon="5.51889">
        <ele>1820</ele>
        <time>2014-02-23T12:10:47Z</time>
      </trkpt>
      <trkpt lat="44.8816" lon="5.51891">
        <ele>1820</ele>
        <time>2014-02-23T12:10:52Z</time>
      </trkpt>
      <trkpt lat="44.88162" lon="5.51893">
        <ele>1820</ele>
        <time>2014-02-23T12:10:57Z</time>
      </trkpt>
      <trkpt lat="44.88163" lon="5.51892">
        <ele>1820</ele>
        <time>2014-02-23T12:11:02Z</time>
      </trkpt>
      <trkpt lat="44.88162" lon="5.51895">
        <ele>1818</ele>
        <time>2014-02-23T12:11:07Z</time>
      </trkpt>
      <trkpt lat="44.88163" lon="5.51896">
        <ele>1817</ele>
        <time>2014-02-23T12:11:12Z</time>
      </trkpt>
      <trkpt lat="44.88163" lon="5.51897">
        <ele>1817</ele>
        <time>2014-02-23T12:11:17Z</time>
      </trkpt>
      <trkpt lat="44.88162" lon="5.51899">
        <ele>1819</ele>
        <time>2014-02-23T12:11:22Z</time>
      </trkpt>
      <trkpt lat="44.88162" lon="5.51902">
        <ele>1821</ele>
        <time>2014-02-23T12:11:27Z</time>
      </trkpt>
      <trkpt lat="44.88161" lon="5.51903">
        <ele>1824</ele>
        <time>2014-02-23T12:11:32Z</time>
      </trkpt>
      <trkpt lat="44.88159" lon="5.51905">
        <ele>1826</ele>
        <time>2014-02-23T12:11:37Z</time>
      </trkpt>
      <trkpt lat="44.88157" lon="5.51905">
        <ele>1829</ele>
        <time>2014-02-23T12:11:42Z</time>
      </trkpt>
      <trkpt lat="44.88156" lon="5.51906">
        <ele>1837</ele>
        <time>2014-02-23T12:12:47Z</time>
      </trkpt>
      <trkpt lat="44.88156" lon="5.5191">
        <ele>1838</ele>
        <time>2014-02-23T12:12:52Z</time>
      </trkpt>
      <trkpt lat="44.88156" lon="5.51914">
        <ele>1838</ele>
        <time>2014-02-23T12:12:57Z</time>
      </trkpt>
      <trkpt lat="44.88156" lon="5.51918">
        <ele>1837</ele>
        <time>2014-02-23T12:13:02Z</time>
      </trkpt>
      <trkpt lat="44.88156" lon="5.51922">
        <ele>1836</ele>
        <time>2014-02-23T12:13:07Z</time>
      </trkpt>
      <trkpt lat="44.88157" lon="5.51926">
        <ele>1836</ele>
        <time>2014-02-23T12:13:12Z</time>
      </trkpt>
      <trkpt lat="44.88157" lon="5.5193">
        <ele>1837</ele>
        <time>2014-02-23T12:13:17Z</time>
      </trkpt>
      <trkpt lat="44.88158" lon="5.51934">
        <ele>1837</ele>
        <time>2014-02-23T12:13:22Z</time>
      </trkpt>
      <trkpt lat="44.88158" lon="5.51938">
        <ele>1837</ele>
        <time>2014-02-23T12:13:27Z</time>
      </trkpt>
      <trkpt lat="44.88157" lon="5.51942">
        <ele>1838</ele>
        <time>2014-02-23T12:13:32Z</time>
      </trkpt>
      <trkpt lat="44.88157" lon="5.51947">
        <ele>1838</ele>
        <time>2014-02-23T12:13:37Z</time>
      </trkpt>
      <trkpt lat="44.88157" lon="5.51951">
        <ele>1838</ele>
        <time>2014-02-23T12:13:42Z</time>
      </trkpt>
      <trkpt lat="44.88157" lon="5.51955">
        <ele>1839</ele>
        <time>2014-02-23T12:13:47Z</time>
      </trkpt>
      <trkpt lat="44.88158" lon="5.51959">
        <ele>1839</ele>
        <time>2014-02-23T12:13:52Z</time>
      </trkpt>
      <trkpt lat="44.88158" lon="5.51963">
        <ele>1840</ele>
        <time>2014-02-23T12:13:57Z</time>
      </trkpt>
      <trkpt lat="44.88159" lon="5.51967">
        <ele>1841</ele>
        <time>2014-02-23T12:14:02Z</time>
      </trkpt>
      <trkpt lat="44.88159" lon="5.51972">
        <ele>1841</ele>
        <time>2014-02-23T12:14:07Z</time>
      </trkpt>
      <trkpt lat="44.8816" lon="5.51975">
        <ele>1841</ele>
        <time>2014-02-23T12:14:12Z</time>
      </trkpt>
      <trkpt lat="44.88161" lon="5.51979">
        <ele>1842</ele>
        <time>2014-02-23T12:14:17Z</time>
      </trkpt>
      <trkpt lat="44.88163" lon="5.51982">
        <ele>1843</ele>
        <time>2014-02-23T12:14:22Z</time>
      </trkpt>
      <trkpt lat="44.88164" lon="5.51985">
        <ele>1843</ele>
        <time>2014-02-23T12:14:27Z</time>
      </trkpt>
      <trkpt lat="44.88165" lon="5.51987">
        <ele>1844</ele>
        <time>2014-02-23T12:14:32Z</time>
      </trkpt>
      <trkpt lat="44.88167" lon="5.5199">
        <ele>1845</ele>
        <time>2014-02-23T12:14:37Z</time>
      </trkpt>
      <trkpt lat="44.88167" lon="5.51993">
        <ele>1846</ele>
        <time>2014-02-23T12:14:42Z</time>
      </trkpt>
      <trkpt lat="44.88167" lon="5.51996">
        <ele>1846</ele>
        <time>2014-02-23T12:14:47Z</time>
      </trkpt>
      <trkpt lat="44.88166" lon="5.51999">
        <ele>1847</ele>
        <time>2014-02-23T12:14:52Z</time>
      </trkpt>
      <trkpt lat="44.88166" lon="5.52003">
        <ele>1848</ele>
        <time>2014-02-23T12:14:57Z</time>
      </trkpt>
      <trkpt lat="44.88165" lon="5.52006">
        <ele>1848</ele>
        <time>2014-02-23T12:15:02Z</time>
      </trkpt>
      <trkpt lat="44.88164" lon="5.52009">
        <ele>1848</ele>
        <time>2014-02-23T12:15:07Z</time>
      </trkpt>
      <trkpt lat="44.88163" lon="5.52012">
        <ele>1849</ele>
        <time>2014-02-23T12:15:12Z</time>
      </trkpt>
      <trkpt lat="44.88162" lon="5.52015">
        <ele>1849</ele>
        <time>2014-02-23T12:15:17Z</time>
      </trkpt>
      <trkpt lat="44.8816" lon="5.52019">
        <ele>1850</ele>
        <time>2014-02-23T12:15:22Z</time>
      </trkpt>
      <trkpt lat="44.88159" lon="5.52022">
        <ele>1851</ele>
        <time>2014-02-23T12:15:27Z</time>
      </trkpt>
      <trkpt lat="44.88157" lon="5.52026">
        <ele>1851</ele>
        <time>2014-02-23T12:15:32Z</time>
      </trkpt>
      <trkpt lat="44.88155" lon="5.52028">
        <ele>1851</ele>
        <time>2014-02-23T12:15:37Z</time>
      </trkpt>
      <trkpt lat="44.88153" lon="5.52031">
        <ele>1852</ele>
        <time>2014-02-23T12:15:42Z</time>
      </trkpt>
      <trkpt lat="44.88152" lon="5.52033">
        <ele>1853</ele>
        <time>2014-02-23T12:15:47Z</time>
      </trkpt>
      <trkpt lat="44.8815" lon="5.52034">
        <ele>1854</ele>
        <time>2014-02-23T12:15:52Z</time>
      </trkpt>
      <trkpt lat="44.88149" lon="5.52037">
        <ele>1855</ele>
        <time>2014-02-23T12:15:57Z</time>
      </trkpt>
      <trkpt lat="44.8815" lon="5.5204">
        <ele>1855</ele>
        <time>2014-02-23T12:16:02Z</time>
      </trkpt>
      <trkpt lat="44.88152" lon="5.52043">
        <ele>1856</ele>
        <time>2014-02-23T12:16:07Z</time>
      </trkpt>
      <trkpt lat="44.88153" lon="5.52046">
        <ele>1856</ele>
        <time>2014-02-23T12:16:12Z</time>
      </trkpt>
      <trkpt lat="44.88154" lon="5.52049">
        <ele>1857</ele>
        <time>2014-02-23T12:16:17Z</time>
      </trkpt>
      <trkpt lat="44.88155" lon="5.52051">
        <ele>1858</ele>
        <time>2014-02-23T12:16:22Z</time>
      </trkpt>
      <trkpt lat="44.88156" lon="5.52053">
        <ele>1858</ele>
        <time>2014-02-23T12:16:27Z</time>
      </trkpt>
      <trkpt lat="44.88157" lon="5.52056">
        <ele>1859</ele>
        <time>2014-02-23T12:16:32Z</time>
      </trkpt>
      <trkpt lat="44.88159" lon="5.52059">
        <ele>1859</ele>
        <time>2014-02-23T12:16:37Z</time>
      </trkpt>
      <trkpt lat="44.8816" lon="5.52062">
        <ele>1860</ele>
        <time>2014-02-23T12:16:42Z</time>
      </trkpt>
      <trkpt lat="44.88162" lon="5.52066">
        <ele>1860</ele>
        <time>2014-02-23T12:16:47Z</time>
      </trkpt>
      <trkpt lat="44.88162" lon="5.52068">
        <ele>1861</ele>
        <time>2014-02-23T12:16:52Z</time>
      </trkpt>
      <trkpt lat="44.88162" lon="5.52071">
        <ele>1862</ele>
        <time>2014-02-23T12:16:57Z</time>
      </trkpt>
      <trkpt lat="44.8816" lon="5.52074">
        <ele>1863</ele>
        <time>2014-02-23T12:17:02Z</time>
      </trkpt>
      <trkpt lat="44.8816" lon="5.52077">
        <ele>1864</ele>
        <time>2014-02-23T12:17:07Z</time>
      </trkpt>
      <trkpt lat="44.88159" lon="5.52079">
        <ele>1864</ele>
        <time>2014-02-23T12:17:12Z</time>
      </trkpt>
      <trkpt lat="44.88157" lon="5.52082">
        <ele>1865</ele>
        <time>2014-02-23T12:17:17Z</time>
      </trkpt>
      <trkpt lat="44.88156" lon="5.52084">
        <ele>1867</ele>
        <time>2014-02-23T12:17:22Z</time>
      </trkpt>
      <trkpt lat="44.88154" lon="5.52086">
        <ele>1868</ele>
        <time>2014-02-23T12:17:27Z</time>
      </trkpt>
      <trkpt lat="44.88152" lon="5.52087">
        <ele>1869</ele>
        <time>2014-02-23T12:17:32Z</time>
      </trkpt>
      <trkpt lat="44.8815" lon="5.52089">
        <ele>1870</ele>
        <time>2014-02-23T12:17:37Z</time>
      </trkpt>
      <trkpt lat="44.88149" lon="5.5209">
        <ele>1871</ele>
        <time>2014-02-23T12:17:42Z</time>
      </trkpt>
      <trkpt lat="44.88147" lon="5.5209">
        <ele>1871</ele>
        <time>2014-02-23T12:17:47Z</time>
      </trkpt>
      <trkpt lat="44.88146" lon="5.52091">
        <ele>1872</ele>
        <time>2014-02-23T12:17:52Z</time>
      </trkpt>
      <trkpt lat="44.88146" lon="5.52094">
        <ele>1873</ele>
        <time>2014-02-23T12:17:57Z</time>
      </trkpt>
      <trkpt lat="44.88146" lon="5.52097">
        <ele>1874</ele>
        <time>2014-02-23T12:18:02Z</time>
      </trkpt>
      <trkpt lat="44.88147" lon="5.52101">
        <ele>1875</ele>
        <time>2014-02-23T12:18:07Z</time>
      </trkpt>
      <trkpt lat="44.88147" lon="5.52104">
        <ele>1875</ele>
        <time>2014-02-23T12:18:12Z</time>
      </trkpt>
      <trkpt lat="44.88148" lon="5.52107">
        <ele>1876</ele>
        <time>2014-02-23T12:18:17Z</time>
      </trkpt>
      <trkpt lat="44.88148" lon="5.5211">
        <ele>1876</ele>
        <time>2014-02-23T12:18:22Z</time>
      </trkpt>
      <trkpt lat="44.88149" lon="5.52113">
        <ele>1876</ele>
        <time>2014-02-23T12:18:27Z</time>
      </trkpt>
      <trkpt lat="44.88149" lon="5.52116">
        <ele>1876</ele>
        <time>2014-02-23T12:18:32Z</time>
      </trkpt>
      <trkpt lat="44.88149" lon="5.52116">
        <ele>1876</ele>
        <time>2014-02-23T12:18:37Z</time>
      </trkpt>
      <trkpt lat="44.88149" lon="5.52116">
        <ele>1875</ele>
        <time>2014-02-23T12:18:42Z</time>
      </trkpt>
      <trkpt lat="44.88149" lon="5.52116">
        <ele>1875</ele>
        <time>2014-02-23T12:18:47Z</time>
      </trkpt>
      <trkpt lat="44.88149" lon="5.52117">
        <ele>1876</ele>
        <time>2014-02-23T12:18:52Z</time>
      </trkpt>
      <trkpt lat="44.8815" lon="5.52119">
        <ele>1876</ele>
        <time>2014-02-23T12:18:57Z</time>
      </trkpt>
      <trkpt lat="44.88151" lon="5.52121">
        <ele>1877</ele>
        <time>2014-02-23T12:19:02Z</time>
      </trkpt>
      <trkpt lat="44.88153" lon="5.52122">
        <ele>1877</ele>
        <time>2014-02-23T12:19:07Z</time>
      </trkpt>
      <trkpt lat="44.88152" lon="5.52126">
        <ele>1877</ele>
        <time>2014-02-23T12:19:12Z</time>
      </trkpt>
      <trkpt lat="44.8815" lon="5.52127">
        <ele>1878</ele>
        <time>2014-02-23T12:19:17Z</time>
      </trkpt>
      <trkpt lat="44.88148" lon="5.52129">
        <ele>1878</ele>
        <time>2014-02-23T12:19:22Z</time>
      </trkpt>
      <trkpt lat="44.88147" lon="5.5213">
        <ele>1879</ele>
        <time>2014-02-23T12:19:27Z</time>
      </trkpt>
      <trkpt lat="44.88149" lon="5.52132">
        <ele>1880</ele>
        <time>2014-02-23T12:19:32Z</time>
      </trkpt>
      <trkpt lat="44.88152" lon="5.52133">
        <ele>1882</ele>
        <time>2014-02-23T12:19:37Z</time>
      </trkpt>
      <trkpt lat="44.88155" lon="5.52134">
        <ele>1884</ele>
        <time>2014-02-23T12:19:42Z</time>
      </trkpt>
      <trkpt lat="44.88158" lon="5.52135">
        <ele>1885</ele>
        <time>2014-02-23T12:19:47Z</time>
      </trkpt>
      <trkpt lat="44.8816" lon="5.52135">
        <ele>1886</ele>
        <time>2014-02-23T12:19:52Z</time>
      </trkpt>
      <trkpt lat="44.88163" lon="5.52136">
        <ele>1887</ele>
        <time>2014-02-23T12:19:57Z</time>
      </trkpt>
      <trkpt lat="44.88166" lon="5.52136">
        <ele>1888</ele>
        <time>2014-02-23T12:20:02Z</time>
      </trkpt>
      <trkpt lat="44.88168" lon="5.52136">
        <ele>1890</ele>
        <time>2014-02-23T12:20:07Z</time>
      </trkpt>
      <trkpt lat="44.8817" lon="5.52137">
        <ele>1891</ele>
        <time>2014-02-23T12:20:12Z</time>
      </trkpt>
      <trkpt lat="44.88169" lon="5.52139">
        <ele>1892</ele>
        <time>2014-02-23T12:20:17Z</time>
      </trkpt>
      <trkpt lat="44.88168" lon="5.52141">
        <ele>1893</ele>
        <time>2014-02-23T12:20:22Z</time>
      </trkpt>
      <trkpt lat="44.88166" lon="5.52143">
        <ele>1893</ele>
        <time>2014-02-23T12:20:27Z</time>
      </trkpt>
      <trkpt lat="44.88164" lon="5.52145">
        <ele>1894</ele>
        <time>2014-02-23T12:20:32Z</time>
      </trkpt>
      <trkpt lat="44.88163" lon="5.52148">
        <ele>1895</ele>
        <time>2014-02-23T12:20:37Z</time>
      </trkpt>
      <trkpt lat="44.88161" lon="5.5215">
        <ele>1895</ele>
        <time>2014-02-23T12:20:42Z</time>
      </trkpt>
      <trkpt lat="44.88159" lon="5.52152">
        <ele>1896</ele>
        <time>2014-02-23T12:20:47Z</time>
      </trkpt>
      <trkpt lat="44.88158" lon="5.52155">
        <ele>1896</ele>
        <time>2014-02-23T12:20:52Z</time>
      </trkpt>
      <trkpt lat="44.88157" lon="5.52156">
        <ele>1897</ele>
        <time>2014-02-23T12:20:57Z</time>
      </trkpt>
      <trkpt lat="44.88159" lon="5.52157">
        <ele>1898</ele>
        <time>2014-02-23T12:21:02Z</time>
      </trkpt>
      <trkpt lat="44.8816" lon="5.52157">
        <ele>1898</ele>
        <time>2014-02-23T12:21:07Z</time>
      </trkpt>
      <trkpt lat="44.88162" lon="5.52157">
        <ele>1898</ele>
        <time>2014-02-23T12:21:12Z</time>
      </trkpt>
      <trkpt lat="44.88162" lon="5.52157">
        <ele>1899</ele>
        <time>2014-02-23T12:21:17Z</time>
      </trkpt>
      <trkpt lat="44.88162" lon="5.52156">
        <ele>1898</ele>
        <time>2014-02-23T12:21:22Z</time>
      </trkpt>
      <trkpt lat="44.88162" lon="5.52156">
        <ele>1899</ele>
        <time>2014-02-23T12:21:27Z</time>
      </trkpt>
      <trkpt lat="44.88161" lon="5.52155">
        <ele>1899</ele>
        <time>2014-02-23T12:21:32Z</time>
      </trkpt>
      <trkpt lat="44.8816" lon="5.52155">
        <ele>1899</ele>
        <time>2014-02-23T12:21:37Z</time>
      </trkpt>
      <trkpt lat="44.8816" lon="5.52155">
        <ele>1898</ele>
        <time>2014-02-23T12:21:42Z</time>
      </trkpt>
      <trkpt lat="44.88159" lon="5.52155">
        <ele>1898</ele>
        <time>2014-02-23T12:21:47Z</time>
      </trkpt>
      <trkpt lat="44.88159" lon="5.52155">
        <ele>1899</ele>
        <time>2014-02-23T12:21:52Z</time>
      </trkpt>
      <trkpt lat="44.88159" lon="5.52155">
        <ele>1898</ele>
        <time>2014-02-23T12:21:57Z</time>
      </trkpt>
      <trkpt lat="44.88159" lon="5.52155">
        <ele>1898</ele>
        <time>2014-02-23T12:22:02Z</time>
      </trkpt>
      <trkpt lat="44.88162" lon="5.52156">
        <ele>1899</ele>
        <time>2014-02-23T12:22:07Z</time>
      </trkpt>
      <trkpt lat="44.88163" lon="5.52156">
        <ele>1900</ele>
        <time>2014-02-23T12:22:12Z</time>
      </trkpt>
      <trkpt lat="44.88163" lon="5.52158">
        <ele>1900</ele>
        <time>2014-02-23T12:22:17Z</time>
      </trkpt>
      <trkpt lat="44.8816" lon="5.5216">
        <ele>1901</ele>
        <time>2014-02-23T12:22:22Z</time>
      </trkpt>
      <trkpt lat="44.88158" lon="5.52163">
        <ele>1901</ele>
        <time>2014-02-23T12:22:27Z</time>
      </trkpt>
      <trkpt lat="44.88155" lon="5.52166">
        <ele>1901</ele>
        <time>2014-02-23T12:22:32Z</time>
      </trkpt>
      <trkpt lat="44.88151" lon="5.52168">
        <ele>1901</ele>
        <time>2014-02-23T12:22:37Z</time>
      </trkpt>
      <trkpt lat="44.88148" lon="5.52171">
        <ele>1901</ele>
        <time>2014-02-23T12:22:42Z</time>
      </trkpt>
      <trkpt lat="44.88145" lon="5.52173">
        <ele>1901</ele>
        <time>2014-02-23T12:22:47Z</time>
      </trkpt>
      <trkpt lat="44.88143" lon="5.52174">
        <ele>1901</ele>
        <time>2014-02-23T12:22:52Z</time>
      </trkpt>
      <trkpt lat="44.8814" lon="5.52176">
        <ele>1902</ele>
        <time>2014-02-23T12:22:57Z</time>
      </trkpt>
      <trkpt lat="44.88138" lon="5.52176">
        <ele>1902</ele>
        <time>2014-02-23T12:23:02Z</time>
      </trkpt>
      <trkpt lat="44.88135" lon="5.52177">
        <ele>1903</ele>
        <time>2014-02-23T12:23:07Z</time>
      </trkpt>
      <trkpt lat="44.88133" lon="5.52177">
        <ele>1903</ele>
        <time>2014-02-23T12:23:12Z</time>
      </trkpt>
      <trkpt lat="44.88129" lon="5.52178">
        <ele>1903</ele>
        <time>2014-02-23T12:23:17Z</time>
      </trkpt>
      <trkpt lat="44.88126" lon="5.52178">
        <ele>1903</ele>
        <time>2014-02-23T12:23:22Z</time>
      </trkpt>
      <trkpt lat="44.88123" lon="5.52178">
        <ele>1903</ele>
        <time>2014-02-23T12:23:27Z</time>
      </trkpt>
      <trkpt lat="44.88121" lon="5.52178">
        <ele>1903</ele>
        <time>2014-02-23T12:23:32Z</time>
      </trkpt>
      <trkpt lat="44.88121" lon="5.52183">
        <ele>1903</ele>
        <time>2014-02-23T12:23:37Z</time>
      </trkpt>
      <trkpt lat="44.88122" lon="5.52186">
        <ele>1904</ele>
        <time>2014-02-23T12:23:42Z</time>
      </trkpt>
      <trkpt lat="44.88124" lon="5.52188">
        <ele>1905</ele>
        <time>2014-02-23T12:23:47Z</time>
      </trkpt>
      <trkpt lat="44.88126" lon="5.5219">
        <ele>1906</ele>
        <time>2014-02-23T12:23:52Z</time>
      </trkpt>
      <trkpt lat="44.88128" lon="5.52193">
        <ele>1907</ele>
        <time>2014-02-23T12:23:57Z</time>
      </trkpt>
      <trkpt lat="44.8813" lon="5.52193">
        <ele>1907</ele>
        <time>2014-02-23T12:24:02Z</time>
      </trkpt>
      <trkpt lat="44.8813" lon="5.52193">
        <ele>1907</ele>
        <time>2014-02-23T12:24:07Z</time>
      </trkpt>
      <trkpt lat="44.88133" lon="5.52195">
        <ele>1908</ele>
        <time>2014-02-23T12:24:12Z</time>
      </trkpt>
      <trkpt lat="44.88135" lon="5.52197">
        <ele>1909</ele>
        <time>2014-02-23T12:24:17Z</time>
      </trkpt>
      <trkpt lat="44.88138" lon="5.52199">
        <ele>1910</ele>
        <time>2014-02-23T12:24:22Z</time>
      </trkpt>
      <trkpt lat="44.8814" lon="5.52201">
        <ele>1912</ele>
        <time>2014-02-23T12:24:27Z</time>
      </trkpt>
      <trkpt lat="44.88143" lon="5.52202">
        <ele>1912</ele>
        <time>2014-02-23T12:24:32Z</time>
      </trkpt>
      <trkpt lat="44.88146" lon="5.52203">
        <ele>1913</ele>
        <time>2014-02-23T12:24:37Z</time>
      </trkpt>
      <trkpt lat="44.88149" lon="5.52204">
        <ele>1914</ele>
        <time>2014-02-23T12:24:42Z</time>
      </trkpt>
      <trkpt lat="44.88152" lon="5.52205">
        <ele>1915</ele>
        <time>2014-02-23T12:24:47Z</time>
      </trkpt>
      <trkpt lat="44.88155" lon="5.52206">
        <ele>1916</ele>
        <time>2014-02-23T12:24:52Z</time>
      </trkpt>
      <trkpt lat="44.88154" lon="5.52207">
        <ele>1917</ele>
        <time>2014-02-23T12:24:57Z</time>
      </trkpt>
      <trkpt lat="44.8815" lon="5.52209">
        <ele>1916</ele>
        <time>2014-02-23T12:25:02Z</time>
      </trkpt>
      <trkpt lat="44.88147" lon="5.52211">
        <ele>1916</ele>
        <time>2014-02-23T12:25:07Z</time>
      </trkpt>
      <trkpt lat="44.88146" lon="5.52212">
        <ele>1916</ele>
        <time>2014-02-23T12:25:12Z</time>
      </trkpt>
      <trkpt lat="44.88142" lon="5.52214">
        <ele>1916</ele>
        <time>2014-02-23T12:25:17Z</time>
      </trkpt>
      <trkpt lat="44.88139" lon="5.52215">
        <ele>1916</ele>
        <time>2014-02-23T12:25:22Z</time>
      </trkpt>
      <trkpt lat="44.88138" lon="5.52215">
        <ele>1917</ele>
        <time>2014-02-23T12:25:27Z</time>
      </trkpt>
      <trkpt lat="44.88134" lon="5.52216">
        <ele>1918</ele>
        <time>2014-02-23T12:25:32Z</time>
      </trkpt>
      <trkpt lat="44.88131" lon="5.52217">
        <ele>1919</ele>
        <time>2014-02-23T12:25:37Z</time>
      </trkpt>
      <trkpt lat="44.88128" lon="5.52218">
        <ele>1919</ele>
        <time>2014-02-23T12:25:42Z</time>
      </trkpt>
      <trkpt lat="44.88125" lon="5.52219">
        <ele>1919</ele>
        <time>2014-02-23T12:25:47Z</time>
      </trkpt>
      <trkpt lat="44.88121" lon="5.52218">
        <ele>1920</ele>
        <time>2014-02-23T12:25:52Z</time>
      </trkpt>
      <trkpt lat="44.88118" lon="5.52217">
        <ele>1921</ele>
        <time>2014-02-23T12:25:57Z</time>
      </trkpt>
      <trkpt lat="44.88118" lon="5.5222">
        <ele>1921</ele>
        <time>2014-02-23T12:26:02Z</time>
      </trkpt>
      <trkpt lat="44.8812" lon="5.52222">
        <ele>1922</ele>
        <time>2014-02-23T12:26:07Z</time>
      </trkpt>
      <trkpt lat="44.88121" lon="5.52223">
        <ele>1923</ele>
        <time>2014-02-23T12:26:12Z</time>
      </trkpt>
      <trkpt lat="44.88122" lon="5.52226">
        <ele>1923</ele>
        <time>2014-02-23T12:26:17Z</time>
      </trkpt>
      <trkpt lat="44.88123" lon="5.52225">
        <ele>1923</ele>
        <time>2014-02-23T12:26:22Z</time>
      </trkpt>
      <trkpt lat="44.88124" lon="5.52228">
        <ele>1923</ele>
        <time>2014-02-23T12:26:27Z</time>
      </trkpt>
      <trkpt lat="44.88126" lon="5.5223">
        <ele>1923</ele>
        <time>2014-02-23T12:26:32Z</time>
      </trkpt>
      <trkpt lat="44.88127" lon="5.52234">
        <ele>1923</ele>
        <time>2014-02-23T12:26:37Z</time>
      </trkpt>
      <trkpt lat="44.88127" lon="5.52236">
        <ele>1923</ele>
        <time>2014-02-23T12:26:42Z</time>
      </trkpt>
      <trkpt lat="44.88128" lon="5.52238">
        <ele>1924</ele>
        <time>2014-02-23T12:26:47Z</time>
      </trkpt>
      <trkpt lat="44.88128" lon="5.52241">
        <ele>1925</ele>
        <time>2014-02-23T12:26:52Z</time>
      </trkpt>
      <trkpt lat="44.88129" lon="5.52243">
        <ele>1926</ele>
        <time>2014-02-23T12:26:57Z</time>
      </trkpt>
      <trkpt lat="44.88129" lon="5.52246">
        <ele>1927</ele>
        <time>2014-02-23T12:27:02Z</time>
      </trkpt>
      <trkpt lat="44.8813" lon="5.52249">
        <ele>1928</ele>
        <time>2014-02-23T12:27:07Z</time>
      </trkpt>
      <trkpt lat="44.88131" lon="5.52253">
        <ele>1929</ele>
        <time>2014-02-23T12:27:12Z</time>
      </trkpt>
      <trkpt lat="44.88132" lon="5.52254">
        <ele>1929</ele>
        <time>2014-02-23T12:27:17Z</time>
      </trkpt>
      <trkpt lat="44.88133" lon="5.52254">
        <ele>1929</ele>
        <time>2014-02-23T12:27:22Z</time>
      </trkpt>
      <trkpt lat="44.88133" lon="5.52255">
        <ele>1929</ele>
        <time>2014-02-23T12:27:27Z</time>
      </trkpt>
      <trkpt lat="44.88133" lon="5.52254">
        <ele>1930</ele>
        <time>2014-02-23T12:27:32Z</time>
      </trkpt>
      <trkpt lat="44.88133" lon="5.52254">
        <ele>1930</ele>
        <time>2014-02-23T12:27:37Z</time>
      </trkpt>
      <trkpt lat="44.88133" lon="5.52254">
        <ele>1930</ele>
        <time>2014-02-23T12:27:42Z</time>
      </trkpt>
      <trkpt lat="44.88133" lon="5.52254">
        <ele>1930</ele>
        <time>2014-02-23T12:27:47Z</time>
      </trkpt>
      <trkpt lat="44.88132" lon="5.52254">
        <ele>1929</ele>
        <time>2014-02-23T12:27:52Z</time>
      </trkpt>
      <trkpt lat="44.88132" lon="5.52255">
        <ele>1929</ele>
        <time>2014-02-23T12:27:57Z</time>
      </trkpt>
      <trkpt lat="44.88132" lon="5.52255">
        <ele>1928</ele>
        <time>2014-02-23T12:28:02Z</time>
      </trkpt>
      <trkpt lat="44.88132" lon="5.52255">
        <ele>1929</ele>
        <time>2014-02-23T12:28:07Z</time>
      </trkpt>
      <trkpt lat="44.88132" lon="5.52254">
        <ele>1929</ele>
        <time>2014-02-23T12:28:12Z</time>
      </trkpt>
      <trkpt lat="44.88133" lon="5.52251">
        <ele>1930</ele>
        <time>2014-02-23T12:28:17Z</time>
      </trkpt>
      <trkpt lat="44.88134" lon="5.5225">
        <ele>1930</ele>
        <time>2014-02-23T12:28:22Z</time>
      </trkpt>
      <trkpt lat="44.88136" lon="5.52249">
        <ele>1932</ele>
        <time>2014-02-23T12:28:27Z</time>
      </trkpt>
      <trkpt lat="44.88138" lon="5.52249">
        <ele>1932</ele>
        <time>2014-02-23T12:28:32Z</time>
      </trkpt>
      <trkpt lat="44.88139" lon="5.52249">
        <ele>1933</ele>
        <time>2014-02-23T12:28:37Z</time>
      </trkpt>
      <trkpt lat="44.88138" lon="5.52248">
        <ele>1934</ele>
        <time>2014-02-23T12:28:42Z</time>
      </trkpt>
      <trkpt lat="44.8814" lon="5.52247">
        <ele>1935</ele>
        <time>2014-02-23T12:28:47Z</time>
      </trkpt>
      <trkpt lat="44.88142" lon="5.52246">
        <ele>1937</ele>
        <time>2014-02-23T12:28:52Z</time>
      </trkpt>
      <trkpt lat="44.88145" lon="5.52247">
        <ele>1938</ele>
        <time>2014-02-23T12:28:57Z</time>
      </trkpt>
      <trkpt lat="44.88148" lon="5.52247">
        <ele>1939</ele>
        <time>2014-02-23T12:29:02Z</time>
      </trkpt>
      <trkpt lat="44.88152" lon="5.52248">
        <ele>1940</ele>
        <time>2014-02-23T12:29:07Z</time>
      </trkpt>
      <trkpt lat="44.88156" lon="5.52249">
        <ele>1942</ele>
        <time>2014-02-23T12:29:12Z</time>
      </trkpt>
      <trkpt lat="44.88158" lon="5.52249">
        <ele>1942</ele>
        <time>2014-02-23T12:29:17Z</time>
      </trkpt>
      <trkpt lat="44.88161" lon="5.5225">
        <ele>1943</ele>
        <time>2014-02-23T12:29:22Z</time>
      </trkpt>
      <trkpt lat="44.88163" lon="5.5225">
        <ele>1944</ele>
        <time>2014-02-23T12:29:27Z</time>
      </trkpt>
      <trkpt lat="44.88163" lon="5.52251">
        <ele>1945</ele>
        <time>2014-02-23T12:29:32Z</time>
      </trkpt>
      <trkpt lat="44.88163" lon="5.52252">
        <ele>1946</ele>
        <time>2014-02-23T12:29:37Z</time>
      </trkpt>
      <trkpt lat="44.88162" lon="5.52253">
        <ele>1947</ele>
        <time>2014-02-23T12:29:42Z</time>
      </trkpt>
      <trkpt lat="44.8816" lon="5.52256">
        <ele>1947</ele>
        <time>2014-02-23T12:29:47Z</time>
      </trkpt>
      <trkpt lat="44.88159" lon="5.52258">
        <ele>1947</ele>
        <time>2014-02-23T12:29:52Z</time>
      </trkpt>
      <trkpt lat="44.88157" lon="5.52261">
        <ele>1948</ele>
        <time>2014-02-23T12:29:57Z</time>
      </trkpt>
      <trkpt lat="44.88157" lon="5.52262">
        <ele>1949</ele>
        <time>2014-02-23T12:30:02Z</time>
      </trkpt>
      <trkpt lat="44.88157" lon="5.52262">
        <ele>1948</ele>
        <time>2014-02-23T12:30:07Z</time>
      </trkpt>
      <trkpt lat="44.88158" lon="5.52262">
        <ele>1949</ele>
        <time>2014-02-23T12:30:12Z</time>
      </trkpt>
      <trkpt lat="44.8816" lon="5.52261">
        <ele>1949</ele>
        <time>2014-02-23T12:30:17Z</time>
      </trkpt>
      <trkpt lat="44.88163" lon="5.5226">
        <ele>1949</ele>
        <time>2014-02-23T12:30:22Z</time>
      </trkpt>
      <trkpt lat="44.88166" lon="5.52259">
        <ele>1949</ele>
        <time>2014-02-23T12:30:27Z</time>
      </trkpt>
      <trkpt lat="44.88169" lon="5.52257">
        <ele>1949</ele>
        <time>2014-02-23T12:30:32Z</time>
      </trkpt>
      <trkpt lat="44.88171" lon="5.52256">
        <ele>1950</ele>
        <time>2014-02-23T12:30:37Z</time>
      </trkpt>
      <trkpt lat="44.88173" lon="5.52255">
        <ele>1950</ele>
        <time>2014-02-23T12:30:42Z</time>
      </trkpt>
      <trkpt lat="44.88175" lon="5.52254">
        <ele>1951</ele>
        <time>2014-02-23T12:30:47Z</time>
      </trkpt>
      <trkpt lat="44.88177" lon="5.52253">
        <ele>1951</ele>
        <time>2014-02-23T12:30:52Z</time>
      </trkpt>
      <trkpt lat="44.8818" lon="5.52251">
        <ele>1952</ele>
        <time>2014-02-23T12:30:57Z</time>
      </trkpt>
      <trkpt lat="44.88183" lon="5.5225">
        <ele>1952</ele>
        <time>2014-02-23T12:31:02Z</time>
      </trkpt>
      <trkpt lat="44.88183" lon="5.5225">
        <ele>1952</ele>
        <time>2014-02-23T12:31:07Z</time>
      </trkpt>
      <trkpt lat="44.88183" lon="5.5225">
        <ele>1952</ele>
        <time>2014-02-23T12:31:12Z</time>
      </trkpt>
      <trkpt lat="44.88185" lon="5.52249">
        <ele>1952</ele>
        <time>2014-02-23T12:31:17Z</time>
      </trkpt>
      <trkpt lat="44.88187" lon="5.52248">
        <ele>1953</ele>
        <time>2014-02-23T12:31:22Z</time>
      </trkpt>
      <trkpt lat="44.88191" lon="5.52246">
        <ele>1953</ele>
        <time>2014-02-23T12:31:27Z</time>
      </trkpt>
      <trkpt lat="44.88194" lon="5.52245">
        <ele>1953</ele>
        <time>2014-02-23T12:31:32Z</time>
      </trkpt>
      <trkpt lat="44.88194" lon="5.52243">
        <ele>1952</ele>
        <time>2014-02-23T12:31:37Z</time>
      </trkpt>
      <trkpt lat="44.88193" lon="5.52242">
        <ele>1951</ele>
        <time>2014-02-23T12:31:42Z</time>
      </trkpt>
      <trkpt lat="44.88193" lon="5.5224">
        <ele>1951</ele>
        <time>2014-02-23T12:31:47Z</time>
      </trkpt>
      <trkpt lat="44.88193" lon="5.52239">
        <ele>1951</ele>
        <time>2014-02-23T12:31:52Z</time>
      </trkpt>
      <trkpt lat="44.88192" lon="5.52237">
        <ele>1950</ele>
        <time>2014-02-23T12:31:57Z</time>
      </trkpt>
      <trkpt lat="44.88192" lon="5.52236">
        <ele>1950</ele>
        <time>2014-02-23T12:32:02Z</time>
      </trkpt>
      <trkpt lat="44.88192" lon="5.52236">
        <ele>1950</ele>
        <time>2014-02-23T12:32:07Z</time>
      </trkpt>
      <trkpt lat="44.88193" lon="5.52234">
        <ele>1951</ele>
        <time>2014-02-23T12:32:12Z</time>
      </trkpt>
      <trkpt lat="44.88195" lon="5.52234">
        <ele>1952</ele>
        <time>2014-02-23T12:32:17Z</time>
      </trkpt>
      <trkpt lat="44.88197" lon="5.52233">
        <ele>1953</ele>
        <time>2014-02-23T12:32:22Z</time>
      </trkpt>
      <trkpt lat="44.88198" lon="5.52235">
        <ele>1954</ele>
        <time>2014-02-23T12:32:27Z</time>
      </trkpt>
      <trkpt lat="44.88199" lon="5.52236">
        <ele>1955</ele>
        <time>2014-02-23T12:32:32Z</time>
      </trkpt>
      <trkpt lat="44.88201" lon="5.52237">
        <ele>1955</ele>
        <time>2014-02-23T12:32:37Z</time>
      </trkpt>
      <trkpt lat="44.88202" lon="5.52237">
        <ele>1956</ele>
        <time>2014-02-23T12:32:42Z</time>
      </trkpt>
      <trkpt lat="44.88206" lon="5.52237">
        <ele>1956</ele>
        <time>2014-02-23T12:32:47Z</time>
      </trkpt>
      <trkpt lat="44.88208" lon="5.52239">
        <ele>1956</ele>
        <time>2014-02-23T12:32:52Z</time>
      </trkpt>
      <trkpt lat="44.88208" lon="5.5224">
        <ele>1956</ele>
        <time>2014-02-23T12:32:57Z</time>
      </trkpt>
      <trkpt lat="44.8821" lon="5.52241">
        <ele>1958</ele>
        <time>2014-02-23T12:33:02Z</time>
      </trkpt>
      <trkpt lat="44.88213" lon="5.52242">
        <ele>1959</ele>
        <time>2014-02-23T12:33:07Z</time>
      </trkpt>
      <trkpt lat="44.88215" lon="5.52241">
        <ele>1959</ele>
        <time>2014-02-23T12:33:12Z</time>
      </trkpt>
      <trkpt lat="44.88219" lon="5.52238">
        <ele>1959</ele>
        <time>2014-02-23T12:33:17Z</time>
      </trkpt>
      <trkpt lat="44.88222" lon="5.52236">
        <ele>1960</ele>
        <time>2014-02-23T12:33:22Z</time>
      </trkpt>
      <trkpt lat="44.88224" lon="5.52239">
        <ele>1961</ele>
        <time>2014-02-23T12:33:27Z</time>
      </trkpt>
      <trkpt lat="44.88225" lon="5.52242">
        <ele>1962</ele>
        <time>2014-02-23T12:33:32Z</time>
      </trkpt>
      <trkpt lat="44.88228" lon="5.52241">
        <ele>1963</ele>
        <time>2014-02-23T12:33:37Z</time>
      </trkpt>
      <trkpt lat="44.8823" lon="5.5224">
        <ele>1964</ele>
        <time>2014-02-23T12:33:42Z</time>
      </trkpt>
      <trkpt lat="44.88232" lon="5.52237">
        <ele>1965</ele>
        <time>2014-02-23T12:33:47Z</time>
      </trkpt>
      <trkpt lat="44.88234" lon="5.52236">
        <ele>1966</ele>
        <time>2014-02-23T12:33:52Z</time>
      </trkpt>
      <trkpt lat="44.88236" lon="5.52234">
        <ele>1966</ele>
        <time>2014-02-23T12:33:57Z</time>
      </trkpt>
      <trkpt lat="44.88235" lon="5.52235">
        <ele>1966</ele>
        <time>2014-02-23T12:34:02Z</time>
      </trkpt>
      <trkpt lat="44.88234" lon="5.52235">
        <ele>1966</ele>
        <time>2014-02-23T12:34:07Z</time>
      </trkpt>
      <trkpt lat="44.88234" lon="5.52234">
        <ele>1966</ele>
        <time>2014-02-23T12:34:12Z</time>
      </trkpt>
      <trkpt lat="44.88234" lon="5.52235">
        <ele>1965</ele>
        <time>2014-02-23T12:34:17Z</time>
      </trkpt>
      <trkpt lat="44.88235" lon="5.52236">
        <ele>1965</ele>
        <time>2014-02-23T12:34:22Z</time>
      </trkpt>
      <trkpt lat="44.88236" lon="5.52235">
        <ele>1965</ele>
        <time>2014-02-23T12:34:27Z</time>
      </trkpt>
      <trkpt lat="44.88238" lon="5.52235">
        <ele>1965</ele>
        <time>2014-02-23T12:34:32Z</time>
      </trkpt>
      <trkpt lat="44.88239" lon="5.52235">
        <ele>1966</ele>
        <time>2014-02-23T12:34:37Z</time>
      </trkpt>
      <trkpt lat="44.88239" lon="5.52235">
        <ele>1965</ele>
        <time>2014-02-23T12:34:42Z</time>
      </trkpt>
      <trkpt lat="44.88239" lon="5.52235">
        <ele>1965</ele>
        <time>2014-02-23T12:34:47Z</time>
      </trkpt>
      <trkpt lat="44.88239" lon="5.52235">
        <ele>1965</ele>
        <time>2014-02-23T12:34:52Z</time>
      </trkpt>
      <trkpt lat="44.88239" lon="5.52236">
        <ele>1965</ele>
        <time>2014-02-23T12:34:57Z</time>
      </trkpt>
      <trkpt lat="44.88237" lon="5.52236">
        <ele>1965</ele>
        <time>2014-02-23T12:35:02Z</time>
      </trkpt>
      <trkpt lat="44.88237" lon="5.52236">
        <ele>1965</ele>
        <time>2014-02-23T12:35:07Z</time>
      </trkpt>
      <trkpt lat="44.88237" lon="5.52236">
        <ele>1965</ele>
        <time>2014-02-23T12:35:12Z</time>
      </trkpt>
      <trkpt lat="44.88239" lon="5.52234">
        <ele>1965</ele>
        <time>2014-02-23T12:35:17Z</time>
      </trkpt>
      <trkpt lat="44.88243" lon="5.52231">
        <ele>1965</ele>
        <time>2014-02-23T12:35:22Z</time>
      </trkpt>
      <trkpt lat="44.88247" lon="5.52231">
        <ele>1965</ele>
        <time>2014-02-23T12:35:27Z</time>
      </trkpt>
      <trkpt lat="44.88254" lon="5.52231">
        <ele>1965</ele>
        <time>2014-02-23T12:35:32Z</time>
      </trkpt>
      <trkpt lat="44.88262" lon="5.52233">
        <ele>1963</ele>
        <time>2014-02-23T12:35:37Z</time>
      </trkpt>
      <trkpt lat="44.88266" lon="5.52235">
        <ele>1962</ele>
        <time>2014-02-23T12:35:42Z</time>
      </trkpt>
      <trkpt lat="44.88273" lon="5.52238">
        <ele>1961</ele>
        <time>2014-02-23T12:35:47Z</time>
      </trkpt>
      <trkpt lat="44.88283" lon="5.52241">
        <ele>1959</ele>
        <time>2014-02-23T12:35:52Z</time>
      </trkpt>
      <trkpt lat="44.88291" lon="5.52245">
        <ele>1957</ele>
        <time>2014-02-23T12:35:57Z</time>
      </trkpt>
      <trkpt lat="44.88302" lon="5.52247">
        <ele>1954</ele>
        <time>2014-02-23T12:36:02Z</time>
      </trkpt>
      <trkpt lat="44.88306" lon="5.52249">
        <ele>1954</ele>
        <time>2014-02-23T12:36:07Z</time>
      </trkpt>
      <trkpt lat="44.8831" lon="5.52246">
        <ele>1954</ele>
        <time>2014-02-23T12:36:12Z</time>
      </trkpt>
      <trkpt lat="44.88314" lon="5.52244">
        <ele>1954</ele>
        <time>2014-02-23T12:36:17Z</time>
      </trkpt>
      <trkpt lat="44.88316" lon="5.52241">
        <ele>1955</ele>
        <time>2014-02-23T12:36:22Z</time>
      </trkpt>
      <trkpt lat="44.8832" lon="5.52239">
        <ele>1956</ele>
        <time>2014-02-23T12:36:27Z</time>
      </trkpt>
      <trkpt lat="44.88323" lon="5.52234">
        <ele>1956</ele>
        <time>2014-02-23T12:36:32Z</time>
      </trkpt>
      <trkpt lat="44.88326" lon="5.52228">
        <ele>1956</ele>
        <time>2014-02-23T12:36:37Z</time>
      </trkpt>
      <trkpt lat="44.88328" lon="5.52224">
        <ele>1956</ele>
        <time>2014-02-23T12:36:42Z</time>
      </trkpt>
      <trkpt lat="44.88331" lon="5.52222">
        <ele>1957</ele>
        <time>2014-02-23T12:36:47Z</time>
      </trkpt>
      <trkpt lat="44.88332" lon="5.52219">
        <ele>1958</ele>
        <time>2014-02-23T12:36:52Z</time>
      </trkpt>
      <trkpt lat="44.88334" lon="5.52217">
        <ele>1959</ele>
        <time>2014-02-23T12:36:57Z</time>
      </trkpt>
      <trkpt lat="44.88336" lon="5.52215">
        <ele>1960</ele>
        <time>2014-02-23T12:37:02Z</time>
      </trkpt>
      <trkpt lat="44.88339" lon="5.52214">
        <ele>1961</ele>
        <time>2014-02-23T12:37:07Z</time>
      </trkpt>
      <trkpt lat="44.88342" lon="5.52215">
        <ele>1962</ele>
        <time>2014-02-23T12:37:12Z</time>
      </trkpt>
      <trkpt lat="44.88344" lon="5.52215">
        <ele>1962</ele>
        <time>2014-02-23T12:37:17Z</time>
      </trkpt>
      <trkpt lat="44.88347" lon="5.52216">
        <ele>1963</ele>
        <time>2014-02-23T12:37:22Z</time>
      </trkpt>
      <trkpt lat="44.88348" lon="5.52218">
        <ele>1963</ele>
        <time>2014-02-23T12:37:27Z</time>
      </trkpt>
      <trkpt lat="44.8835" lon="5.52221">
        <ele>1964</ele>
        <time>2014-02-23T12:37:32Z</time>
      </trkpt>
      <trkpt lat="44.88351" lon="5.52224">
        <ele>1965</ele>
        <time>2014-02-23T12:37:37Z</time>
      </trkpt>
      <trkpt lat="44.88351" lon="5.52224">
        <ele>1965</ele>
        <time>2014-02-23T12:37:42Z</time>
      </trkpt>
      <trkpt lat="44.88351" lon="5.52224">
        <ele>1965</ele>
        <time>2014-02-23T12:37:47Z</time>
      </trkpt>
      <trkpt lat="44.88351" lon="5.52224">
        <ele>1965</ele>
        <time>2014-02-23T12:37:52Z</time>
      </trkpt>
      <trkpt lat="44.88351" lon="5.52224">
        <ele>1965</ele>
        <time>2014-02-23T12:37:57Z</time>
      </trkpt>
      <trkpt lat="44.88352" lon="5.52228">
        <ele>1966</ele>
        <time>2014-02-23T12:38:02Z</time>
      </trkpt>
      <trkpt lat="44.88352" lon="5.52231">
        <ele>1966</ele>
        <time>2014-02-23T12:38:07Z</time>
      </trkpt>
      <trkpt lat="44.88354" lon="5.52235">
        <ele>1967</ele>
        <time>2014-02-23T12:38:12Z</time>
      </trkpt>
      <trkpt lat="44.88355" lon="5.52239">
        <ele>1968</ele>
        <time>2014-02-23T12:38:17Z</time>
      </trkpt>
      <trkpt lat="44.88356" lon="5.52242">
        <ele>1969</ele>
        <time>2014-02-23T12:38:22Z</time>
      </trkpt>
      <trkpt lat="44.88357" lon="5.52245">
        <ele>1969</ele>
        <time>2014-02-23T12:38:27Z</time>
      </trkpt>
      <trkpt lat="44.88358" lon="5.52249">
        <ele>1970</ele>
        <time>2014-02-23T12:38:32Z</time>
      </trkpt>
      <trkpt lat="44.88358" lon="5.52252">
        <ele>1971</ele>
        <time>2014-02-23T12:38:37Z</time>
      </trkpt>
      <trkpt lat="44.8836" lon="5.52254">
        <ele>1972</ele>
        <time>2014-02-23T12:38:42Z</time>
      </trkpt>
      <trkpt lat="44.88362" lon="5.52255">
        <ele>1973</ele>
        <time>2014-02-23T12:38:47Z</time>
      </trkpt>
      <trkpt lat="44.88364" lon="5.52254">
        <ele>1973</ele>
        <time>2014-02-23T12:38:52Z</time>
      </trkpt>
      <trkpt lat="44.88367" lon="5.52253">
        <ele>1974</ele>
        <time>2014-02-23T12:38:57Z</time>
      </trkpt>
      <trkpt lat="44.88369" lon="5.52252">
        <ele>1975</ele>
        <time>2014-02-23T12:39:02Z</time>
      </trkpt>
      <trkpt lat="44.88372" lon="5.52251">
        <ele>1975</ele>
        <time>2014-02-23T12:39:07Z</time>
      </trkpt>
      <trkpt lat="44.88374" lon="5.5225">
        <ele>1976</ele>
        <time>2014-02-23T12:39:12Z</time>
      </trkpt>
      <trkpt lat="44.88377" lon="5.52249">
        <ele>1976</ele>
        <time>2014-02-23T12:39:17Z</time>
      </trkpt>
      <trkpt lat="44.88379" lon="5.52248">
        <ele>1977</ele>
        <time>2014-02-23T12:39:22Z</time>
      </trkpt>
      <trkpt lat="44.88382" lon="5.52246">
        <ele>1978</ele>
        <time>2014-02-23T12:39:27Z</time>
      </trkpt>
      <trkpt lat="44.88385" lon="5.52245">
        <ele>1978</ele>
        <time>2014-02-23T12:39:32Z</time>
      </trkpt>
      <trkpt lat="44.88388" lon="5.52243">
        <ele>1979</ele>
        <time>2014-02-23T12:39:37Z</time>
      </trkpt>
      <trkpt lat="44.8839" lon="5.52244">
        <ele>1980</ele>
        <time>2014-02-23T12:39:42Z</time>
      </trkpt>
      <trkpt lat="44.8839" lon="5.52247">
        <ele>1981</ele>
        <time>2014-02-23T12:39:47Z</time>
      </trkpt>
      <trkpt lat="44.8839" lon="5.52251">
        <ele>1982</ele>
        <time>2014-02-23T12:39:52Z</time>
      </trkpt>
      <trkpt lat="44.88391" lon="5.52254">
        <ele>1983</ele>
        <time>2014-02-23T12:39:57Z</time>
      </trkpt>
      <trkpt lat="44.88392" lon="5.52254">
        <ele>1984</ele>
        <time>2014-02-23T12:40:02Z</time>
      </trkpt>
      <trkpt lat="44.88395" lon="5.52253">
        <ele>1984</ele>
        <time>2014-02-23T12:40:07Z</time>
      </trkpt>
      <trkpt lat="44.88397" lon="5.52251">
        <ele>1985</ele>
        <time>2014-02-23T12:40:12Z</time>
      </trkpt>
      <trkpt lat="44.88399" lon="5.5225">
        <ele>1986</ele>
        <time>2014-02-23T12:40:17Z</time>
      </trkpt>
      <trkpt lat="44.88401" lon="5.52249">
        <ele>1987</ele>
        <time>2014-02-23T12:40:22Z</time>
      </trkpt>
      <trkpt lat="44.88404" lon="5.52248">
        <ele>1987</ele>
        <time>2014-02-23T12:40:27Z</time>
      </trkpt>
      <trkpt lat="44.88406" lon="5.52247">
        <ele>1988</ele>
        <time>2014-02-23T12:40:32Z</time>
      </trkpt>
      <trkpt lat="44.88408" lon="5.52246">
        <ele>1989</ele>
        <time>2014-02-23T12:40:37Z</time>
      </trkpt>
      <trkpt lat="44.8841" lon="5.52245">
        <ele>1989</ele>
        <time>2014-02-23T12:40:42Z</time>
      </trkpt>
      <trkpt lat="44.88413" lon="5.52243">
        <ele>1990</ele>
        <time>2014-02-23T12:40:47Z</time>
      </trkpt>
      <trkpt lat="44.88415" lon="5.52242">
        <ele>1990</ele>
        <time>2014-02-23T12:40:52Z</time>
      </trkpt>
      <trkpt lat="44.88418" lon="5.5224">
        <ele>1991</ele>
        <time>2014-02-23T12:40:57Z</time>
      </trkpt>
      <trkpt lat="44.8842" lon="5.52239">
        <ele>1992</ele>
        <time>2014-02-23T12:41:02Z</time>
      </trkpt>
      <trkpt lat="44.88422" lon="5.52238">
        <ele>1992</ele>
        <time>2014-02-23T12:41:07Z</time>
      </trkpt>
      <trkpt lat="44.88425" lon="5.52237">
        <ele>1993</ele>
        <time>2014-02-23T12:41:12Z</time>
      </trkpt>
      <trkpt lat="44.88427" lon="5.52236">
        <ele>1994</ele>
        <time>2014-02-23T12:41:17Z</time>
      </trkpt>
      <trkpt lat="44.8843" lon="5.52235">
        <ele>1995</ele>
        <time>2014-02-23T12:41:22Z</time>
      </trkpt>
      <trkpt lat="44.88432" lon="5.52234">
        <ele>1995</ele>
        <time>2014-02-23T12:41:27Z</time>
      </trkpt>
      <trkpt lat="44.88434" lon="5.52234">
        <ele>1996</ele>
        <time>2014-02-23T12:41:32Z</time>
      </trkpt>
      <trkpt lat="44.88437" lon="5.52233">
        <ele>1997</ele>
        <time>2014-02-23T12:41:37Z</time>
      </trkpt>
      <trkpt lat="44.88439" lon="5.52232">
        <ele>1997</ele>
        <time>2014-02-23T12:41:42Z</time>
      </trkpt>
      <trkpt lat="44.88441" lon="5.52231">
        <ele>1998</ele>
        <time>2014-02-23T12:41:47Z</time>
      </trkpt>
      <trkpt lat="44.88443" lon="5.5223">
        <ele>1998</ele>
        <time>2014-02-23T12:41:52Z</time>
      </trkpt>
      <trkpt lat="44.88445" lon="5.52231">
        <ele>1999</ele>
        <time>2014-02-23T12:41:57Z</time>
      </trkpt>
      <trkpt lat="44.88445" lon="5.52234">
        <ele>2000</ele>
        <time>2014-02-23T12:42:02Z</time>
      </trkpt>
      <trkpt lat="44.88445" lon="5.52237">
        <ele>2000</ele>
        <time>2014-02-23T12:42:07Z</time>
      </trkpt>
      <trkpt lat="44.88445" lon="5.52241">
        <ele>2001</ele>
        <time>2014-02-23T12:42:12Z</time>
      </trkpt>
      <trkpt lat="44.88446" lon="5.52245">
        <ele>2002</ele>
        <time>2014-02-23T12:42:17Z</time>
      </trkpt>
      <trkpt lat="44.88446" lon="5.52249">
        <ele>2003</ele>
        <time>2014-02-23T12:42:22Z</time>
      </trkpt>
      <trkpt lat="44.88446" lon="5.52252">
        <ele>2003</ele>
        <time>2014-02-23T12:42:27Z</time>
      </trkpt>
      <trkpt lat="44.88446" lon="5.52256">
        <ele>2004</ele>
        <time>2014-02-23T12:42:32Z</time>
      </trkpt>
      <trkpt lat="44.88446" lon="5.52259">
        <ele>2004</ele>
        <time>2014-02-23T12:42:37Z</time>
      </trkpt>
      <trkpt lat="44.88446" lon="5.52264">
        <ele>2005</ele>
        <time>2014-02-23T12:42:42Z</time>
      </trkpt>
      <trkpt lat="44.88446" lon="5.52267">
        <ele>2006</ele>
        <time>2014-02-23T12:42:47Z</time>
      </trkpt>
      <trkpt lat="44.88446" lon="5.52267">
        <ele>2006</ele>
        <time>2014-02-23T12:42:52Z</time>
      </trkpt>
      <trkpt lat="44.88446" lon="5.52271">
        <ele>2007</ele>
        <time>2014-02-23T12:42:57Z</time>
      </trkpt>
      <trkpt lat="44.88446" lon="5.52271">
        <ele>2007</ele>
        <time>2014-02-23T12:43:02Z</time>
      </trkpt>
      <trkpt lat="44.88446" lon="5.52271">
        <ele>2008</ele>
        <time>2014-02-23T12:43:07Z</time>
      </trkpt>
      <trkpt lat="44.88446" lon="5.52271">
        <ele>2008</ele>
        <time>2014-02-23T12:43:12Z</time>
      </trkpt>
      <trkpt lat="44.88446" lon="5.5227">
        <ele>2008</ele>
        <time>2014-02-23T12:43:17Z</time>
      </trkpt>
      <trkpt lat="44.88446" lon="5.5227">
        <ele>2009</ele>
        <time>2014-02-23T12:43:22Z</time>
      </trkpt>
      <trkpt lat="44.88446" lon="5.52274">
        <ele>2009</ele>
        <time>2014-02-23T12:43:27Z</time>
      </trkpt>
      <trkpt lat="44.88446" lon="5.52279">
        <ele>2010</ele>
        <time>2014-02-23T12:43:32Z</time>
      </trkpt>
      <trkpt lat="44.88446" lon="5.52283">
        <ele>2011</ele>
        <time>2014-02-23T12:43:37Z</time>
      </trkpt>
      <trkpt lat="44.88448" lon="5.52282">
        <ele>2012</ele>
        <time>2014-02-23T12:43:42Z</time>
      </trkpt>
      <trkpt lat="44.88451" lon="5.5228">
        <ele>2013</ele>
        <time>2014-02-23T12:43:47Z</time>
      </trkpt>
      <trkpt lat="44.88453" lon="5.52277">
        <ele>2014</ele>
        <time>2014-02-23T12:43:52Z</time>
      </trkpt>
      <trkpt lat="44.88456" lon="5.52275">
        <ele>2015</ele>
        <time>2014-02-23T12:43:57Z</time>
      </trkpt>
      <trkpt lat="44.88459" lon="5.52272">
        <ele>2015</ele>
        <time>2014-02-23T12:44:02Z</time>
      </trkpt>
      <trkpt lat="44.88462" lon="5.52269">
        <ele>2016</ele>
        <time>2014-02-23T12:44:07Z</time>
      </trkpt>
      <trkpt lat="44.88464" lon="5.52267">
        <ele>2017</ele>
        <time>2014-02-23T12:44:12Z</time>
      </trkpt>
      <trkpt lat="44.88467" lon="5.52264">
        <ele>2018</ele>
        <time>2014-02-23T12:44:17Z</time>
      </trkpt>
      <trkpt lat="44.88469" lon="5.52261">
        <ele>2018</ele>
        <time>2014-02-23T12:44:22Z</time>
      </trkpt>
      <trkpt lat="44.88472" lon="5.52258">
        <ele>2019</ele>
        <time>2014-02-23T12:44:27Z</time>
      </trkpt>
      <trkpt lat="44.88474" lon="5.52255">
        <ele>2020</ele>
        <time>2014-02-23T12:44:32Z</time>
      </trkpt>
      <trkpt lat="44.88476" lon="5.52252">
        <ele>2020</ele>
        <time>2014-02-23T12:44:37Z</time>
      </trkpt>
      <trkpt lat="44.88478" lon="5.52249">
        <ele>2021</ele>
        <time>2014-02-23T12:44:42Z</time>
      </trkpt>
      <trkpt lat="44.8848" lon="5.52246">
        <ele>2022</ele>
        <time>2014-02-23T12:44:47Z</time>
      </trkpt>
      <trkpt lat="44.88482" lon="5.52243">
        <ele>2022</ele>
        <time>2014-02-23T12:44:52Z</time>
      </trkpt>
      <trkpt lat="44.88483" lon="5.52239">
        <ele>2023</ele>
        <time>2014-02-23T12:44:57Z</time>
      </trkpt>
      <trkpt lat="44.88485" lon="5.52235">
        <ele>2024</ele>
        <time>2014-02-23T12:45:02Z</time>
      </trkpt>
      <trkpt lat="44.88487" lon="5.52232">
        <ele>2024</ele>
        <time>2014-02-23T12:45:07Z</time>
      </trkpt>
      <trkpt lat="44.88488" lon="5.52235">
        <ele>2025</ele>
        <time>2014-02-23T12:45:12Z</time>
      </trkpt>
      <trkpt lat="44.88488" lon="5.52238">
        <ele>2026</ele>
        <time>2014-02-23T12:45:17Z</time>
      </trkpt>
      <trkpt lat="44.88488" lon="5.52242">
        <ele>2026</ele>
        <time>2014-02-23T12:45:22Z</time>
      </trkpt>
      <trkpt lat="44.88489" lon="5.52246">
        <ele>2027</ele>
        <time>2014-02-23T12:45:27Z</time>
      </trkpt>
      <trkpt lat="44.88489" lon="5.5225">
        <ele>2028</ele>
        <time>2014-02-23T12:45:32Z</time>
      </trkpt>
      <trkpt lat="44.88489" lon="5.52254">
        <ele>2028</ele>
        <time>2014-02-23T12:45:37Z</time>
      </trkpt>
      <trkpt lat="44.88489" lon="5.52258">
        <ele>2029</ele>
        <time>2014-02-23T12:45:42Z</time>
      </trkpt>
      <trkpt lat="44.8849" lon="5.52263">
        <ele>2029</ele>
        <time>2014-02-23T12:45:47Z</time>
      </trkpt>
      <trkpt lat="44.8849" lon="5.52267">
        <ele>2030</ele>
        <time>2014-02-23T12:45:52Z</time>
      </trkpt>
      <trkpt lat="44.8849" lon="5.52271">
        <ele>2031</ele>
        <time>2014-02-23T12:45:57Z</time>
      </trkpt>
      <trkpt lat="44.8849" lon="5.52276">
        <ele>2032</ele>
        <time>2014-02-23T12:46:02Z</time>
      </trkpt>
      <trkpt lat="44.8849" lon="5.5228">
        <ele>2032</ele>
        <time>2014-02-23T12:46:07Z</time>
      </trkpt>
      <trkpt lat="44.8849" lon="5.52284">
        <ele>2033</ele>
        <time>2014-02-23T12:46:12Z</time>
      </trkpt>
      <trkpt lat="44.88491" lon="5.52288">
        <ele>2034</ele>
        <time>2014-02-23T12:46:17Z</time>
      </trkpt>
      <trkpt lat="44.88491" lon="5.52292">
        <ele>2035</ele>
        <time>2014-02-23T12:46:22Z</time>
      </trkpt>
      <trkpt lat="44.88491" lon="5.52296">
        <ele>2036</ele>
        <time>2014-02-23T12:46:27Z</time>
      </trkpt>
      <trkpt lat="44.88491" lon="5.52299">
        <ele>2037</ele>
        <time>2014-02-23T12:46:32Z</time>
      </trkpt>
      <trkpt lat="44.88491" lon="5.52303">
        <ele>2037</ele>
        <time>2014-02-23T12:46:37Z</time>
      </trkpt>
      <trkpt lat="44.88491" lon="5.52307">
        <ele>2038</ele>
        <time>2014-02-23T12:46:42Z</time>
      </trkpt>
      <trkpt lat="44.8849" lon="5.5231">
        <ele>2039</ele>
        <time>2014-02-23T12:46:47Z</time>
      </trkpt>
      <trkpt lat="44.8849" lon="5.5231">
        <ele>2039</ele>
        <time>2014-02-23T12:46:52Z</time>
      </trkpt>
      <trkpt lat="44.88491" lon="5.52309">
        <ele>2039</ele>
        <time>2014-02-23T12:46:57Z</time>
      </trkpt>
      <trkpt lat="44.88491" lon="5.52309">
        <ele>2040</ele>
        <time>2014-02-23T12:47:02Z</time>
      </trkpt>
      <trkpt lat="44.88491" lon="5.52309">
        <ele>2040</ele>
        <time>2014-02-23T12:47:07Z</time>
      </trkpt>
      <trkpt lat="44.8849" lon="5.52311">
        <ele>2040</ele>
        <time>2014-02-23T12:47:12Z</time>
      </trkpt>
      <trkpt lat="44.88492" lon="5.5231">
        <ele>2041</ele>
        <time>2014-02-23T12:47:17Z</time>
      </trkpt>
      <trkpt lat="44.88495" lon="5.52307">
        <ele>2042</ele>
        <time>2014-02-23T12:47:22Z</time>
      </trkpt>
      <trkpt lat="44.88496" lon="5.52305">
        <ele>2043</ele>
        <time>2014-02-23T12:47:27Z</time>
      </trkpt>
      <trkpt lat="44.88498" lon="5.52304">
        <ele>2043</ele>
        <time>2014-02-23T12:47:32Z</time>
      </trkpt>
      <trkpt lat="44.88499" lon="5.52301">
        <ele>2044</ele>
        <time>2014-02-23T12:47:37Z</time>
      </trkpt>
      <trkpt lat="44.88501" lon="5.52299">
        <ele>2045</ele>
        <time>2014-02-23T12:47:42Z</time>
      </trkpt>
      <trkpt lat="44.88503" lon="5.52296">
        <ele>2045</ele>
        <time>2014-02-23T12:47:47Z</time>
      </trkpt>
      <trkpt lat="44.88505" lon="5.52293">
        <ele>2046</ele>
        <time>2014-02-23T12:47:52Z</time>
      </trkpt>
      <trkpt lat="44.88507" lon="5.52291">
        <ele>2046</ele>
        <time>2014-02-23T12:47:57Z</time>
      </trkpt>
      <trkpt lat="44.88508" lon="5.52288">
        <ele>2047</ele>
        <time>2014-02-23T12:48:02Z</time>
      </trkpt>
      <trkpt lat="44.88511" lon="5.52285">
        <ele>2048</ele>
        <time>2014-02-23T12:48:07Z</time>
      </trkpt>
      <trkpt lat="44.88513" lon="5.52283">
        <ele>2048</ele>
        <time>2014-02-23T12:48:12Z</time>
      </trkpt>
      <trkpt lat="44.88515" lon="5.5228">
        <ele>2049</ele>
        <time>2014-02-23T12:48:17Z</time>
      </trkpt>
      <trkpt lat="44.88516" lon="5.52277">
        <ele>2050</ele>
        <time>2014-02-23T12:48:22Z</time>
      </trkpt>
      <trkpt lat="44.88518" lon="5.52274">
        <ele>2050</ele>
        <time>2014-02-23T12:48:27Z</time>
      </trkpt>
      <trkpt lat="44.88519" lon="5.52273">
        <ele>2051</ele>
        <time>2014-02-23T12:48:32Z</time>
      </trkpt>
      <trkpt lat="44.88519" lon="5.52273">
        <ele>2051</ele>
        <time>2014-02-23T12:48:37Z</time>
      </trkpt>
      <trkpt lat="44.88519" lon="5.52275">
        <ele>2052</ele>
        <time>2014-02-23T12:48:42Z</time>
      </trkpt>
      <trkpt lat="44.8852" lon="5.52279">
        <ele>2052</ele>
        <time>2014-02-23T12:48:47Z</time>
      </trkpt>
      <trkpt lat="44.88521" lon="5.52283">
        <ele>2053</ele>
        <time>2014-02-23T12:48:52Z</time>
      </trkpt>
      <trkpt lat="44.88521" lon="5.52287">
        <ele>2053</ele>
        <time>2014-02-23T12:48:57Z</time>
      </trkpt>
      <trkpt lat="44.88521" lon="5.5229">
        <ele>2054</ele>
        <time>2014-02-23T12:49:02Z</time>
      </trkpt>
      <trkpt lat="44.88522" lon="5.52294">
        <ele>2055</ele>
        <time>2014-02-23T12:49:07Z</time>
      </trkpt>
      <trkpt lat="44.88522" lon="5.52298">
        <ele>2055</ele>
        <time>2014-02-23T12:49:12Z</time>
      </trkpt>
      <trkpt lat="44.88522" lon="5.52302">
        <ele>2056</ele>
        <time>2014-02-23T12:49:17Z</time>
      </trkpt>
      <trkpt lat="44.88523" lon="5.52305">
        <ele>2057</ele>
        <time>2014-02-23T12:49:22Z</time>
      </trkpt>
      <trkpt lat="44.88523" lon="5.52309">
        <ele>2057</ele>
        <time>2014-02-23T12:49:27Z</time>
      </trkpt>
      <trkpt lat="44.88524" lon="5.52313">
        <ele>2058</ele>
        <time>2014-02-23T12:49:32Z</time>
      </trkpt>
      <trkpt lat="44.88524" lon="5.52316">
        <ele>2059</ele>
        <time>2014-02-23T12:49:37Z</time>
      </trkpt>
      <trkpt lat="44.88524" lon="5.52319">
        <ele>2060</ele>
        <time>2014-02-23T12:49:42Z</time>
      </trkpt>
      <trkpt lat="44.88524" lon="5.52323">
        <ele>2060</ele>
        <time>2014-02-23T12:49:47Z</time>
      </trkpt>
      <trkpt lat="44.88524" lon="5.52327">
        <ele>2061</ele>
        <time>2014-02-23T12:49:52Z</time>
      </trkpt>
      <trkpt lat="44.88524" lon="5.52331">
        <ele>2062</ele>
        <time>2014-02-23T12:49:57Z</time>
      </trkpt>
      <trkpt lat="44.88524" lon="5.52334">
        <ele>2063</ele>
        <time>2014-02-23T12:50:02Z</time>
      </trkpt>
      <trkpt lat="44.88524" lon="5.52338">
        <ele>2064</ele>
        <time>2014-02-23T12:50:07Z</time>
      </trkpt>
      <trkpt lat="44.88525" lon="5.52337">
        <ele>2064</ele>
        <time>2014-02-23T12:50:12Z</time>
      </trkpt>
      <trkpt lat="44.88525" lon="5.52337">
        <ele>2064</ele>
        <time>2014-02-23T12:50:17Z</time>
      </trkpt>
      <trkpt lat="44.88525" lon="5.52337">
        <ele>2064</ele>
        <time>2014-02-23T12:50:22Z</time>
      </trkpt>
      <trkpt lat="44.88525" lon="5.5234">
        <ele>2064</ele>
        <time>2014-02-23T12:50:27Z</time>
      </trkpt>
      <trkpt lat="44.88525" lon="5.52344">
        <ele>2065</ele>
        <time>2014-02-23T12:50:32Z</time>
      </trkpt>
      <trkpt lat="44.88525" lon="5.52347">
        <ele>2066</ele>
        <time>2014-02-23T12:50:37Z</time>
      </trkpt>
      <trkpt lat="44.88526" lon="5.52347">
        <ele>2066</ele>
        <time>2014-02-23T12:50:42Z</time>
      </trkpt>
      <trkpt lat="44.88527" lon="5.52344">
        <ele>2066</ele>
        <time>2014-02-23T12:50:47Z</time>
      </trkpt>
      <trkpt lat="44.88529" lon="5.52341">
        <ele>2067</ele>
        <time>2014-02-23T12:50:52Z</time>
      </trkpt>
      <trkpt lat="44.88531" lon="5.52337">
        <ele>2068</ele>
        <time>2014-02-23T12:50:57Z</time>
      </trkpt>
      <trkpt lat="44.88533" lon="5.52334">
        <ele>2068</ele>
        <time>2014-02-23T12:51:02Z</time>
      </trkpt>
      <trkpt lat="44.88535" lon="5.5233">
        <ele>2069</ele>
        <time>2014-02-23T12:51:07Z</time>
      </trkpt>
      <trkpt lat="44.88537" lon="5.52327">
        <ele>2070</ele>
        <time>2014-02-23T12:51:12Z</time>
      </trkpt>
      <trkpt lat="44.88539" lon="5.52324">
        <ele>2071</ele>
        <time>2014-02-23T12:51:17Z</time>
      </trkpt>
      <trkpt lat="44.88541" lon="5.5232">
        <ele>2071</ele>
        <time>2014-02-23T12:51:22Z</time>
      </trkpt>
      <trkpt lat="44.88542" lon="5.52316">
        <ele>2072</ele>
        <time>2014-02-23T12:51:27Z</time>
      </trkpt>
      <trkpt lat="44.88544" lon="5.52313">
        <ele>2073</ele>
        <time>2014-02-23T12:51:32Z</time>
      </trkpt>
      <trkpt lat="44.88545" lon="5.52309">
        <ele>2074</ele>
        <time>2014-02-23T12:51:37Z</time>
      </trkpt>
      <trkpt lat="44.88547" lon="5.52306">
        <ele>2074</ele>
        <time>2014-02-23T12:51:42Z</time>
      </trkpt>
      <trkpt lat="44.88548" lon="5.52303">
        <ele>2075</ele>
        <time>2014-02-23T12:51:47Z</time>
      </trkpt>
      <trkpt lat="44.88551" lon="5.523">
        <ele>2076</ele>
        <time>2014-02-23T12:51:52Z</time>
      </trkpt>
      <trkpt lat="44.88553" lon="5.52298">
        <ele>2077</ele>
        <time>2014-02-23T12:51:57Z</time>
      </trkpt>
      <trkpt lat="44.88556" lon="5.52297">
        <ele>2078</ele>
        <time>2014-02-23T12:52:02Z</time>
      </trkpt>
      <trkpt lat="44.88556" lon="5.52299">
        <ele>2078</ele>
        <time>2014-02-23T12:52:07Z</time>
      </trkpt>
      <trkpt lat="44.88556" lon="5.52302">
        <ele>2079</ele>
        <time>2014-02-23T12:52:12Z</time>
      </trkpt>
      <trkpt lat="44.88556" lon="5.52306">
        <ele>2079</ele>
        <time>2014-02-23T12:52:17Z</time>
      </trkpt>
      <trkpt lat="44.88556" lon="5.52309">
        <ele>2080</ele>
        <time>2014-02-23T12:52:22Z</time>
      </trkpt>
      <trkpt lat="44.88558" lon="5.52312">
        <ele>2081</ele>
        <time>2014-02-23T12:52:27Z</time>
      </trkpt>
      <trkpt lat="44.88561" lon="5.52312">
        <ele>2082</ele>
        <time>2014-02-23T12:52:32Z</time>
      </trkpt>
      <trkpt lat="44.88564" lon="5.52312">
        <ele>2083</ele>
        <time>2014-02-23T12:52:37Z</time>
      </trkpt>
      <trkpt lat="44.88566" lon="5.52314">
        <ele>2084</ele>
        <time>2014-02-23T12:52:42Z</time>
      </trkpt>
      <trkpt lat="44.88567" lon="5.52317">
        <ele>2084</ele>
        <time>2014-02-23T12:52:47Z</time>
      </trkpt>
      <trkpt lat="44.88567" lon="5.5232">
        <ele>2085</ele>
        <time>2014-02-23T12:52:52Z</time>
      </trkpt>
      <trkpt lat="44.88566" lon="5.52323">
        <ele>2085</ele>
        <time>2014-02-23T12:52:57Z</time>
      </trkpt>
      <trkpt lat="44.88563" lon="5.52327">
        <ele>2085</ele>
        <time>2014-02-23T12:53:02Z</time>
      </trkpt>
      <trkpt lat="44.88563" lon="5.52332">
        <ele>2086</ele>
        <time>2014-02-23T12:53:07Z</time>
      </trkpt>
      <trkpt lat="44.88562" lon="5.52336">
        <ele>2086</ele>
        <time>2014-02-23T12:53:12Z</time>
      </trkpt>
      <trkpt lat="44.88562" lon="5.52336">
        <ele>2086</ele>
        <time>2014-02-23T12:53:17Z</time>
      </trkpt>
      <trkpt lat="44.88562" lon="5.52336">
        <ele>2087</ele>
        <time>2014-02-23T12:53:22Z</time>
      </trkpt>
      <trkpt lat="44.88562" lon="5.52336">
        <ele>2087</ele>
        <time>2014-02-23T12:53:27Z</time>
      </trkpt>
      <trkpt lat="44.88564" lon="5.52333">
        <ele>2090</ele>
        <time>2014-02-23T13:02:17Z</time>
      </trkpt>
      <trkpt lat="44.88563" lon="5.52333">
        <ele>2090</ele>
        <time>2014-02-23T13:02:22Z</time>
      </trkpt>
      <trkpt lat="44.88563" lon="5.52334">
        <ele>2090</ele>
        <time>2014-02-23T13:02:27Z</time>
      </trkpt>
      <trkpt lat="44.88562" lon="5.52334">
        <ele>2090</ele>
        <time>2014-02-23T13:02:32Z</time>
      </trkpt>
      <trkpt lat="44.88562" lon="5.52335">
        <ele>2090</ele>
        <time>2014-02-23T13:02:37Z</time>
      </trkpt>
      <trkpt lat="44.88562" lon="5.52335">
        <ele>2091</ele>
        <time>2014-02-23T13:02:42Z</time>
      </trkpt>
      <trkpt lat="44.88558" lon="5.5233">
        <ele>2088</ele>
        <time>2014-02-23T13:02:47Z</time>
      </trkpt>
      <trkpt lat="44.88548" lon="5.52318">
        <ele>2079</ele>
        <time>2014-02-23T13:02:52Z</time>
      </trkpt>
      <trkpt lat="44.88535" lon="5.52304">
        <ele>2069</ele>
        <time>2014-02-23T13:02:57Z</time>
      </trkpt>
      <trkpt lat="44.88524" lon="5.52289">
        <ele>2060</ele>
        <time>2014-02-23T13:03:02Z</time>
      </trkpt>
      <trkpt lat="44.88504" lon="5.52283">
        <ele>2048</ele>
        <time>2014-02-23T13:03:07Z</time>
      </trkpt>
      <trkpt lat="44.88486" lon="5.52267">
        <ele>2035</ele>
        <time>2014-02-23T13:03:12Z</time>
      </trkpt>
      <trkpt lat="44.88467" lon="5.52261">
        <ele>2024</ele>
        <time>2014-02-23T13:03:17Z</time>
      </trkpt>
      <trkpt lat="44.88447" lon="5.52251">
        <ele>2012</ele>
        <time>2014-02-23T13:03:22Z</time>
      </trkpt>
      <trkpt lat="44.88429" lon="5.52252">
        <ele>2004</ele>
        <time>2014-02-23T13:03:27Z</time>
      </trkpt>
      <trkpt lat="44.88409" lon="5.52237">
        <ele>1993</ele>
        <time>2014-02-23T13:03:32Z</time>
      </trkpt>
      <trkpt lat="44.8839" lon="5.52218">
        <ele>1980</ele>
        <time>2014-02-23T13:03:37Z</time>
      </trkpt>
      <trkpt lat="44.88372" lon="5.52229">
        <ele>1973</ele>
        <time>2014-02-23T13:03:42Z</time>
      </trkpt>
      <trkpt lat="44.88371" lon="5.52233">
        <ele>1973</ele>
        <time>2014-02-23T13:03:47Z</time>
      </trkpt>
      <trkpt lat="44.88365" lon="5.52229">
        <ele>1971</ele>
        <time>2014-02-23T13:03:52Z</time>
      </trkpt>
      <trkpt lat="44.88346" lon="5.52219">
        <ele>1966</ele>
        <time>2014-02-23T13:03:57Z</time>
      </trkpt>
      <trkpt lat="44.88326" lon="5.52222">
        <ele>1959</ele>
        <time>2014-02-23T13:04:02Z</time>
      </trkpt>
      <trkpt lat="44.88307" lon="5.52247">
        <ele>1955</ele>
        <time>2014-02-23T13:04:07Z</time>
      </trkpt>
      <trkpt lat="44.88302" lon="5.52254">
        <ele>1955</ele>
        <time>2014-02-23T13:04:12Z</time>
      </trkpt>
      <trkpt lat="44.88301" lon="5.52255">
        <ele>1955</ele>
        <time>2014-02-23T13:04:17Z</time>
      </trkpt>
      <trkpt lat="44.88301" lon="5.52255">
        <ele>1955</ele>
        <time>2014-02-23T13:04:22Z</time>
      </trkpt>
      <trkpt lat="44.88301" lon="5.52255">
        <ele>1954</ele>
        <time>2014-02-23T13:04:27Z</time>
      </trkpt>
      <trkpt lat="44.88301" lon="5.52255">
        <ele>1954</ele>
        <time>2014-02-23T13:04:32Z</time>
      </trkpt>
      <trkpt lat="44.88302" lon="5.52255">
        <ele>1954</ele>
        <time>2014-02-23T13:04:37Z</time>
      </trkpt>
      <trkpt lat="44.88302" lon="5.52255">
        <ele>1954</ele>
        <time>2014-02-23T13:04:42Z</time>
      </trkpt>
      <trkpt lat="44.88302" lon="5.52255">
        <ele>1955</ele>
        <time>2014-02-23T13:04:47Z</time>
      </trkpt>
      <trkpt lat="44.88302" lon="5.52256">
        <ele>1955</ele>
        <time>2014-02-23T13:04:52Z</time>
      </trkpt>
      <trkpt lat="44.88302" lon="5.52256">
        <ele>1955</ele>
        <time>2014-02-23T13:04:57Z</time>
      </trkpt>
      <trkpt lat="44.88302" lon="5.52256">
        <ele>1956</ele>
        <time>2014-02-23T13:05:02Z</time>
      </trkpt>
      <trkpt lat="44.88302" lon="5.52257">
        <ele>1956</ele>
        <time>2014-02-23T13:05:07Z</time>
      </trkpt>
      <trkpt lat="44.88302" lon="5.52257">
        <ele>1956</ele>
        <time>2014-02-23T13:05:12Z</time>
      </trkpt>
      <trkpt lat="44.88302" lon="5.52257">
        <ele>1956</ele>
        <time>2014-02-23T13:05:17Z</time>
      </trkpt>
      <trkpt lat="44.88302" lon="5.52256">
        <ele>1957</ele>
        <time>2014-02-23T13:05:22Z</time>
      </trkpt>
      <trkpt lat="44.88304" lon="5.52258">
        <ele>1956</ele>
        <time>2014-02-23T13:05:27Z</time>
      </trkpt>
      <trkpt lat="44.88305" lon="5.52267">
        <ele>1952</ele>
        <time>2014-02-23T13:05:32Z</time>
      </trkpt>
      <trkpt lat="44.88304" lon="5.52278">
        <ele>1947</ele>
        <time>2014-02-23T13:05:37Z</time>
      </trkpt>
      <trkpt lat="44.88316" lon="5.52285">
        <ele>1943</ele>
        <time>2014-02-23T13:05:42Z</time>
      </trkpt>
      <trkpt lat="44.88321" lon="5.52285">
        <ele>1941</ele>
        <time>2014-02-23T13:05:47Z</time>
      </trkpt>
      <trkpt lat="44.88324" lon="5.52286">
        <ele>1939</ele>
        <time>2014-02-23T13:05:52Z</time>
      </trkpt>
      <trkpt lat="44.88331" lon="5.52292">
        <ele>1937</ele>
        <time>2014-02-23T13:05:57Z</time>
      </trkpt>
      <trkpt lat="44.88331" lon="5.52309">
        <ele>1933</ele>
        <time>2014-02-23T13:06:02Z</time>
      </trkpt>
      <trkpt lat="44.88334" lon="5.52322">
        <ele>1928</ele>
        <time>2014-02-23T13:06:07Z</time>
      </trkpt>
      <trkpt lat="44.88329" lon="5.52347">
        <ele>1919</ele>
        <time>2014-02-23T13:06:12Z</time>
      </trkpt>
      <trkpt lat="44.88341" lon="5.52362">
        <ele>1907</ele>
        <time>2014-02-23T13:06:17Z</time>
      </trkpt>
      <trkpt lat="44.88334" lon="5.52372">
        <ele>1896</ele>
        <time>2014-02-23T13:06:22Z</time>
      </trkpt>
      <trkpt lat="44.88325" lon="5.5238">
        <ele>1885</ele>
        <time>2014-02-23T13:06:27Z</time>
      </trkpt>
      <trkpt lat="44.88312" lon="5.52395">
        <ele>1875</ele>
        <time>2014-02-23T13:06:32Z</time>
      </trkpt>
      <trkpt lat="44.88302" lon="5.52407">
        <ele>1867</ele>
        <time>2014-02-23T13:06:37Z</time>
      </trkpt>
      <trkpt lat="44.88282" lon="5.52409">
        <ele>1862</ele>
        <time>2014-02-23T13:06:42Z</time>
      </trkpt>
      <trkpt lat="44.88277" lon="5.52432">
        <ele>1853</ele>
        <time>2014-02-23T13:06:47Z</time>
      </trkpt>
      <trkpt lat="44.8828" lon="5.5245">
        <ele>1843</ele>
        <time>2014-02-23T13:06:52Z</time>
      </trkpt>
      <trkpt lat="44.8828" lon="5.5245">
        <ele>1842</ele>
        <time>2014-02-23T13:06:57Z</time>
      </trkpt>
      <trkpt lat="44.8828" lon="5.5245">
        <ele>1842</ele>
        <time>2014-02-23T13:07:02Z</time>
      </trkpt>
      <trkpt lat="44.8828" lon="5.5245">
        <ele>1841</ele>
        <time>2014-02-23T13:07:07Z</time>
      </trkpt>
      <trkpt lat="44.8828" lon="5.52449">
        <ele>1841</ele>
        <time>2014-02-23T13:07:12Z</time>
      </trkpt>
      <trkpt lat="44.8828" lon="5.52449">
        <ele>1841</ele>
        <time>2014-02-23T13:07:17Z</time>
      </trkpt>
      <trkpt lat="44.88273" lon="5.52459">
        <ele>1837</ele>
        <time>2014-02-23T13:07:22Z</time>
      </trkpt>
      <trkpt lat="44.88273" lon="5.52487">
        <ele>1828</ele>
        <time>2014-02-23T13:07:27Z</time>
      </trkpt>
      <trkpt lat="44.88267" lon="5.52515">
        <ele>1814</ele>
        <time>2014-02-23T13:07:32Z</time>
      </trkpt>
      <trkpt lat="44.88276" lon="5.5255">
        <ele>1798</ele>
        <time>2014-02-23T13:07:37Z</time>
      </trkpt>
      <trkpt lat="44.88286" lon="5.52582">
        <ele>1784</ele>
        <time>2014-02-23T13:07:42Z</time>
      </trkpt>
      <trkpt lat="44.88295" lon="5.52604">
        <ele>1774</ele>
        <time>2014-02-23T13:07:47Z</time>
      </trkpt>
      <trkpt lat="44.88294" lon="5.52606">
        <ele>1770</ele>
        <time>2014-02-23T13:07:52Z</time>
      </trkpt>
      <trkpt lat="44.88294" lon="5.52605">
        <ele>1771</ele>
        <time>2014-02-23T13:07:57Z</time>
      </trkpt>
      <trkpt lat="44.88294" lon="5.52605">
        <ele>1772</ele>
        <time>2014-02-23T13:08:02Z</time>
      </trkpt>
      <trkpt lat="44.88293" lon="5.52605">
        <ele>1772</ele>
        <time>2014-02-23T13:08:07Z</time>
      </trkpt>
      <trkpt lat="44.88293" lon="5.52604">
        <ele>1772</ele>
        <time>2014-02-23T13:08:12Z</time>
      </trkpt>
      <trkpt lat="44.88294" lon="5.52604">
        <ele>1773</ele>
        <time>2014-02-23T13:08:17Z</time>
      </trkpt>
      <trkpt lat="44.88294" lon="5.52603">
        <ele>1773</ele>
        <time>2014-02-23T13:08:22Z</time>
      </trkpt>
      <trkpt lat="44.88294" lon="5.52603">
        <ele>1774</ele>
        <time>2014-02-23T13:08:27Z</time>
      </trkpt>
      <trkpt lat="44.88294" lon="5.52603">
        <ele>1774</ele>
        <time>2014-02-23T13:08:32Z</time>
      </trkpt>
      <trkpt lat="44.88294" lon="5.52603">
        <ele>1774</ele>
        <time>2014-02-23T13:08:37Z</time>
      </trkpt>
      <trkpt lat="44.88294" lon="5.52603">
        <ele>1774</ele>
        <time>2014-02-23T13:08:42Z</time>
      </trkpt>
      <trkpt lat="44.88298" lon="5.52608">
        <ele>1772</ele>
        <time>2014-02-23T13:08:47Z</time>
      </trkpt>
      <trkpt lat="44.88301" lon="5.52644">
        <ele>1762</ele>
        <time>2014-02-23T13:08:52Z</time>
      </trkpt>
      <trkpt lat="44.88303" lon="5.52678">
        <ele>1755</ele>
        <time>2014-02-23T13:08:57Z</time>
      </trkpt>
      <trkpt lat="44.88305" lon="5.52701">
        <ele>1747</ele>
        <time>2014-02-23T13:09:02Z</time>
      </trkpt>
      <trkpt lat="44.88301" lon="5.52731">
        <ele>1736</ele>
        <time>2014-02-23T13:09:07Z</time>
      </trkpt>
      <trkpt lat="44.88287" lon="5.52745">
        <ele>1733</ele>
        <time>2014-02-23T13:09:12Z</time>
      </trkpt>
      <trkpt lat="44.88282" lon="5.52745">
        <ele>1733</ele>
        <time>2014-02-23T13:09:17Z</time>
      </trkpt>
      <trkpt lat="44.88281" lon="5.52746">
        <ele>1734</ele>
        <time>2014-02-23T13:09:22Z</time>
      </trkpt>
      <trkpt lat="44.88281" lon="5.52745">
        <ele>1735</ele>
        <time>2014-02-23T13:09:27Z</time>
      </trkpt>
      <trkpt lat="44.88281" lon="5.52745">
        <ele>1736</ele>
        <time>2014-02-23T13:09:32Z</time>
      </trkpt>
      <trkpt lat="44.8828" lon="5.52745">
        <ele>1736</ele>
        <time>2014-02-23T13:09:37Z</time>
      </trkpt>
      <trkpt lat="44.88278" lon="5.52742">
        <ele>1736</ele>
        <time>2014-02-23T13:09:42Z</time>
      </trkpt>
      <trkpt lat="44.88277" lon="5.52741">
        <ele>1736</ele>
        <time>2014-02-23T13:09:47Z</time>
      </trkpt>
      <trkpt lat="44.88276" lon="5.52741">
        <ele>1735</ele>
        <time>2014-02-23T13:09:52Z</time>
      </trkpt>
      <trkpt lat="44.88276" lon="5.52741">
        <ele>1735</ele>
        <time>2014-02-23T13:09:57Z</time>
      </trkpt>
      <trkpt lat="44.88276" lon="5.52741">
        <ele>1734</ele>
        <time>2014-02-23T13:10:02Z</time>
      </trkpt>
      <trkpt lat="44.88276" lon="5.52741">
        <ele>1734</ele>
        <time>2014-02-23T13:10:07Z</time>
      </trkpt>
      <trkpt lat="44.88276" lon="5.52741">
        <ele>1734</ele>
        <time>2014-02-23T13:10:12Z</time>
      </trkpt>
      <trkpt lat="44.88272" lon="5.52752">
        <ele>1731</ele>
        <time>2014-02-23T13:10:17Z</time>
      </trkpt>
      <trkpt lat="44.88268" lon="5.52775">
        <ele>1725</ele>
        <time>2014-02-23T13:10:22Z</time>
      </trkpt>
      <trkpt lat="44.88269" lon="5.52777">
        <ele>1723</ele>
        <time>2014-02-23T13:10:27Z</time>
      </trkpt>
      <trkpt lat="44.8827" lon="5.52777">
        <ele>1722</ele>
        <time>2014-02-23T13:10:32Z</time>
      </trkpt>
      <trkpt lat="44.8827" lon="5.52777">
        <ele>1722</ele>
        <time>2014-02-23T13:10:37Z</time>
      </trkpt>
      <trkpt lat="44.8827" lon="5.52777">
        <ele>1722</ele>
        <time>2014-02-23T13:10:42Z</time>
      </trkpt>
      <trkpt lat="44.8827" lon="5.52777">
        <ele>1722</ele>
        <time>2014-02-23T13:10:47Z</time>
      </trkpt>
      <trkpt lat="44.8827" lon="5.52777">
        <ele>1722</ele>
        <time>2014-02-23T13:10:52Z</time>
      </trkpt>
      <trkpt lat="44.8827" lon="5.52778">
        <ele>1722</ele>
        <time>2014-02-23T13:10:57Z</time>
      </trkpt>
      <trkpt lat="44.88269" lon="5.52782">
        <ele>1721</ele>
        <time>2014-02-23T13:11:02Z</time>
      </trkpt>
      <trkpt lat="44.88282" lon="5.52823">
        <ele>1714</ele>
        <time>2014-02-23T13:11:07Z</time>
      </trkpt>
      <trkpt lat="44.88306" lon="5.52863">
        <ele>1711</ele>
        <time>2014-02-23T13:11:12Z</time>
      </trkpt>
      <trkpt lat="44.88327" lon="5.52889">
        <ele>1705</ele>
        <time>2014-02-23T13:11:17Z</time>
      </trkpt>
      <trkpt lat="44.88338" lon="5.52917">
        <ele>1700</ele>
        <time>2014-02-23T13:11:22Z</time>
      </trkpt>
      <trkpt lat="44.88352" lon="5.52938">
        <ele>1692</ele>
        <time>2014-02-23T13:11:27Z</time>
      </trkpt>
      <trkpt lat="44.88359" lon="5.52947">
        <ele>1685</ele>
        <time>2014-02-23T13:11:32Z</time>
      </trkpt>
      <trkpt lat="44.88347" lon="5.52969">
        <ele>1678</ele>
        <time>2014-02-23T13:11:37Z</time>
      </trkpt>
      <trkpt lat="44.88354" lon="5.53006">
        <ele>1667</ele>
        <time>2014-02-23T13:11:42Z</time>
      </trkpt>
      <trkpt lat="44.88352" lon="5.53045">
        <ele>1655</ele>
        <time>2014-02-23T13:11:47Z</time>
      </trkpt>
      <trkpt lat="44.88354" lon="5.53051">
        <ele>1650</ele>
        <time>2014-02-23T13:11:52Z</time>
      </trkpt>
      <trkpt lat="44.88353" lon="5.53051">
        <ele>1650</ele>
        <time>2014-02-23T13:11:57Z</time>
      </trkpt>
      <trkpt lat="44.88353" lon="5.5305">
        <ele>1650</ele>
        <time>2014-02-23T13:12:02Z</time>
      </trkpt>
      <trkpt lat="44.88354" lon="5.53051">
        <ele>1651</ele>
        <time>2014-02-23T13:12:07Z</time>
      </trkpt>
      <trkpt lat="44.88348" lon="5.53065">
        <ele>1649</ele>
        <time>2014-02-23T13:12:12Z</time>
      </trkpt>
      <trkpt lat="44.88344" lon="5.53099">
        <ele>1642</ele>
        <time>2014-02-23T13:12:17Z</time>
      </trkpt>
      <trkpt lat="44.88338" lon="5.53136">
        <ele>1635</ele>
        <time>2014-02-23T13:12:22Z</time>
      </trkpt>
      <trkpt lat="44.88339" lon="5.53152">
        <ele>1629</ele>
        <time>2014-02-23T13:12:27Z</time>
      </trkpt>
      <trkpt lat="44.88337" lon="5.53164">
        <ele>1622</ele>
        <time>2014-02-23T13:12:32Z</time>
      </trkpt>
      <trkpt lat="44.88353" lon="5.53185">
        <ele>1614</ele>
        <time>2014-02-23T13:12:37Z</time>
      </trkpt>
      <trkpt lat="44.88359" lon="5.53204">
        <ele>1605</ele>
        <time>2014-02-23T13:12:42Z</time>
      </trkpt>
      <trkpt lat="44.88359" lon="5.5322">
        <ele>1596</ele>
        <time>2014-02-23T13:12:47Z</time>
      </trkpt>
      <trkpt lat="44.88363" lon="5.53222">
        <ele>1593</ele>
        <time>2014-02-23T13:12:52Z</time>
      </trkpt>
      <trkpt lat="44.88381" lon="5.5323">
        <ele>1588</ele>
        <time>2014-02-23T13:12:57Z</time>
      </trkpt>
      <trkpt lat="44.8839" lon="5.53241">
        <ele>1584</ele>
        <time>2014-02-23T13:13:02Z</time>
      </trkpt>
      <trkpt lat="44.88408" lon="5.53253">
        <ele>1578</ele>
        <time>2014-02-23T13:13:07Z</time>
      </trkpt>
      <trkpt lat="44.88404" lon="5.53262">
        <ele>1574</ele>
        <time>2014-02-23T13:13:12Z</time>
      </trkpt>
      <trkpt lat="44.88406" lon="5.53272">
        <ele>1572</ele>
        <time>2014-02-23T13:13:17Z</time>
      </trkpt>
      <trkpt lat="44.88414" lon="5.53302">
        <ele>1567</ele>
        <time>2014-02-23T13:13:22Z</time>
      </trkpt>
      <trkpt lat="44.88418" lon="5.53317">
        <ele>1564</ele>
        <time>2014-02-23T13:13:27Z</time>
      </trkpt>
      <trkpt lat="44.88419" lon="5.53319">
        <ele>1563</ele>
        <time>2014-02-23T13:13:32Z</time>
      </trkpt>
      <trkpt lat="44.88422" lon="5.53327">
        <ele>1562</ele>
        <time>2014-02-23T13:13:37Z</time>
      </trkpt>
      <trkpt lat="44.8842" lon="5.53342">
        <ele>1557</ele>
        <time>2014-02-23T13:13:42Z</time>
      </trkpt>
      <trkpt lat="44.88416" lon="5.53352">
        <ele>1553</ele>
        <time>2014-02-23T13:13:47Z</time>
      </trkpt>
      <trkpt lat="44.88412" lon="5.53363">
        <ele>1549</ele>
        <time>2014-02-23T13:13:52Z</time>
      </trkpt>
      <trkpt lat="44.88418" lon="5.53373">
        <ele>1546</ele>
        <time>2014-02-23T13:13:57Z</time>
      </trkpt>
      <trkpt lat="44.88419" lon="5.53386">
        <ele>1539</ele>
        <time>2014-02-23T13:14:02Z</time>
      </trkpt>
      <trkpt lat="44.88421" lon="5.53396">
        <ele>1535</ele>
        <time>2014-02-23T13:14:07Z</time>
      </trkpt>
      <trkpt lat="44.88422" lon="5.53409">
        <ele>1531</ele>
        <time>2014-02-23T13:14:12Z</time>
      </trkpt>
      <trkpt lat="44.88431" lon="5.53432">
        <ele>1527</ele>
        <time>2014-02-23T13:14:17Z</time>
      </trkpt>
      <trkpt lat="44.8844" lon="5.53457">
        <ele>1521</ele>
        <time>2014-02-23T13:14:22Z</time>
      </trkpt>
      <trkpt lat="44.88446" lon="5.53483">
        <ele>1515</ele>
        <time>2014-02-23T13:14:27Z</time>
      </trkpt>
      <trkpt lat="44.88453" lon="5.53507">
        <ele>1511</ele>
        <time>2014-02-23T13:14:32Z</time>
      </trkpt>
      <trkpt lat="44.88453" lon="5.53509">
        <ele>1510</ele>
        <time>2014-02-23T13:14:37Z</time>
      </trkpt>
      <trkpt lat="44.88445" lon="5.53509">
        <ele>1508</ele>
        <time>2014-02-23T13:14:42Z</time>
      </trkpt>
      <trkpt lat="44.88442" lon="5.5351">
        <ele>1507</ele>
        <time>2014-02-23T13:14:47Z</time>
      </trkpt>
      <trkpt lat="44.88438" lon="5.53511">
        <ele>1506</ele>
        <time>2014-02-23T13:14:52Z</time>
      </trkpt>
      <trkpt lat="44.88438" lon="5.53512">
        <ele>1507</ele>
        <time>2014-02-23T13:14:57Z</time>
      </trkpt>
      <trkpt lat="44.88434" lon="5.53513">
        <ele>1506</ele>
        <time>2014-02-23T13:15:02Z</time>
      </trkpt>
      <trkpt lat="44.88436" lon="5.53536">
        <ele>1502</ele>
        <time>2014-02-23T13:15:07Z</time>
      </trkpt>
      <trkpt lat="44.8844" lon="5.53565">
        <ele>1498</ele>
        <time>2014-02-23T13:15:12Z</time>
      </trkpt>
      <trkpt lat="44.88442" lon="5.5357">
        <ele>1496</ele>
        <time>2014-02-23T13:15:17Z</time>
      </trkpt>
      <trkpt lat="44.88443" lon="5.5358">
        <ele>1493</ele>
        <time>2014-02-23T13:15:22Z</time>
      </trkpt>
      <trkpt lat="44.88438" lon="5.53588">
        <ele>1491</ele>
        <time>2014-02-23T13:15:27Z</time>
      </trkpt>
      <trkpt lat="44.88423" lon="5.53579">
        <ele>1487</ele>
        <time>2014-02-23T13:15:32Z</time>
      </trkpt>
      <trkpt lat="44.88414" lon="5.53568">
        <ele>1483</ele>
        <time>2014-02-23T13:15:37Z</time>
      </trkpt>
      <trkpt lat="44.88408" lon="5.53581">
        <ele>1479</ele>
        <time>2014-02-23T13:15:42Z</time>
      </trkpt>
      <trkpt lat="44.88413" lon="5.53609">
        <ele>1474</ele>
        <time>2014-02-23T13:15:47Z</time>
      </trkpt>
      <trkpt lat="44.88425" lon="5.53632">
        <ele>1467</ele>
        <time>2014-02-23T13:15:52Z</time>
      </trkpt>
      <trkpt lat="44.8844" lon="5.5365">
        <ele>1461</ele>
        <time>2014-02-23T13:15:57Z</time>
      </trkpt>
      <trkpt lat="44.88462" lon="5.53671">
        <ele>1457</ele>
        <time>2014-02-23T13:16:02Z</time>
      </trkpt>
      <trkpt lat="44.88463" lon="5.53673">
        <ele>1459</ele>
        <time>2014-02-23T13:16:07Z</time>
      </trkpt>
      <trkpt lat="44.88463" lon="5.53676">
        <ele>1458</ele>
        <time>2014-02-23T13:16:12Z</time>
      </trkpt>
      <trkpt lat="44.88465" lon="5.53676">
        <ele>1460</ele>
        <time>2014-02-23T13:16:17Z</time>
      </trkpt>
      <trkpt lat="44.88477" lon="5.53681">
        <ele>1461</ele>
        <time>2014-02-23T13:16:22Z</time>
      </trkpt>
      <trkpt lat="44.88485" lon="5.53695">
        <ele>1457</ele>
        <time>2014-02-23T13:16:27Z</time>
      </trkpt>
      <trkpt lat="44.88487" lon="5.53697">
        <ele>1454</ele>
        <time>2014-02-23T13:16:32Z</time>
      </trkpt>
      <trkpt lat="44.88491" lon="5.53701">
        <ele>1452</ele>
        <time>2014-02-23T13:16:37Z</time>
      </trkpt>
      <trkpt lat="44.88504" lon="5.53708">
        <ele>1445</ele>
        <time>2014-02-23T13:16:42Z</time>
      </trkpt>
      <trkpt lat="44.88518" lon="5.53727">
        <ele>1440</ele>
        <time>2014-02-23T13:16:47Z</time>
      </trkpt>
      <trkpt lat="44.88534" lon="5.53738">
        <ele>1429</ele>
        <time>2014-02-23T13:16:52Z</time>
      </trkpt>
      <trkpt lat="44.88543" lon="5.53738">
        <ele>1424</ele>
        <time>2014-02-23T13:16:57Z</time>
      </trkpt>
      <trkpt lat="44.88542" lon="5.53738">
        <ele>1422</ele>
        <time>2014-02-23T13:17:02Z</time>
      </trkpt>
      <trkpt lat="44.88541" lon="5.53738">
        <ele>1422</ele>
        <time>2014-02-23T13:17:07Z</time>
      </trkpt>
      <trkpt lat="44.88541" lon="5.53737">
        <ele>1422</ele>
        <time>2014-02-23T13:17:12Z</time>
      </trkpt>
      <trkpt lat="44.88541" lon="5.53737">
        <ele>1421</ele>
        <time>2014-02-23T13:17:17Z</time>
      </trkpt>
      <trkpt lat="44.88541" lon="5.53737">
        <ele>1420</ele>
        <time>2014-02-23T13:17:22Z</time>
      </trkpt>
      <trkpt lat="44.88541" lon="5.53736">
        <ele>1419</ele>
        <time>2014-02-23T13:17:27Z</time>
      </trkpt>
      <trkpt lat="44.88541" lon="5.53736">
        <ele>1419</ele>
        <time>2014-02-23T13:17:32Z</time>
      </trkpt>
      <trkpt lat="44.88541" lon="5.53736">
        <ele>1418</ele>
        <time>2014-02-23T13:17:37Z</time>
      </trkpt>
      <trkpt lat="44.88541" lon="5.53737">
        <ele>1417</ele>
        <time>2014-02-23T13:17:42Z</time>
      </trkpt>
      <trkpt lat="44.88541" lon="5.53736">
        <ele>1417</ele>
        <time>2014-02-23T13:17:47Z</time>
      </trkpt>
      <trkpt lat="44.88541" lon="5.53736">
        <ele>1417</ele>
        <time>2014-02-23T13:17:52Z</time>
      </trkpt>
      <trkpt lat="44.88541" lon="5.53736">
        <ele>1416</ele>
        <time>2014-02-23T13:17:57Z</time>
      </trkpt>
      <trkpt lat="44.88541" lon="5.53736">
        <ele>1416</ele>
        <time>2014-02-23T13:18:02Z</time>
      </trkpt>
      <trkpt lat="44.8854" lon="5.53738">
        <ele>1415</ele>
        <time>2014-02-23T13:18:07Z</time>
      </trkpt>
      <trkpt lat="44.8854" lon="5.53738">
        <ele>1414</ele>
        <time>2014-02-23T13:18:12Z</time>
      </trkpt>
      <trkpt lat="44.8854" lon="5.53737">
        <ele>1414</ele>
        <time>2014-02-23T13:18:17Z</time>
      </trkpt>
      <trkpt lat="44.88548" lon="5.53747">
        <ele>1412</ele>
        <time>2014-02-23T13:18:22Z</time>
      </trkpt>
      <trkpt lat="44.88567" lon="5.5376">
        <ele>1408</ele>
        <time>2014-02-23T13:18:27Z</time>
      </trkpt>
      <trkpt lat="44.88587" lon="5.5378">
        <ele>1403</ele>
        <time>2014-02-23T13:18:32Z</time>
      </trkpt>
      <trkpt lat="44.88613" lon="5.53799">
        <ele>1397</ele>
        <time>2014-02-23T13:18:37Z</time>
      </trkpt>
      <trkpt lat="44.88634" lon="5.53822">
        <ele>1390</ele>
        <time>2014-02-23T13:18:42Z</time>
      </trkpt>
      <trkpt lat="44.88655" lon="5.53851">
        <ele>1380</ele>
        <time>2014-02-23T13:18:47Z</time>
      </trkpt>
      <trkpt lat="44.88669" lon="5.5388">
        <ele>1372</ele>
        <time>2014-02-23T13:18:52Z</time>
      </trkpt>
      <trkpt lat="44.88683" lon="5.53895">
        <ele>1368</ele>
        <time>2014-02-23T13:18:57Z</time>
      </trkpt>
      <trkpt lat="44.88698" lon="5.53913">
        <ele>1366</ele>
        <time>2014-02-23T13:19:02Z</time>
      </trkpt>
      <trkpt lat="44.88711" lon="5.53927">
        <ele>1364</ele>
        <time>2014-02-23T13:19:07Z</time>
      </trkpt>
      <trkpt lat="44.8872" lon="5.5394">
        <ele>1364</ele>
        <time>2014-02-23T13:19:12Z</time>
      </trkpt>
      <trkpt lat="44.88719" lon="5.53938">
        <ele>1366</ele>
        <time>2014-02-23T13:19:17Z</time>
      </trkpt>
      <trkpt lat="44.88718" lon="5.53938">
        <ele>1368</ele>
        <time>2014-02-23T13:19:22Z</time>
      </trkpt>
      <trkpt lat="44.88718" lon="5.53938">
        <ele>1368</ele>
        <time>2014-02-23T13:19:27Z</time>
      </trkpt>
      <trkpt lat="44.88718" lon="5.53938">
        <ele>1368</ele>
        <time>2014-02-23T13:19:32Z</time>
      </trkpt>
      <trkpt lat="44.88718" lon="5.53938">
        <ele>1368</ele>
        <time>2014-02-23T13:19:37Z</time>
      </trkpt>
      <trkpt lat="44.88717" lon="5.53938">
        <ele>1367</ele>
        <time>2014-02-23T13:19:42Z</time>
      </trkpt>
      <trkpt lat="44.88717" lon="5.53938">
        <ele>1367</ele>
        <time>2014-02-23T13:19:47Z</time>
      </trkpt>
      <trkpt lat="44.88717" lon="5.53938">
        <ele>1366</ele>
        <time>2014-02-23T13:19:52Z</time>
      </trkpt>
      <trkpt lat="44.88717" lon="5.53938">
        <ele>1365</ele>
        <time>2014-02-23T13:19:57Z</time>
      </trkpt>
      <trkpt lat="44.88725" lon="5.53954">
        <ele>1361</ele>
        <time>2014-02-23T13:20:02Z</time>
      </trkpt>
      <trkpt lat="44.88731" lon="5.53977">
        <ele>1354</ele>
        <time>2014-02-23T13:20:07Z</time>
      </trkpt>
      <trkpt lat="44.88746" lon="5.5398">
        <ele>1347</ele>
        <time>2014-02-23T13:20:12Z</time>
      </trkpt>
      <trkpt lat="44.88768" lon="5.53979">
        <ele>1341</ele>
        <time>2014-02-23T13:20:17Z</time>
      </trkpt>
      <trkpt lat="44.88774" lon="5.53993">
        <ele>1335</ele>
        <time>2014-02-23T13:20:22Z</time>
      </trkpt>
      <trkpt lat="44.88788" lon="5.54001">
        <ele>1332</ele>
        <time>2014-02-23T13:20:27Z</time>
      </trkpt>
      <trkpt lat="44.88792" lon="5.54006">
        <ele>1329</ele>
        <time>2014-02-23T13:20:32Z</time>
      </trkpt>
      <trkpt lat="44.8881" lon="5.54022">
        <ele>1325</ele>
        <time>2014-02-23T13:20:37Z</time>
      </trkpt>
      <trkpt lat="44.88831" lon="5.54041">
        <ele>1324</ele>
        <time>2014-02-23T13:20:42Z</time>
      </trkpt>
      <trkpt lat="44.88849" lon="5.54065">
        <ele>1325</ele>
        <time>2014-02-23T13:20:47Z</time>
      </trkpt>
      <trkpt lat="44.88863" lon="5.54094">
        <ele>1320</ele>
        <time>2014-02-23T13:20:52Z</time>
      </trkpt>
      <trkpt lat="44.88854" lon="5.54114">
        <ele>1314</ele>
        <time>2014-02-23T13:20:57Z</time>
      </trkpt>
      <trkpt lat="44.8886" lon="5.54143">
        <ele>1308</ele>
        <time>2014-02-23T13:21:02Z</time>
      </trkpt>
      <trkpt lat="44.88862" lon="5.54181">
        <ele>1301</ele>
        <time>2014-02-23T13:21:07Z</time>
      </trkpt>
      <trkpt lat="44.88863" lon="5.5422">
        <ele>1295</ele>
        <time>2014-02-23T13:21:12Z</time>
      </trkpt>
      <trkpt lat="44.88867" lon="5.54262">
        <ele>1289</ele>
        <time>2014-02-23T13:21:17Z</time>
      </trkpt>
      <trkpt lat="44.88883" lon="5.54301">
        <ele>1284</ele>
        <time>2014-02-23T13:21:22Z</time>
      </trkpt>
      <trkpt lat="44.88893" lon="5.54369">
        <ele>1279</ele>
        <time>2014-02-23T13:21:31Z</time>
      </trkpt>
      <trkpt lat="44.88903" lon="5.54394">
        <ele>1276</ele>
        <time>2014-02-23T13:21:36Z</time>
      </trkpt>
      <trkpt lat="44.88919" lon="5.54405">
        <ele>1274</ele>
        <time>2014-02-23T13:21:41Z</time>
      </trkpt>
      <trkpt lat="44.88934" lon="5.54415">
        <ele>1272</ele>
        <time>2014-02-23T13:21:46Z</time>
      </trkpt>
      <trkpt lat="44.88948" lon="5.54422">
        <ele>1271</ele>
        <time>2014-02-23T13:21:51Z</time>
      </trkpt>
      <trkpt lat="44.88959" lon="5.54427">
        <ele>1270</ele>
        <time>2014-02-23T13:21:56Z</time>
      </trkpt>
      <trkpt lat="44.88968" lon="5.54428">
        <ele>1269</ele>
        <time>2014-02-23T13:22:01Z</time>
      </trkpt>
      <trkpt lat="44.88977" lon="5.54425">
        <ele>1269</ele>
        <time>2014-02-23T13:22:06Z</time>
      </trkpt>
      <trkpt lat="44.88984" lon="5.54427">
        <ele>1269</ele>
        <time>2014-02-23T13:22:11Z</time>
      </trkpt>
      <trkpt lat="44.88995" lon="5.54428">
        <ele>1269</ele>
        <time>2014-02-23T13:22:16Z</time>
      </trkpt>
      <trkpt lat="44.89006" lon="5.54428">
        <ele>1268</ele>
        <time>2014-02-23T13:22:21Z</time>
      </trkpt>
      <trkpt lat="44.89016" lon="5.54431">
        <ele>1267</ele>
        <time>2014-02-23T13:22:26Z</time>
      </trkpt>
      <trkpt lat="44.89024" lon="5.54438">
        <ele>1266</ele>
        <time>2014-02-23T13:22:31Z</time>
      </trkpt>
      <trkpt lat="44.89037" lon="5.54466">
        <ele>1262</ele>
        <time>2014-02-23T13:22:36Z</time>
      </trkpt>
      <trkpt lat="44.89043" lon="5.54501">
        <ele>1260</ele>
        <time>2014-02-23T13:22:41Z</time>
      </trkpt>
      <trkpt lat="44.89046" lon="5.54523">
        <ele>1259</ele>
        <time>2014-02-23T13:22:46Z</time>
      </trkpt>
      <trkpt lat="44.89046" lon="5.54542">
        <ele>1259</ele>
        <time>2014-02-23T13:22:51Z</time>
      </trkpt>
      <trkpt lat="44.89046" lon="5.5456">
        <ele>1258</ele>
        <time>2014-02-23T13:22:56Z</time>
      </trkpt>
      <trkpt lat="44.89047" lon="5.54588">
        <ele>1256</ele>
        <time>2014-02-23T13:23:01Z</time>
      </trkpt>
      <trkpt lat="44.89052" lon="5.54615">
        <ele>1255</ele>
        <time>2014-02-23T13:23:06Z</time>
      </trkpt>
      <trkpt lat="44.89063" lon="5.5464">
        <ele>1253</ele>
        <time>2014-02-23T13:23:11Z</time>
      </trkpt>
      <trkpt lat="44.89085" lon="5.54653">
        <ele>1252</ele>
        <time>2014-02-23T13:23:16Z</time>
      </trkpt>
      <trkpt lat="44.89097" lon="5.54661">
        <ele>1251</ele>
        <time>2014-02-23T13:23:21Z</time>
      </trkpt>
      <trkpt lat="44.8911" lon="5.5467">
        <ele>1251</ele>
        <time>2014-02-23T13:23:26Z</time>
      </trkpt>
      <trkpt lat="44.89123" lon="5.5468">
        <ele>1251</ele>
        <time>2014-02-23T13:23:31Z</time>
      </trkpt>
      <trkpt lat="44.89136" lon="5.54689">
        <ele>1250</ele>
        <time>2014-02-23T13:23:36Z</time>
      </trkpt>
      <trkpt lat="44.8915" lon="5.547">
        <ele>1249</ele>
        <time>2014-02-23T13:23:41Z</time>
      </trkpt>
      <trkpt lat="44.89163" lon="5.5471">
        <ele>1249</ele>
        <time>2014-02-23T13:23:46Z</time>
      </trkpt>
      <trkpt lat="44.89169" lon="5.54726">
        <ele>1249</ele>
        <time>2014-02-23T13:23:51Z</time>
      </trkpt>
      <trkpt lat="44.89169" lon="5.54737">
        <ele>1249</ele>
        <time>2014-02-23T13:23:56Z</time>
      </trkpt>
      <trkpt lat="44.89169" lon="5.54744">
        <ele>1249</ele>
        <time>2014-02-23T13:24:01Z</time>
      </trkpt>
      <trkpt lat="44.89168" lon="5.54746">
        <ele>1249</ele>
        <time>2014-02-23T13:24:06Z</time>
      </trkpt>
      <trkpt lat="44.89168" lon="5.54745">
        <ele>1248</ele>
        <time>2014-02-23T13:24:11Z</time>
      </trkpt>
      <trkpt lat="44.89168" lon="5.54745">
        <ele>1248</ele>
        <time>2014-02-23T13:24:16Z</time>
      </trkpt>
      <trkpt lat="44.89168" lon="5.54745">
        <ele>1248</ele>
        <time>2014-02-23T13:24:21Z</time>
      </trkpt>
      <trkpt lat="44.89168" lon="5.54745">
        <ele>1248</ele>
        <time>2014-02-23T13:24:26Z</time>
      </trkpt>
      <trkpt lat="44.89168" lon="5.54746">
        <ele>1249</ele>
        <time>2014-02-23T13:24:31Z</time>
      </trkpt>
      <trkpt lat="44.89169" lon="5.54746">
        <ele>1250</ele>
        <time>2014-02-23T13:24:36Z</time>
      </trkpt>
      <trkpt lat="44.89171" lon="5.54749">
        <ele>1249</ele>
        <time>2014-02-23T13:24:41Z</time>
      </trkpt>
      <trkpt lat="44.89174" lon="5.54752">
        <ele>1249</ele>
        <time>2014-02-23T13:24:46Z</time>
      </trkpt>
      <trkpt lat="44.89173" lon="5.54755">
        <ele>1250</ele>
        <time>2014-02-23T13:24:51Z</time>
      </trkpt>
      <trkpt lat="44.89173" lon="5.54756">
        <ele>1250</ele>
        <time>2014-02-23T13:24:56Z</time>
      </trkpt>
      <trkpt lat="44.89175" lon="5.54754">
        <ele>1250</ele>
        <time>2014-02-23T13:25:01Z</time>
      </trkpt>
      <trkpt lat="44.8918" lon="5.54753">
        <ele>1250</ele>
        <time>2014-02-23T13:25:06Z</time>
      </trkpt>
      <trkpt lat="44.89185" lon="5.54751">
        <ele>1250</ele>
        <time>2014-02-23T13:25:11Z</time>
      </trkpt>
      <trkpt lat="44.89191" lon="5.54748">
        <ele>1250</ele>
        <time>2014-02-23T13:25:16Z</time>
      </trkpt>
      <trkpt lat="44.89198" lon="5.54746">
        <ele>1250</ele>
        <time>2014-02-23T13:25:21Z</time>
      </trkpt>
      <trkpt lat="44.89204" lon="5.54746">
        <ele>1250</ele>
        <time>2014-02-23T13:25:26Z</time>
      </trkpt>
      <trkpt lat="44.8921" lon="5.5475">
        <ele>1250</ele>
        <time>2014-02-23T13:25:31Z</time>
      </trkpt>
      <trkpt lat="44.89216" lon="5.54755">
        <ele>1250</ele>
        <time>2014-02-23T13:25:36Z</time>
      </trkpt>
      <trkpt lat="44.89218" lon="5.54763">
        <ele>1250</ele>
        <time>2014-02-23T13:25:41Z</time>
      </trkpt>
      <trkpt lat="44.89218" lon="5.54764">
        <ele>1250</ele>
        <time>2014-02-23T13:25:46Z</time>
      </trkpt>
      <trkpt lat="44.89218" lon="5.54764">
        <ele>1250</ele>
        <time>2014-02-23T13:25:51Z</time>
      </trkpt>
      <trkpt lat="44.89218" lon="5.54764">
        <ele>1249</ele>
        <time>2014-02-23T13:25:56Z</time>
      </trkpt>
      <trkpt lat="44.89219" lon="5.54763">
        <ele>1250</ele>
        <time>2014-02-23T13:26:01Z</time>
      </trkpt>
      <trkpt lat="44.8922" lon="5.54763">
        <ele>1250</ele>
        <time>2014-02-23T13:26:06Z</time>
      </trkpt>
      <trkpt lat="44.8922" lon="5.54763">
        <ele>1250</ele>
        <time>2014-02-23T13:26:11Z</time>
      </trkpt>
      <trkpt lat="44.8922" lon="5.54763">
        <ele>1250</ele>
        <time>2014-02-23T13:26:16Z</time>
      </trkpt>
      <trkpt lat="44.8922" lon="5.54764">
        <ele>1250</ele>
        <time>2014-02-23T13:26:21Z</time>
      </trkpt>
    </trkseg>
  </trk>
</gpx>